<?xml version="1.0" encoding="UTF-8" standalone="no" ?>
<gpx xmlns="http://www.topografix.com/GPX/1/1" xmlns:xsi="http://www.w3.org/2001/XMLSchema-instance" xsi:schemaLocation="http://www.topografix.com/GPX/1/1 http://www.topografix.com/GPX/1/1/gpx.xsd" version="1.1" creator="VisuGPX - https://www.visugpx.com">
  <metadata>
    <name>Obersteigen</name>
    <desc><![CDATA[Obersteigen-Schleiff-Welchbach-Windsburg Urstein
  803m réel]]></desc>
  </metadata>
  <trk>
    <name><![CDATA[Chronom. 14-AVR-13 08:07:35]]></name>
    <trkseg>
      <trkpt lat="48.64229" lon="7.30578">
        <ele>465.9</ele>
        <time>2013-04-14T06:07:35Z</time>
      </trkpt>
      <trkpt lat="48.64228" lon="7.30578">
        <ele>464.93</ele>
        <time>2013-04-14T06:07:40Z</time>
      </trkpt>
      <trkpt lat="48.64221" lon="7.30578">
        <ele>464.93</ele>
        <time>2013-04-14T06:07:44Z</time>
      </trkpt>
      <trkpt lat="48.64184" lon="7.30572">
        <ele>465.9</ele>
        <time>2013-04-14T06:07:59Z</time>
      </trkpt>
      <trkpt lat="48.64169" lon="7.30572">
        <ele>466.38</ele>
        <time>2013-04-14T06:08:06Z</time>
      </trkpt>
      <trkpt lat="48.64171" lon="7.30553">
        <ele>467.34</ele>
        <time>2013-04-14T06:08:13Z</time>
      </trkpt>
      <trkpt lat="48.64188" lon="7.30486">
        <ele>471.18</ele>
        <time>2013-04-14T06:08:32Z</time>
      </trkpt>
      <trkpt lat="48.64189" lon="7.30482">
        <ele>471.18</ele>
        <time>2013-04-14T06:08:33Z</time>
      </trkpt>
      <trkpt lat="48.64197" lon="7.30426">
        <ele>472.14</ele>
        <time>2013-04-14T06:08:48Z</time>
      </trkpt>
      <trkpt lat="48.64192" lon="7.30382">
        <ele>474.07</ele>
        <time>2013-04-14T06:09:00Z</time>
      </trkpt>
      <trkpt lat="48.64175" lon="7.3032">
        <ele>475.99</ele>
        <time>2013-04-14T06:09:17Z</time>
      </trkpt>
      <trkpt lat="48.64167" lon="7.30302">
        <ele>475.03</ele>
        <time>2013-04-14T06:09:21Z</time>
      </trkpt>
      <trkpt lat="48.64162" lon="7.30283">
        <ele>474.07</ele>
        <time>2013-04-14T06:09:24Z</time>
      </trkpt>
      <trkpt lat="48.64159" lon="7.30263">
        <ele>473.59</ele>
        <time>2013-04-14T06:09:27Z</time>
      </trkpt>
      <trkpt lat="48.64158" lon="7.30256">
        <ele>473.59</ele>
        <time>2013-04-14T06:09:28Z</time>
      </trkpt>
      <trkpt lat="48.64155" lon="7.30235">
        <ele>472.63</ele>
        <time>2013-04-14T06:09:31Z</time>
      </trkpt>
      <trkpt lat="48.64154" lon="7.30228">
        <ele>472.14</ele>
        <time>2013-04-14T06:09:32Z</time>
      </trkpt>
      <trkpt lat="48.64147" lon="7.30196">
        <ele>472.63</ele>
        <time>2013-04-14T06:09:36Z</time>
      </trkpt>
      <trkpt lat="48.64145" lon="7.30189">
        <ele>471.66</ele>
        <time>2013-04-14T06:09:37Z</time>
      </trkpt>
      <trkpt lat="48.64138" lon="7.30165">
        <ele>470.7</ele>
        <time>2013-04-14T06:09:40Z</time>
      </trkpt>
      <trkpt lat="48.64137" lon="7.30158">
        <ele>470.22</ele>
        <time>2013-04-14T06:09:41Z</time>
      </trkpt>
      <trkpt lat="48.64118" lon="7.30087">
        <ele>469.26</ele>
        <time>2013-04-14T06:09:51Z</time>
      </trkpt>
      <trkpt lat="48.64113" lon="7.30043">
        <ele>468.78</ele>
        <time>2013-04-14T06:09:58Z</time>
      </trkpt>
      <trkpt lat="48.64114" lon="7.30029">
        <ele>468.78</ele>
        <time>2013-04-14T06:10:00Z</time>
      </trkpt>
      <trkpt lat="48.64114" lon="7.30023">
        <ele>468.78</ele>
        <time>2013-04-14T06:10:01Z</time>
      </trkpt>
      <trkpt lat="48.64114" lon="7.30016">
        <ele>468.78</ele>
        <time>2013-04-14T06:10:02Z</time>
      </trkpt>
      <trkpt lat="48.64114" lon="7.30009">
        <ele>468.78</ele>
        <time>2013-04-14T06:10:03Z</time>
      </trkpt>
      <trkpt lat="48.64114" lon="7.30003">
        <ele>468.78</ele>
        <time>2013-04-14T06:10:04Z</time>
      </trkpt>
      <trkpt lat="48.64115" lon="7.29996">
        <ele>468.78</ele>
        <time>2013-04-14T06:10:05Z</time>
      </trkpt>
      <trkpt lat="48.64115" lon="7.2999">
        <ele>469.26</ele>
        <time>2013-04-14T06:10:06Z</time>
      </trkpt>
      <trkpt lat="48.64116" lon="7.29984">
        <ele>469.26</ele>
        <time>2013-04-14T06:10:07Z</time>
      </trkpt>
      <trkpt lat="48.64117" lon="7.29979">
        <ele>469.26</ele>
        <time>2013-04-14T06:10:08Z</time>
      </trkpt>
      <trkpt lat="48.64118" lon="7.29973">
        <ele>469.26</ele>
        <time>2013-04-14T06:10:09Z</time>
      </trkpt>
      <trkpt lat="48.64119" lon="7.29967">
        <ele>469.74</ele>
        <time>2013-04-14T06:10:10Z</time>
      </trkpt>
      <trkpt lat="48.64119" lon="7.29961">
        <ele>469.26</ele>
        <time>2013-04-14T06:10:11Z</time>
      </trkpt>
      <trkpt lat="48.64132" lon="7.29915">
        <ele>470.7</ele>
        <time>2013-04-14T06:10:21Z</time>
      </trkpt>
      <trkpt lat="48.64139" lon="7.29864">
        <ele>470.7</ele>
        <time>2013-04-14T06:10:30Z</time>
      </trkpt>
      <trkpt lat="48.64146" lon="7.29815">
        <ele>471.18</ele>
        <time>2013-04-14T06:10:39Z</time>
      </trkpt>
      <trkpt lat="48.64149" lon="7.29756">
        <ele>472.14</ele>
        <time>2013-04-14T06:10:50Z</time>
      </trkpt>
      <trkpt lat="48.64133" lon="7.29724">
        <ele>472.14</ele>
        <time>2013-04-14T06:10:56Z</time>
      </trkpt>
      <trkpt lat="48.64129" lon="7.29721">
        <ele>472.63</ele>
        <time>2013-04-14T06:10:57Z</time>
      </trkpt>
      <trkpt lat="48.64124" lon="7.29719">
        <ele>472.63</ele>
        <time>2013-04-14T06:10:58Z</time>
      </trkpt>
      <trkpt lat="48.6412" lon="7.29717">
        <ele>472.63</ele>
        <time>2013-04-14T06:10:59Z</time>
      </trkpt>
      <trkpt lat="48.64116" lon="7.29716">
        <ele>472.63</ele>
        <time>2013-04-14T06:11:00Z</time>
      </trkpt>
      <trkpt lat="48.64113" lon="7.29715">
        <ele>473.11</ele>
        <time>2013-04-14T06:11:01Z</time>
      </trkpt>
      <trkpt lat="48.64077" lon="7.29723">
        <ele>474.07</ele>
        <time>2013-04-14T06:11:11Z</time>
      </trkpt>
      <trkpt lat="48.64067" lon="7.29731">
        <ele>474.07</ele>
        <time>2013-04-14T06:11:14Z</time>
      </trkpt>
      <trkpt lat="48.64063" lon="7.29734">
        <ele>474.07</ele>
        <time>2013-04-14T06:11:15Z</time>
      </trkpt>
      <trkpt lat="48.6403" lon="7.2975">
        <ele>474.07</ele>
        <time>2013-04-14T06:11:23Z</time>
      </trkpt>
      <trkpt lat="48.64025" lon="7.29752">
        <ele>473.59</ele>
        <time>2013-04-14T06:11:24Z</time>
      </trkpt>
      <trkpt lat="48.64015" lon="7.29757">
        <ele>474.07</ele>
        <time>2013-04-14T06:11:26Z</time>
      </trkpt>
      <trkpt lat="48.64011" lon="7.2976">
        <ele>474.07</ele>
        <time>2013-04-14T06:11:27Z</time>
      </trkpt>
      <trkpt lat="48.64007" lon="7.29762">
        <ele>474.07</ele>
        <time>2013-04-14T06:11:28Z</time>
      </trkpt>
      <trkpt lat="48.64003" lon="7.29766">
        <ele>474.07</ele>
        <time>2013-04-14T06:11:29Z</time>
      </trkpt>
      <trkpt lat="48.63999" lon="7.2977">
        <ele>474.07</ele>
        <time>2013-04-14T06:11:30Z</time>
      </trkpt>
      <trkpt lat="48.63995" lon="7.29773">
        <ele>474.07</ele>
        <time>2013-04-14T06:11:31Z</time>
      </trkpt>
      <trkpt lat="48.63991" lon="7.29776">
        <ele>474.07</ele>
        <time>2013-04-14T06:11:32Z</time>
      </trkpt>
      <trkpt lat="48.63987" lon="7.29778">
        <ele>474.07</ele>
        <time>2013-04-14T06:11:33Z</time>
      </trkpt>
      <trkpt lat="48.63983" lon="7.2978">
        <ele>474.07</ele>
        <time>2013-04-14T06:11:34Z</time>
      </trkpt>
      <trkpt lat="48.63979" lon="7.29782">
        <ele>474.07</ele>
        <time>2013-04-14T06:11:35Z</time>
      </trkpt>
      <trkpt lat="48.63975" lon="7.29784">
        <ele>474.07</ele>
        <time>2013-04-14T06:11:36Z</time>
      </trkpt>
      <trkpt lat="48.63971" lon="7.29786">
        <ele>475.51</ele>
        <time>2013-04-14T06:11:37Z</time>
      </trkpt>
      <trkpt lat="48.63967" lon="7.29789">
        <ele>474.55</ele>
        <time>2013-04-14T06:11:38Z</time>
      </trkpt>
      <trkpt lat="48.63917" lon="7.2983">
        <ele>475.99</ele>
        <time>2013-04-14T06:11:53Z</time>
      </trkpt>
      <trkpt lat="48.63875" lon="7.29871">
        <ele>478.39</ele>
        <time>2013-04-14T06:12:08Z</time>
      </trkpt>
      <trkpt lat="48.63851" lon="7.29892">
        <ele>481.28</ele>
        <time>2013-04-14T06:12:17Z</time>
      </trkpt>
      <trkpt lat="48.63849" lon="7.29895">
        <ele>481.28</ele>
        <time>2013-04-14T06:12:18Z</time>
      </trkpt>
      <trkpt lat="48.63846" lon="7.29897">
        <ele>481.76</ele>
        <time>2013-04-14T06:12:19Z</time>
      </trkpt>
      <trkpt lat="48.63815" lon="7.29917">
        <ele>484.64</ele>
        <time>2013-04-14T06:12:31Z</time>
      </trkpt>
      <trkpt lat="48.63785" lon="7.29925">
        <ele>486.56</ele>
        <time>2013-04-14T06:12:45Z</time>
      </trkpt>
      <trkpt lat="48.63754" lon="7.29905">
        <ele>488.49</ele>
        <time>2013-04-14T06:12:59Z</time>
      </trkpt>
      <trkpt lat="48.63728" lon="7.29872">
        <ele>489.93</ele>
        <time>2013-04-14T06:13:13Z</time>
      </trkpt>
      <trkpt lat="48.63713" lon="7.29832">
        <ele>490.41</ele>
        <time>2013-04-14T06:13:24Z</time>
      </trkpt>
      <trkpt lat="48.63701" lon="7.2978">
        <ele>490.41</ele>
        <time>2013-04-14T06:13:35Z</time>
      </trkpt>
      <trkpt lat="48.63691" lon="7.29745">
        <ele>490.41</ele>
        <time>2013-04-14T06:13:42Z</time>
      </trkpt>
      <trkpt lat="48.63674" lon="7.29697">
        <ele>490.89</ele>
        <time>2013-04-14T06:13:53Z</time>
      </trkpt>
      <trkpt lat="48.63659" lon="7.29632">
        <ele>490.89</ele>
        <time>2013-04-14T06:14:06Z</time>
      </trkpt>
      <trkpt lat="48.6365" lon="7.29577">
        <ele>490.41</ele>
        <time>2013-04-14T06:14:16Z</time>
      </trkpt>
      <trkpt lat="48.63645" lon="7.29521">
        <ele>491.37</ele>
        <time>2013-04-14T06:14:27Z</time>
      </trkpt>
      <trkpt lat="48.63646" lon="7.29475">
        <ele>490.89</ele>
        <time>2013-04-14T06:14:37Z</time>
      </trkpt>
      <trkpt lat="48.63651" lon="7.29419">
        <ele>490.41</ele>
        <time>2013-04-14T06:14:47Z</time>
      </trkpt>
      <trkpt lat="48.63662" lon="7.29366">
        <ele>489.93</ele>
        <time>2013-04-14T06:14:57Z</time>
      </trkpt>
      <trkpt lat="48.63683" lon="7.29314">
        <ele>489.45</ele>
        <time>2013-04-14T06:15:07Z</time>
      </trkpt>
      <trkpt lat="48.63709" lon="7.2927">
        <ele>489.93</ele>
        <time>2013-04-14T06:15:18Z</time>
      </trkpt>
      <trkpt lat="48.63733" lon="7.29238">
        <ele>490.89</ele>
        <time>2013-04-14T06:15:28Z</time>
      </trkpt>
      <trkpt lat="48.63767" lon="7.29201">
        <ele>490.89</ele>
        <time>2013-04-14T06:15:38Z</time>
      </trkpt>
      <trkpt lat="48.63784" lon="7.2918">
        <ele>490.41</ele>
        <time>2013-04-14T06:15:43Z</time>
      </trkpt>
      <trkpt lat="48.63813" lon="7.29134">
        <ele>490.41</ele>
        <time>2013-04-14T06:15:54Z</time>
      </trkpt>
      <trkpt lat="48.63819" lon="7.29126">
        <ele>490.41</ele>
        <time>2013-04-14T06:15:56Z</time>
      </trkpt>
      <trkpt lat="48.63848" lon="7.29082">
        <ele>490.41</ele>
        <time>2013-04-14T06:16:07Z</time>
      </trkpt>
      <trkpt lat="48.63876" lon="7.29033">
        <ele>490.89</ele>
        <time>2013-04-14T06:16:18Z</time>
      </trkpt>
      <trkpt lat="48.63881" lon="7.29024">
        <ele>490.89</ele>
        <time>2013-04-14T06:16:20Z</time>
      </trkpt>
      <trkpt lat="48.63883" lon="7.29021">
        <ele>490.89</ele>
        <time>2013-04-14T06:16:21Z</time>
      </trkpt>
      <trkpt lat="48.63885" lon="7.29016">
        <ele>490.89</ele>
        <time>2013-04-14T06:16:22Z</time>
      </trkpt>
      <trkpt lat="48.63906" lon="7.28979">
        <ele>491.85</ele>
        <time>2013-04-14T06:16:32Z</time>
      </trkpt>
      <trkpt lat="48.63921" lon="7.28943">
        <ele>492.33</ele>
        <time>2013-04-14T06:16:41Z</time>
      </trkpt>
      <trkpt lat="48.63928" lon="7.28893">
        <ele>493.29</ele>
        <time>2013-04-14T06:16:50Z</time>
      </trkpt>
      <trkpt lat="48.63925" lon="7.28889">
        <ele>493.29</ele>
        <time>2013-04-14T06:16:51Z</time>
      </trkpt>
      <trkpt lat="48.63922" lon="7.28885">
        <ele>493.29</ele>
        <time>2013-04-14T06:16:52Z</time>
      </trkpt>
      <trkpt lat="48.63919" lon="7.28881">
        <ele>493.77</ele>
        <time>2013-04-14T06:16:53Z</time>
      </trkpt>
      <trkpt lat="48.63915" lon="7.28879">
        <ele>493.77</ele>
        <time>2013-04-14T06:16:54Z</time>
      </trkpt>
      <trkpt lat="48.63878" lon="7.2888">
        <ele>495.22</ele>
        <time>2013-04-14T06:17:05Z</time>
      </trkpt>
      <trkpt lat="48.63845" lon="7.28881">
        <ele>495.7</ele>
        <time>2013-04-14T06:17:15Z</time>
      </trkpt>
      <trkpt lat="48.63841" lon="7.28882">
        <ele>495.7</ele>
        <time>2013-04-14T06:17:16Z</time>
      </trkpt>
      <trkpt lat="48.63838" lon="7.28883">
        <ele>495.22</ele>
        <time>2013-04-14T06:17:17Z</time>
      </trkpt>
      <trkpt lat="48.63833" lon="7.28884">
        <ele>495.22</ele>
        <time>2013-04-14T06:17:18Z</time>
      </trkpt>
      <trkpt lat="48.63829" lon="7.28886">
        <ele>495.22</ele>
        <time>2013-04-14T06:17:19Z</time>
      </trkpt>
      <trkpt lat="48.63817" lon="7.28891">
        <ele>495.22</ele>
        <time>2013-04-14T06:17:22Z</time>
      </trkpt>
      <trkpt lat="48.63813" lon="7.28893">
        <ele>495.22</ele>
        <time>2013-04-14T06:17:23Z</time>
      </trkpt>
      <trkpt lat="48.63809" lon="7.28894">
        <ele>495.22</ele>
        <time>2013-04-14T06:17:24Z</time>
      </trkpt>
      <trkpt lat="48.63806" lon="7.28895">
        <ele>494.74</ele>
        <time>2013-04-14T06:17:25Z</time>
      </trkpt>
      <trkpt lat="48.63802" lon="7.28896">
        <ele>494.74</ele>
        <time>2013-04-14T06:17:26Z</time>
      </trkpt>
      <trkpt lat="48.63798" lon="7.28897">
        <ele>494.74</ele>
        <time>2013-04-14T06:17:27Z</time>
      </trkpt>
      <trkpt lat="48.6379" lon="7.28898">
        <ele>494.26</ele>
        <time>2013-04-14T06:17:29Z</time>
      </trkpt>
      <trkpt lat="48.63785" lon="7.28899">
        <ele>494.74</ele>
        <time>2013-04-14T06:17:30Z</time>
      </trkpt>
      <trkpt lat="48.63772" lon="7.289">
        <ele>494.74</ele>
        <time>2013-04-14T06:17:33Z</time>
      </trkpt>
      <trkpt lat="48.63768" lon="7.28901">
        <ele>494.74</ele>
        <time>2013-04-14T06:17:34Z</time>
      </trkpt>
      <trkpt lat="48.63764" lon="7.28901">
        <ele>494.26</ele>
        <time>2013-04-14T06:17:35Z</time>
      </trkpt>
      <trkpt lat="48.63746" lon="7.28903">
        <ele>493.77</ele>
        <time>2013-04-14T06:17:39Z</time>
      </trkpt>
      <trkpt lat="48.63741" lon="7.28902">
        <ele>495.22</ele>
        <time>2013-04-14T06:17:40Z</time>
      </trkpt>
      <trkpt lat="48.63737" lon="7.28903">
        <ele>494.74</ele>
        <time>2013-04-14T06:17:41Z</time>
      </trkpt>
      <trkpt lat="48.63727" lon="7.28902">
        <ele>494.26</ele>
        <time>2013-04-14T06:17:43Z</time>
      </trkpt>
      <trkpt lat="48.63716" lon="7.28904">
        <ele>494.26</ele>
        <time>2013-04-14T06:17:45Z</time>
      </trkpt>
      <trkpt lat="48.63685" lon="7.28911">
        <ele>493.77</ele>
        <time>2013-04-14T06:17:51Z</time>
      </trkpt>
      <trkpt lat="48.63665" lon="7.28914">
        <ele>493.29</ele>
        <time>2013-04-14T06:17:55Z</time>
      </trkpt>
      <trkpt lat="48.63643" lon="7.28919">
        <ele>492.33</ele>
        <time>2013-04-14T06:17:59Z</time>
      </trkpt>
      <trkpt lat="48.63631" lon="7.28921">
        <ele>491.85</ele>
        <time>2013-04-14T06:18:01Z</time>
      </trkpt>
      <trkpt lat="48.636" lon="7.28932">
        <ele>489.45</ele>
        <time>2013-04-14T06:18:06Z</time>
      </trkpt>
      <trkpt lat="48.63575" lon="7.28946">
        <ele>487.53</ele>
        <time>2013-04-14T06:18:11Z</time>
      </trkpt>
      <trkpt lat="48.63569" lon="7.28948">
        <ele>487.05</ele>
        <time>2013-04-14T06:18:12Z</time>
      </trkpt>
      <trkpt lat="48.63563" lon="7.28948">
        <ele>486.56</ele>
        <time>2013-04-14T06:18:13Z</time>
      </trkpt>
      <trkpt lat="48.63556" lon="7.28947">
        <ele>486.08</ele>
        <time>2013-04-14T06:18:14Z</time>
      </trkpt>
      <trkpt lat="48.6355" lon="7.28945">
        <ele>485.6</ele>
        <time>2013-04-14T06:18:15Z</time>
      </trkpt>
      <trkpt lat="48.63544" lon="7.28943">
        <ele>485.6</ele>
        <time>2013-04-14T06:18:16Z</time>
      </trkpt>
      <trkpt lat="48.63539" lon="7.2894">
        <ele>485.12</ele>
        <time>2013-04-14T06:18:17Z</time>
      </trkpt>
      <trkpt lat="48.63536" lon="7.28936">
        <ele>484.64</ele>
        <time>2013-04-14T06:18:18Z</time>
      </trkpt>
      <trkpt lat="48.63532" lon="7.28933">
        <ele>484.64</ele>
        <time>2013-04-14T06:18:19Z</time>
      </trkpt>
      <trkpt lat="48.63528" lon="7.2893">
        <ele>484.16</ele>
        <time>2013-04-14T06:18:20Z</time>
      </trkpt>
      <trkpt lat="48.63524" lon="7.28926">
        <ele>484.16</ele>
        <time>2013-04-14T06:18:21Z</time>
      </trkpt>
      <trkpt lat="48.63517" lon="7.28915">
        <ele>483.2</ele>
        <time>2013-04-14T06:18:23Z</time>
      </trkpt>
      <trkpt lat="48.63514" lon="7.28908">
        <ele>483.2</ele>
        <time>2013-04-14T06:18:24Z</time>
      </trkpt>
      <trkpt lat="48.63511" lon="7.28901">
        <ele>482.72</ele>
        <time>2013-04-14T06:18:25Z</time>
      </trkpt>
      <trkpt lat="48.63504" lon="7.28886">
        <ele>481.76</ele>
        <time>2013-04-14T06:18:27Z</time>
      </trkpt>
      <trkpt lat="48.63501" lon="7.28877">
        <ele>481.28</ele>
        <time>2013-04-14T06:18:28Z</time>
      </trkpt>
      <trkpt lat="48.63499" lon="7.28867">
        <ele>480.8</ele>
        <time>2013-04-14T06:18:29Z</time>
      </trkpt>
      <trkpt lat="48.63493" lon="7.28846">
        <ele>479.84</ele>
        <time>2013-04-14T06:18:31Z</time>
      </trkpt>
      <trkpt lat="48.63489" lon="7.28835">
        <ele>479.35</ele>
        <time>2013-04-14T06:18:32Z</time>
      </trkpt>
      <trkpt lat="48.63486" lon="7.28824">
        <ele>478.87</ele>
        <time>2013-04-14T06:18:33Z</time>
      </trkpt>
      <trkpt lat="48.63483" lon="7.28812">
        <ele>477.91</ele>
        <time>2013-04-14T06:18:34Z</time>
      </trkpt>
      <trkpt lat="48.63481" lon="7.28801">
        <ele>476.95</ele>
        <time>2013-04-14T06:18:35Z</time>
      </trkpt>
      <trkpt lat="48.63476" lon="7.28776">
        <ele>474.55</ele>
        <time>2013-04-14T06:18:37Z</time>
      </trkpt>
      <trkpt lat="48.63471" lon="7.28724">
        <ele>472.14</ele>
        <time>2013-04-14T06:18:41Z</time>
      </trkpt>
      <trkpt lat="48.63466" lon="7.28699">
        <ele>470.7</ele>
        <time>2013-04-14T06:18:43Z</time>
      </trkpt>
      <trkpt lat="48.63463" lon="7.28688">
        <ele>469.74</ele>
        <time>2013-04-14T06:18:44Z</time>
      </trkpt>
      <trkpt lat="48.63459" lon="7.28679">
        <ele>469.26</ele>
        <time>2013-04-14T06:18:45Z</time>
      </trkpt>
      <trkpt lat="48.63453" lon="7.28673">
        <ele>468.78</ele>
        <time>2013-04-14T06:18:46Z</time>
      </trkpt>
      <trkpt lat="48.63447" lon="7.28671">
        <ele>468.3</ele>
        <time>2013-04-14T06:18:47Z</time>
      </trkpt>
      <trkpt lat="48.63441" lon="7.28671">
        <ele>468.3</ele>
        <time>2013-04-14T06:18:48Z</time>
      </trkpt>
      <trkpt lat="48.63434" lon="7.28671">
        <ele>468.3</ele>
        <time>2013-04-14T06:18:49Z</time>
      </trkpt>
      <trkpt lat="48.63428" lon="7.28672">
        <ele>468.3</ele>
        <time>2013-04-14T06:18:50Z</time>
      </trkpt>
      <trkpt lat="48.63404" lon="7.28681">
        <ele>467.82</ele>
        <time>2013-04-14T06:18:54Z</time>
      </trkpt>
      <trkpt lat="48.63386" lon="7.28693">
        <ele>467.82</ele>
        <time>2013-04-14T06:18:58Z</time>
      </trkpt>
      <trkpt lat="48.63381" lon="7.28695">
        <ele>467.82</ele>
        <time>2013-04-14T06:18:59Z</time>
      </trkpt>
      <trkpt lat="48.63355" lon="7.28697">
        <ele>468.3</ele>
        <time>2013-04-14T06:19:05Z</time>
      </trkpt>
      <trkpt lat="48.63352" lon="7.28693">
        <ele>468.78</ele>
        <time>2013-04-14T06:19:06Z</time>
      </trkpt>
      <trkpt lat="48.63351" lon="7.28689">
        <ele>469.26</ele>
        <time>2013-04-14T06:19:07Z</time>
      </trkpt>
      <trkpt lat="48.63351" lon="7.28687">
        <ele>470.22</ele>
        <time>2013-04-14T06:19:08Z</time>
      </trkpt>
      <trkpt lat="48.6335" lon="7.28684">
        <ele>471.66</ele>
        <time>2013-04-14T06:19:10Z</time>
      </trkpt>
      <trkpt lat="48.6335" lon="7.28681">
        <ele>471.66</ele>
        <time>2013-04-14T06:19:11Z</time>
      </trkpt>
      <trkpt lat="48.63348" lon="7.28678">
        <ele>472.63</ele>
        <time>2013-04-14T06:19:13Z</time>
      </trkpt>
      <trkpt lat="48.63347" lon="7.28676">
        <ele>473.11</ele>
        <time>2013-04-14T06:19:14Z</time>
      </trkpt>
      <trkpt lat="48.63346" lon="7.28674">
        <ele>473.11</ele>
        <time>2013-04-14T06:19:15Z</time>
      </trkpt>
      <trkpt lat="48.63345" lon="7.28672">
        <ele>473.59</ele>
        <time>2013-04-14T06:19:16Z</time>
      </trkpt>
      <trkpt lat="48.63345" lon="7.28669">
        <ele>474.07</ele>
        <time>2013-04-14T06:19:17Z</time>
      </trkpt>
      <trkpt lat="48.63344" lon="7.28667">
        <ele>474.07</ele>
        <time>2013-04-14T06:19:18Z</time>
      </trkpt>
      <trkpt lat="48.63343" lon="7.28664">
        <ele>474.55</ele>
        <time>2013-04-14T06:19:19Z</time>
      </trkpt>
      <trkpt lat="48.63338" lon="7.28652">
        <ele>475.99</ele>
        <time>2013-04-14T06:19:24Z</time>
      </trkpt>
      <trkpt lat="48.63338" lon="7.2865">
        <ele>475.99</ele>
        <time>2013-04-14T06:19:25Z</time>
      </trkpt>
      <trkpt lat="48.63337" lon="7.28648">
        <ele>476.47</ele>
        <time>2013-04-14T06:19:26Z</time>
      </trkpt>
      <trkpt lat="48.63336" lon="7.28646">
        <ele>476.47</ele>
        <time>2013-04-14T06:19:27Z</time>
      </trkpt>
      <trkpt lat="48.63335" lon="7.28643">
        <ele>476.95</ele>
        <time>2013-04-14T06:19:28Z</time>
      </trkpt>
      <trkpt lat="48.63334" lon="7.28638">
        <ele>477.43</ele>
        <time>2013-04-14T06:19:30Z</time>
      </trkpt>
      <trkpt lat="48.63334" lon="7.28636">
        <ele>477.43</ele>
        <time>2013-04-14T06:19:31Z</time>
      </trkpt>
      <trkpt lat="48.63333" lon="7.28633">
        <ele>477.91</ele>
        <time>2013-04-14T06:19:32Z</time>
      </trkpt>
      <trkpt lat="48.63333" lon="7.2863">
        <ele>477.91</ele>
        <time>2013-04-14T06:19:33Z</time>
      </trkpt>
      <trkpt lat="48.63329" lon="7.28614">
        <ele>478.87</ele>
        <time>2013-04-14T06:19:39Z</time>
      </trkpt>
      <trkpt lat="48.63328" lon="7.28612">
        <ele>479.35</ele>
        <time>2013-04-14T06:19:40Z</time>
      </trkpt>
      <trkpt lat="48.63327" lon="7.2861">
        <ele>480.8</ele>
        <time>2013-04-14T06:19:41Z</time>
      </trkpt>
      <trkpt lat="48.63326" lon="7.28608">
        <ele>479.84</ele>
        <time>2013-04-14T06:19:42Z</time>
      </trkpt>
      <trkpt lat="48.63325" lon="7.28606">
        <ele>479.84</ele>
        <time>2013-04-14T06:19:43Z</time>
      </trkpt>
      <trkpt lat="48.6332" lon="7.28592">
        <ele>481.28</ele>
        <time>2013-04-14T06:19:50Z</time>
      </trkpt>
      <trkpt lat="48.6332" lon="7.28589">
        <ele>481.28</ele>
        <time>2013-04-14T06:19:51Z</time>
      </trkpt>
      <trkpt lat="48.63319" lon="7.28586">
        <ele>481.76</ele>
        <time>2013-04-14T06:19:52Z</time>
      </trkpt>
      <trkpt lat="48.63319" lon="7.28584">
        <ele>481.76</ele>
        <time>2013-04-14T06:19:53Z</time>
      </trkpt>
      <trkpt lat="48.63318" lon="7.28581">
        <ele>481.76</ele>
        <time>2013-04-14T06:19:54Z</time>
      </trkpt>
      <trkpt lat="48.63318" lon="7.28578">
        <ele>482.24</ele>
        <time>2013-04-14T06:19:55Z</time>
      </trkpt>
      <trkpt lat="48.63317" lon="7.28546">
        <ele>483.68</ele>
        <time>2013-04-14T06:20:04Z</time>
      </trkpt>
      <trkpt lat="48.63317" lon="7.28542">
        <ele>484.16</ele>
        <time>2013-04-14T06:20:05Z</time>
      </trkpt>
      <trkpt lat="48.63317" lon="7.28539">
        <ele>484.16</ele>
        <time>2013-04-14T06:20:06Z</time>
      </trkpt>
      <trkpt lat="48.63317" lon="7.28505">
        <ele>486.56</ele>
        <time>2013-04-14T06:20:17Z</time>
      </trkpt>
      <trkpt lat="48.63319" lon="7.28477">
        <ele>488.97</ele>
        <time>2013-04-14T06:20:28Z</time>
      </trkpt>
      <trkpt lat="48.63321" lon="7.28452">
        <ele>490.41</ele>
        <time>2013-04-14T06:20:36Z</time>
      </trkpt>
      <trkpt lat="48.63321" lon="7.2845">
        <ele>490.41</ele>
        <time>2013-04-14T06:20:37Z</time>
      </trkpt>
      <trkpt lat="48.63322" lon="7.28447">
        <ele>490.89</ele>
        <time>2013-04-14T06:20:38Z</time>
      </trkpt>
      <trkpt lat="48.63323" lon="7.28444">
        <ele>490.89</ele>
        <time>2013-04-14T06:20:39Z</time>
      </trkpt>
      <trkpt lat="48.63324" lon="7.28441">
        <ele>490.89</ele>
        <time>2013-04-14T06:20:40Z</time>
      </trkpt>
      <trkpt lat="48.63324" lon="7.28436">
        <ele>491.37</ele>
        <time>2013-04-14T06:20:42Z</time>
      </trkpt>
      <trkpt lat="48.63324" lon="7.28434">
        <ele>491.85</ele>
        <time>2013-04-14T06:20:43Z</time>
      </trkpt>
      <trkpt lat="48.63324" lon="7.28431">
        <ele>491.85</ele>
        <time>2013-04-14T06:20:44Z</time>
      </trkpt>
      <trkpt lat="48.63324" lon="7.28428">
        <ele>492.33</ele>
        <time>2013-04-14T06:20:45Z</time>
      </trkpt>
      <trkpt lat="48.63325" lon="7.28424">
        <ele>492.33</ele>
        <time>2013-04-14T06:20:46Z</time>
      </trkpt>
      <trkpt lat="48.63325" lon="7.28421">
        <ele>492.81</ele>
        <time>2013-04-14T06:20:47Z</time>
      </trkpt>
      <trkpt lat="48.63326" lon="7.28418">
        <ele>493.29</ele>
        <time>2013-04-14T06:20:48Z</time>
      </trkpt>
      <trkpt lat="48.63327" lon="7.28404">
        <ele>494.26</ele>
        <time>2013-04-14T06:20:53Z</time>
      </trkpt>
      <trkpt lat="48.63329" lon="7.28372">
        <ele>496.18</ele>
        <time>2013-04-14T06:21:04Z</time>
      </trkpt>
      <trkpt lat="48.63329" lon="7.2836">
        <ele>496.66</ele>
        <time>2013-04-14T06:21:08Z</time>
      </trkpt>
      <trkpt lat="48.63329" lon="7.28357">
        <ele>497.14</ele>
        <time>2013-04-14T06:21:09Z</time>
      </trkpt>
      <trkpt lat="48.63329" lon="7.28355">
        <ele>497.14</ele>
        <time>2013-04-14T06:21:10Z</time>
      </trkpt>
      <trkpt lat="48.63329" lon="7.28352">
        <ele>497.62</ele>
        <time>2013-04-14T06:21:11Z</time>
      </trkpt>
      <trkpt lat="48.63329" lon="7.28349">
        <ele>497.62</ele>
        <time>2013-04-14T06:21:12Z</time>
      </trkpt>
      <trkpt lat="48.6333" lon="7.28335">
        <ele>499.06</ele>
        <time>2013-04-14T06:21:21Z</time>
      </trkpt>
      <trkpt lat="48.6333" lon="7.2833">
        <ele>499.54</ele>
        <time>2013-04-14T06:21:23Z</time>
      </trkpt>
      <trkpt lat="48.6333" lon="7.2832">
        <ele>500.5</ele>
        <time>2013-04-14T06:21:34Z</time>
      </trkpt>
      <trkpt lat="48.63327" lon="7.28311">
        <ele>500.98</ele>
        <time>2013-04-14T06:21:45Z</time>
      </trkpt>
      <trkpt lat="48.63323" lon="7.28306">
        <ele>501.95</ele>
        <time>2013-04-14T06:21:56Z</time>
      </trkpt>
      <trkpt lat="48.63321" lon="7.28304">
        <ele>501.95</ele>
        <time>2013-04-14T06:22:05Z</time>
      </trkpt>
      <trkpt lat="48.6332" lon="7.28304">
        <ele>502.43</ele>
        <time>2013-04-14T06:22:06Z</time>
      </trkpt>
      <trkpt lat="48.63305" lon="7.28299">
        <ele>504.83</ele>
        <time>2013-04-14T06:22:16Z</time>
      </trkpt>
      <trkpt lat="48.63293" lon="7.28303">
        <ele>504.83</ele>
        <time>2013-04-14T06:22:27Z</time>
      </trkpt>
      <trkpt lat="48.63281" lon="7.28307">
        <ele>504.83</ele>
        <time>2013-04-14T06:22:32Z</time>
      </trkpt>
      <trkpt lat="48.63279" lon="7.2831">
        <ele>504.35</ele>
        <time>2013-04-14T06:22:33Z</time>
      </trkpt>
      <trkpt lat="48.63262" lon="7.2831">
        <ele>504.83</ele>
        <time>2013-04-14T06:22:42Z</time>
      </trkpt>
      <trkpt lat="48.63257" lon="7.28307">
        <ele>505.79</ele>
        <time>2013-04-14T06:22:45Z</time>
      </trkpt>
      <trkpt lat="48.63255" lon="7.28306">
        <ele>506.27</ele>
        <time>2013-04-14T06:22:46Z</time>
      </trkpt>
      <trkpt lat="48.63253" lon="7.28305">
        <ele>506.27</ele>
        <time>2013-04-14T06:22:47Z</time>
      </trkpt>
      <trkpt lat="48.63251" lon="7.28306">
        <ele>506.75</ele>
        <time>2013-04-14T06:22:48Z</time>
      </trkpt>
      <trkpt lat="48.63248" lon="7.28307">
        <ele>506.75</ele>
        <time>2013-04-14T06:22:49Z</time>
      </trkpt>
      <trkpt lat="48.63245" lon="7.28309">
        <ele>507.23</ele>
        <time>2013-04-14T06:22:50Z</time>
      </trkpt>
      <trkpt lat="48.63243" lon="7.28312">
        <ele>507.23</ele>
        <time>2013-04-14T06:22:51Z</time>
      </trkpt>
      <trkpt lat="48.63241" lon="7.28313">
        <ele>507.23</ele>
        <time>2013-04-14T06:22:52Z</time>
      </trkpt>
      <trkpt lat="48.63237" lon="7.28314">
        <ele>507.71</ele>
        <time>2013-04-14T06:22:54Z</time>
      </trkpt>
      <trkpt lat="48.63234" lon="7.28315">
        <ele>508.19</ele>
        <time>2013-04-14T06:22:56Z</time>
      </trkpt>
      <trkpt lat="48.63226" lon="7.28318">
        <ele>508.67</ele>
        <time>2013-04-14T06:23:00Z</time>
      </trkpt>
      <trkpt lat="48.63224" lon="7.28319">
        <ele>508.67</ele>
        <time>2013-04-14T06:23:01Z</time>
      </trkpt>
      <trkpt lat="48.63222" lon="7.28319">
        <ele>509.16</ele>
        <time>2013-04-14T06:23:02Z</time>
      </trkpt>
      <trkpt lat="48.6322" lon="7.2832">
        <ele>509.16</ele>
        <time>2013-04-14T06:23:03Z</time>
      </trkpt>
      <trkpt lat="48.63217" lon="7.28321">
        <ele>509.64</ele>
        <time>2013-04-14T06:23:04Z</time>
      </trkpt>
      <trkpt lat="48.63215" lon="7.28322">
        <ele>510.12</ele>
        <time>2013-04-14T06:23:05Z</time>
      </trkpt>
      <trkpt lat="48.63213" lon="7.28322">
        <ele>511.08</ele>
        <time>2013-04-14T06:23:08Z</time>
      </trkpt>
      <trkpt lat="48.63207" lon="7.28325">
        <ele>512.52</ele>
        <time>2013-04-14T06:23:18Z</time>
      </trkpt>
      <trkpt lat="48.632" lon="7.28319">
        <ele>513.48</ele>
        <time>2013-04-14T06:23:29Z</time>
      </trkpt>
      <trkpt lat="48.63198" lon="7.28316">
        <ele>513.48</ele>
        <time>2013-04-14T06:23:42Z</time>
      </trkpt>
      <trkpt lat="48.63195" lon="7.28317">
        <ele>513.48</ele>
        <time>2013-04-14T06:24:04Z</time>
      </trkpt>
      <trkpt lat="48.63195" lon="7.28316">
        <ele>513.96</ele>
        <time>2013-04-14T06:24:25Z</time>
      </trkpt>
      <trkpt lat="48.63195" lon="7.28316">
        <ele>513.96</ele>
        <time>2013-04-14T06:24:51Z</time>
      </trkpt>
      <trkpt lat="48.63195" lon="7.28317">
        <ele>514.44</ele>
        <time>2013-04-14T06:25:14Z</time>
      </trkpt>
      <trkpt lat="48.63193" lon="7.28314">
        <ele>514.44</ele>
        <time>2013-04-14T06:25:26Z</time>
      </trkpt>
      <trkpt lat="48.63193" lon="7.28313">
        <ele>514.44</ele>
        <time>2013-04-14T06:25:27Z</time>
      </trkpt>
      <trkpt lat="48.63192" lon="7.2831">
        <ele>514.44</ele>
        <time>2013-04-14T06:25:29Z</time>
      </trkpt>
      <trkpt lat="48.63191" lon="7.28309">
        <ele>514.44</ele>
        <time>2013-04-14T06:25:30Z</time>
      </trkpt>
      <trkpt lat="48.6319" lon="7.28307">
        <ele>514.44</ele>
        <time>2013-04-14T06:25:31Z</time>
      </trkpt>
      <trkpt lat="48.63189" lon="7.28305">
        <ele>513.96</ele>
        <time>2013-04-14T06:25:32Z</time>
      </trkpt>
      <trkpt lat="48.63188" lon="7.28303">
        <ele>513.96</ele>
        <time>2013-04-14T06:25:33Z</time>
      </trkpt>
      <trkpt lat="48.63187" lon="7.283">
        <ele>513.96</ele>
        <time>2013-04-14T06:25:34Z</time>
      </trkpt>
      <trkpt lat="48.63187" lon="7.28297">
        <ele>514.44</ele>
        <time>2013-04-14T06:25:35Z</time>
      </trkpt>
      <trkpt lat="48.63186" lon="7.28294">
        <ele>514.92</ele>
        <time>2013-04-14T06:25:36Z</time>
      </trkpt>
      <trkpt lat="48.63185" lon="7.28291">
        <ele>515.4</ele>
        <time>2013-04-14T06:25:37Z</time>
      </trkpt>
      <trkpt lat="48.63185" lon="7.28288">
        <ele>516.37</ele>
        <time>2013-04-14T06:25:38Z</time>
      </trkpt>
      <trkpt lat="48.63184" lon="7.28287">
        <ele>516.85</ele>
        <time>2013-04-14T06:25:39Z</time>
      </trkpt>
      <trkpt lat="48.63183" lon="7.28285">
        <ele>516.85</ele>
        <time>2013-04-14T06:25:40Z</time>
      </trkpt>
      <trkpt lat="48.63182" lon="7.28283">
        <ele>517.33</ele>
        <time>2013-04-14T06:25:41Z</time>
      </trkpt>
      <trkpt lat="48.63181" lon="7.28273">
        <ele>519.25</ele>
        <time>2013-04-14T06:25:45Z</time>
      </trkpt>
      <trkpt lat="48.6318" lon="7.28268">
        <ele>519.73</ele>
        <time>2013-04-14T06:25:47Z</time>
      </trkpt>
      <trkpt lat="48.63179" lon="7.28266">
        <ele>520.21</ele>
        <time>2013-04-14T06:25:48Z</time>
      </trkpt>
      <trkpt lat="48.63178" lon="7.28264">
        <ele>520.69</ele>
        <time>2013-04-14T06:25:49Z</time>
      </trkpt>
      <trkpt lat="48.63177" lon="7.28262">
        <ele>521.17</ele>
        <time>2013-04-14T06:25:50Z</time>
      </trkpt>
      <trkpt lat="48.63176" lon="7.2826">
        <ele>521.17</ele>
        <time>2013-04-14T06:25:51Z</time>
      </trkpt>
      <trkpt lat="48.63176" lon="7.28257">
        <ele>521.65</ele>
        <time>2013-04-14T06:25:52Z</time>
      </trkpt>
      <trkpt lat="48.63174" lon="7.28254">
        <ele>521.65</ele>
        <time>2013-04-14T06:25:54Z</time>
      </trkpt>
      <trkpt lat="48.63173" lon="7.28252">
        <ele>521.65</ele>
        <time>2013-04-14T06:25:55Z</time>
      </trkpt>
      <trkpt lat="48.63172" lon="7.2825">
        <ele>521.65</ele>
        <time>2013-04-14T06:25:56Z</time>
      </trkpt>
      <trkpt lat="48.63162" lon="7.2823">
        <ele>523.58</ele>
        <time>2013-04-14T06:26:06Z</time>
      </trkpt>
      <trkpt lat="48.63153" lon="7.28208">
        <ele>525.5</ele>
        <time>2013-04-14T06:26:16Z</time>
      </trkpt>
      <trkpt lat="48.63152" lon="7.28205">
        <ele>525.5</ele>
        <time>2013-04-14T06:26:17Z</time>
      </trkpt>
      <trkpt lat="48.63142" lon="7.28187">
        <ele>526.94</ele>
        <time>2013-04-14T06:26:28Z</time>
      </trkpt>
      <trkpt lat="48.63135" lon="7.28171">
        <ele>527.9</ele>
        <time>2013-04-14T06:26:37Z</time>
      </trkpt>
      <trkpt lat="48.63135" lon="7.28169">
        <ele>528.38</ele>
        <time>2013-04-14T06:26:38Z</time>
      </trkpt>
      <trkpt lat="48.63131" lon="7.28163">
        <ele>528.38</ele>
        <time>2013-04-14T06:26:56Z</time>
      </trkpt>
      <trkpt lat="48.6313" lon="7.28161">
        <ele>528.38</ele>
        <time>2013-04-14T06:26:57Z</time>
      </trkpt>
      <trkpt lat="48.63129" lon="7.2816">
        <ele>528.86</ele>
        <time>2013-04-14T06:26:58Z</time>
      </trkpt>
      <trkpt lat="48.63125" lon="7.28149">
        <ele>529.82</ele>
        <time>2013-04-14T06:27:05Z</time>
      </trkpt>
      <trkpt lat="48.63122" lon="7.28131">
        <ele>531.27</ele>
        <time>2013-04-14T06:27:12Z</time>
      </trkpt>
      <trkpt lat="48.6312" lon="7.28128">
        <ele>531.75</ele>
        <time>2013-04-14T06:27:13Z</time>
      </trkpt>
      <trkpt lat="48.63119" lon="7.28123">
        <ele>531.75</ele>
        <time>2013-04-14T06:27:15Z</time>
      </trkpt>
      <trkpt lat="48.63119" lon="7.2812">
        <ele>532.23</ele>
        <time>2013-04-14T06:27:16Z</time>
      </trkpt>
      <trkpt lat="48.63118" lon="7.28116">
        <ele>532.23</ele>
        <time>2013-04-14T06:27:17Z</time>
      </trkpt>
      <trkpt lat="48.63115" lon="7.28104">
        <ele>533.19</ele>
        <time>2013-04-14T06:27:21Z</time>
      </trkpt>
      <trkpt lat="48.63114" lon="7.28096">
        <ele>533.19</ele>
        <time>2013-04-14T06:27:24Z</time>
      </trkpt>
      <trkpt lat="48.63112" lon="7.28093">
        <ele>533.67</ele>
        <time>2013-04-14T06:27:25Z</time>
      </trkpt>
      <trkpt lat="48.63111" lon="7.2809">
        <ele>533.67</ele>
        <time>2013-04-14T06:27:26Z</time>
      </trkpt>
      <trkpt lat="48.63109" lon="7.28087">
        <ele>534.15</ele>
        <time>2013-04-14T06:27:27Z</time>
      </trkpt>
      <trkpt lat="48.63108" lon="7.28085">
        <ele>534.15</ele>
        <time>2013-04-14T06:27:28Z</time>
      </trkpt>
      <trkpt lat="48.63106" lon="7.28082">
        <ele>534.15</ele>
        <time>2013-04-14T06:27:29Z</time>
      </trkpt>
      <trkpt lat="48.63104" lon="7.28079">
        <ele>534.15</ele>
        <time>2013-04-14T06:27:30Z</time>
      </trkpt>
      <trkpt lat="48.63103" lon="7.28076">
        <ele>534.63</ele>
        <time>2013-04-14T06:27:31Z</time>
      </trkpt>
      <trkpt lat="48.63102" lon="7.28073">
        <ele>535.11</ele>
        <time>2013-04-14T06:27:32Z</time>
      </trkpt>
      <trkpt lat="48.63101" lon="7.2807">
        <ele>535.59</ele>
        <time>2013-04-14T06:27:33Z</time>
      </trkpt>
      <trkpt lat="48.63099" lon="7.28068">
        <ele>535.59</ele>
        <time>2013-04-14T06:27:34Z</time>
      </trkpt>
      <trkpt lat="48.63098" lon="7.28066">
        <ele>535.59</ele>
        <time>2013-04-14T06:27:35Z</time>
      </trkpt>
      <trkpt lat="48.63097" lon="7.28064">
        <ele>536.07</ele>
        <time>2013-04-14T06:27:36Z</time>
      </trkpt>
      <trkpt lat="48.63091" lon="7.28052">
        <ele>536.55</ele>
        <time>2013-04-14T06:27:41Z</time>
      </trkpt>
      <trkpt lat="48.6309" lon="7.28049">
        <ele>536.55</ele>
        <time>2013-04-14T06:27:42Z</time>
      </trkpt>
      <trkpt lat="48.63089" lon="7.28047">
        <ele>537.03</ele>
        <time>2013-04-14T06:27:43Z</time>
      </trkpt>
      <trkpt lat="48.63088" lon="7.28044">
        <ele>538.96</ele>
        <time>2013-04-14T06:27:44Z</time>
      </trkpt>
      <trkpt lat="48.63087" lon="7.28042">
        <ele>537.99</ele>
        <time>2013-04-14T06:27:45Z</time>
      </trkpt>
      <trkpt lat="48.63086" lon="7.28039">
        <ele>537.51</ele>
        <time>2013-04-14T06:27:46Z</time>
      </trkpt>
      <trkpt lat="48.63085" lon="7.28036">
        <ele>537.99</ele>
        <time>2013-04-14T06:27:47Z</time>
      </trkpt>
      <trkpt lat="48.63084" lon="7.2803">
        <ele>538.48</ele>
        <time>2013-04-14T06:27:49Z</time>
      </trkpt>
      <trkpt lat="48.63082" lon="7.28028">
        <ele>538.48</ele>
        <time>2013-04-14T06:27:50Z</time>
      </trkpt>
      <trkpt lat="48.63073" lon="7.28006">
        <ele>540.4</ele>
        <time>2013-04-14T06:27:59Z</time>
      </trkpt>
      <trkpt lat="48.63072" lon="7.28003">
        <ele>540.4</ele>
        <time>2013-04-14T06:28:00Z</time>
      </trkpt>
      <trkpt lat="48.63071" lon="7.28001">
        <ele>540.4</ele>
        <time>2013-04-14T06:28:01Z</time>
      </trkpt>
      <trkpt lat="48.6307" lon="7.27999">
        <ele>540.4</ele>
        <time>2013-04-14T06:28:02Z</time>
      </trkpt>
      <trkpt lat="48.63066" lon="7.27991">
        <ele>541.36</ele>
        <time>2013-04-14T06:28:08Z</time>
      </trkpt>
      <trkpt lat="48.63065" lon="7.27989">
        <ele>541.36</ele>
        <time>2013-04-14T06:28:09Z</time>
      </trkpt>
      <trkpt lat="48.6306" lon="7.27975">
        <ele>542.8</ele>
        <time>2013-04-14T06:28:15Z</time>
      </trkpt>
      <trkpt lat="48.63059" lon="7.27967">
        <ele>542.8</ele>
        <time>2013-04-14T06:28:18Z</time>
      </trkpt>
      <trkpt lat="48.63058" lon="7.27965">
        <ele>543.28</ele>
        <time>2013-04-14T06:28:19Z</time>
      </trkpt>
      <trkpt lat="48.63058" lon="7.27963">
        <ele>543.76</ele>
        <time>2013-04-14T06:28:20Z</time>
      </trkpt>
      <trkpt lat="48.63057" lon="7.27961">
        <ele>543.76</ele>
        <time>2013-04-14T06:28:21Z</time>
      </trkpt>
      <trkpt lat="48.63056" lon="7.27959">
        <ele>543.76</ele>
        <time>2013-04-14T06:28:22Z</time>
      </trkpt>
      <trkpt lat="48.63052" lon="7.27953">
        <ele>544.24</ele>
        <time>2013-04-14T06:28:26Z</time>
      </trkpt>
      <trkpt lat="48.63052" lon="7.27951">
        <ele>544.24</ele>
        <time>2013-04-14T06:28:27Z</time>
      </trkpt>
      <trkpt lat="48.6305" lon="7.27949">
        <ele>544.72</ele>
        <time>2013-04-14T06:28:28Z</time>
      </trkpt>
      <trkpt lat="48.6305" lon="7.27946">
        <ele>544.72</ele>
        <time>2013-04-14T06:28:29Z</time>
      </trkpt>
      <trkpt lat="48.63049" lon="7.27944">
        <ele>544.72</ele>
        <time>2013-04-14T06:28:30Z</time>
      </trkpt>
      <trkpt lat="48.63048" lon="7.27941">
        <ele>545.2</ele>
        <time>2013-04-14T06:28:31Z</time>
      </trkpt>
      <trkpt lat="48.63047" lon="7.27939">
        <ele>545.2</ele>
        <time>2013-04-14T06:28:32Z</time>
      </trkpt>
      <trkpt lat="48.63046" lon="7.27933">
        <ele>545.69</ele>
        <time>2013-04-14T06:28:34Z</time>
      </trkpt>
      <trkpt lat="48.63031" lon="7.27898">
        <ele>547.61</ele>
        <time>2013-04-14T06:28:47Z</time>
      </trkpt>
      <trkpt lat="48.6303" lon="7.27895">
        <ele>548.09</ele>
        <time>2013-04-14T06:28:48Z</time>
      </trkpt>
      <trkpt lat="48.63029" lon="7.27892">
        <ele>548.57</ele>
        <time>2013-04-14T06:28:49Z</time>
      </trkpt>
      <trkpt lat="48.63029" lon="7.2789">
        <ele>548.57</ele>
        <time>2013-04-14T06:28:50Z</time>
      </trkpt>
      <trkpt lat="48.63028" lon="7.27887">
        <ele>548.57</ele>
        <time>2013-04-14T06:28:51Z</time>
      </trkpt>
      <trkpt lat="48.63027" lon="7.27883">
        <ele>548.57</ele>
        <time>2013-04-14T06:28:52Z</time>
      </trkpt>
      <trkpt lat="48.63025" lon="7.2788">
        <ele>549.05</ele>
        <time>2013-04-14T06:28:53Z</time>
      </trkpt>
      <trkpt lat="48.63024" lon="7.27876">
        <ele>549.05</ele>
        <time>2013-04-14T06:28:54Z</time>
      </trkpt>
      <trkpt lat="48.63024" lon="7.27873">
        <ele>549.05</ele>
        <time>2013-04-14T06:28:55Z</time>
      </trkpt>
      <trkpt lat="48.63023" lon="7.27871">
        <ele>549.53</ele>
        <time>2013-04-14T06:28:56Z</time>
      </trkpt>
      <trkpt lat="48.63022" lon="7.27865">
        <ele>550.01</ele>
        <time>2013-04-14T06:28:58Z</time>
      </trkpt>
      <trkpt lat="48.63021" lon="7.27862">
        <ele>550.49</ele>
        <time>2013-04-14T06:28:59Z</time>
      </trkpt>
      <trkpt lat="48.6302" lon="7.2786">
        <ele>550.49</ele>
        <time>2013-04-14T06:29:00Z</time>
      </trkpt>
      <trkpt lat="48.6302" lon="7.27857">
        <ele>550.49</ele>
        <time>2013-04-14T06:29:01Z</time>
      </trkpt>
      <trkpt lat="48.63014" lon="7.27839">
        <ele>551.93</ele>
        <time>2013-04-14T06:29:08Z</time>
      </trkpt>
      <trkpt lat="48.63013" lon="7.27837">
        <ele>551.93</ele>
        <time>2013-04-14T06:29:09Z</time>
      </trkpt>
      <trkpt lat="48.63012" lon="7.27835">
        <ele>552.41</ele>
        <time>2013-04-14T06:29:10Z</time>
      </trkpt>
      <trkpt lat="48.63012" lon="7.27832">
        <ele>552.41</ele>
        <time>2013-04-14T06:29:11Z</time>
      </trkpt>
      <trkpt lat="48.63011" lon="7.27829">
        <ele>552.41</ele>
        <time>2013-04-14T06:29:12Z</time>
      </trkpt>
      <trkpt lat="48.6301" lon="7.27794">
        <ele>555.3</ele>
        <time>2013-04-14T06:29:23Z</time>
      </trkpt>
      <trkpt lat="48.63009" lon="7.27759">
        <ele>557.7</ele>
        <time>2013-04-14T06:29:34Z</time>
      </trkpt>
      <trkpt lat="48.63007" lon="7.27748">
        <ele>558.66</ele>
        <time>2013-04-14T06:29:38Z</time>
      </trkpt>
      <trkpt lat="48.63007" lon="7.27744">
        <ele>558.66</ele>
        <time>2013-04-14T06:29:39Z</time>
      </trkpt>
      <trkpt lat="48.63007" lon="7.2774">
        <ele>559.14</ele>
        <time>2013-04-14T06:29:40Z</time>
      </trkpt>
      <trkpt lat="48.63008" lon="7.27737">
        <ele>559.14</ele>
        <time>2013-04-14T06:29:41Z</time>
      </trkpt>
      <trkpt lat="48.6301" lon="7.27734">
        <ele>559.62</ele>
        <time>2013-04-14T06:29:42Z</time>
      </trkpt>
      <trkpt lat="48.6301" lon="7.27731">
        <ele>559.62</ele>
        <time>2013-04-14T06:29:43Z</time>
      </trkpt>
      <trkpt lat="48.6301" lon="7.27728">
        <ele>559.62</ele>
        <time>2013-04-14T06:29:44Z</time>
      </trkpt>
      <trkpt lat="48.63011" lon="7.27725">
        <ele>561.55</ele>
        <time>2013-04-14T06:29:45Z</time>
      </trkpt>
      <trkpt lat="48.63011" lon="7.27707">
        <ele>561.07</ele>
        <time>2013-04-14T06:29:50Z</time>
      </trkpt>
      <trkpt lat="48.63012" lon="7.27704">
        <ele>561.07</ele>
        <time>2013-04-14T06:29:51Z</time>
      </trkpt>
      <trkpt lat="48.63012" lon="7.2767">
        <ele>563.95</ele>
        <time>2013-04-14T06:30:03Z</time>
      </trkpt>
      <trkpt lat="48.63011" lon="7.27666">
        <ele>563.95</ele>
        <time>2013-04-14T06:30:04Z</time>
      </trkpt>
      <trkpt lat="48.63012" lon="7.27663">
        <ele>563.95</ele>
        <time>2013-04-14T06:30:05Z</time>
      </trkpt>
      <trkpt lat="48.63012" lon="7.2766">
        <ele>564.43</ele>
        <time>2013-04-14T06:30:06Z</time>
      </trkpt>
      <trkpt lat="48.63013" lon="7.27646">
        <ele>565.87</ele>
        <time>2013-04-14T06:30:10Z</time>
      </trkpt>
      <trkpt lat="48.63012" lon="7.27643">
        <ele>566.35</ele>
        <time>2013-04-14T06:30:11Z</time>
      </trkpt>
      <trkpt lat="48.63012" lon="7.2764">
        <ele>566.35</ele>
        <time>2013-04-14T06:30:12Z</time>
      </trkpt>
      <trkpt lat="48.63011" lon="7.27612">
        <ele>568.76</ele>
        <time>2013-04-14T06:30:23Z</time>
      </trkpt>
      <trkpt lat="48.63012" lon="7.276">
        <ele>569.72</ele>
        <time>2013-04-14T06:30:26Z</time>
      </trkpt>
      <trkpt lat="48.63013" lon="7.27594">
        <ele>570.2</ele>
        <time>2013-04-14T06:30:28Z</time>
      </trkpt>
      <trkpt lat="48.63013" lon="7.27591">
        <ele>570.68</ele>
        <time>2013-04-14T06:30:29Z</time>
      </trkpt>
      <trkpt lat="48.63012" lon="7.27588">
        <ele>570.68</ele>
        <time>2013-04-14T06:30:30Z</time>
      </trkpt>
      <trkpt lat="48.63012" lon="7.27576">
        <ele>572.6</ele>
        <time>2013-04-14T06:30:36Z</time>
      </trkpt>
      <trkpt lat="48.63012" lon="7.27573">
        <ele>572.6</ele>
        <time>2013-04-14T06:30:37Z</time>
      </trkpt>
      <trkpt lat="48.63013" lon="7.27567">
        <ele>573.08</ele>
        <time>2013-04-14T06:30:39Z</time>
      </trkpt>
      <trkpt lat="48.63014" lon="7.27565">
        <ele>573.56</ele>
        <time>2013-04-14T06:30:41Z</time>
      </trkpt>
      <trkpt lat="48.63015" lon="7.27562">
        <ele>573.56</ele>
        <time>2013-04-14T06:30:42Z</time>
      </trkpt>
      <trkpt lat="48.63016" lon="7.2756">
        <ele>573.56</ele>
        <time>2013-04-14T06:30:43Z</time>
      </trkpt>
      <trkpt lat="48.63023" lon="7.27542">
        <ele>575.97</ele>
        <time>2013-04-14T06:30:53Z</time>
      </trkpt>
      <trkpt lat="48.63029" lon="7.27529">
        <ele>577.41</ele>
        <time>2013-04-14T06:31:04Z</time>
      </trkpt>
      <trkpt lat="48.63037" lon="7.27526">
        <ele>579.33</ele>
        <time>2013-04-14T06:31:15Z</time>
      </trkpt>
      <trkpt lat="48.63038" lon="7.27523">
        <ele>579.33</ele>
        <time>2013-04-14T06:31:26Z</time>
      </trkpt>
      <trkpt lat="48.63038" lon="7.27522">
        <ele>578.85</ele>
        <time>2013-04-14T06:31:53Z</time>
      </trkpt>
      <trkpt lat="48.63038" lon="7.27521">
        <ele>578.85</ele>
        <time>2013-04-14T06:32:18Z</time>
      </trkpt>
      <trkpt lat="48.63037" lon="7.27522">
        <ele>578.85</ele>
        <time>2013-04-14T06:32:50Z</time>
      </trkpt>
      <trkpt lat="48.63037" lon="7.27523">
        <ele>578.85</ele>
        <time>2013-04-14T06:33:22Z</time>
      </trkpt>
      <trkpt lat="48.63038" lon="7.27524">
        <ele>578.85</ele>
        <time>2013-04-14T06:33:58Z</time>
      </trkpt>
      <trkpt lat="48.63039" lon="7.27525">
        <ele>579.33</ele>
        <time>2013-04-14T06:34:17Z</time>
      </trkpt>
      <trkpt lat="48.63039" lon="7.27523">
        <ele>579.33</ele>
        <time>2013-04-14T06:34:35Z</time>
      </trkpt>
      <trkpt lat="48.6304" lon="7.27518">
        <ele>579.33</ele>
        <time>2013-04-14T06:34:48Z</time>
      </trkpt>
      <trkpt lat="48.6304" lon="7.27516">
        <ele>579.33</ele>
        <time>2013-04-14T06:35:18Z</time>
      </trkpt>
      <trkpt lat="48.6304" lon="7.27517">
        <ele>579.33</ele>
        <time>2013-04-14T06:35:38Z</time>
      </trkpt>
      <trkpt lat="48.6304" lon="7.27517">
        <ele>579.81</ele>
        <time>2013-04-14T06:35:57Z</time>
      </trkpt>
      <trkpt lat="48.63041" lon="7.27517">
        <ele>579.81</ele>
        <time>2013-04-14T06:36:21Z</time>
      </trkpt>
      <trkpt lat="48.6304" lon="7.27516">
        <ele>579.33</ele>
        <time>2013-04-14T06:36:50Z</time>
      </trkpt>
      <trkpt lat="48.63041" lon="7.27515">
        <ele>579.81</ele>
        <time>2013-04-14T06:37:15Z</time>
      </trkpt>
      <trkpt lat="48.63044" lon="7.27508">
        <ele>579.81</ele>
        <time>2013-04-14T06:37:21Z</time>
      </trkpt>
      <trkpt lat="48.63052" lon="7.27493">
        <ele>581.25</ele>
        <time>2013-04-14T06:37:33Z</time>
      </trkpt>
      <trkpt lat="48.63056" lon="7.27488">
        <ele>581.73</ele>
        <time>2013-04-14T06:37:37Z</time>
      </trkpt>
      <trkpt lat="48.63058" lon="7.27487">
        <ele>581.73</ele>
        <time>2013-04-14T06:37:38Z</time>
      </trkpt>
      <trkpt lat="48.63059" lon="7.27485">
        <ele>581.73</ele>
        <time>2013-04-14T06:37:39Z</time>
      </trkpt>
      <trkpt lat="48.63059" lon="7.27483">
        <ele>581.73</ele>
        <time>2013-04-14T06:37:40Z</time>
      </trkpt>
      <trkpt lat="48.63069" lon="7.27473">
        <ele>586.06</ele>
        <time>2013-04-14T06:37:49Z</time>
      </trkpt>
      <trkpt lat="48.6307" lon="7.27472">
        <ele>585.58</ele>
        <time>2013-04-14T06:37:50Z</time>
      </trkpt>
      <trkpt lat="48.63071" lon="7.2747">
        <ele>585.1</ele>
        <time>2013-04-14T06:37:51Z</time>
      </trkpt>
      <trkpt lat="48.63073" lon="7.27469">
        <ele>585.58</ele>
        <time>2013-04-14T06:37:52Z</time>
      </trkpt>
      <trkpt lat="48.6308" lon="7.27456">
        <ele>587.5</ele>
        <time>2013-04-14T06:38:00Z</time>
      </trkpt>
      <trkpt lat="48.63081" lon="7.27456">
        <ele>587.5</ele>
        <time>2013-04-14T06:38:01Z</time>
      </trkpt>
      <trkpt lat="48.63083" lon="7.27455">
        <ele>587.98</ele>
        <time>2013-04-14T06:38:02Z</time>
      </trkpt>
      <trkpt lat="48.63083" lon="7.27453">
        <ele>587.98</ele>
        <time>2013-04-14T06:38:03Z</time>
      </trkpt>
      <trkpt lat="48.63088" lon="7.27445">
        <ele>589.43</ele>
        <time>2013-04-14T06:38:08Z</time>
      </trkpt>
      <trkpt lat="48.63094" lon="7.27437">
        <ele>590.39</ele>
        <time>2013-04-14T06:38:15Z</time>
      </trkpt>
      <trkpt lat="48.63095" lon="7.27436">
        <ele>590.39</ele>
        <time>2013-04-14T06:38:16Z</time>
      </trkpt>
      <trkpt lat="48.63096" lon="7.27435">
        <ele>590.87</ele>
        <time>2013-04-14T06:38:17Z</time>
      </trkpt>
      <trkpt lat="48.6311" lon="7.27419">
        <ele>593.27</ele>
        <time>2013-04-14T06:38:29Z</time>
      </trkpt>
      <trkpt lat="48.63114" lon="7.27414">
        <ele>594.23</ele>
        <time>2013-04-14T06:38:33Z</time>
      </trkpt>
      <trkpt lat="48.63116" lon="7.27412">
        <ele>594.23</ele>
        <time>2013-04-14T06:38:34Z</time>
      </trkpt>
      <trkpt lat="48.63122" lon="7.27407">
        <ele>595.67</ele>
        <time>2013-04-14T06:38:41Z</time>
      </trkpt>
      <trkpt lat="48.63124" lon="7.27407">
        <ele>596.15</ele>
        <time>2013-04-14T06:38:42Z</time>
      </trkpt>
      <trkpt lat="48.63136" lon="7.27404">
        <ele>598.08</ele>
        <time>2013-04-14T06:38:51Z</time>
      </trkpt>
      <trkpt lat="48.63146" lon="7.27398">
        <ele>599.52</ele>
        <time>2013-04-14T06:38:58Z</time>
      </trkpt>
      <trkpt lat="48.63148" lon="7.27396">
        <ele>600.48</ele>
        <time>2013-04-14T06:39:02Z</time>
      </trkpt>
      <trkpt lat="48.63153" lon="7.27391">
        <ele>601.92</ele>
        <time>2013-04-14T06:39:07Z</time>
      </trkpt>
      <trkpt lat="48.63154" lon="7.27388">
        <ele>601.92</ele>
        <time>2013-04-14T06:39:09Z</time>
      </trkpt>
      <trkpt lat="48.63156" lon="7.27384">
        <ele>602.4</ele>
        <time>2013-04-14T06:39:11Z</time>
      </trkpt>
      <trkpt lat="48.63157" lon="7.27381">
        <ele>602.88</ele>
        <time>2013-04-14T06:39:12Z</time>
      </trkpt>
      <trkpt lat="48.63157" lon="7.27378">
        <ele>602.88</ele>
        <time>2013-04-14T06:39:13Z</time>
      </trkpt>
      <trkpt lat="48.63161" lon="7.27362">
        <ele>603.85</ele>
        <time>2013-04-14T06:39:18Z</time>
      </trkpt>
      <trkpt lat="48.63165" lon="7.27354">
        <ele>604.81</ele>
        <time>2013-04-14T06:39:22Z</time>
      </trkpt>
      <trkpt lat="48.63165" lon="7.27351">
        <ele>604.81</ele>
        <time>2013-04-14T06:39:23Z</time>
      </trkpt>
      <trkpt lat="48.63164" lon="7.27349">
        <ele>605.29</ele>
        <time>2013-04-14T06:39:24Z</time>
      </trkpt>
      <trkpt lat="48.63164" lon="7.27345">
        <ele>605.29</ele>
        <time>2013-04-14T06:39:25Z</time>
      </trkpt>
      <trkpt lat="48.63163" lon="7.27341">
        <ele>605.77</ele>
        <time>2013-04-14T06:39:26Z</time>
      </trkpt>
      <trkpt lat="48.63162" lon="7.27336">
        <ele>605.77</ele>
        <time>2013-04-14T06:39:27Z</time>
      </trkpt>
      <trkpt lat="48.63162" lon="7.27331">
        <ele>605.77</ele>
        <time>2013-04-14T06:39:28Z</time>
      </trkpt>
      <trkpt lat="48.63161" lon="7.27327">
        <ele>605.77</ele>
        <time>2013-04-14T06:39:29Z</time>
      </trkpt>
      <trkpt lat="48.6316" lon="7.27323">
        <ele>605.77</ele>
        <time>2013-04-14T06:39:30Z</time>
      </trkpt>
      <trkpt lat="48.6316" lon="7.27318">
        <ele>605.77</ele>
        <time>2013-04-14T06:39:31Z</time>
      </trkpt>
      <trkpt lat="48.63159" lon="7.27315">
        <ele>606.25</ele>
        <time>2013-04-14T06:39:32Z</time>
      </trkpt>
      <trkpt lat="48.63158" lon="7.27311">
        <ele>606.25</ele>
        <time>2013-04-14T06:39:33Z</time>
      </trkpt>
      <trkpt lat="48.63157" lon="7.27307">
        <ele>606.73</ele>
        <time>2013-04-14T06:39:34Z</time>
      </trkpt>
      <trkpt lat="48.63155" lon="7.27303">
        <ele>606.73</ele>
        <time>2013-04-14T06:39:35Z</time>
      </trkpt>
      <trkpt lat="48.63154" lon="7.27299">
        <ele>606.73</ele>
        <time>2013-04-14T06:39:36Z</time>
      </trkpt>
      <trkpt lat="48.63153" lon="7.27296">
        <ele>606.73</ele>
        <time>2013-04-14T06:39:37Z</time>
      </trkpt>
      <trkpt lat="48.63151" lon="7.27293">
        <ele>606.73</ele>
        <time>2013-04-14T06:39:38Z</time>
      </trkpt>
      <trkpt lat="48.63149" lon="7.27289">
        <ele>606.73</ele>
        <time>2013-04-14T06:39:39Z</time>
      </trkpt>
      <trkpt lat="48.63149" lon="7.27284">
        <ele>607.21</ele>
        <time>2013-04-14T06:39:40Z</time>
      </trkpt>
      <trkpt lat="48.63145" lon="7.2727">
        <ele>607.69</ele>
        <time>2013-04-14T06:39:44Z</time>
      </trkpt>
      <trkpt lat="48.63142" lon="7.27243">
        <ele>609.61</ele>
        <time>2013-04-14T06:39:53Z</time>
      </trkpt>
      <trkpt lat="48.63143" lon="7.27241">
        <ele>609.61</ele>
        <time>2013-04-14T06:39:54Z</time>
      </trkpt>
      <trkpt lat="48.63146" lon="7.27234">
        <ele>610.57</ele>
        <time>2013-04-14T06:39:58Z</time>
      </trkpt>
      <trkpt lat="48.63154" lon="7.27224">
        <ele>611.54</ele>
        <time>2013-04-14T06:40:03Z</time>
      </trkpt>
      <trkpt lat="48.63157" lon="7.27183">
        <ele>613.46</ele>
        <time>2013-04-14T06:40:13Z</time>
      </trkpt>
      <trkpt lat="48.63161" lon="7.27168">
        <ele>613.94</ele>
        <time>2013-04-14T06:40:17Z</time>
      </trkpt>
      <trkpt lat="48.63163" lon="7.27165">
        <ele>614.42</ele>
        <time>2013-04-14T06:40:18Z</time>
      </trkpt>
      <trkpt lat="48.63164" lon="7.27162">
        <ele>614.42</ele>
        <time>2013-04-14T06:40:19Z</time>
      </trkpt>
      <trkpt lat="48.63165" lon="7.27159">
        <ele>614.9</ele>
        <time>2013-04-14T06:40:20Z</time>
      </trkpt>
      <trkpt lat="48.63166" lon="7.27156">
        <ele>615.38</ele>
        <time>2013-04-14T06:40:21Z</time>
      </trkpt>
      <trkpt lat="48.63167" lon="7.27152">
        <ele>615.38</ele>
        <time>2013-04-14T06:40:22Z</time>
      </trkpt>
      <trkpt lat="48.63166" lon="7.27148">
        <ele>615.86</ele>
        <time>2013-04-14T06:40:24Z</time>
      </trkpt>
      <trkpt lat="48.63166" lon="7.27143">
        <ele>615.86</ele>
        <time>2013-04-14T06:40:26Z</time>
      </trkpt>
      <trkpt lat="48.63167" lon="7.2714">
        <ele>616.34</ele>
        <time>2013-04-14T06:40:27Z</time>
      </trkpt>
      <trkpt lat="48.63168" lon="7.27136">
        <ele>616.34</ele>
        <time>2013-04-14T06:40:28Z</time>
      </trkpt>
      <trkpt lat="48.63169" lon="7.27131">
        <ele>616.82</ele>
        <time>2013-04-14T06:40:29Z</time>
      </trkpt>
      <trkpt lat="48.63169" lon="7.27127">
        <ele>616.82</ele>
        <time>2013-04-14T06:40:30Z</time>
      </trkpt>
      <trkpt lat="48.63169" lon="7.27123">
        <ele>616.82</ele>
        <time>2013-04-14T06:40:31Z</time>
      </trkpt>
      <trkpt lat="48.6317" lon="7.27119">
        <ele>617.3</ele>
        <time>2013-04-14T06:40:32Z</time>
      </trkpt>
      <trkpt lat="48.63171" lon="7.27116">
        <ele>617.3</ele>
        <time>2013-04-14T06:40:33Z</time>
      </trkpt>
      <trkpt lat="48.63171" lon="7.27111">
        <ele>617.3</ele>
        <time>2013-04-14T06:40:34Z</time>
      </trkpt>
      <trkpt lat="48.63172" lon="7.27108">
        <ele>617.78</ele>
        <time>2013-04-14T06:40:35Z</time>
      </trkpt>
      <trkpt lat="48.63173" lon="7.27104">
        <ele>617.78</ele>
        <time>2013-04-14T06:40:36Z</time>
      </trkpt>
      <trkpt lat="48.63173" lon="7.271">
        <ele>618.26</ele>
        <time>2013-04-14T06:40:37Z</time>
      </trkpt>
      <trkpt lat="48.63172" lon="7.27097">
        <ele>618.26</ele>
        <time>2013-04-14T06:40:38Z</time>
      </trkpt>
      <trkpt lat="48.63173" lon="7.27093">
        <ele>618.75</ele>
        <time>2013-04-14T06:40:39Z</time>
      </trkpt>
      <trkpt lat="48.63173" lon="7.2709">
        <ele>618.75</ele>
        <time>2013-04-14T06:40:40Z</time>
      </trkpt>
      <trkpt lat="48.63174" lon="7.27086">
        <ele>619.23</ele>
        <time>2013-04-14T06:40:41Z</time>
      </trkpt>
      <trkpt lat="48.63175" lon="7.27083">
        <ele>619.23</ele>
        <time>2013-04-14T06:40:42Z</time>
      </trkpt>
      <trkpt lat="48.63175" lon="7.27079">
        <ele>619.71</ele>
        <time>2013-04-14T06:40:43Z</time>
      </trkpt>
      <trkpt lat="48.63176" lon="7.27075">
        <ele>619.71</ele>
        <time>2013-04-14T06:40:44Z</time>
      </trkpt>
      <trkpt lat="48.63176" lon="7.27072">
        <ele>619.71</ele>
        <time>2013-04-14T06:40:45Z</time>
      </trkpt>
      <trkpt lat="48.63177" lon="7.27068">
        <ele>619.71</ele>
        <time>2013-04-14T06:40:46Z</time>
      </trkpt>
      <trkpt lat="48.63177" lon="7.27065">
        <ele>620.67</ele>
        <time>2013-04-14T06:40:47Z</time>
      </trkpt>
      <trkpt lat="48.63178" lon="7.27063">
        <ele>620.67</ele>
        <time>2013-04-14T06:40:48Z</time>
      </trkpt>
      <trkpt lat="48.63179" lon="7.27059">
        <ele>620.67</ele>
        <time>2013-04-14T06:40:49Z</time>
      </trkpt>
      <trkpt lat="48.6318" lon="7.27057">
        <ele>621.15</ele>
        <time>2013-04-14T06:40:50Z</time>
      </trkpt>
      <trkpt lat="48.63182" lon="7.27049">
        <ele>621.63</ele>
        <time>2013-04-14T06:40:53Z</time>
      </trkpt>
      <trkpt lat="48.63182" lon="7.27046">
        <ele>621.63</ele>
        <time>2013-04-14T06:40:54Z</time>
      </trkpt>
      <trkpt lat="48.63184" lon="7.27016">
        <ele>623.55</ele>
        <time>2013-04-14T06:41:02Z</time>
      </trkpt>
      <trkpt lat="48.63184" lon="7.27012">
        <ele>623.55</ele>
        <time>2013-04-14T06:41:03Z</time>
      </trkpt>
      <trkpt lat="48.63185" lon="7.26986">
        <ele>624.99</ele>
        <time>2013-04-14T06:41:10Z</time>
      </trkpt>
      <trkpt lat="48.63186" lon="7.26981">
        <ele>624.99</ele>
        <time>2013-04-14T06:41:11Z</time>
      </trkpt>
      <trkpt lat="48.63189" lon="7.26944">
        <ele>627.4</ele>
        <time>2013-04-14T06:41:21Z</time>
      </trkpt>
      <trkpt lat="48.6319" lon="7.26927">
        <ele>627.88</ele>
        <time>2013-04-14T06:41:26Z</time>
      </trkpt>
      <trkpt lat="48.63189" lon="7.26923">
        <ele>627.88</ele>
        <time>2013-04-14T06:41:27Z</time>
      </trkpt>
      <trkpt lat="48.63186" lon="7.26903">
        <ele>628.84</ele>
        <time>2013-04-14T06:41:32Z</time>
      </trkpt>
      <trkpt lat="48.63186" lon="7.26899">
        <ele>628.84</ele>
        <time>2013-04-14T06:41:33Z</time>
      </trkpt>
      <trkpt lat="48.63185" lon="7.26895">
        <ele>629.32</ele>
        <time>2013-04-14T06:41:34Z</time>
      </trkpt>
      <trkpt lat="48.63185" lon="7.26891">
        <ele>629.32</ele>
        <time>2013-04-14T06:41:35Z</time>
      </trkpt>
      <trkpt lat="48.63185" lon="7.26888">
        <ele>629.32</ele>
        <time>2013-04-14T06:41:36Z</time>
      </trkpt>
      <trkpt lat="48.63184" lon="7.26885">
        <ele>629.8</ele>
        <time>2013-04-14T06:41:37Z</time>
      </trkpt>
      <trkpt lat="48.63185" lon="7.26881">
        <ele>629.8</ele>
        <time>2013-04-14T06:41:38Z</time>
      </trkpt>
      <trkpt lat="48.63185" lon="7.26876">
        <ele>629.8</ele>
        <time>2013-04-14T06:41:39Z</time>
      </trkpt>
      <trkpt lat="48.63185" lon="7.26872">
        <ele>629.8</ele>
        <time>2013-04-14T06:41:40Z</time>
      </trkpt>
      <trkpt lat="48.63186" lon="7.26868">
        <ele>630.28</ele>
        <time>2013-04-14T06:41:41Z</time>
      </trkpt>
      <trkpt lat="48.63187" lon="7.26849">
        <ele>630.28</ele>
        <time>2013-04-14T06:41:46Z</time>
      </trkpt>
      <trkpt lat="48.63187" lon="7.26846">
        <ele>630.76</ele>
        <time>2013-04-14T06:41:47Z</time>
      </trkpt>
      <trkpt lat="48.63187" lon="7.26843">
        <ele>630.76</ele>
        <time>2013-04-14T06:41:48Z</time>
      </trkpt>
      <trkpt lat="48.63187" lon="7.26839">
        <ele>630.76</ele>
        <time>2013-04-14T06:41:49Z</time>
      </trkpt>
      <trkpt lat="48.63187" lon="7.26836">
        <ele>630.76</ele>
        <time>2013-04-14T06:41:50Z</time>
      </trkpt>
      <trkpt lat="48.63187" lon="7.26832">
        <ele>631.24</ele>
        <time>2013-04-14T06:41:51Z</time>
      </trkpt>
      <trkpt lat="48.63187" lon="7.26829">
        <ele>631.24</ele>
        <time>2013-04-14T06:41:52Z</time>
      </trkpt>
      <trkpt lat="48.63185" lon="7.26805">
        <ele>632.68</ele>
        <time>2013-04-14T06:42:03Z</time>
      </trkpt>
      <trkpt lat="48.63185" lon="7.26803">
        <ele>632.2</ele>
        <time>2013-04-14T06:42:24Z</time>
      </trkpt>
      <trkpt lat="48.63185" lon="7.26801">
        <ele>632.2</ele>
        <time>2013-04-14T06:42:49Z</time>
      </trkpt>
      <trkpt lat="48.63184" lon="7.26799">
        <ele>632.2</ele>
        <time>2013-04-14T06:43:07Z</time>
      </trkpt>
      <trkpt lat="48.63184" lon="7.26797">
        <ele>632.2</ele>
        <time>2013-04-14T06:43:08Z</time>
      </trkpt>
      <trkpt lat="48.63183" lon="7.26795">
        <ele>632.2</ele>
        <time>2013-04-14T06:43:09Z</time>
      </trkpt>
      <trkpt lat="48.63176" lon="7.26761">
        <ele>632.68</ele>
        <time>2013-04-14T06:43:18Z</time>
      </trkpt>
      <trkpt lat="48.63175" lon="7.26743">
        <ele>633.17</ele>
        <time>2013-04-14T06:43:22Z</time>
      </trkpt>
      <trkpt lat="48.63174" lon="7.26739">
        <ele>633.17</ele>
        <time>2013-04-14T06:43:23Z</time>
      </trkpt>
      <trkpt lat="48.63173" lon="7.26735">
        <ele>633.17</ele>
        <time>2013-04-14T06:43:24Z</time>
      </trkpt>
      <trkpt lat="48.63172" lon="7.2673">
        <ele>633.17</ele>
        <time>2013-04-14T06:43:25Z</time>
      </trkpt>
      <trkpt lat="48.63171" lon="7.26726">
        <ele>633.17</ele>
        <time>2013-04-14T06:43:26Z</time>
      </trkpt>
      <trkpt lat="48.63171" lon="7.2672">
        <ele>633.17</ele>
        <time>2013-04-14T06:43:27Z</time>
      </trkpt>
      <trkpt lat="48.63171" lon="7.26715">
        <ele>633.17</ele>
        <time>2013-04-14T06:43:28Z</time>
      </trkpt>
      <trkpt lat="48.6317" lon="7.2671">
        <ele>633.65</ele>
        <time>2013-04-14T06:43:29Z</time>
      </trkpt>
      <trkpt lat="48.63169" lon="7.26705">
        <ele>633.65</ele>
        <time>2013-04-14T06:43:30Z</time>
      </trkpt>
      <trkpt lat="48.63166" lon="7.26656">
        <ele>636.05</ele>
        <time>2013-04-14T06:43:40Z</time>
      </trkpt>
      <trkpt lat="48.63167" lon="7.26645">
        <ele>637.01</ele>
        <time>2013-04-14T06:43:43Z</time>
      </trkpt>
      <trkpt lat="48.63166" lon="7.26632">
        <ele>638.45</ele>
        <time>2013-04-14T06:43:47Z</time>
      </trkpt>
      <trkpt lat="48.63166" lon="7.2663">
        <ele>638.45</ele>
        <time>2013-04-14T06:43:48Z</time>
      </trkpt>
      <trkpt lat="48.63166" lon="7.26624">
        <ele>638.93</ele>
        <time>2013-04-14T06:43:50Z</time>
      </trkpt>
      <trkpt lat="48.63165" lon="7.26609">
        <ele>640.38</ele>
        <time>2013-04-14T06:43:55Z</time>
      </trkpt>
      <trkpt lat="48.63166" lon="7.26605">
        <ele>640.38</ele>
        <time>2013-04-14T06:43:56Z</time>
      </trkpt>
      <trkpt lat="48.63166" lon="7.26601">
        <ele>640.86</ele>
        <time>2013-04-14T06:43:57Z</time>
      </trkpt>
      <trkpt lat="48.63166" lon="7.26598">
        <ele>641.34</ele>
        <time>2013-04-14T06:43:58Z</time>
      </trkpt>
      <trkpt lat="48.63167" lon="7.26594">
        <ele>641.34</ele>
        <time>2013-04-14T06:43:59Z</time>
      </trkpt>
      <trkpt lat="48.63168" lon="7.26591">
        <ele>641.82</ele>
        <time>2013-04-14T06:44:00Z</time>
      </trkpt>
      <trkpt lat="48.63168" lon="7.26588">
        <ele>642.3</ele>
        <time>2013-04-14T06:44:01Z</time>
      </trkpt>
      <trkpt lat="48.63168" lon="7.26585">
        <ele>642.3</ele>
        <time>2013-04-14T06:44:02Z</time>
      </trkpt>
      <trkpt lat="48.63168" lon="7.26582">
        <ele>642.78</ele>
        <time>2013-04-14T06:44:03Z</time>
      </trkpt>
      <trkpt lat="48.63167" lon="7.26579">
        <ele>642.78</ele>
        <time>2013-04-14T06:44:04Z</time>
      </trkpt>
      <trkpt lat="48.63167" lon="7.26577">
        <ele>642.78</ele>
        <time>2013-04-14T06:44:05Z</time>
      </trkpt>
      <trkpt lat="48.63166" lon="7.26555">
        <ele>645.18</ele>
        <time>2013-04-14T06:44:14Z</time>
      </trkpt>
      <trkpt lat="48.63166" lon="7.26547">
        <ele>645.66</ele>
        <time>2013-04-14T06:44:26Z</time>
      </trkpt>
      <trkpt lat="48.63164" lon="7.26546">
        <ele>645.66</ele>
        <time>2013-04-14T06:44:36Z</time>
      </trkpt>
      <trkpt lat="48.63164" lon="7.26544">
        <ele>646.14</ele>
        <time>2013-04-14T06:44:37Z</time>
      </trkpt>
      <trkpt lat="48.63163" lon="7.26542">
        <ele>646.14</ele>
        <time>2013-04-14T06:44:38Z</time>
      </trkpt>
      <trkpt lat="48.63163" lon="7.26541">
        <ele>646.62</ele>
        <time>2013-04-14T06:44:39Z</time>
      </trkpt>
      <trkpt lat="48.63162" lon="7.26539">
        <ele>647.1</ele>
        <time>2013-04-14T06:44:40Z</time>
      </trkpt>
      <trkpt lat="48.63162" lon="7.26536">
        <ele>647.1</ele>
        <time>2013-04-14T06:44:41Z</time>
      </trkpt>
      <trkpt lat="48.63162" lon="7.26534">
        <ele>647.1</ele>
        <time>2013-04-14T06:44:42Z</time>
      </trkpt>
      <trkpt lat="48.63161" lon="7.26532">
        <ele>647.1</ele>
        <time>2013-04-14T06:44:43Z</time>
      </trkpt>
      <trkpt lat="48.63161" lon="7.2653">
        <ele>647.59</ele>
        <time>2013-04-14T06:44:44Z</time>
      </trkpt>
      <trkpt lat="48.63158" lon="7.26518">
        <ele>648.55</ele>
        <time>2013-04-14T06:44:50Z</time>
      </trkpt>
      <trkpt lat="48.63157" lon="7.26509">
        <ele>649.51</ele>
        <time>2013-04-14T06:45:01Z</time>
      </trkpt>
      <trkpt lat="48.63156" lon="7.26505">
        <ele>649.51</ele>
        <time>2013-04-14T06:45:04Z</time>
      </trkpt>
      <trkpt lat="48.63155" lon="7.26503">
        <ele>649.51</ele>
        <time>2013-04-14T06:45:05Z</time>
      </trkpt>
      <trkpt lat="48.63155" lon="7.265">
        <ele>649.99</ele>
        <time>2013-04-14T06:45:06Z</time>
      </trkpt>
      <trkpt lat="48.63154" lon="7.26498">
        <ele>649.99</ele>
        <time>2013-04-14T06:45:07Z</time>
      </trkpt>
      <trkpt lat="48.63154" lon="7.26496">
        <ele>649.99</ele>
        <time>2013-04-14T06:45:08Z</time>
      </trkpt>
      <trkpt lat="48.63154" lon="7.26494">
        <ele>649.99</ele>
        <time>2013-04-14T06:45:09Z</time>
      </trkpt>
      <trkpt lat="48.63155" lon="7.26471">
        <ele>651.43</ele>
        <time>2013-04-14T06:45:20Z</time>
      </trkpt>
      <trkpt lat="48.63155" lon="7.26465">
        <ele>651.91</ele>
        <time>2013-04-14T06:45:23Z</time>
      </trkpt>
      <trkpt lat="48.63155" lon="7.26462">
        <ele>652.39</ele>
        <time>2013-04-14T06:45:24Z</time>
      </trkpt>
      <trkpt lat="48.63155" lon="7.26459">
        <ele>652.39</ele>
        <time>2013-04-14T06:45:25Z</time>
      </trkpt>
      <trkpt lat="48.63156" lon="7.26446">
        <ele>653.35</ele>
        <time>2013-04-14T06:45:31Z</time>
      </trkpt>
      <trkpt lat="48.63156" lon="7.26443">
        <ele>653.35</ele>
        <time>2013-04-14T06:45:32Z</time>
      </trkpt>
      <trkpt lat="48.63156" lon="7.2644">
        <ele>653.35</ele>
        <time>2013-04-14T06:45:33Z</time>
      </trkpt>
      <trkpt lat="48.63155" lon="7.26438">
        <ele>653.83</ele>
        <time>2013-04-14T06:45:34Z</time>
      </trkpt>
      <trkpt lat="48.63155" lon="7.26435">
        <ele>653.83</ele>
        <time>2013-04-14T06:45:35Z</time>
      </trkpt>
      <trkpt lat="48.63154" lon="7.26432">
        <ele>653.83</ele>
        <time>2013-04-14T06:45:36Z</time>
      </trkpt>
      <trkpt lat="48.63154" lon="7.2643">
        <ele>653.83</ele>
        <time>2013-04-14T06:45:37Z</time>
      </trkpt>
      <trkpt lat="48.63153" lon="7.26428">
        <ele>653.83</ele>
        <time>2013-04-14T06:45:38Z</time>
      </trkpt>
      <trkpt lat="48.63153" lon="7.26421">
        <ele>654.31</ele>
        <time>2013-04-14T06:45:41Z</time>
      </trkpt>
      <trkpt lat="48.63152" lon="7.26419">
        <ele>654.8</ele>
        <time>2013-04-14T06:45:42Z</time>
      </trkpt>
      <trkpt lat="48.63151" lon="7.26416">
        <ele>654.8</ele>
        <time>2013-04-14T06:45:43Z</time>
      </trkpt>
      <trkpt lat="48.63151" lon="7.26414">
        <ele>654.8</ele>
        <time>2013-04-14T06:45:44Z</time>
      </trkpt>
      <trkpt lat="48.63152" lon="7.26412">
        <ele>654.8</ele>
        <time>2013-04-14T06:45:45Z</time>
      </trkpt>
      <trkpt lat="48.63152" lon="7.2641">
        <ele>654.8</ele>
        <time>2013-04-14T06:45:46Z</time>
      </trkpt>
      <trkpt lat="48.63152" lon="7.26408">
        <ele>655.28</ele>
        <time>2013-04-14T06:45:47Z</time>
      </trkpt>
      <trkpt lat="48.63152" lon="7.26406">
        <ele>655.76</ele>
        <time>2013-04-14T06:45:48Z</time>
      </trkpt>
      <trkpt lat="48.63152" lon="7.26404">
        <ele>655.76</ele>
        <time>2013-04-14T06:45:49Z</time>
      </trkpt>
      <trkpt lat="48.63149" lon="7.26387">
        <ele>658.16</ele>
        <time>2013-04-14T06:45:58Z</time>
      </trkpt>
      <trkpt lat="48.63148" lon="7.26385">
        <ele>658.16</ele>
        <time>2013-04-14T06:45:59Z</time>
      </trkpt>
      <trkpt lat="48.63142" lon="7.26368">
        <ele>661.04</ele>
        <time>2013-04-14T06:46:10Z</time>
      </trkpt>
      <trkpt lat="48.63142" lon="7.26357">
        <ele>662.49</ele>
        <time>2013-04-14T06:46:19Z</time>
      </trkpt>
      <trkpt lat="48.63141" lon="7.26344">
        <ele>664.41</ele>
        <time>2013-04-14T06:46:32Z</time>
      </trkpt>
      <trkpt lat="48.63141" lon="7.26336">
        <ele>666.33</ele>
        <time>2013-04-14T06:46:43Z</time>
      </trkpt>
      <trkpt lat="48.63141" lon="7.26331">
        <ele>666.81</ele>
        <time>2013-04-14T06:46:54Z</time>
      </trkpt>
      <trkpt lat="48.63141" lon="7.26329">
        <ele>666.81</ele>
        <time>2013-04-14T06:46:55Z</time>
      </trkpt>
      <trkpt lat="48.63141" lon="7.26327">
        <ele>667.29</ele>
        <time>2013-04-14T06:46:56Z</time>
      </trkpt>
      <trkpt lat="48.63141" lon="7.26326">
        <ele>667.29</ele>
        <time>2013-04-14T06:46:57Z</time>
      </trkpt>
      <trkpt lat="48.63141" lon="7.26322">
        <ele>667.77</ele>
        <time>2013-04-14T06:46:59Z</time>
      </trkpt>
      <trkpt lat="48.6314" lon="7.26319">
        <ele>667.77</ele>
        <time>2013-04-14T06:47:00Z</time>
      </trkpt>
      <trkpt lat="48.63137" lon="7.26302">
        <ele>669.7</ele>
        <time>2013-04-14T06:47:08Z</time>
      </trkpt>
      <trkpt lat="48.63133" lon="7.26286">
        <ele>671.14</ele>
        <time>2013-04-14T06:47:18Z</time>
      </trkpt>
      <trkpt lat="48.63125" lon="7.26275">
        <ele>671.62</ele>
        <time>2013-04-14T06:47:26Z</time>
      </trkpt>
      <trkpt lat="48.63123" lon="7.26272">
        <ele>672.1</ele>
        <time>2013-04-14T06:47:27Z</time>
      </trkpt>
      <trkpt lat="48.63122" lon="7.2627">
        <ele>672.1</ele>
        <time>2013-04-14T06:47:28Z</time>
      </trkpt>
      <trkpt lat="48.63111" lon="7.2624">
        <ele>674.5</ele>
        <time>2013-04-14T06:47:41Z</time>
      </trkpt>
      <trkpt lat="48.6311" lon="7.26237">
        <ele>674.5</ele>
        <time>2013-04-14T06:47:42Z</time>
      </trkpt>
      <trkpt lat="48.6311" lon="7.26235">
        <ele>674.5</ele>
        <time>2013-04-14T06:47:43Z</time>
      </trkpt>
      <trkpt lat="48.63108" lon="7.26228">
        <ele>675.46</ele>
        <time>2013-04-14T06:47:45Z</time>
      </trkpt>
      <trkpt lat="48.63107" lon="7.26223">
        <ele>675.46</ele>
        <time>2013-04-14T06:47:47Z</time>
      </trkpt>
      <trkpt lat="48.63105" lon="7.2622">
        <ele>675.94</ele>
        <time>2013-04-14T06:47:48Z</time>
      </trkpt>
      <trkpt lat="48.63104" lon="7.26217">
        <ele>675.94</ele>
        <time>2013-04-14T06:47:49Z</time>
      </trkpt>
      <trkpt lat="48.63102" lon="7.26214">
        <ele>675.94</ele>
        <time>2013-04-14T06:47:50Z</time>
      </trkpt>
      <trkpt lat="48.63101" lon="7.26212">
        <ele>675.94</ele>
        <time>2013-04-14T06:47:51Z</time>
      </trkpt>
      <trkpt lat="48.63098" lon="7.26209">
        <ele>676.42</ele>
        <time>2013-04-14T06:47:52Z</time>
      </trkpt>
      <trkpt lat="48.63097" lon="7.26207">
        <ele>677.87</ele>
        <time>2013-04-14T06:47:53Z</time>
      </trkpt>
      <trkpt lat="48.63096" lon="7.26204">
        <ele>676.91</ele>
        <time>2013-04-14T06:47:54Z</time>
      </trkpt>
      <trkpt lat="48.6309" lon="7.26188">
        <ele>677.87</ele>
        <time>2013-04-14T06:48:01Z</time>
      </trkpt>
      <trkpt lat="48.63088" lon="7.26186">
        <ele>677.87</ele>
        <time>2013-04-14T06:48:02Z</time>
      </trkpt>
      <trkpt lat="48.63086" lon="7.26184">
        <ele>677.87</ele>
        <time>2013-04-14T06:48:03Z</time>
      </trkpt>
      <trkpt lat="48.63084" lon="7.26182">
        <ele>677.39</ele>
        <time>2013-04-14T06:48:04Z</time>
      </trkpt>
      <trkpt lat="48.63084" lon="7.2618">
        <ele>677.39</ele>
        <time>2013-04-14T06:48:05Z</time>
      </trkpt>
      <trkpt lat="48.63083" lon="7.26178">
        <ele>677.87</ele>
        <time>2013-04-14T06:48:06Z</time>
      </trkpt>
      <trkpt lat="48.63083" lon="7.26176">
        <ele>677.87</ele>
        <time>2013-04-14T06:48:07Z</time>
      </trkpt>
      <trkpt lat="48.63083" lon="7.26174">
        <ele>678.35</ele>
        <time>2013-04-14T06:48:08Z</time>
      </trkpt>
      <trkpt lat="48.63082" lon="7.26172">
        <ele>678.35</ele>
        <time>2013-04-14T06:48:09Z</time>
      </trkpt>
      <trkpt lat="48.63082" lon="7.2617">
        <ele>678.35</ele>
        <time>2013-04-14T06:48:10Z</time>
      </trkpt>
      <trkpt lat="48.63082" lon="7.26168">
        <ele>678.35</ele>
        <time>2013-04-14T06:48:11Z</time>
      </trkpt>
      <trkpt lat="48.63082" lon="7.26166">
        <ele>678.83</ele>
        <time>2013-04-14T06:48:12Z</time>
      </trkpt>
      <trkpt lat="48.63084" lon="7.26144">
        <ele>681.71</ele>
        <time>2013-04-14T06:48:22Z</time>
      </trkpt>
      <trkpt lat="48.63085" lon="7.26123">
        <ele>685.08</ele>
        <time>2013-04-14T06:48:33Z</time>
      </trkpt>
      <trkpt lat="48.63086" lon="7.26114">
        <ele>685.56</ele>
        <time>2013-04-14T06:48:37Z</time>
      </trkpt>
      <trkpt lat="48.63085" lon="7.26112">
        <ele>685.56</ele>
        <time>2013-04-14T06:48:38Z</time>
      </trkpt>
      <trkpt lat="48.63085" lon="7.2611">
        <ele>685.56</ele>
        <time>2013-04-14T06:48:39Z</time>
      </trkpt>
      <trkpt lat="48.63086" lon="7.26106">
        <ele>685.56</ele>
        <time>2013-04-14T06:48:41Z</time>
      </trkpt>
      <trkpt lat="48.63086" lon="7.26105">
        <ele>685.56</ele>
        <time>2013-04-14T06:48:42Z</time>
      </trkpt>
      <trkpt lat="48.63087" lon="7.26103">
        <ele>686.04</ele>
        <time>2013-04-14T06:48:43Z</time>
      </trkpt>
      <trkpt lat="48.63088" lon="7.26102">
        <ele>686.04</ele>
        <time>2013-04-14T06:48:44Z</time>
      </trkpt>
      <trkpt lat="48.63089" lon="7.26101">
        <ele>686.04</ele>
        <time>2013-04-14T06:48:45Z</time>
      </trkpt>
      <trkpt lat="48.63094" lon="7.26093">
        <ele>685.56</ele>
        <time>2013-04-14T06:48:51Z</time>
      </trkpt>
      <trkpt lat="48.63095" lon="7.2609">
        <ele>686.04</ele>
        <time>2013-04-14T06:48:53Z</time>
      </trkpt>
      <trkpt lat="48.63096" lon="7.26089">
        <ele>686.04</ele>
        <time>2013-04-14T06:48:54Z</time>
      </trkpt>
      <trkpt lat="48.63096" lon="7.26087">
        <ele>686.04</ele>
        <time>2013-04-14T06:48:55Z</time>
      </trkpt>
      <trkpt lat="48.63095" lon="7.26085">
        <ele>686.04</ele>
        <time>2013-04-14T06:48:56Z</time>
      </trkpt>
      <trkpt lat="48.63094" lon="7.26084">
        <ele>686.52</ele>
        <time>2013-04-14T06:48:57Z</time>
      </trkpt>
      <trkpt lat="48.63093" lon="7.26083">
        <ele>686.52</ele>
        <time>2013-04-14T06:48:58Z</time>
      </trkpt>
      <trkpt lat="48.63092" lon="7.26081">
        <ele>686.52</ele>
        <time>2013-04-14T06:48:59Z</time>
      </trkpt>
      <trkpt lat="48.63091" lon="7.2608">
        <ele>686.52</ele>
        <time>2013-04-14T06:49:00Z</time>
      </trkpt>
      <trkpt lat="48.6309" lon="7.26078">
        <ele>686.52</ele>
        <time>2013-04-14T06:49:01Z</time>
      </trkpt>
      <trkpt lat="48.63087" lon="7.26075">
        <ele>686.52</ele>
        <time>2013-04-14T06:49:04Z</time>
      </trkpt>
      <trkpt lat="48.63086" lon="7.26074">
        <ele>687</ele>
        <time>2013-04-14T06:49:05Z</time>
      </trkpt>
      <trkpt lat="48.63085" lon="7.26073">
        <ele>687</ele>
        <time>2013-04-14T06:49:06Z</time>
      </trkpt>
      <trkpt lat="48.63084" lon="7.26071">
        <ele>687</ele>
        <time>2013-04-14T06:49:07Z</time>
      </trkpt>
      <trkpt lat="48.63084" lon="7.2607">
        <ele>687</ele>
        <time>2013-04-14T06:49:08Z</time>
      </trkpt>
      <trkpt lat="48.63083" lon="7.26068">
        <ele>687</ele>
        <time>2013-04-14T06:49:09Z</time>
      </trkpt>
      <trkpt lat="48.6308" lon="7.26067">
        <ele>687</ele>
        <time>2013-04-14T06:49:23Z</time>
      </trkpt>
      <trkpt lat="48.63081" lon="7.26067">
        <ele>687</ele>
        <time>2013-04-14T06:49:42Z</time>
      </trkpt>
      <trkpt lat="48.63082" lon="7.26068">
        <ele>687</ele>
        <time>2013-04-14T06:49:59Z</time>
      </trkpt>
      <trkpt lat="48.63082" lon="7.26068">
        <ele>687</ele>
        <time>2013-04-14T06:50:00Z</time>
      </trkpt>
      <trkpt lat="48.63085" lon="7.26074">
        <ele>686.52</ele>
        <time>2013-04-14T06:50:04Z</time>
      </trkpt>
      <trkpt lat="48.63089" lon="7.26078">
        <ele>686.52</ele>
        <time>2013-04-14T06:50:17Z</time>
      </trkpt>
      <trkpt lat="48.63089" lon="7.26079">
        <ele>686.52</ele>
        <time>2013-04-14T06:50:47Z</time>
      </trkpt>
      <trkpt lat="48.63089" lon="7.26079">
        <ele>686.52</ele>
        <time>2013-04-14T06:51:17Z</time>
      </trkpt>
      <trkpt lat="48.6309" lon="7.26078">
        <ele>686.04</ele>
        <time>2013-04-14T06:51:37Z</time>
      </trkpt>
      <trkpt lat="48.6309" lon="7.2608">
        <ele>686.04</ele>
        <time>2013-04-14T06:52:07Z</time>
      </trkpt>
      <trkpt lat="48.6309" lon="7.26079">
        <ele>686.04</ele>
        <time>2013-04-14T06:52:35Z</time>
      </trkpt>
      <trkpt lat="48.6309" lon="7.26081">
        <ele>686.04</ele>
        <time>2013-04-14T06:53:00Z</time>
      </trkpt>
      <trkpt lat="48.63091" lon="7.2608">
        <ele>686.04</ele>
        <time>2013-04-14T06:53:20Z</time>
      </trkpt>
      <trkpt lat="48.6309" lon="7.26081">
        <ele>686.04</ele>
        <time>2013-04-14T06:53:43Z</time>
      </trkpt>
      <trkpt lat="48.6309" lon="7.2608">
        <ele>686.04</ele>
        <time>2013-04-14T06:54:10Z</time>
      </trkpt>
      <trkpt lat="48.6309" lon="7.2608">
        <ele>686.04</ele>
        <time>2013-04-14T06:54:37Z</time>
      </trkpt>
      <trkpt lat="48.63089" lon="7.26079">
        <ele>686.04</ele>
        <time>2013-04-14T06:55:06Z</time>
      </trkpt>
      <trkpt lat="48.63089" lon="7.26079">
        <ele>686.04</ele>
        <time>2013-04-14T06:55:33Z</time>
      </trkpt>
      <trkpt lat="48.63089" lon="7.26079">
        <ele>686.04</ele>
        <time>2013-04-14T06:55:55Z</time>
      </trkpt>
      <trkpt lat="48.6309" lon="7.26077">
        <ele>686.52</ele>
        <time>2013-04-14T06:56:10Z</time>
      </trkpt>
      <trkpt lat="48.63089" lon="7.26076">
        <ele>686.52</ele>
        <time>2013-04-14T06:56:32Z</time>
      </trkpt>
      <trkpt lat="48.63089" lon="7.26075">
        <ele>686.52</ele>
        <time>2013-04-14T06:56:51Z</time>
      </trkpt>
      <trkpt lat="48.63091" lon="7.2608">
        <ele>686.52</ele>
        <time>2013-04-14T06:57:02Z</time>
      </trkpt>
      <trkpt lat="48.63086" lon="7.26085">
        <ele>686.04</ele>
        <time>2013-04-14T06:57:08Z</time>
      </trkpt>
      <trkpt lat="48.63085" lon="7.26081">
        <ele>686.04</ele>
        <time>2013-04-14T06:57:13Z</time>
      </trkpt>
      <trkpt lat="48.63085" lon="7.2608">
        <ele>686.52</ele>
        <time>2013-04-14T06:57:14Z</time>
      </trkpt>
      <trkpt lat="48.63085" lon="7.26077">
        <ele>686.52</ele>
        <time>2013-04-14T06:57:16Z</time>
      </trkpt>
      <trkpt lat="48.63084" lon="7.26074">
        <ele>686.52</ele>
        <time>2013-04-14T06:57:18Z</time>
      </trkpt>
      <trkpt lat="48.63083" lon="7.26073">
        <ele>686.52</ele>
        <time>2013-04-14T06:57:19Z</time>
      </trkpt>
      <trkpt lat="48.63083" lon="7.26072">
        <ele>686.52</ele>
        <time>2013-04-14T06:57:20Z</time>
      </trkpt>
      <trkpt lat="48.63082" lon="7.26071">
        <ele>686.52</ele>
        <time>2013-04-14T06:57:21Z</time>
      </trkpt>
      <trkpt lat="48.63081" lon="7.2607">
        <ele>686.52</ele>
        <time>2013-04-14T06:57:22Z</time>
      </trkpt>
      <trkpt lat="48.63079" lon="7.26068">
        <ele>687</ele>
        <time>2013-04-14T06:57:24Z</time>
      </trkpt>
      <trkpt lat="48.63074" lon="7.26067">
        <ele>686.52</ele>
        <time>2013-04-14T06:57:28Z</time>
      </trkpt>
      <trkpt lat="48.63073" lon="7.26065">
        <ele>686.52</ele>
        <time>2013-04-14T06:57:29Z</time>
      </trkpt>
      <trkpt lat="48.63072" lon="7.26063">
        <ele>686.52</ele>
        <time>2013-04-14T06:57:30Z</time>
      </trkpt>
      <trkpt lat="48.63071" lon="7.26061">
        <ele>686.52</ele>
        <time>2013-04-14T06:57:31Z</time>
      </trkpt>
      <trkpt lat="48.6307" lon="7.26059">
        <ele>687</ele>
        <time>2013-04-14T06:57:32Z</time>
      </trkpt>
      <trkpt lat="48.63069" lon="7.26057">
        <ele>686.52</ele>
        <time>2013-04-14T06:57:33Z</time>
      </trkpt>
      <trkpt lat="48.63052" lon="7.26036">
        <ele>687.48</ele>
        <time>2013-04-14T06:57:44Z</time>
      </trkpt>
      <trkpt lat="48.63028" lon="7.26014">
        <ele>688.44</ele>
        <time>2013-04-14T06:57:57Z</time>
      </trkpt>
      <trkpt lat="48.63027" lon="7.26012">
        <ele>689.88</ele>
        <time>2013-04-14T06:57:58Z</time>
      </trkpt>
      <trkpt lat="48.63025" lon="7.26011">
        <ele>688.92</ele>
        <time>2013-04-14T06:57:59Z</time>
      </trkpt>
      <trkpt lat="48.63004" lon="7.25994">
        <ele>690.36</ele>
        <time>2013-04-14T06:58:11Z</time>
      </trkpt>
      <trkpt lat="48.62999" lon="7.2599">
        <ele>691.81</ele>
        <time>2013-04-14T06:58:14Z</time>
      </trkpt>
      <trkpt lat="48.62997" lon="7.2599">
        <ele>692.29</ele>
        <time>2013-04-14T06:58:15Z</time>
      </trkpt>
      <trkpt lat="48.62995" lon="7.25989">
        <ele>692.29</ele>
        <time>2013-04-14T06:58:16Z</time>
      </trkpt>
      <trkpt lat="48.62993" lon="7.25988">
        <ele>692.77</ele>
        <time>2013-04-14T06:58:17Z</time>
      </trkpt>
      <trkpt lat="48.62992" lon="7.25987">
        <ele>692.77</ele>
        <time>2013-04-14T06:58:18Z</time>
      </trkpt>
      <trkpt lat="48.6299" lon="7.25985">
        <ele>692.77</ele>
        <time>2013-04-14T06:58:19Z</time>
      </trkpt>
      <trkpt lat="48.62989" lon="7.25983">
        <ele>692.77</ele>
        <time>2013-04-14T06:58:20Z</time>
      </trkpt>
      <trkpt lat="48.62988" lon="7.25981">
        <ele>693.25</ele>
        <time>2013-04-14T06:58:21Z</time>
      </trkpt>
      <trkpt lat="48.62988" lon="7.25979">
        <ele>693.25</ele>
        <time>2013-04-14T06:58:22Z</time>
      </trkpt>
      <trkpt lat="48.62987" lon="7.25977">
        <ele>693.25</ele>
        <time>2013-04-14T06:58:23Z</time>
      </trkpt>
      <trkpt lat="48.62986" lon="7.25975">
        <ele>693.25</ele>
        <time>2013-04-14T06:58:24Z</time>
      </trkpt>
      <trkpt lat="48.62984" lon="7.25974">
        <ele>693.25</ele>
        <time>2013-04-14T06:58:25Z</time>
      </trkpt>
      <trkpt lat="48.62968" lon="7.25948">
        <ele>695.65</ele>
        <time>2013-04-14T06:58:38Z</time>
      </trkpt>
      <trkpt lat="48.62967" lon="7.25945">
        <ele>695.65</ele>
        <time>2013-04-14T06:58:39Z</time>
      </trkpt>
      <trkpt lat="48.62963" lon="7.25935">
        <ele>696.13</ele>
        <time>2013-04-14T06:58:44Z</time>
      </trkpt>
      <trkpt lat="48.62962" lon="7.25934">
        <ele>696.13</ele>
        <time>2013-04-14T06:58:45Z</time>
      </trkpt>
      <trkpt lat="48.62961" lon="7.25933">
        <ele>696.61</ele>
        <time>2013-04-14T06:58:46Z</time>
      </trkpt>
      <trkpt lat="48.6296" lon="7.25931">
        <ele>697.09</ele>
        <time>2013-04-14T06:58:47Z</time>
      </trkpt>
      <trkpt lat="48.62959" lon="7.25929">
        <ele>697.09</ele>
        <time>2013-04-14T06:58:48Z</time>
      </trkpt>
      <trkpt lat="48.62943" lon="7.25898">
        <ele>699.02</ele>
        <time>2013-04-14T06:59:03Z</time>
      </trkpt>
      <trkpt lat="48.62929" lon="7.25869">
        <ele>702.38</ele>
        <time>2013-04-14T06:59:16Z</time>
      </trkpt>
      <trkpt lat="48.62928" lon="7.25867">
        <ele>702.38</ele>
        <time>2013-04-14T06:59:17Z</time>
      </trkpt>
      <trkpt lat="48.62927" lon="7.25864">
        <ele>702.86</ele>
        <time>2013-04-14T06:59:18Z</time>
      </trkpt>
      <trkpt lat="48.62926" lon="7.25862">
        <ele>702.86</ele>
        <time>2013-04-14T06:59:19Z</time>
      </trkpt>
      <trkpt lat="48.62925" lon="7.25859">
        <ele>703.34</ele>
        <time>2013-04-14T06:59:20Z</time>
      </trkpt>
      <trkpt lat="48.62924" lon="7.25857">
        <ele>703.34</ele>
        <time>2013-04-14T06:59:21Z</time>
      </trkpt>
      <trkpt lat="48.62923" lon="7.25854">
        <ele>703.34</ele>
        <time>2013-04-14T06:59:22Z</time>
      </trkpt>
      <trkpt lat="48.62911" lon="7.25824">
        <ele>705.75</ele>
        <time>2013-04-14T06:59:34Z</time>
      </trkpt>
      <trkpt lat="48.62909" lon="7.25821">
        <ele>706.23</ele>
        <time>2013-04-14T06:59:35Z</time>
      </trkpt>
      <trkpt lat="48.62909" lon="7.25819">
        <ele>706.23</ele>
        <time>2013-04-14T06:59:36Z</time>
      </trkpt>
      <trkpt lat="48.62908" lon="7.25816">
        <ele>706.71</ele>
        <time>2013-04-14T06:59:37Z</time>
      </trkpt>
      <trkpt lat="48.62906" lon="7.25813">
        <ele>706.71</ele>
        <time>2013-04-14T06:59:38Z</time>
      </trkpt>
      <trkpt lat="48.62905" lon="7.25811">
        <ele>707.19</ele>
        <time>2013-04-14T06:59:39Z</time>
      </trkpt>
      <trkpt lat="48.62895" lon="7.2578">
        <ele>710.55</ele>
        <time>2013-04-14T06:59:50Z</time>
      </trkpt>
      <trkpt lat="48.62885" lon="7.25733">
        <ele>712.95</ele>
        <time>2013-04-14T07:00:05Z</time>
      </trkpt>
      <trkpt lat="48.62876" lon="7.25699">
        <ele>716.32</ele>
        <time>2013-04-14T07:00:16Z</time>
      </trkpt>
      <trkpt lat="48.62869" lon="7.25664">
        <ele>719.68</ele>
        <time>2013-04-14T07:00:28Z</time>
      </trkpt>
      <trkpt lat="48.62864" lon="7.25644">
        <ele>721.13</ele>
        <time>2013-04-14T07:00:36Z</time>
      </trkpt>
      <trkpt lat="48.62864" lon="7.25642">
        <ele>721.61</ele>
        <time>2013-04-14T07:00:37Z</time>
      </trkpt>
      <trkpt lat="48.62864" lon="7.2564">
        <ele>722.09</ele>
        <time>2013-04-14T07:00:38Z</time>
      </trkpt>
      <trkpt lat="48.62862" lon="7.25633">
        <ele>723.05</ele>
        <time>2013-04-14T07:00:41Z</time>
      </trkpt>
      <trkpt lat="48.62858" lon="7.25625">
        <ele>724.01</ele>
        <time>2013-04-14T07:00:45Z</time>
      </trkpt>
      <trkpt lat="48.62858" lon="7.25623">
        <ele>724.01</ele>
        <time>2013-04-14T07:00:46Z</time>
      </trkpt>
      <trkpt lat="48.62856" lon="7.25622">
        <ele>724.49</ele>
        <time>2013-04-14T07:00:47Z</time>
      </trkpt>
      <trkpt lat="48.62855" lon="7.2562">
        <ele>724.49</ele>
        <time>2013-04-14T07:00:48Z</time>
      </trkpt>
      <trkpt lat="48.62855" lon="7.25619">
        <ele>724.97</ele>
        <time>2013-04-14T07:00:49Z</time>
      </trkpt>
      <trkpt lat="48.62854" lon="7.25618">
        <ele>724.97</ele>
        <time>2013-04-14T07:00:50Z</time>
      </trkpt>
      <trkpt lat="48.62839" lon="7.25607">
        <ele>728.34</ele>
        <time>2013-04-14T07:01:04Z</time>
      </trkpt>
      <trkpt lat="48.6283" lon="7.25606">
        <ele>729.3</ele>
        <time>2013-04-14T07:01:11Z</time>
      </trkpt>
      <trkpt lat="48.62813" lon="7.25604">
        <ele>732.18</ele>
        <time>2013-04-14T07:01:26Z</time>
      </trkpt>
      <trkpt lat="48.6281" lon="7.25605">
        <ele>732.18</ele>
        <time>2013-04-14T07:01:37Z</time>
      </trkpt>
      <trkpt lat="48.62811" lon="7.25606">
        <ele>732.18</ele>
        <time>2013-04-14T07:01:56Z</time>
      </trkpt>
      <trkpt lat="48.62806" lon="7.2561">
        <ele>732.66</ele>
        <time>2013-04-14T07:02:08Z</time>
      </trkpt>
      <trkpt lat="48.62805" lon="7.25611">
        <ele>732.66</ele>
        <time>2013-04-14T07:02:09Z</time>
      </trkpt>
      <trkpt lat="48.628" lon="7.25614">
        <ele>733.14</ele>
        <time>2013-04-14T07:02:12Z</time>
      </trkpt>
      <trkpt lat="48.62799" lon="7.25616">
        <ele>733.14</ele>
        <time>2013-04-14T07:02:13Z</time>
      </trkpt>
      <trkpt lat="48.62793" lon="7.25622">
        <ele>734.58</ele>
        <time>2013-04-14T07:02:18Z</time>
      </trkpt>
      <trkpt lat="48.62792" lon="7.25624">
        <ele>734.58</ele>
        <time>2013-04-14T07:02:19Z</time>
      </trkpt>
      <trkpt lat="48.62791" lon="7.25627">
        <ele>735.07</ele>
        <time>2013-04-14T07:02:20Z</time>
      </trkpt>
      <trkpt lat="48.6279" lon="7.25629">
        <ele>735.55</ele>
        <time>2013-04-14T07:02:21Z</time>
      </trkpt>
      <trkpt lat="48.62789" lon="7.25631">
        <ele>735.55</ele>
        <time>2013-04-14T07:02:22Z</time>
      </trkpt>
      <trkpt lat="48.62789" lon="7.25634">
        <ele>736.03</ele>
        <time>2013-04-14T07:02:23Z</time>
      </trkpt>
      <trkpt lat="48.62788" lon="7.25637">
        <ele>736.51</ele>
        <time>2013-04-14T07:02:24Z</time>
      </trkpt>
      <trkpt lat="48.62787" lon="7.25639">
        <ele>736.99</ele>
        <time>2013-04-14T07:02:25Z</time>
      </trkpt>
      <trkpt lat="48.6278" lon="7.2566">
        <ele>739.87</ele>
        <time>2013-04-14T07:02:34Z</time>
      </trkpt>
      <trkpt lat="48.62777" lon="7.25692">
        <ele>743.24</ele>
        <time>2013-04-14T07:02:46Z</time>
      </trkpt>
      <trkpt lat="48.62773" lon="7.25729">
        <ele>746.12</ele>
        <time>2013-04-14T07:03:01Z</time>
      </trkpt>
      <trkpt lat="48.6277" lon="7.25741">
        <ele>747.08</ele>
        <time>2013-04-14T07:03:06Z</time>
      </trkpt>
      <trkpt lat="48.62769" lon="7.25743">
        <ele>747.08</ele>
        <time>2013-04-14T07:03:07Z</time>
      </trkpt>
      <trkpt lat="48.62769" lon="7.25746">
        <ele>747.56</ele>
        <time>2013-04-14T07:03:08Z</time>
      </trkpt>
      <trkpt lat="48.62768" lon="7.25748">
        <ele>747.56</ele>
        <time>2013-04-14T07:03:09Z</time>
      </trkpt>
      <trkpt lat="48.62768" lon="7.25751">
        <ele>748.04</ele>
        <time>2013-04-14T07:03:10Z</time>
      </trkpt>
      <trkpt lat="48.62765" lon="7.25761">
        <ele>749</ele>
        <time>2013-04-14T07:03:14Z</time>
      </trkpt>
      <trkpt lat="48.62765" lon="7.25763">
        <ele>749.49</ele>
        <time>2013-04-14T07:03:15Z</time>
      </trkpt>
      <trkpt lat="48.6276" lon="7.25802">
        <ele>751.41</ele>
        <time>2013-04-14T07:03:31Z</time>
      </trkpt>
      <trkpt lat="48.62757" lon="7.25829">
        <ele>751.89</ele>
        <time>2013-04-14T07:03:43Z</time>
      </trkpt>
      <trkpt lat="48.62752" lon="7.25864">
        <ele>753.33</ele>
        <time>2013-04-14T07:03:56Z</time>
      </trkpt>
      <trkpt lat="48.62741" lon="7.25897">
        <ele>754.77</ele>
        <time>2013-04-14T07:04:09Z</time>
      </trkpt>
      <trkpt lat="48.62723" lon="7.25933">
        <ele>755.73</ele>
        <time>2013-04-14T07:04:24Z</time>
      </trkpt>
      <trkpt lat="48.6272" lon="7.25938">
        <ele>756.21</ele>
        <time>2013-04-14T07:04:26Z</time>
      </trkpt>
      <trkpt lat="48.62719" lon="7.25941">
        <ele>756.21</ele>
        <time>2013-04-14T07:04:27Z</time>
      </trkpt>
      <trkpt lat="48.62718" lon="7.25943">
        <ele>756.69</ele>
        <time>2013-04-14T07:04:28Z</time>
      </trkpt>
      <trkpt lat="48.62717" lon="7.25945">
        <ele>756.69</ele>
        <time>2013-04-14T07:04:29Z</time>
      </trkpt>
      <trkpt lat="48.62715" lon="7.25947">
        <ele>757.18</ele>
        <time>2013-04-14T07:04:30Z</time>
      </trkpt>
      <trkpt lat="48.62709" lon="7.25953">
        <ele>757.66</ele>
        <time>2013-04-14T07:04:34Z</time>
      </trkpt>
      <trkpt lat="48.62687" lon="7.25961">
        <ele>759.58</ele>
        <time>2013-04-14T07:04:46Z</time>
      </trkpt>
      <trkpt lat="48.6267" lon="7.25992">
        <ele>761.02</ele>
        <time>2013-04-14T07:04:59Z</time>
      </trkpt>
      <trkpt lat="48.62669" lon="7.26">
        <ele>761.02</ele>
        <time>2013-04-14T07:05:01Z</time>
      </trkpt>
      <trkpt lat="48.6266" lon="7.26026">
        <ele>762.94</ele>
        <time>2013-04-14T07:05:11Z</time>
      </trkpt>
      <trkpt lat="48.62657" lon="7.26037">
        <ele>763.42</ele>
        <time>2013-04-14T07:05:15Z</time>
      </trkpt>
      <trkpt lat="48.62632" lon="7.26078">
        <ele>766.31</ele>
        <time>2013-04-14T07:05:31Z</time>
      </trkpt>
      <trkpt lat="48.62625" lon="7.26083">
        <ele>767.27</ele>
        <time>2013-04-14T07:05:35Z</time>
      </trkpt>
      <trkpt lat="48.62606" lon="7.26111">
        <ele>769.19</ele>
        <time>2013-04-14T07:05:49Z</time>
      </trkpt>
      <trkpt lat="48.62586" lon="7.26134">
        <ele>770.63</ele>
        <time>2013-04-14T07:06:01Z</time>
      </trkpt>
      <trkpt lat="48.62553" lon="7.26157">
        <ele>772.56</ele>
        <time>2013-04-14T07:06:19Z</time>
      </trkpt>
      <trkpt lat="48.62535" lon="7.26167">
        <ele>774</ele>
        <time>2013-04-14T07:06:28Z</time>
      </trkpt>
      <trkpt lat="48.62533" lon="7.26172">
        <ele>774</ele>
        <time>2013-04-14T07:06:30Z</time>
      </trkpt>
      <trkpt lat="48.62505" lon="7.26189">
        <ele>775.44</ele>
        <time>2013-04-14T07:06:44Z</time>
      </trkpt>
      <trkpt lat="48.62478" lon="7.26208">
        <ele>777.36</ele>
        <time>2013-04-14T07:06:56Z</time>
      </trkpt>
      <trkpt lat="48.62446" lon="7.26225">
        <ele>779.77</ele>
        <time>2013-04-14T07:07:09Z</time>
      </trkpt>
      <trkpt lat="48.62436" lon="7.26233">
        <ele>780.25</ele>
        <time>2013-04-14T07:07:14Z</time>
      </trkpt>
      <trkpt lat="48.6243" lon="7.26243">
        <ele>781.21</ele>
        <time>2013-04-14T07:07:18Z</time>
      </trkpt>
      <trkpt lat="48.62412" lon="7.26272">
        <ele>783.61</ele>
        <time>2013-04-14T07:07:29Z</time>
      </trkpt>
      <trkpt lat="48.62393" lon="7.263">
        <ele>785.53</ele>
        <time>2013-04-14T07:07:41Z</time>
      </trkpt>
      <trkpt lat="48.62375" lon="7.2631">
        <ele>787.94</ele>
        <time>2013-04-14T07:07:54Z</time>
      </trkpt>
      <trkpt lat="48.62372" lon="7.2631">
        <ele>788.42</ele>
        <time>2013-04-14T07:08:07Z</time>
      </trkpt>
      <trkpt lat="48.62371" lon="7.2631">
        <ele>788.42</ele>
        <time>2013-04-14T07:08:12Z</time>
      </trkpt>
      <trkpt lat="48.62366" lon="7.26309">
        <ele>788.42</ele>
        <time>2013-04-14T07:08:18Z</time>
      </trkpt>
      <trkpt lat="48.62347" lon="7.26298">
        <ele>789.38</ele>
        <time>2013-04-14T07:08:31Z</time>
      </trkpt>
      <trkpt lat="48.62341" lon="7.26293">
        <ele>789.38</ele>
        <time>2013-04-14T07:08:35Z</time>
      </trkpt>
      <trkpt lat="48.62319" lon="7.26275">
        <ele>789.86</ele>
        <time>2013-04-14T07:08:49Z</time>
      </trkpt>
      <trkpt lat="48.62313" lon="7.26271">
        <ele>790.34</ele>
        <time>2013-04-14T07:08:54Z</time>
      </trkpt>
      <trkpt lat="48.62311" lon="7.2627">
        <ele>790.82</ele>
        <time>2013-04-14T07:08:56Z</time>
      </trkpt>
      <trkpt lat="48.62308" lon="7.26271">
        <ele>790.82</ele>
        <time>2013-04-14T07:09:08Z</time>
      </trkpt>
      <trkpt lat="48.62307" lon="7.2627">
        <ele>790.82</ele>
        <time>2013-04-14T07:09:32Z</time>
      </trkpt>
      <trkpt lat="48.62307" lon="7.26271">
        <ele>790.34</ele>
        <time>2013-04-14T07:09:52Z</time>
      </trkpt>
      <trkpt lat="48.62307" lon="7.26271">
        <ele>790.82</ele>
        <time>2013-04-14T07:10:17Z</time>
      </trkpt>
      <trkpt lat="48.62306" lon="7.26271">
        <ele>790.82</ele>
        <time>2013-04-14T07:10:49Z</time>
      </trkpt>
      <trkpt lat="48.62307" lon="7.26274">
        <ele>791.3</ele>
        <time>2013-04-14T07:11:23Z</time>
      </trkpt>
      <trkpt lat="48.62307" lon="7.26274">
        <ele>791.3</ele>
        <time>2013-04-14T07:11:55Z</time>
      </trkpt>
      <trkpt lat="48.62306" lon="7.26272">
        <ele>792.26</ele>
        <time>2013-04-14T07:12:12Z</time>
      </trkpt>
      <trkpt lat="48.62306" lon="7.26269">
        <ele>791.78</ele>
        <time>2013-04-14T07:12:32Z</time>
      </trkpt>
      <trkpt lat="48.62305" lon="7.26267">
        <ele>792.26</ele>
        <time>2013-04-14T07:13:00Z</time>
      </trkpt>
      <trkpt lat="48.62297" lon="7.26262">
        <ele>792.74</ele>
        <time>2013-04-14T07:13:12Z</time>
      </trkpt>
      <trkpt lat="48.62296" lon="7.26261">
        <ele>792.74</ele>
        <time>2013-04-14T07:13:13Z</time>
      </trkpt>
      <trkpt lat="48.6229" lon="7.26256">
        <ele>792.26</ele>
        <time>2013-04-14T07:13:17Z</time>
      </trkpt>
      <trkpt lat="48.62277" lon="7.26254">
        <ele>792.74</ele>
        <time>2013-04-14T07:13:24Z</time>
      </trkpt>
      <trkpt lat="48.62258" lon="7.26254">
        <ele>793.22</ele>
        <time>2013-04-14T07:13:32Z</time>
      </trkpt>
      <trkpt lat="48.62235" lon="7.2626">
        <ele>794.67</ele>
        <time>2013-04-14T07:13:44Z</time>
      </trkpt>
      <trkpt lat="48.62217" lon="7.26266">
        <ele>795.63</ele>
        <time>2013-04-14T07:13:52Z</time>
      </trkpt>
      <trkpt lat="48.62189" lon="7.26274">
        <ele>797.07</ele>
        <time>2013-04-14T07:14:04Z</time>
      </trkpt>
      <trkpt lat="48.62162" lon="7.26288">
        <ele>798.03</ele>
        <time>2013-04-14T07:14:12Z</time>
      </trkpt>
      <trkpt lat="48.6214" lon="7.26314">
        <ele>799.95</ele>
        <time>2013-04-14T07:14:22Z</time>
      </trkpt>
      <trkpt lat="48.62112" lon="7.26333">
        <ele>799.95</ele>
        <time>2013-04-14T07:14:33Z</time>
      </trkpt>
      <trkpt lat="48.62088" lon="7.26326">
        <ele>799.47</ele>
        <time>2013-04-14T07:14:43Z</time>
      </trkpt>
      <trkpt lat="48.62082" lon="7.26325">
        <ele>799.47</ele>
        <time>2013-04-14T07:14:57Z</time>
      </trkpt>
      <trkpt lat="48.6207" lon="7.26323">
        <ele>798.51</ele>
        <time>2013-04-14T07:15:11Z</time>
      </trkpt>
      <trkpt lat="48.62036" lon="7.26312">
        <ele>798.51</ele>
        <time>2013-04-14T07:15:24Z</time>
      </trkpt>
      <trkpt lat="48.6203" lon="7.2631">
        <ele>798.51</ele>
        <time>2013-04-14T07:15:26Z</time>
      </trkpt>
      <trkpt lat="48.62027" lon="7.26309">
        <ele>798.51</ele>
        <time>2013-04-14T07:15:27Z</time>
      </trkpt>
      <trkpt lat="48.61999" lon="7.26284">
        <ele>796.59</ele>
        <time>2013-04-14T07:15:35Z</time>
      </trkpt>
      <trkpt lat="48.61987" lon="7.26261">
        <ele>796.11</ele>
        <time>2013-04-14T07:15:39Z</time>
      </trkpt>
      <trkpt lat="48.61984" lon="7.26257">
        <ele>795.63</ele>
        <time>2013-04-14T07:15:40Z</time>
      </trkpt>
      <trkpt lat="48.6198" lon="7.26255">
        <ele>795.15</ele>
        <time>2013-04-14T07:15:41Z</time>
      </trkpt>
      <trkpt lat="48.61952" lon="7.26241">
        <ele>791.78</ele>
        <time>2013-04-14T07:15:46Z</time>
      </trkpt>
      <trkpt lat="48.61947" lon="7.26237">
        <ele>790.82</ele>
        <time>2013-04-14T07:15:47Z</time>
      </trkpt>
      <trkpt lat="48.61943" lon="7.26232">
        <ele>789.38</ele>
        <time>2013-04-14T07:15:48Z</time>
      </trkpt>
      <trkpt lat="48.61938" lon="7.26227">
        <ele>786.5</ele>
        <time>2013-04-14T07:15:49Z</time>
      </trkpt>
      <trkpt lat="48.61933" lon="7.26223">
        <ele>785.53</ele>
        <time>2013-04-14T07:15:50Z</time>
      </trkpt>
      <trkpt lat="48.61929" lon="7.2622">
        <ele>784.09</ele>
        <time>2013-04-14T07:15:51Z</time>
      </trkpt>
      <trkpt lat="48.61925" lon="7.26218">
        <ele>783.61</ele>
        <time>2013-04-14T07:15:52Z</time>
      </trkpt>
      <trkpt lat="48.61921" lon="7.26213">
        <ele>782.17</ele>
        <time>2013-04-14T07:15:53Z</time>
      </trkpt>
      <trkpt lat="48.61917" lon="7.26209">
        <ele>781.21</ele>
        <time>2013-04-14T07:15:54Z</time>
      </trkpt>
      <trkpt lat="48.61904" lon="7.26193">
        <ele>777.84</ele>
        <time>2013-04-14T07:15:57Z</time>
      </trkpt>
      <trkpt lat="48.61895" lon="7.2618">
        <ele>774.96</ele>
        <time>2013-04-14T07:16:00Z</time>
      </trkpt>
      <trkpt lat="48.61886" lon="7.26165">
        <ele>772.56</ele>
        <time>2013-04-14T07:16:04Z</time>
      </trkpt>
      <trkpt lat="48.61883" lon="7.26164">
        <ele>772.08</ele>
        <time>2013-04-14T07:16:05Z</time>
      </trkpt>
      <trkpt lat="48.61882" lon="7.26165">
        <ele>772.08</ele>
        <time>2013-04-14T07:16:06Z</time>
      </trkpt>
      <trkpt lat="48.61872" lon="7.2617">
        <ele>768.71</ele>
        <time>2013-04-14T07:16:10Z</time>
      </trkpt>
      <trkpt lat="48.61869" lon="7.26171">
        <ele>766.79</ele>
        <time>2013-04-14T07:16:12Z</time>
      </trkpt>
      <trkpt lat="48.61864" lon="7.2619">
        <ele>763.42</ele>
        <time>2013-04-14T07:16:16Z</time>
      </trkpt>
      <trkpt lat="48.61864" lon="7.26212">
        <ele>760.06</ele>
        <time>2013-04-14T07:16:20Z</time>
      </trkpt>
      <trkpt lat="48.61864" lon="7.26217">
        <ele>759.58</ele>
        <time>2013-04-14T07:16:22Z</time>
      </trkpt>
      <trkpt lat="48.6186" lon="7.26217">
        <ele>757.18</ele>
        <time>2013-04-14T07:16:25Z</time>
      </trkpt>
      <trkpt lat="48.61857" lon="7.26215">
        <ele>756.21</ele>
        <time>2013-04-14T07:16:26Z</time>
      </trkpt>
      <trkpt lat="48.61847" lon="7.26208">
        <ele>752.85</ele>
        <time>2013-04-14T07:16:30Z</time>
      </trkpt>
      <trkpt lat="48.61844" lon="7.26206">
        <ele>752.37</ele>
        <time>2013-04-14T07:16:31Z</time>
      </trkpt>
      <trkpt lat="48.61841" lon="7.26204">
        <ele>751.41</ele>
        <time>2013-04-14T07:16:32Z</time>
      </trkpt>
      <trkpt lat="48.61837" lon="7.26201">
        <ele>750.45</ele>
        <time>2013-04-14T07:16:33Z</time>
      </trkpt>
      <trkpt lat="48.61833" lon="7.26197">
        <ele>749.49</ele>
        <time>2013-04-14T07:16:34Z</time>
      </trkpt>
      <trkpt lat="48.61829" lon="7.26193">
        <ele>748.52</ele>
        <time>2013-04-14T07:16:35Z</time>
      </trkpt>
      <trkpt lat="48.61823" lon="7.26189">
        <ele>747.08</ele>
        <time>2013-04-14T07:16:36Z</time>
      </trkpt>
      <trkpt lat="48.61818" lon="7.26185">
        <ele>746.6</ele>
        <time>2013-04-14T07:16:37Z</time>
      </trkpt>
      <trkpt lat="48.61815" lon="7.26182">
        <ele>745.64</ele>
        <time>2013-04-14T07:16:38Z</time>
      </trkpt>
      <trkpt lat="48.61804" lon="7.26178">
        <ele>742.76</ele>
        <time>2013-04-14T07:16:42Z</time>
      </trkpt>
      <trkpt lat="48.61803" lon="7.26178">
        <ele>742.76</ele>
        <time>2013-04-14T07:16:43Z</time>
      </trkpt>
      <trkpt lat="48.61799" lon="7.26178">
        <ele>742.76</ele>
        <time>2013-04-14T07:17:03Z</time>
      </trkpt>
      <trkpt lat="48.61797" lon="7.2618">
        <ele>742.28</ele>
        <time>2013-04-14T07:17:27Z</time>
      </trkpt>
      <trkpt lat="48.61794" lon="7.2618">
        <ele>742.28</ele>
        <time>2013-04-14T07:17:49Z</time>
      </trkpt>
      <trkpt lat="48.61792" lon="7.26181">
        <ele>743.72</ele>
        <time>2013-04-14T07:18:07Z</time>
      </trkpt>
      <trkpt lat="48.61791" lon="7.26181">
        <ele>742.28</ele>
        <time>2013-04-14T07:18:30Z</time>
      </trkpt>
      <trkpt lat="48.61791" lon="7.26181">
        <ele>741.79</ele>
        <time>2013-04-14T07:18:34Z</time>
      </trkpt>
      <trkpt lat="48.6179" lon="7.26178">
        <ele>741.31</ele>
        <time>2013-04-14T07:18:46Z</time>
      </trkpt>
      <trkpt lat="48.61788" lon="7.26175">
        <ele>740.83</ele>
        <time>2013-04-14T07:18:47Z</time>
      </trkpt>
      <trkpt lat="48.61785" lon="7.26171">
        <ele>740.35</ele>
        <time>2013-04-14T07:18:48Z</time>
      </trkpt>
      <trkpt lat="48.61763" lon="7.26142">
        <ele>737.47</ele>
        <time>2013-04-14T07:18:53Z</time>
      </trkpt>
      <trkpt lat="48.61746" lon="7.2612">
        <ele>734.1</ele>
        <time>2013-04-14T07:18:56Z</time>
      </trkpt>
      <trkpt lat="48.61735" lon="7.26105">
        <ele>733.14</ele>
        <time>2013-04-14T07:18:58Z</time>
      </trkpt>
      <trkpt lat="48.61729" lon="7.26097">
        <ele>733.14</ele>
        <time>2013-04-14T07:18:59Z</time>
      </trkpt>
      <trkpt lat="48.61702" lon="7.26052">
        <ele>731.7</ele>
        <time>2013-04-14T07:19:05Z</time>
      </trkpt>
      <trkpt lat="48.61698" lon="7.26047">
        <ele>731.7</ele>
        <time>2013-04-14T07:19:06Z</time>
      </trkpt>
      <trkpt lat="48.61694" lon="7.26042">
        <ele>732.18</ele>
        <time>2013-04-14T07:19:07Z</time>
      </trkpt>
      <trkpt lat="48.6169" lon="7.26038">
        <ele>732.18</ele>
        <time>2013-04-14T07:19:08Z</time>
      </trkpt>
      <trkpt lat="48.61686" lon="7.26034">
        <ele>732.18</ele>
        <time>2013-04-14T07:19:09Z</time>
      </trkpt>
      <trkpt lat="48.61684" lon="7.26029">
        <ele>732.18</ele>
        <time>2013-04-14T07:19:10Z</time>
      </trkpt>
      <trkpt lat="48.61681" lon="7.26025">
        <ele>732.18</ele>
        <time>2013-04-14T07:19:11Z</time>
      </trkpt>
      <trkpt lat="48.61678" lon="7.2602">
        <ele>732.18</ele>
        <time>2013-04-14T07:19:12Z</time>
      </trkpt>
      <trkpt lat="48.6165" lon="7.25988">
        <ele>732.66</ele>
        <time>2013-04-14T07:19:21Z</time>
      </trkpt>
      <trkpt lat="48.61612" lon="7.25963">
        <ele>732.66</ele>
        <time>2013-04-14T07:19:33Z</time>
      </trkpt>
      <trkpt lat="48.61607" lon="7.25961">
        <ele>732.18</ele>
        <time>2013-04-14T07:19:34Z</time>
      </trkpt>
      <trkpt lat="48.61603" lon="7.2596">
        <ele>732.18</ele>
        <time>2013-04-14T07:19:35Z</time>
      </trkpt>
      <trkpt lat="48.61599" lon="7.25959">
        <ele>732.18</ele>
        <time>2013-04-14T07:19:36Z</time>
      </trkpt>
      <trkpt lat="48.61595" lon="7.25958">
        <ele>731.22</ele>
        <time>2013-04-14T07:19:37Z</time>
      </trkpt>
      <trkpt lat="48.6159" lon="7.25957">
        <ele>731.22</ele>
        <time>2013-04-14T07:19:38Z</time>
      </trkpt>
      <trkpt lat="48.61585" lon="7.25954">
        <ele>730.74</ele>
        <time>2013-04-14T07:19:39Z</time>
      </trkpt>
      <trkpt lat="48.61581" lon="7.25951">
        <ele>730.74</ele>
        <time>2013-04-14T07:19:40Z</time>
      </trkpt>
      <trkpt lat="48.61576" lon="7.25948">
        <ele>730.26</ele>
        <time>2013-04-14T07:19:41Z</time>
      </trkpt>
      <trkpt lat="48.61564" lon="7.25941">
        <ele>730.26</ele>
        <time>2013-04-14T07:19:44Z</time>
      </trkpt>
      <trkpt lat="48.61531" lon="7.2592">
        <ele>730.26</ele>
        <time>2013-04-14T07:19:53Z</time>
      </trkpt>
      <trkpt lat="48.61489" lon="7.25892">
        <ele>731.22</ele>
        <time>2013-04-14T07:20:06Z</time>
      </trkpt>
      <trkpt lat="48.61455" lon="7.25876">
        <ele>731.22</ele>
        <time>2013-04-14T07:20:16Z</time>
      </trkpt>
      <trkpt lat="48.61443" lon="7.25865">
        <ele>731.7</ele>
        <time>2013-04-14T07:20:22Z</time>
      </trkpt>
      <trkpt lat="48.61443" lon="7.25862">
        <ele>731.7</ele>
        <time>2013-04-14T07:20:23Z</time>
      </trkpt>
      <trkpt lat="48.61442" lon="7.25859">
        <ele>731.7</ele>
        <time>2013-04-14T07:20:24Z</time>
      </trkpt>
      <trkpt lat="48.61443" lon="7.25855">
        <ele>731.7</ele>
        <time>2013-04-14T07:20:25Z</time>
      </trkpt>
      <trkpt lat="48.61444" lon="7.25851">
        <ele>731.7</ele>
        <time>2013-04-14T07:20:26Z</time>
      </trkpt>
      <trkpt lat="48.61449" lon="7.25818">
        <ele>730.74</ele>
        <time>2013-04-14T07:20:35Z</time>
      </trkpt>
      <trkpt lat="48.61451" lon="7.25816">
        <ele>730.74</ele>
        <time>2013-04-14T07:20:36Z</time>
      </trkpt>
      <trkpt lat="48.61452" lon="7.25816">
        <ele>731.22</ele>
        <time>2013-04-14T07:20:37Z</time>
      </trkpt>
      <trkpt lat="48.61454" lon="7.25813">
        <ele>731.22</ele>
        <time>2013-04-14T07:20:40Z</time>
      </trkpt>
      <trkpt lat="48.61453" lon="7.2581">
        <ele>731.22</ele>
        <time>2013-04-14T07:20:42Z</time>
      </trkpt>
      <trkpt lat="48.61451" lon="7.25809">
        <ele>730.74</ele>
        <time>2013-04-14T07:20:43Z</time>
      </trkpt>
      <trkpt lat="48.61449" lon="7.25808">
        <ele>730.74</ele>
        <time>2013-04-14T07:20:44Z</time>
      </trkpt>
      <trkpt lat="48.61446" lon="7.25809">
        <ele>730.74</ele>
        <time>2013-04-14T07:20:45Z</time>
      </trkpt>
      <trkpt lat="48.61444" lon="7.25809">
        <ele>730.74</ele>
        <time>2013-04-14T07:20:46Z</time>
      </trkpt>
      <trkpt lat="48.61415" lon="7.25813">
        <ele>731.7</ele>
        <time>2013-04-14T07:20:58Z</time>
      </trkpt>
      <trkpt lat="48.61389" lon="7.25808">
        <ele>733.14</ele>
        <time>2013-04-14T07:21:04Z</time>
      </trkpt>
      <trkpt lat="48.61385" lon="7.25807">
        <ele>733.62</ele>
        <time>2013-04-14T07:21:05Z</time>
      </trkpt>
      <trkpt lat="48.61381" lon="7.25806">
        <ele>733.62</ele>
        <time>2013-04-14T07:21:06Z</time>
      </trkpt>
      <trkpt lat="48.61377" lon="7.25805">
        <ele>734.1</ele>
        <time>2013-04-14T07:21:07Z</time>
      </trkpt>
      <trkpt lat="48.61373" lon="7.25804">
        <ele>734.1</ele>
        <time>2013-04-14T07:21:08Z</time>
      </trkpt>
      <trkpt lat="48.61337" lon="7.25793">
        <ele>736.51</ele>
        <time>2013-04-14T07:21:19Z</time>
      </trkpt>
      <trkpt lat="48.61315" lon="7.25789">
        <ele>738.43</ele>
        <time>2013-04-14T07:21:27Z</time>
      </trkpt>
      <trkpt lat="48.61313" lon="7.25788">
        <ele>738.43</ele>
        <time>2013-04-14T07:21:28Z</time>
      </trkpt>
      <trkpt lat="48.6128" lon="7.25782">
        <ele>741.31</ele>
        <time>2013-04-14T07:21:40Z</time>
      </trkpt>
      <trkpt lat="48.61245" lon="7.2578">
        <ele>744.2</ele>
        <time>2013-04-14T07:21:52Z</time>
      </trkpt>
      <trkpt lat="48.61208" lon="7.2578">
        <ele>746.6</ele>
        <time>2013-04-14T07:22:04Z</time>
      </trkpt>
      <trkpt lat="48.61174" lon="7.25778">
        <ele>749</ele>
        <time>2013-04-14T07:22:15Z</time>
      </trkpt>
      <trkpt lat="48.61141" lon="7.25774">
        <ele>750.93</ele>
        <time>2013-04-14T07:22:26Z</time>
      </trkpt>
      <trkpt lat="48.61106" lon="7.25769">
        <ele>753.81</ele>
        <time>2013-04-14T07:22:38Z</time>
      </trkpt>
      <trkpt lat="48.61072" lon="7.25758">
        <ele>755.73</ele>
        <time>2013-04-14T07:22:49Z</time>
      </trkpt>
      <trkpt lat="48.61037" lon="7.25738">
        <ele>757.66</ele>
        <time>2013-04-14T07:23:01Z</time>
      </trkpt>
      <trkpt lat="48.61001" lon="7.25723">
        <ele>759.58</ele>
        <time>2013-04-14T07:23:12Z</time>
      </trkpt>
      <trkpt lat="48.60969" lon="7.25709">
        <ele>761.5</ele>
        <time>2013-04-14T07:23:23Z</time>
      </trkpt>
      <trkpt lat="48.60939" lon="7.25703">
        <ele>763.42</ele>
        <time>2013-04-14T07:23:33Z</time>
      </trkpt>
      <trkpt lat="48.60906" lon="7.257">
        <ele>764.87</ele>
        <time>2013-04-14T07:23:43Z</time>
      </trkpt>
      <trkpt lat="48.60861" lon="7.25704">
        <ele>767.27</ele>
        <time>2013-04-14T07:23:56Z</time>
      </trkpt>
      <trkpt lat="48.60826" lon="7.25703">
        <ele>769.19</ele>
        <time>2013-04-14T07:24:07Z</time>
      </trkpt>
      <trkpt lat="48.60785" lon="7.257">
        <ele>771.6</ele>
        <time>2013-04-14T07:24:20Z</time>
      </trkpt>
      <trkpt lat="48.60741" lon="7.25701">
        <ele>774</ele>
        <time>2013-04-14T07:24:33Z</time>
      </trkpt>
      <trkpt lat="48.60707" lon="7.25702">
        <ele>775.92</ele>
        <time>2013-04-14T07:24:43Z</time>
      </trkpt>
      <trkpt lat="48.60666" lon="7.25693">
        <ele>777.84</ele>
        <time>2013-04-14T07:24:55Z</time>
      </trkpt>
      <trkpt lat="48.60625" lon="7.25673">
        <ele>779.29</ele>
        <time>2013-04-14T07:25:07Z</time>
      </trkpt>
      <trkpt lat="48.60608" lon="7.25662">
        <ele>780.25</ele>
        <time>2013-04-14T07:25:12Z</time>
      </trkpt>
      <trkpt lat="48.60605" lon="7.25659">
        <ele>780.25</ele>
        <time>2013-04-14T07:25:13Z</time>
      </trkpt>
      <trkpt lat="48.60602" lon="7.25657">
        <ele>780.25</ele>
        <time>2013-04-14T07:25:14Z</time>
      </trkpt>
      <trkpt lat="48.60599" lon="7.25655">
        <ele>780.73</ele>
        <time>2013-04-14T07:25:15Z</time>
      </trkpt>
      <trkpt lat="48.60596" lon="7.25652">
        <ele>780.73</ele>
        <time>2013-04-14T07:25:16Z</time>
      </trkpt>
      <trkpt lat="48.60593" lon="7.2565">
        <ele>781.21</ele>
        <time>2013-04-14T07:25:17Z</time>
      </trkpt>
      <trkpt lat="48.60589" lon="7.25648">
        <ele>781.21</ele>
        <time>2013-04-14T07:25:18Z</time>
      </trkpt>
      <trkpt lat="48.60586" lon="7.25645">
        <ele>781.21</ele>
        <time>2013-04-14T07:25:19Z</time>
      </trkpt>
      <trkpt lat="48.60583" lon="7.25643">
        <ele>781.21</ele>
        <time>2013-04-14T07:25:20Z</time>
      </trkpt>
      <trkpt lat="48.60544" lon="7.25612">
        <ele>783.61</ele>
        <time>2013-04-14T07:25:32Z</time>
      </trkpt>
      <trkpt lat="48.60503" lon="7.25579">
        <ele>785.53</ele>
        <time>2013-04-14T07:25:45Z</time>
      </trkpt>
      <trkpt lat="48.60469" lon="7.25551">
        <ele>787.94</ele>
        <time>2013-04-14T07:25:56Z</time>
      </trkpt>
      <trkpt lat="48.60434" lon="7.25524">
        <ele>788.9</ele>
        <time>2013-04-14T07:26:07Z</time>
      </trkpt>
      <trkpt lat="48.6039" lon="7.25499">
        <ele>791.3</ele>
        <time>2013-04-14T07:26:21Z</time>
      </trkpt>
      <trkpt lat="48.60356" lon="7.25483">
        <ele>793.22</ele>
        <time>2013-04-14T07:26:33Z</time>
      </trkpt>
      <trkpt lat="48.60329" lon="7.25466">
        <ele>794.19</ele>
        <time>2013-04-14T07:26:45Z</time>
      </trkpt>
      <trkpt lat="48.60328" lon="7.25463">
        <ele>793.71</ele>
        <time>2013-04-14T07:26:46Z</time>
      </trkpt>
      <trkpt lat="48.60327" lon="7.25461">
        <ele>793.71</ele>
        <time>2013-04-14T07:26:47Z</time>
      </trkpt>
      <trkpt lat="48.60327" lon="7.25458">
        <ele>794.19</ele>
        <time>2013-04-14T07:26:48Z</time>
      </trkpt>
      <trkpt lat="48.60327" lon="7.25455">
        <ele>794.19</ele>
        <time>2013-04-14T07:26:49Z</time>
      </trkpt>
      <trkpt lat="48.60326" lon="7.25453">
        <ele>794.19</ele>
        <time>2013-04-14T07:26:50Z</time>
      </trkpt>
      <trkpt lat="48.60324" lon="7.25453">
        <ele>794.67</ele>
        <time>2013-04-14T07:26:53Z</time>
      </trkpt>
      <trkpt lat="48.60323" lon="7.25456">
        <ele>794.19</ele>
        <time>2013-04-14T07:26:54Z</time>
      </trkpt>
      <trkpt lat="48.60323" lon="7.2546">
        <ele>794.67</ele>
        <time>2013-04-14T07:26:55Z</time>
      </trkpt>
      <trkpt lat="48.60323" lon="7.25464">
        <ele>794.67</ele>
        <time>2013-04-14T07:26:56Z</time>
      </trkpt>
      <trkpt lat="48.60322" lon="7.25467">
        <ele>794.67</ele>
        <time>2013-04-14T07:26:57Z</time>
      </trkpt>
      <trkpt lat="48.60321" lon="7.25471">
        <ele>794.19</ele>
        <time>2013-04-14T07:26:58Z</time>
      </trkpt>
      <trkpt lat="48.60316" lon="7.25486">
        <ele>794.19</ele>
        <time>2013-04-14T07:27:03Z</time>
      </trkpt>
      <trkpt lat="48.60316" lon="7.25489">
        <ele>794.19</ele>
        <time>2013-04-14T07:27:04Z</time>
      </trkpt>
      <trkpt lat="48.60317" lon="7.25492">
        <ele>794.19</ele>
        <time>2013-04-14T07:27:05Z</time>
      </trkpt>
      <trkpt lat="48.60318" lon="7.25496">
        <ele>793.71</ele>
        <time>2013-04-14T07:27:06Z</time>
      </trkpt>
      <trkpt lat="48.60319" lon="7.25499">
        <ele>793.71</ele>
        <time>2013-04-14T07:27:07Z</time>
      </trkpt>
      <trkpt lat="48.60319" lon="7.25502">
        <ele>793.71</ele>
        <time>2013-04-14T07:27:08Z</time>
      </trkpt>
      <trkpt lat="48.60319" lon="7.25504">
        <ele>793.71</ele>
        <time>2013-04-14T07:27:09Z</time>
      </trkpt>
      <trkpt lat="48.60317" lon="7.25508">
        <ele>793.71</ele>
        <time>2013-04-14T07:27:12Z</time>
      </trkpt>
      <trkpt lat="48.60316" lon="7.2551">
        <ele>793.22</ele>
        <time>2013-04-14T07:27:13Z</time>
      </trkpt>
      <trkpt lat="48.60315" lon="7.25511">
        <ele>793.22</ele>
        <time>2013-04-14T07:27:25Z</time>
      </trkpt>
      <trkpt lat="48.60313" lon="7.25513">
        <ele>793.71</ele>
        <time>2013-04-14T07:27:39Z</time>
      </trkpt>
      <trkpt lat="48.60312" lon="7.25513">
        <ele>793.71</ele>
        <time>2013-04-14T07:27:40Z</time>
      </trkpt>
      <trkpt lat="48.6031" lon="7.25513">
        <ele>793.71</ele>
        <time>2013-04-14T07:27:41Z</time>
      </trkpt>
      <trkpt lat="48.60308" lon="7.25513">
        <ele>793.22</ele>
        <time>2013-04-14T07:27:42Z</time>
      </trkpt>
      <trkpt lat="48.60306" lon="7.25512">
        <ele>793.22</ele>
        <time>2013-04-14T07:27:43Z</time>
      </trkpt>
      <trkpt lat="48.60304" lon="7.2551">
        <ele>793.22</ele>
        <time>2013-04-14T07:27:44Z</time>
      </trkpt>
      <trkpt lat="48.60303" lon="7.25508">
        <ele>793.71</ele>
        <time>2013-04-14T07:27:46Z</time>
      </trkpt>
      <trkpt lat="48.60304" lon="7.25504">
        <ele>794.19</ele>
        <time>2013-04-14T07:28:02Z</time>
      </trkpt>
      <trkpt lat="48.60304" lon="7.25504">
        <ele>792.74</ele>
        <time>2013-04-14T07:28:27Z</time>
      </trkpt>
      <trkpt lat="48.60304" lon="7.25504">
        <ele>796.11</ele>
        <time>2013-04-14T07:28:28Z</time>
      </trkpt>
      <trkpt lat="48.60304" lon="7.25504">
        <ele>793.22</ele>
        <time>2013-04-14T07:28:35Z</time>
      </trkpt>
      <trkpt lat="48.60304" lon="7.25504">
        <ele>794.19</ele>
        <time>2013-04-14T07:29:05Z</time>
      </trkpt>
      <trkpt lat="48.60303" lon="7.25504">
        <ele>794.19</ele>
        <time>2013-04-14T07:29:32Z</time>
      </trkpt>
      <trkpt lat="48.60303" lon="7.25504">
        <ele>793.71</ele>
        <time>2013-04-14T07:29:47Z</time>
      </trkpt>
      <trkpt lat="48.60302" lon="7.25504">
        <ele>794.19</ele>
        <time>2013-04-14T07:30:05Z</time>
      </trkpt>
      <trkpt lat="48.60301" lon="7.25505">
        <ele>793.71</ele>
        <time>2013-04-14T07:30:06Z</time>
      </trkpt>
      <trkpt lat="48.603" lon="7.25505">
        <ele>794.19</ele>
        <time>2013-04-14T07:30:07Z</time>
      </trkpt>
      <trkpt lat="48.60299" lon="7.25506">
        <ele>793.71</ele>
        <time>2013-04-14T07:30:08Z</time>
      </trkpt>
      <trkpt lat="48.60298" lon="7.25507">
        <ele>794.19</ele>
        <time>2013-04-14T07:30:09Z</time>
      </trkpt>
      <trkpt lat="48.60296" lon="7.25508">
        <ele>794.19</ele>
        <time>2013-04-14T07:30:10Z</time>
      </trkpt>
      <trkpt lat="48.60294" lon="7.25509">
        <ele>793.71</ele>
        <time>2013-04-14T07:30:11Z</time>
      </trkpt>
      <trkpt lat="48.60258" lon="7.25521">
        <ele>791.3</ele>
        <time>2013-04-14T07:30:22Z</time>
      </trkpt>
      <trkpt lat="48.60194" lon="7.25504">
        <ele>788.42</ele>
        <time>2013-04-14T07:30:33Z</time>
      </trkpt>
      <trkpt lat="48.60153" lon="7.25491">
        <ele>785.53</ele>
        <time>2013-04-14T07:30:39Z</time>
      </trkpt>
      <trkpt lat="48.60111" lon="7.25487">
        <ele>782.17</ele>
        <time>2013-04-14T07:30:44Z</time>
      </trkpt>
      <trkpt lat="48.60102" lon="7.25486">
        <ele>782.17</ele>
        <time>2013-04-14T07:30:45Z</time>
      </trkpt>
      <trkpt lat="48.60049" lon="7.25476">
        <ele>778.81</ele>
        <time>2013-04-14T07:30:51Z</time>
      </trkpt>
      <trkpt lat="48.60041" lon="7.25477">
        <ele>779.29</ele>
        <time>2013-04-14T07:30:52Z</time>
      </trkpt>
      <trkpt lat="48.60024" lon="7.25481">
        <ele>778.32</ele>
        <time>2013-04-14T07:30:54Z</time>
      </trkpt>
      <trkpt lat="48.60017" lon="7.25483">
        <ele>777.36</ele>
        <time>2013-04-14T07:30:55Z</time>
      </trkpt>
      <trkpt lat="48.59955" lon="7.25504">
        <ele>774</ele>
        <time>2013-04-14T07:31:02Z</time>
      </trkpt>
      <trkpt lat="48.59889" lon="7.25534">
        <ele>771.11</ele>
        <time>2013-04-14T07:31:09Z</time>
      </trkpt>
      <trkpt lat="48.59802" lon="7.25592">
        <ele>769.19</ele>
        <time>2013-04-14T07:31:20Z</time>
      </trkpt>
      <trkpt lat="48.59775" lon="7.25606">
        <ele>768.71</ele>
        <time>2013-04-14T07:31:24Z</time>
      </trkpt>
      <trkpt lat="48.59769" lon="7.2561">
        <ele>768.71</ele>
        <time>2013-04-14T07:31:25Z</time>
      </trkpt>
      <trkpt lat="48.59722" lon="7.25639">
        <ele>768.23</ele>
        <time>2013-04-14T07:31:33Z</time>
      </trkpt>
      <trkpt lat="48.59718" lon="7.25645">
        <ele>768.23</ele>
        <time>2013-04-14T07:31:34Z</time>
      </trkpt>
      <trkpt lat="48.59714" lon="7.25653">
        <ele>767.75</ele>
        <time>2013-04-14T07:31:35Z</time>
      </trkpt>
      <trkpt lat="48.59712" lon="7.25662">
        <ele>767.75</ele>
        <time>2013-04-14T07:31:36Z</time>
      </trkpt>
      <trkpt lat="48.59712" lon="7.25672">
        <ele>767.27</ele>
        <time>2013-04-14T07:31:37Z</time>
      </trkpt>
      <trkpt lat="48.59713" lon="7.2568">
        <ele>767.27</ele>
        <time>2013-04-14T07:31:38Z</time>
      </trkpt>
      <trkpt lat="48.59715" lon="7.25687">
        <ele>767.27</ele>
        <time>2013-04-14T07:31:39Z</time>
      </trkpt>
      <trkpt lat="48.5972" lon="7.25692">
        <ele>767.27</ele>
        <time>2013-04-14T07:31:40Z</time>
      </trkpt>
      <trkpt lat="48.59726" lon="7.25695">
        <ele>767.27</ele>
        <time>2013-04-14T07:31:41Z</time>
      </trkpt>
      <trkpt lat="48.59732" lon="7.25696">
        <ele>767.27</ele>
        <time>2013-04-14T07:31:42Z</time>
      </trkpt>
      <trkpt lat="48.59738" lon="7.25697">
        <ele>766.79</ele>
        <time>2013-04-14T07:31:43Z</time>
      </trkpt>
      <trkpt lat="48.59744" lon="7.25697">
        <ele>766.79</ele>
        <time>2013-04-14T07:31:44Z</time>
      </trkpt>
      <trkpt lat="48.5975" lon="7.25697">
        <ele>766.31</ele>
        <time>2013-04-14T07:31:45Z</time>
      </trkpt>
      <trkpt lat="48.59774" lon="7.25695">
        <ele>765.35</ele>
        <time>2013-04-14T07:31:49Z</time>
      </trkpt>
      <trkpt lat="48.5978" lon="7.25695">
        <ele>764.39</ele>
        <time>2013-04-14T07:31:50Z</time>
      </trkpt>
      <trkpt lat="48.59805" lon="7.25699">
        <ele>763.42</ele>
        <time>2013-04-14T07:31:54Z</time>
      </trkpt>
      <trkpt lat="48.59811" lon="7.25701">
        <ele>763.42</ele>
        <time>2013-04-14T07:31:55Z</time>
      </trkpt>
      <trkpt lat="48.59818" lon="7.25702">
        <ele>762.94</ele>
        <time>2013-04-14T07:31:56Z</time>
      </trkpt>
      <trkpt lat="48.59867" lon="7.25697">
        <ele>761.02</ele>
        <time>2013-04-14T07:32:03Z</time>
      </trkpt>
      <trkpt lat="48.59875" lon="7.25693">
        <ele>760.54</ele>
        <time>2013-04-14T07:32:04Z</time>
      </trkpt>
      <trkpt lat="48.59883" lon="7.2569">
        <ele>759.58</ele>
        <time>2013-04-14T07:32:05Z</time>
      </trkpt>
      <trkpt lat="48.59891" lon="7.25687">
        <ele>759.1</ele>
        <time>2013-04-14T07:32:06Z</time>
      </trkpt>
      <trkpt lat="48.599" lon="7.25682">
        <ele>758.14</ele>
        <time>2013-04-14T07:32:07Z</time>
      </trkpt>
      <trkpt lat="48.59908" lon="7.25679">
        <ele>757.66</ele>
        <time>2013-04-14T07:32:08Z</time>
      </trkpt>
      <trkpt lat="48.59917" lon="7.25677">
        <ele>757.18</ele>
        <time>2013-04-14T07:32:09Z</time>
      </trkpt>
      <trkpt lat="48.59926" lon="7.25675">
        <ele>756.69</ele>
        <time>2013-04-14T07:32:10Z</time>
      </trkpt>
      <trkpt lat="48.59935" lon="7.25674">
        <ele>756.21</ele>
        <time>2013-04-14T07:32:11Z</time>
      </trkpt>
      <trkpt lat="48.59944" lon="7.25674">
        <ele>756.69</ele>
        <time>2013-04-14T07:32:12Z</time>
      </trkpt>
      <trkpt lat="48.59953" lon="7.25675">
        <ele>755.25</ele>
        <time>2013-04-14T07:32:13Z</time>
      </trkpt>
      <trkpt lat="48.59961" lon="7.25677">
        <ele>754.77</ele>
        <time>2013-04-14T07:32:14Z</time>
      </trkpt>
      <trkpt lat="48.59969" lon="7.25679">
        <ele>754.77</ele>
        <time>2013-04-14T07:32:15Z</time>
      </trkpt>
      <trkpt lat="48.59977" lon="7.25682">
        <ele>754.77</ele>
        <time>2013-04-14T07:32:16Z</time>
      </trkpt>
      <trkpt lat="48.59985" lon="7.25683">
        <ele>754.77</ele>
        <time>2013-04-14T07:32:17Z</time>
      </trkpt>
      <trkpt lat="48.59992" lon="7.25686">
        <ele>755.25</ele>
        <time>2013-04-14T07:32:18Z</time>
      </trkpt>
      <trkpt lat="48.59998" lon="7.2569">
        <ele>755.25</ele>
        <time>2013-04-14T07:32:19Z</time>
      </trkpt>
      <trkpt lat="48.60043" lon="7.25716">
        <ele>754.29</ele>
        <time>2013-04-14T07:32:29Z</time>
      </trkpt>
      <trkpt lat="48.60044" lon="7.25718">
        <ele>754.29</ele>
        <time>2013-04-14T07:32:30Z</time>
      </trkpt>
      <trkpt lat="48.60048" lon="7.25724">
        <ele>754.29</ele>
        <time>2013-04-14T07:32:33Z</time>
      </trkpt>
      <trkpt lat="48.60049" lon="7.25726">
        <ele>754.77</ele>
        <time>2013-04-14T07:32:34Z</time>
      </trkpt>
      <trkpt lat="48.6005" lon="7.2573">
        <ele>755.25</ele>
        <time>2013-04-14T07:32:36Z</time>
      </trkpt>
      <trkpt lat="48.60051" lon="7.25731">
        <ele>755.73</ele>
        <time>2013-04-14T07:32:37Z</time>
      </trkpt>
      <trkpt lat="48.60052" lon="7.25739">
        <ele>755.25</ele>
        <time>2013-04-14T07:32:41Z</time>
      </trkpt>
      <trkpt lat="48.60052" lon="7.25742">
        <ele>755.73</ele>
        <time>2013-04-14T07:32:42Z</time>
      </trkpt>
      <trkpt lat="48.60052" lon="7.25745">
        <ele>756.21</ele>
        <time>2013-04-14T07:32:43Z</time>
      </trkpt>
      <trkpt lat="48.60054" lon="7.25753">
        <ele>757.18</ele>
        <time>2013-04-14T07:32:46Z</time>
      </trkpt>
      <trkpt lat="48.60057" lon="7.25762">
        <ele>758.14</ele>
        <time>2013-04-14T07:32:51Z</time>
      </trkpt>
      <trkpt lat="48.60058" lon="7.25763">
        <ele>758.14</ele>
        <time>2013-04-14T07:32:52Z</time>
      </trkpt>
      <trkpt lat="48.60059" lon="7.25764">
        <ele>758.14</ele>
        <time>2013-04-14T07:32:53Z</time>
      </trkpt>
      <trkpt lat="48.60061" lon="7.25771">
        <ele>758.14</ele>
        <time>2013-04-14T07:32:57Z</time>
      </trkpt>
      <trkpt lat="48.60061" lon="7.25773">
        <ele>758.62</ele>
        <time>2013-04-14T07:32:58Z</time>
      </trkpt>
      <trkpt lat="48.60061" lon="7.25775">
        <ele>758.62</ele>
        <time>2013-04-14T07:32:59Z</time>
      </trkpt>
      <trkpt lat="48.60061" lon="7.25779">
        <ele>759.58</ele>
        <time>2013-04-14T07:33:01Z</time>
      </trkpt>
      <trkpt lat="48.60061" lon="7.25781">
        <ele>760.54</ele>
        <time>2013-04-14T07:33:02Z</time>
      </trkpt>
      <trkpt lat="48.60061" lon="7.25783">
        <ele>760.54</ele>
        <time>2013-04-14T07:33:03Z</time>
      </trkpt>
      <trkpt lat="48.60061" lon="7.25786">
        <ele>761.02</ele>
        <time>2013-04-14T07:33:04Z</time>
      </trkpt>
      <trkpt lat="48.60061" lon="7.25788">
        <ele>761.02</ele>
        <time>2013-04-14T07:33:05Z</time>
      </trkpt>
      <trkpt lat="48.60064" lon="7.25797">
        <ele>761.5</ele>
        <time>2013-04-14T07:33:11Z</time>
      </trkpt>
      <trkpt lat="48.60066" lon="7.25799">
        <ele>761.02</ele>
        <time>2013-04-14T07:33:12Z</time>
      </trkpt>
      <trkpt lat="48.60067" lon="7.25802">
        <ele>761.02</ele>
        <time>2013-04-14T07:33:13Z</time>
      </trkpt>
      <trkpt lat="48.60067" lon="7.25806">
        <ele>762.46</ele>
        <time>2013-04-14T07:33:15Z</time>
      </trkpt>
      <trkpt lat="48.60067" lon="7.25808">
        <ele>762.94</ele>
        <time>2013-04-14T07:33:16Z</time>
      </trkpt>
      <trkpt lat="48.60067" lon="7.25811">
        <ele>762.94</ele>
        <time>2013-04-14T07:33:17Z</time>
      </trkpt>
      <trkpt lat="48.60068" lon="7.25817">
        <ele>763.42</ele>
        <time>2013-04-14T07:33:19Z</time>
      </trkpt>
      <trkpt lat="48.60069" lon="7.2582">
        <ele>763.42</ele>
        <time>2013-04-14T07:33:20Z</time>
      </trkpt>
      <trkpt lat="48.60071" lon="7.25823">
        <ele>763.42</ele>
        <time>2013-04-14T07:33:21Z</time>
      </trkpt>
      <trkpt lat="48.60073" lon="7.25825">
        <ele>763.42</ele>
        <time>2013-04-14T07:33:22Z</time>
      </trkpt>
      <trkpt lat="48.60074" lon="7.25828">
        <ele>763.9</ele>
        <time>2013-04-14T07:33:23Z</time>
      </trkpt>
      <trkpt lat="48.60075" lon="7.2583">
        <ele>764.39</ele>
        <time>2013-04-14T07:33:24Z</time>
      </trkpt>
      <trkpt lat="48.60082" lon="7.25848">
        <ele>764.87</ele>
        <time>2013-04-14T07:33:31Z</time>
      </trkpt>
      <trkpt lat="48.60083" lon="7.2585">
        <ele>764.87</ele>
        <time>2013-04-14T07:33:32Z</time>
      </trkpt>
      <trkpt lat="48.60084" lon="7.25852">
        <ele>764.87</ele>
        <time>2013-04-14T07:33:33Z</time>
      </trkpt>
      <trkpt lat="48.60088" lon="7.25863">
        <ele>765.35</ele>
        <time>2013-04-14T07:33:38Z</time>
      </trkpt>
      <trkpt lat="48.60088" lon="7.25866">
        <ele>765.83</ele>
        <time>2013-04-14T07:33:40Z</time>
      </trkpt>
      <trkpt lat="48.60088" lon="7.25868">
        <ele>766.31</ele>
        <time>2013-04-14T07:33:42Z</time>
      </trkpt>
      <trkpt lat="48.60086" lon="7.25882">
        <ele>766.79</ele>
        <time>2013-04-14T07:33:48Z</time>
      </trkpt>
      <trkpt lat="48.60084" lon="7.25884">
        <ele>767.27</ele>
        <time>2013-04-14T07:33:49Z</time>
      </trkpt>
      <trkpt lat="48.60083" lon="7.25889">
        <ele>768.71</ele>
        <time>2013-04-14T07:33:54Z</time>
      </trkpt>
      <trkpt lat="48.60083" lon="7.25892">
        <ele>768.71</ele>
        <time>2013-04-14T07:33:55Z</time>
      </trkpt>
      <trkpt lat="48.60082" lon="7.25911">
        <ele>770.15</ele>
        <time>2013-04-14T07:34:03Z</time>
      </trkpt>
      <trkpt lat="48.60084" lon="7.2592">
        <ele>771.11</ele>
        <time>2013-04-14T07:34:07Z</time>
      </trkpt>
      <trkpt lat="48.60084" lon="7.25922">
        <ele>771.11</ele>
        <time>2013-04-14T07:34:08Z</time>
      </trkpt>
      <trkpt lat="48.60083" lon="7.25934">
        <ele>772.56</ele>
        <time>2013-04-14T07:34:15Z</time>
      </trkpt>
      <trkpt lat="48.60087" lon="7.25957">
        <ele>774</ele>
        <time>2013-04-14T07:34:25Z</time>
      </trkpt>
      <trkpt lat="48.60087" lon="7.25963">
        <ele>774.48</ele>
        <time>2013-04-14T07:34:28Z</time>
      </trkpt>
      <trkpt lat="48.60086" lon="7.25965">
        <ele>774.48</ele>
        <time>2013-04-14T07:34:29Z</time>
      </trkpt>
      <trkpt lat="48.60086" lon="7.25967">
        <ele>774.48</ele>
        <time>2013-04-14T07:34:30Z</time>
      </trkpt>
      <trkpt lat="48.60091" lon="7.25984">
        <ele>775.92</ele>
        <time>2013-04-14T07:34:40Z</time>
      </trkpt>
      <trkpt lat="48.60093" lon="7.25992">
        <ele>776.4</ele>
        <time>2013-04-14T07:34:44Z</time>
      </trkpt>
      <trkpt lat="48.60093" lon="7.26008">
        <ele>778.81</ele>
        <time>2013-04-14T07:34:56Z</time>
      </trkpt>
      <trkpt lat="48.60099" lon="7.26023">
        <ele>780.25</ele>
        <time>2013-04-14T07:35:07Z</time>
      </trkpt>
      <trkpt lat="48.601" lon="7.26028">
        <ele>780.73</ele>
        <time>2013-04-14T07:35:18Z</time>
      </trkpt>
      <trkpt lat="48.601" lon="7.26035">
        <ele>780.73</ele>
        <time>2013-04-14T07:35:22Z</time>
      </trkpt>
      <trkpt lat="48.60099" lon="7.26037">
        <ele>781.69</ele>
        <time>2013-04-14T07:35:23Z</time>
      </trkpt>
      <trkpt lat="48.60101" lon="7.26045">
        <ele>782.17</ele>
        <time>2013-04-14T07:35:28Z</time>
      </trkpt>
      <trkpt lat="48.60101" lon="7.26047">
        <ele>782.17</ele>
        <time>2013-04-14T07:35:29Z</time>
      </trkpt>
      <trkpt lat="48.60102" lon="7.26049">
        <ele>782.65</ele>
        <time>2013-04-14T07:35:30Z</time>
      </trkpt>
      <trkpt lat="48.60105" lon="7.26061">
        <ele>784.57</ele>
        <time>2013-04-14T07:35:41Z</time>
      </trkpt>
      <trkpt lat="48.60104" lon="7.26072">
        <ele>785.53</ele>
        <time>2013-04-14T07:35:52Z</time>
      </trkpt>
      <trkpt lat="48.60104" lon="7.26077">
        <ele>786.02</ele>
        <time>2013-04-14T07:35:54Z</time>
      </trkpt>
      <trkpt lat="48.60105" lon="7.26091">
        <ele>786.5</ele>
        <time>2013-04-14T07:35:59Z</time>
      </trkpt>
      <trkpt lat="48.60104" lon="7.26097">
        <ele>786.98</ele>
        <time>2013-04-14T07:36:02Z</time>
      </trkpt>
      <trkpt lat="48.601" lon="7.26109">
        <ele>787.94</ele>
        <time>2013-04-14T07:36:09Z</time>
      </trkpt>
      <trkpt lat="48.601" lon="7.26112">
        <ele>788.42</ele>
        <time>2013-04-14T07:36:10Z</time>
      </trkpt>
      <trkpt lat="48.60099" lon="7.2612">
        <ele>789.86</ele>
        <time>2013-04-14T07:36:14Z</time>
      </trkpt>
      <trkpt lat="48.60096" lon="7.26127">
        <ele>790.34</ele>
        <time>2013-04-14T07:36:19Z</time>
      </trkpt>
      <trkpt lat="48.60095" lon="7.26133">
        <ele>790.82</ele>
        <time>2013-04-14T07:36:22Z</time>
      </trkpt>
      <trkpt lat="48.60095" lon="7.26135">
        <ele>790.82</ele>
        <time>2013-04-14T07:36:23Z</time>
      </trkpt>
      <trkpt lat="48.60094" lon="7.26137">
        <ele>791.3</ele>
        <time>2013-04-14T07:36:24Z</time>
      </trkpt>
      <trkpt lat="48.60094" lon="7.26153">
        <ele>792.26</ele>
        <time>2013-04-14T07:36:31Z</time>
      </trkpt>
      <trkpt lat="48.60095" lon="7.26159">
        <ele>792.74</ele>
        <time>2013-04-14T07:36:34Z</time>
      </trkpt>
      <trkpt lat="48.60094" lon="7.26167">
        <ele>793.71</ele>
        <time>2013-04-14T07:36:39Z</time>
      </trkpt>
      <trkpt lat="48.60096" lon="7.26179">
        <ele>795.15</ele>
        <time>2013-04-14T07:36:47Z</time>
      </trkpt>
      <trkpt lat="48.60091" lon="7.26191">
        <ele>795.63</ele>
        <time>2013-04-14T07:36:55Z</time>
      </trkpt>
      <trkpt lat="48.6009" lon="7.26199">
        <ele>796.59</ele>
        <time>2013-04-14T07:37:08Z</time>
      </trkpt>
      <trkpt lat="48.6009" lon="7.26202">
        <ele>796.59</ele>
        <time>2013-04-14T07:37:11Z</time>
      </trkpt>
      <trkpt lat="48.6009" lon="7.26205">
        <ele>796.59</ele>
        <time>2013-04-14T07:37:12Z</time>
      </trkpt>
      <trkpt lat="48.60088" lon="7.26212">
        <ele>797.07</ele>
        <time>2013-04-14T07:37:15Z</time>
      </trkpt>
      <trkpt lat="48.60086" lon="7.26218">
        <ele>797.55</ele>
        <time>2013-04-14T07:37:18Z</time>
      </trkpt>
      <trkpt lat="48.60085" lon="7.26219">
        <ele>798.03</ele>
        <time>2013-04-14T07:37:19Z</time>
      </trkpt>
      <trkpt lat="48.60081" lon="7.26227">
        <ele>799.47</ele>
        <time>2013-04-14T07:37:30Z</time>
      </trkpt>
      <trkpt lat="48.60077" lon="7.26238">
        <ele>800.44</ele>
        <time>2013-04-14T07:37:44Z</time>
      </trkpt>
      <trkpt lat="48.60076" lon="7.26243">
        <ele>800.92</ele>
        <time>2013-04-14T07:37:54Z</time>
      </trkpt>
      <trkpt lat="48.60076" lon="7.26245">
        <ele>801.4</ele>
        <time>2013-04-14T07:37:55Z</time>
      </trkpt>
      <trkpt lat="48.60076" lon="7.26247">
        <ele>801.4</ele>
        <time>2013-04-14T07:37:56Z</time>
      </trkpt>
      <trkpt lat="48.60074" lon="7.26256">
        <ele>801.88</ele>
        <time>2013-04-14T07:38:00Z</time>
      </trkpt>
      <trkpt lat="48.60073" lon="7.26258">
        <ele>802.36</ele>
        <time>2013-04-14T07:38:01Z</time>
      </trkpt>
      <trkpt lat="48.60072" lon="7.2626">
        <ele>802.36</ele>
        <time>2013-04-14T07:38:02Z</time>
      </trkpt>
      <trkpt lat="48.60071" lon="7.26263">
        <ele>802.36</ele>
        <time>2013-04-14T07:38:04Z</time>
      </trkpt>
      <trkpt lat="48.6007" lon="7.26264">
        <ele>802.36</ele>
        <time>2013-04-14T07:38:05Z</time>
      </trkpt>
      <trkpt lat="48.60069" lon="7.26265">
        <ele>802.84</ele>
        <time>2013-04-14T07:38:06Z</time>
      </trkpt>
      <trkpt lat="48.60068" lon="7.26267">
        <ele>803.32</ele>
        <time>2013-04-14T07:38:07Z</time>
      </trkpt>
      <trkpt lat="48.60068" lon="7.26269">
        <ele>803.32</ele>
        <time>2013-04-14T07:38:08Z</time>
      </trkpt>
      <trkpt lat="48.60065" lon="7.26272">
        <ele>803.8</ele>
        <time>2013-04-14T07:38:10Z</time>
      </trkpt>
      <trkpt lat="48.60064" lon="7.26274">
        <ele>803.8</ele>
        <time>2013-04-14T07:38:11Z</time>
      </trkpt>
      <trkpt lat="48.60063" lon="7.26276">
        <ele>803.8</ele>
        <time>2013-04-14T07:38:12Z</time>
      </trkpt>
      <trkpt lat="48.60062" lon="7.26278">
        <ele>803.8</ele>
        <time>2013-04-14T07:38:13Z</time>
      </trkpt>
      <trkpt lat="48.60061" lon="7.2628">
        <ele>805.24</ele>
        <time>2013-04-14T07:38:14Z</time>
      </trkpt>
      <trkpt lat="48.60059" lon="7.26282">
        <ele>804.76</ele>
        <time>2013-04-14T07:38:15Z</time>
      </trkpt>
      <trkpt lat="48.60059" lon="7.26283">
        <ele>804.76</ele>
        <time>2013-04-14T07:38:16Z</time>
      </trkpt>
      <trkpt lat="48.60058" lon="7.26285">
        <ele>804.76</ele>
        <time>2013-04-14T07:38:17Z</time>
      </trkpt>
      <trkpt lat="48.60058" lon="7.26287">
        <ele>805.24</ele>
        <time>2013-04-14T07:38:18Z</time>
      </trkpt>
      <trkpt lat="48.60053" lon="7.26289">
        <ele>805.72</ele>
        <time>2013-04-14T07:38:23Z</time>
      </trkpt>
      <trkpt lat="48.60045" lon="7.26295">
        <ele>807.16</ele>
        <time>2013-04-14T07:38:32Z</time>
      </trkpt>
      <trkpt lat="48.60042" lon="7.26299">
        <ele>807.64</ele>
        <time>2013-04-14T07:38:42Z</time>
      </trkpt>
      <trkpt lat="48.60041" lon="7.26299">
        <ele>807.64</ele>
        <time>2013-04-14T07:38:43Z</time>
      </trkpt>
      <trkpt lat="48.6004" lon="7.263">
        <ele>808.13</ele>
        <time>2013-04-14T07:38:52Z</time>
      </trkpt>
      <trkpt lat="48.60039" lon="7.26301">
        <ele>808.13</ele>
        <time>2013-04-14T07:38:53Z</time>
      </trkpt>
      <trkpt lat="48.60038" lon="7.26303">
        <ele>808.13</ele>
        <time>2013-04-14T07:38:54Z</time>
      </trkpt>
      <trkpt lat="48.60037" lon="7.26303">
        <ele>808.13</ele>
        <time>2013-04-14T07:38:55Z</time>
      </trkpt>
      <trkpt lat="48.60033" lon="7.26307">
        <ele>809.09</ele>
        <time>2013-04-14T07:38:59Z</time>
      </trkpt>
      <trkpt lat="48.60031" lon="7.26308">
        <ele>809.09</ele>
        <time>2013-04-14T07:39:00Z</time>
      </trkpt>
      <trkpt lat="48.6003" lon="7.2631">
        <ele>809.57</ele>
        <time>2013-04-14T07:39:02Z</time>
      </trkpt>
      <trkpt lat="48.60028" lon="7.26313">
        <ele>810.53</ele>
        <time>2013-04-14T07:39:05Z</time>
      </trkpt>
      <trkpt lat="48.60023" lon="7.26316">
        <ele>811.01</ele>
        <time>2013-04-14T07:39:09Z</time>
      </trkpt>
      <trkpt lat="48.60021" lon="7.26317">
        <ele>811.49</ele>
        <time>2013-04-14T07:39:10Z</time>
      </trkpt>
      <trkpt lat="48.6002" lon="7.26318">
        <ele>811.49</ele>
        <time>2013-04-14T07:39:11Z</time>
      </trkpt>
      <trkpt lat="48.60007" lon="7.26329">
        <ele>813.41</ele>
        <time>2013-04-14T07:39:21Z</time>
      </trkpt>
      <trkpt lat="48.60004" lon="7.26334">
        <ele>813.89</ele>
        <time>2013-04-14T07:39:36Z</time>
      </trkpt>
      <trkpt lat="48.60003" lon="7.26332">
        <ele>813.89</ele>
        <time>2013-04-14T07:40:00Z</time>
      </trkpt>
      <trkpt lat="48.60004" lon="7.26331">
        <ele>813.89</ele>
        <time>2013-04-14T07:40:26Z</time>
      </trkpt>
      <trkpt lat="48.60003" lon="7.2633">
        <ele>813.41</ele>
        <time>2013-04-14T07:40:43Z</time>
      </trkpt>
      <trkpt lat="48.60003" lon="7.2633">
        <ele>813.41</ele>
        <time>2013-04-14T07:41:19Z</time>
      </trkpt>
      <trkpt lat="48.60002" lon="7.26329">
        <ele>814.37</ele>
        <time>2013-04-14T07:41:47Z</time>
      </trkpt>
      <trkpt lat="48.60002" lon="7.2633">
        <ele>813.41</ele>
        <time>2013-04-14T07:42:03Z</time>
      </trkpt>
      <trkpt lat="48.60003" lon="7.2633">
        <ele>815.34</ele>
        <time>2013-04-14T07:42:12Z</time>
      </trkpt>
      <trkpt lat="48.60002" lon="7.26331">
        <ele>814.85</ele>
        <time>2013-04-14T07:42:32Z</time>
      </trkpt>
      <trkpt lat="48.60002" lon="7.26331">
        <ele>815.82</ele>
        <time>2013-04-14T07:42:36Z</time>
      </trkpt>
      <trkpt lat="48.60001" lon="7.26329">
        <ele>813.89</ele>
        <time>2013-04-14T07:42:55Z</time>
      </trkpt>
      <trkpt lat="48.59999" lon="7.26329">
        <ele>814.37</ele>
        <time>2013-04-14T07:43:02Z</time>
      </trkpt>
      <trkpt lat="48.59997" lon="7.2633">
        <ele>814.37</ele>
        <time>2013-04-14T07:43:03Z</time>
      </trkpt>
      <trkpt lat="48.59989" lon="7.26337">
        <ele>816.3</ele>
        <time>2013-04-14T07:43:09Z</time>
      </trkpt>
      <trkpt lat="48.59988" lon="7.26338">
        <ele>816.3</ele>
        <time>2013-04-14T07:43:10Z</time>
      </trkpt>
      <trkpt lat="48.59984" lon="7.2634">
        <ele>817.26</ele>
        <time>2013-04-14T07:43:14Z</time>
      </trkpt>
      <trkpt lat="48.59982" lon="7.2634">
        <ele>817.26</ele>
        <time>2013-04-14T07:43:15Z</time>
      </trkpt>
      <trkpt lat="48.59981" lon="7.2634">
        <ele>817.26</ele>
        <time>2013-04-14T07:43:16Z</time>
      </trkpt>
      <trkpt lat="48.59979" lon="7.26341">
        <ele>817.26</ele>
        <time>2013-04-14T07:43:17Z</time>
      </trkpt>
      <trkpt lat="48.59962" lon="7.26354">
        <ele>819.66</ele>
        <time>2013-04-14T07:43:28Z</time>
      </trkpt>
      <trkpt lat="48.59961" lon="7.26358">
        <ele>819.66</ele>
        <time>2013-04-14T07:43:43Z</time>
      </trkpt>
      <trkpt lat="48.59957" lon="7.26362">
        <ele>820.14</ele>
        <time>2013-04-14T07:43:48Z</time>
      </trkpt>
      <trkpt lat="48.59953" lon="7.26365">
        <ele>821.1</ele>
        <time>2013-04-14T07:43:51Z</time>
      </trkpt>
      <trkpt lat="48.59944" lon="7.26377">
        <ele>822.55</ele>
        <time>2013-04-14T07:44:01Z</time>
      </trkpt>
      <trkpt lat="48.5994" lon="7.26382">
        <ele>823.51</ele>
        <time>2013-04-14T07:44:05Z</time>
      </trkpt>
      <trkpt lat="48.59938" lon="7.26385">
        <ele>824.47</ele>
        <time>2013-04-14T07:44:08Z</time>
      </trkpt>
      <trkpt lat="48.5993" lon="7.26395">
        <ele>825.91</ele>
        <time>2013-04-14T07:44:15Z</time>
      </trkpt>
      <trkpt lat="48.59929" lon="7.26397">
        <ele>825.43</ele>
        <time>2013-04-14T07:44:16Z</time>
      </trkpt>
      <trkpt lat="48.59928" lon="7.26398">
        <ele>825.91</ele>
        <time>2013-04-14T07:44:18Z</time>
      </trkpt>
      <trkpt lat="48.59917" lon="7.26416">
        <ele>827.83</ele>
        <time>2013-04-14T07:44:29Z</time>
      </trkpt>
      <trkpt lat="48.59908" lon="7.26439">
        <ele>830.24</ele>
        <time>2013-04-14T07:44:41Z</time>
      </trkpt>
      <trkpt lat="48.59904" lon="7.2645">
        <ele>832.16</ele>
        <time>2013-04-14T07:44:51Z</time>
      </trkpt>
      <trkpt lat="48.599" lon="7.26456">
        <ele>832.64</ele>
        <time>2013-04-14T07:44:55Z</time>
      </trkpt>
      <trkpt lat="48.59892" lon="7.26467">
        <ele>834.08</ele>
        <time>2013-04-14T07:45:03Z</time>
      </trkpt>
      <trkpt lat="48.59889" lon="7.26475">
        <ele>835.04</ele>
        <time>2013-04-14T07:45:10Z</time>
      </trkpt>
      <trkpt lat="48.59886" lon="7.2648">
        <ele>835.52</ele>
        <time>2013-04-14T07:45:13Z</time>
      </trkpt>
      <trkpt lat="48.59877" lon="7.2649">
        <ele>836.96</ele>
        <time>2013-04-14T07:45:21Z</time>
      </trkpt>
      <trkpt lat="48.59877" lon="7.26492">
        <ele>837.45</ele>
        <time>2013-04-14T07:45:22Z</time>
      </trkpt>
      <trkpt lat="48.59876" lon="7.26495">
        <ele>837.45</ele>
        <time>2013-04-14T07:45:23Z</time>
      </trkpt>
      <trkpt lat="48.59869" lon="7.26517">
        <ele>839.37</ele>
        <time>2013-04-14T07:45:34Z</time>
      </trkpt>
      <trkpt lat="48.59865" lon="7.26524">
        <ele>839.85</ele>
        <time>2013-04-14T07:45:38Z</time>
      </trkpt>
      <trkpt lat="48.59864" lon="7.26529">
        <ele>840.33</ele>
        <time>2013-04-14T07:45:40Z</time>
      </trkpt>
      <trkpt lat="48.59864" lon="7.26532">
        <ele>840.33</ele>
        <time>2013-04-14T07:45:41Z</time>
      </trkpt>
      <trkpt lat="48.59861" lon="7.26539">
        <ele>840.33</ele>
        <time>2013-04-14T07:45:44Z</time>
      </trkpt>
      <trkpt lat="48.59859" lon="7.26544">
        <ele>840.81</ele>
        <time>2013-04-14T07:45:46Z</time>
      </trkpt>
      <trkpt lat="48.59858" lon="7.26547">
        <ele>840.81</ele>
        <time>2013-04-14T07:45:47Z</time>
      </trkpt>
      <trkpt lat="48.59857" lon="7.2655">
        <ele>841.29</ele>
        <time>2013-04-14T07:45:48Z</time>
      </trkpt>
      <trkpt lat="48.59856" lon="7.26553">
        <ele>841.29</ele>
        <time>2013-04-14T07:45:49Z</time>
      </trkpt>
      <trkpt lat="48.59855" lon="7.26555">
        <ele>841.29</ele>
        <time>2013-04-14T07:45:50Z</time>
      </trkpt>
      <trkpt lat="48.5985" lon="7.26581">
        <ele>842.73</ele>
        <time>2013-04-14T07:46:00Z</time>
      </trkpt>
      <trkpt lat="48.59849" lon="7.26584">
        <ele>843.21</ele>
        <time>2013-04-14T07:46:02Z</time>
      </trkpt>
      <trkpt lat="48.59848" lon="7.26588">
        <ele>843.21</ele>
        <time>2013-04-14T07:46:04Z</time>
      </trkpt>
      <trkpt lat="48.59847" lon="7.26591">
        <ele>843.69</ele>
        <time>2013-04-14T07:46:05Z</time>
      </trkpt>
      <trkpt lat="48.59845" lon="7.26602">
        <ele>844.18</ele>
        <time>2013-04-14T07:46:09Z</time>
      </trkpt>
      <trkpt lat="48.59845" lon="7.26607">
        <ele>844.66</ele>
        <time>2013-04-14T07:46:11Z</time>
      </trkpt>
      <trkpt lat="48.59845" lon="7.2661">
        <ele>844.66</ele>
        <time>2013-04-14T07:46:12Z</time>
      </trkpt>
      <trkpt lat="48.59846" lon="7.26612">
        <ele>845.14</ele>
        <time>2013-04-14T07:46:13Z</time>
      </trkpt>
      <trkpt lat="48.59846" lon="7.26615">
        <ele>844.66</ele>
        <time>2013-04-14T07:46:14Z</time>
      </trkpt>
      <trkpt lat="48.59846" lon="7.26619">
        <ele>845.62</ele>
        <time>2013-04-14T07:46:15Z</time>
      </trkpt>
      <trkpt lat="48.59846" lon="7.26621">
        <ele>845.62</ele>
        <time>2013-04-14T07:46:16Z</time>
      </trkpt>
      <trkpt lat="48.59846" lon="7.26624">
        <ele>845.62</ele>
        <time>2013-04-14T07:46:17Z</time>
      </trkpt>
      <trkpt lat="48.59845" lon="7.26627">
        <ele>845.62</ele>
        <time>2013-04-14T07:46:18Z</time>
      </trkpt>
      <trkpt lat="48.59838" lon="7.26635">
        <ele>846.58</ele>
        <time>2013-04-14T07:46:24Z</time>
      </trkpt>
      <trkpt lat="48.59834" lon="7.26648">
        <ele>847.54</ele>
        <time>2013-04-14T07:46:29Z</time>
      </trkpt>
      <trkpt lat="48.59835" lon="7.2665">
        <ele>847.54</ele>
        <time>2013-04-14T07:46:30Z</time>
      </trkpt>
      <trkpt lat="48.59836" lon="7.26659">
        <ele>848.02</ele>
        <time>2013-04-14T07:46:34Z</time>
      </trkpt>
      <trkpt lat="48.59836" lon="7.26661">
        <ele>848.5</ele>
        <time>2013-04-14T07:46:35Z</time>
      </trkpt>
      <trkpt lat="48.59836" lon="7.26666">
        <ele>848.98</ele>
        <time>2013-04-14T07:46:37Z</time>
      </trkpt>
      <trkpt lat="48.59837" lon="7.26668">
        <ele>849.46</ele>
        <time>2013-04-14T07:46:38Z</time>
      </trkpt>
      <trkpt lat="48.59837" lon="7.26671">
        <ele>849.46</ele>
        <time>2013-04-14T07:46:39Z</time>
      </trkpt>
      <trkpt lat="48.59836" lon="7.26672">
        <ele>849.46</ele>
        <time>2013-04-14T07:46:40Z</time>
      </trkpt>
      <trkpt lat="48.59839" lon="7.26681">
        <ele>850.9</ele>
        <time>2013-04-14T07:46:46Z</time>
      </trkpt>
      <trkpt lat="48.5984" lon="7.26683">
        <ele>850.9</ele>
        <time>2013-04-14T07:46:47Z</time>
      </trkpt>
      <trkpt lat="48.5984" lon="7.26686">
        <ele>851.38</ele>
        <time>2013-04-14T07:46:48Z</time>
      </trkpt>
      <trkpt lat="48.59838" lon="7.26692">
        <ele>851.38</ele>
        <time>2013-04-14T07:46:50Z</time>
      </trkpt>
      <trkpt lat="48.59837" lon="7.26695">
        <ele>851.87</ele>
        <time>2013-04-14T07:46:51Z</time>
      </trkpt>
      <trkpt lat="48.59837" lon="7.26698">
        <ele>851.87</ele>
        <time>2013-04-14T07:46:52Z</time>
      </trkpt>
      <trkpt lat="48.59836" lon="7.267">
        <ele>851.87</ele>
        <time>2013-04-14T07:46:53Z</time>
      </trkpt>
      <trkpt lat="48.59837" lon="7.26704">
        <ele>852.35</ele>
        <time>2013-04-14T07:46:55Z</time>
      </trkpt>
      <trkpt lat="48.59837" lon="7.26705">
        <ele>852.83</ele>
        <time>2013-04-14T07:46:56Z</time>
      </trkpt>
      <trkpt lat="48.59836" lon="7.26708">
        <ele>852.83</ele>
        <time>2013-04-14T07:46:57Z</time>
      </trkpt>
      <trkpt lat="48.59835" lon="7.26718">
        <ele>853.31</ele>
        <time>2013-04-14T07:47:01Z</time>
      </trkpt>
      <trkpt lat="48.59838" lon="7.26728">
        <ele>854.27</ele>
        <time>2013-04-14T07:47:07Z</time>
      </trkpt>
      <trkpt lat="48.59838" lon="7.26731">
        <ele>854.27</ele>
        <time>2013-04-14T07:47:08Z</time>
      </trkpt>
      <trkpt lat="48.59838" lon="7.26734">
        <ele>854.75</ele>
        <time>2013-04-14T07:47:09Z</time>
      </trkpt>
      <trkpt lat="48.59838" lon="7.26736">
        <ele>854.75</ele>
        <time>2013-04-14T07:47:10Z</time>
      </trkpt>
      <trkpt lat="48.5984" lon="7.2675">
        <ele>856.19</ele>
        <time>2013-04-14T07:47:18Z</time>
      </trkpt>
      <trkpt lat="48.5984" lon="7.26752">
        <ele>856.67</ele>
        <time>2013-04-14T07:47:19Z</time>
      </trkpt>
      <trkpt lat="48.5984" lon="7.26755">
        <ele>857.15</ele>
        <time>2013-04-14T07:47:21Z</time>
      </trkpt>
      <trkpt lat="48.5984" lon="7.26758">
        <ele>857.15</ele>
        <time>2013-04-14T07:47:22Z</time>
      </trkpt>
      <trkpt lat="48.59841" lon="7.2676">
        <ele>857.63</ele>
        <time>2013-04-14T07:47:23Z</time>
      </trkpt>
      <trkpt lat="48.59842" lon="7.26763">
        <ele>857.63</ele>
        <time>2013-04-14T07:47:24Z</time>
      </trkpt>
      <trkpt lat="48.59842" lon="7.26765">
        <ele>857.63</ele>
        <time>2013-04-14T07:47:25Z</time>
      </trkpt>
      <trkpt lat="48.59842" lon="7.26769">
        <ele>858.11</ele>
        <time>2013-04-14T07:47:26Z</time>
      </trkpt>
      <trkpt lat="48.5984" lon="7.26781">
        <ele>859.08</ele>
        <time>2013-04-14T07:47:31Z</time>
      </trkpt>
      <trkpt lat="48.5984" lon="7.26783">
        <ele>859.08</ele>
        <time>2013-04-14T07:47:32Z</time>
      </trkpt>
      <trkpt lat="48.59841" lon="7.26786">
        <ele>859.56</ele>
        <time>2013-04-14T07:47:33Z</time>
      </trkpt>
      <trkpt lat="48.5984" lon="7.26789">
        <ele>859.56</ele>
        <time>2013-04-14T07:47:34Z</time>
      </trkpt>
      <trkpt lat="48.59839" lon="7.26796">
        <ele>860.52</ele>
        <time>2013-04-14T07:47:37Z</time>
      </trkpt>
      <trkpt lat="48.59838" lon="7.26797">
        <ele>860.52</ele>
        <time>2013-04-14T07:47:38Z</time>
      </trkpt>
      <trkpt lat="48.59837" lon="7.268">
        <ele>861</ele>
        <time>2013-04-14T07:47:39Z</time>
      </trkpt>
      <trkpt lat="48.5984" lon="7.26814">
        <ele>861.48</ele>
        <time>2013-04-14T07:47:46Z</time>
      </trkpt>
      <trkpt lat="48.59841" lon="7.26818">
        <ele>862.44</ele>
        <time>2013-04-14T07:47:48Z</time>
      </trkpt>
      <trkpt lat="48.59842" lon="7.26821">
        <ele>862.44</ele>
        <time>2013-04-14T07:47:49Z</time>
      </trkpt>
      <trkpt lat="48.59842" lon="7.26824">
        <ele>862.44</ele>
        <time>2013-04-14T07:47:50Z</time>
      </trkpt>
      <trkpt lat="48.59841" lon="7.26832">
        <ele>863.4</ele>
        <time>2013-04-14T07:47:54Z</time>
      </trkpt>
      <trkpt lat="48.59841" lon="7.26835">
        <ele>863.4</ele>
        <time>2013-04-14T07:47:55Z</time>
      </trkpt>
      <trkpt lat="48.59842" lon="7.26838">
        <ele>863.88</ele>
        <time>2013-04-14T07:47:56Z</time>
      </trkpt>
      <trkpt lat="48.59842" lon="7.26841">
        <ele>863.4</ele>
        <time>2013-04-14T07:47:57Z</time>
      </trkpt>
      <trkpt lat="48.59841" lon="7.26844">
        <ele>863.88</ele>
        <time>2013-04-14T07:47:58Z</time>
      </trkpt>
      <trkpt lat="48.59841" lon="7.26847">
        <ele>863.88</ele>
        <time>2013-04-14T07:47:59Z</time>
      </trkpt>
      <trkpt lat="48.5984" lon="7.2685">
        <ele>863.88</ele>
        <time>2013-04-14T07:48:00Z</time>
      </trkpt>
      <trkpt lat="48.5984" lon="7.26854">
        <ele>864.36</ele>
        <time>2013-04-14T07:48:01Z</time>
      </trkpt>
      <trkpt lat="48.59839" lon="7.26857">
        <ele>864.36</ele>
        <time>2013-04-14T07:48:02Z</time>
      </trkpt>
      <trkpt lat="48.59838" lon="7.2686">
        <ele>864.84</ele>
        <time>2013-04-14T07:48:03Z</time>
      </trkpt>
      <trkpt lat="48.59838" lon="7.26862">
        <ele>864.84</ele>
        <time>2013-04-14T07:48:04Z</time>
      </trkpt>
      <trkpt lat="48.59837" lon="7.26864">
        <ele>865.32</ele>
        <time>2013-04-14T07:48:05Z</time>
      </trkpt>
      <trkpt lat="48.59838" lon="7.26881">
        <ele>866.77</ele>
        <time>2013-04-14T07:48:13Z</time>
      </trkpt>
      <trkpt lat="48.59837" lon="7.26885">
        <ele>866.77</ele>
        <time>2013-04-14T07:48:14Z</time>
      </trkpt>
      <trkpt lat="48.59837" lon="7.26888">
        <ele>866.77</ele>
        <time>2013-04-14T07:48:15Z</time>
      </trkpt>
      <trkpt lat="48.59837" lon="7.26891">
        <ele>868.21</ele>
        <time>2013-04-14T07:48:16Z</time>
      </trkpt>
      <trkpt lat="48.59837" lon="7.26898">
        <ele>867.73</ele>
        <time>2013-04-14T07:48:19Z</time>
      </trkpt>
      <trkpt lat="48.59837" lon="7.26902">
        <ele>868.69</ele>
        <time>2013-04-14T07:48:21Z</time>
      </trkpt>
      <trkpt lat="48.59838" lon="7.26916">
        <ele>869.17</ele>
        <time>2013-04-14T07:48:26Z</time>
      </trkpt>
      <trkpt lat="48.59838" lon="7.26918">
        <ele>869.17</ele>
        <time>2013-04-14T07:48:27Z</time>
      </trkpt>
      <trkpt lat="48.59839" lon="7.26924">
        <ele>869.65</ele>
        <time>2013-04-14T07:48:30Z</time>
      </trkpt>
      <trkpt lat="48.59839" lon="7.26926">
        <ele>869.65</ele>
        <time>2013-04-14T07:48:31Z</time>
      </trkpt>
      <trkpt lat="48.5984" lon="7.26927">
        <ele>869.65</ele>
        <time>2013-04-14T07:48:32Z</time>
      </trkpt>
      <trkpt lat="48.59841" lon="7.26929">
        <ele>870.13</ele>
        <time>2013-04-14T07:48:33Z</time>
      </trkpt>
      <trkpt lat="48.5984" lon="7.26945">
        <ele>871.57</ele>
        <time>2013-04-14T07:48:39Z</time>
      </trkpt>
      <trkpt lat="48.59838" lon="7.26947">
        <ele>871.57</ele>
        <time>2013-04-14T07:48:40Z</time>
      </trkpt>
      <trkpt lat="48.59837" lon="7.26949">
        <ele>871.57</ele>
        <time>2013-04-14T07:48:41Z</time>
      </trkpt>
      <trkpt lat="48.59837" lon="7.26953">
        <ele>872.05</ele>
        <time>2013-04-14T07:48:43Z</time>
      </trkpt>
      <trkpt lat="48.59837" lon="7.26956">
        <ele>872.05</ele>
        <time>2013-04-14T07:48:44Z</time>
      </trkpt>
      <trkpt lat="48.59837" lon="7.26959">
        <ele>872.53</ele>
        <time>2013-04-14T07:48:45Z</time>
      </trkpt>
      <trkpt lat="48.59837" lon="7.26962">
        <ele>873.01</ele>
        <time>2013-04-14T07:48:46Z</time>
      </trkpt>
      <trkpt lat="48.59839" lon="7.26974">
        <ele>873.5</ele>
        <time>2013-04-14T07:48:52Z</time>
      </trkpt>
      <trkpt lat="48.5984" lon="7.26976">
        <ele>873.5</ele>
        <time>2013-04-14T07:48:53Z</time>
      </trkpt>
      <trkpt lat="48.59841" lon="7.26979">
        <ele>873.98</ele>
        <time>2013-04-14T07:48:54Z</time>
      </trkpt>
      <trkpt lat="48.59841" lon="7.26981">
        <ele>873.98</ele>
        <time>2013-04-14T07:48:55Z</time>
      </trkpt>
      <trkpt lat="48.59842" lon="7.26987">
        <ele>874.46</ele>
        <time>2013-04-14T07:48:58Z</time>
      </trkpt>
      <trkpt lat="48.59843" lon="7.2699">
        <ele>874.46</ele>
        <time>2013-04-14T07:48:59Z</time>
      </trkpt>
      <trkpt lat="48.59844" lon="7.26992">
        <ele>874.94</ele>
        <time>2013-04-14T07:49:00Z</time>
      </trkpt>
      <trkpt lat="48.59844" lon="7.27002">
        <ele>875.42</ele>
        <time>2013-04-14T07:49:04Z</time>
      </trkpt>
      <trkpt lat="48.59843" lon="7.27003">
        <ele>875.9</ele>
        <time>2013-04-14T07:49:05Z</time>
      </trkpt>
      <trkpt lat="48.59843" lon="7.27006">
        <ele>875.9</ele>
        <time>2013-04-14T07:49:06Z</time>
      </trkpt>
      <trkpt lat="48.59842" lon="7.27012">
        <ele>876.38</ele>
        <time>2013-04-14T07:49:09Z</time>
      </trkpt>
      <trkpt lat="48.59843" lon="7.27032">
        <ele>878.3</ele>
        <time>2013-04-14T07:49:18Z</time>
      </trkpt>
      <trkpt lat="48.59847" lon="7.27045">
        <ele>879.26</ele>
        <time>2013-04-14T07:49:24Z</time>
      </trkpt>
      <trkpt lat="48.59846" lon="7.27047">
        <ele>879.74</ele>
        <time>2013-04-14T07:49:25Z</time>
      </trkpt>
      <trkpt lat="48.59846" lon="7.27049">
        <ele>879.74</ele>
        <time>2013-04-14T07:49:26Z</time>
      </trkpt>
      <trkpt lat="48.59847" lon="7.27051">
        <ele>879.74</ele>
        <time>2013-04-14T07:49:27Z</time>
      </trkpt>
      <trkpt lat="48.59848" lon="7.27056">
        <ele>880.22</ele>
        <time>2013-04-14T07:49:29Z</time>
      </trkpt>
      <trkpt lat="48.5985" lon="7.27063">
        <ele>880.71</ele>
        <time>2013-04-14T07:49:33Z</time>
      </trkpt>
      <trkpt lat="48.5985" lon="7.27066">
        <ele>881.19</ele>
        <time>2013-04-14T07:49:34Z</time>
      </trkpt>
      <trkpt lat="48.5985" lon="7.27072">
        <ele>881.67</ele>
        <time>2013-04-14T07:49:37Z</time>
      </trkpt>
      <trkpt lat="48.5985" lon="7.27074">
        <ele>881.67</ele>
        <time>2013-04-14T07:49:38Z</time>
      </trkpt>
      <trkpt lat="48.5985" lon="7.27079">
        <ele>882.15</ele>
        <time>2013-04-14T07:49:40Z</time>
      </trkpt>
      <trkpt lat="48.5985" lon="7.27081">
        <ele>882.63</ele>
        <time>2013-04-14T07:49:41Z</time>
      </trkpt>
      <trkpt lat="48.5985" lon="7.27083">
        <ele>882.63</ele>
        <time>2013-04-14T07:49:42Z</time>
      </trkpt>
      <trkpt lat="48.5985" lon="7.27085">
        <ele>882.63</ele>
        <time>2013-04-14T07:49:43Z</time>
      </trkpt>
      <trkpt lat="48.5985" lon="7.27087">
        <ele>883.11</ele>
        <time>2013-04-14T07:49:44Z</time>
      </trkpt>
      <trkpt lat="48.59851" lon="7.27089">
        <ele>883.11</ele>
        <time>2013-04-14T07:49:45Z</time>
      </trkpt>
      <trkpt lat="48.59851" lon="7.27092">
        <ele>883.11</ele>
        <time>2013-04-14T07:49:46Z</time>
      </trkpt>
      <trkpt lat="48.59851" lon="7.27094">
        <ele>883.59</ele>
        <time>2013-04-14T07:49:47Z</time>
      </trkpt>
      <trkpt lat="48.59851" lon="7.27096">
        <ele>883.59</ele>
        <time>2013-04-14T07:49:48Z</time>
      </trkpt>
      <trkpt lat="48.59851" lon="7.27102">
        <ele>884.07</ele>
        <time>2013-04-14T07:49:52Z</time>
      </trkpt>
      <trkpt lat="48.59853" lon="7.27104">
        <ele>884.07</ele>
        <time>2013-04-14T07:49:53Z</time>
      </trkpt>
      <trkpt lat="48.59854" lon="7.27105">
        <ele>884.07</ele>
        <time>2013-04-14T07:49:54Z</time>
      </trkpt>
      <trkpt lat="48.59855" lon="7.27107">
        <ele>884.55</ele>
        <time>2013-04-14T07:49:55Z</time>
      </trkpt>
      <trkpt lat="48.59854" lon="7.27114">
        <ele>885.03</ele>
        <time>2013-04-14T07:49:59Z</time>
      </trkpt>
      <trkpt lat="48.59852" lon="7.27122">
        <ele>885.99</ele>
        <time>2013-04-14T07:50:02Z</time>
      </trkpt>
      <trkpt lat="48.59852" lon="7.27124">
        <ele>885.99</ele>
        <time>2013-04-14T07:50:03Z</time>
      </trkpt>
      <trkpt lat="48.59853" lon="7.27127">
        <ele>885.99</ele>
        <time>2013-04-14T07:50:04Z</time>
      </trkpt>
      <trkpt lat="48.59853" lon="7.27129">
        <ele>885.99</ele>
        <time>2013-04-14T07:50:05Z</time>
      </trkpt>
      <trkpt lat="48.59854" lon="7.27131">
        <ele>885.99</ele>
        <time>2013-04-14T07:50:06Z</time>
      </trkpt>
      <trkpt lat="48.59855" lon="7.27134">
        <ele>886.47</ele>
        <time>2013-04-14T07:50:07Z</time>
      </trkpt>
      <trkpt lat="48.59855" lon="7.27144">
        <ele>886.95</ele>
        <time>2013-04-14T07:50:12Z</time>
      </trkpt>
      <trkpt lat="48.59855" lon="7.27147">
        <ele>886.95</ele>
        <time>2013-04-14T07:50:13Z</time>
      </trkpt>
      <trkpt lat="48.59854" lon="7.27149">
        <ele>887.43</ele>
        <time>2013-04-14T07:50:14Z</time>
      </trkpt>
      <trkpt lat="48.59854" lon="7.27151">
        <ele>887.43</ele>
        <time>2013-04-14T07:50:15Z</time>
      </trkpt>
      <trkpt lat="48.59854" lon="7.27152">
        <ele>888.4</ele>
        <time>2013-04-14T07:50:16Z</time>
      </trkpt>
      <trkpt lat="48.59857" lon="7.2716">
        <ele>888.4</ele>
        <time>2013-04-14T07:50:25Z</time>
      </trkpt>
      <trkpt lat="48.59848" lon="7.27171">
        <ele>889.84</ele>
        <time>2013-04-14T07:50:38Z</time>
      </trkpt>
      <trkpt lat="48.59847" lon="7.27177">
        <ele>890.32</ele>
        <time>2013-04-14T07:50:50Z</time>
      </trkpt>
      <trkpt lat="48.59846" lon="7.27178">
        <ele>890.32</ele>
        <time>2013-04-14T07:50:51Z</time>
      </trkpt>
      <trkpt lat="48.59845" lon="7.27181">
        <ele>890.8</ele>
        <time>2013-04-14T07:50:53Z</time>
      </trkpt>
      <trkpt lat="48.59844" lon="7.27182">
        <ele>890.8</ele>
        <time>2013-04-14T07:50:54Z</time>
      </trkpt>
      <trkpt lat="48.59844" lon="7.27184">
        <ele>890.8</ele>
        <time>2013-04-14T07:50:55Z</time>
      </trkpt>
      <trkpt lat="48.59843" lon="7.27186">
        <ele>891.28</ele>
        <time>2013-04-14T07:50:56Z</time>
      </trkpt>
      <trkpt lat="48.59842" lon="7.27189">
        <ele>891.28</ele>
        <time>2013-04-14T07:50:57Z</time>
      </trkpt>
      <trkpt lat="48.59842" lon="7.2719">
        <ele>891.28</ele>
        <time>2013-04-14T07:50:58Z</time>
      </trkpt>
      <trkpt lat="48.59841" lon="7.27193">
        <ele>891.76</ele>
        <time>2013-04-14T07:50:59Z</time>
      </trkpt>
      <trkpt lat="48.59841" lon="7.27195">
        <ele>891.76</ele>
        <time>2013-04-14T07:51:00Z</time>
      </trkpt>
      <trkpt lat="48.5984" lon="7.27197">
        <ele>891.76</ele>
        <time>2013-04-14T07:51:01Z</time>
      </trkpt>
      <trkpt lat="48.5984" lon="7.27199">
        <ele>892.24</ele>
        <time>2013-04-14T07:51:02Z</time>
      </trkpt>
      <trkpt lat="48.59839" lon="7.27201">
        <ele>892.24</ele>
        <time>2013-04-14T07:51:03Z</time>
      </trkpt>
      <trkpt lat="48.59838" lon="7.27203">
        <ele>892.72</ele>
        <time>2013-04-14T07:51:04Z</time>
      </trkpt>
      <trkpt lat="48.59838" lon="7.27205">
        <ele>892.72</ele>
        <time>2013-04-14T07:51:05Z</time>
      </trkpt>
      <trkpt lat="48.59837" lon="7.27206">
        <ele>893.2</ele>
        <time>2013-04-14T07:51:06Z</time>
      </trkpt>
      <trkpt lat="48.59836" lon="7.27208">
        <ele>893.2</ele>
        <time>2013-04-14T07:51:07Z</time>
      </trkpt>
      <trkpt lat="48.59835" lon="7.2721">
        <ele>893.2</ele>
        <time>2013-04-14T07:51:08Z</time>
      </trkpt>
      <trkpt lat="48.59834" lon="7.27213">
        <ele>893.68</ele>
        <time>2013-04-14T07:51:10Z</time>
      </trkpt>
      <trkpt lat="48.59833" lon="7.27215">
        <ele>893.68</ele>
        <time>2013-04-14T07:51:11Z</time>
      </trkpt>
      <trkpt lat="48.59832" lon="7.27217">
        <ele>893.68</ele>
        <time>2013-04-14T07:51:12Z</time>
      </trkpt>
      <trkpt lat="48.59831" lon="7.27219">
        <ele>893.68</ele>
        <time>2013-04-14T07:51:13Z</time>
      </trkpt>
      <trkpt lat="48.5983" lon="7.2722">
        <ele>894.16</ele>
        <time>2013-04-14T07:51:14Z</time>
      </trkpt>
      <trkpt lat="48.59829" lon="7.27221">
        <ele>894.16</ele>
        <time>2013-04-14T07:51:15Z</time>
      </trkpt>
      <trkpt lat="48.59828" lon="7.27222">
        <ele>894.16</ele>
        <time>2013-04-14T07:51:16Z</time>
      </trkpt>
      <trkpt lat="48.59827" lon="7.27223">
        <ele>894.64</ele>
        <time>2013-04-14T07:51:17Z</time>
      </trkpt>
      <trkpt lat="48.59822" lon="7.2723">
        <ele>894.64</ele>
        <time>2013-04-14T07:51:21Z</time>
      </trkpt>
      <trkpt lat="48.59821" lon="7.27232">
        <ele>895.12</ele>
        <time>2013-04-14T07:51:22Z</time>
      </trkpt>
      <trkpt lat="48.5982" lon="7.27234">
        <ele>895.12</ele>
        <time>2013-04-14T07:51:23Z</time>
      </trkpt>
      <trkpt lat="48.59819" lon="7.27235">
        <ele>895.12</ele>
        <time>2013-04-14T07:51:24Z</time>
      </trkpt>
      <trkpt lat="48.59818" lon="7.27237">
        <ele>895.12</ele>
        <time>2013-04-14T07:51:25Z</time>
      </trkpt>
      <trkpt lat="48.59816" lon="7.27239">
        <ele>895.12</ele>
        <time>2013-04-14T07:51:26Z</time>
      </trkpt>
      <trkpt lat="48.59815" lon="7.27241">
        <ele>895.12</ele>
        <time>2013-04-14T07:51:27Z</time>
      </trkpt>
      <trkpt lat="48.59814" lon="7.27242">
        <ele>895.12</ele>
        <time>2013-04-14T07:51:28Z</time>
      </trkpt>
      <trkpt lat="48.59813" lon="7.27244">
        <ele>895.12</ele>
        <time>2013-04-14T07:51:29Z</time>
      </trkpt>
      <trkpt lat="48.5981" lon="7.2725">
        <ele>895.61</ele>
        <time>2013-04-14T07:51:33Z</time>
      </trkpt>
      <trkpt lat="48.59809" lon="7.27251">
        <ele>895.61</ele>
        <time>2013-04-14T07:51:34Z</time>
      </trkpt>
      <trkpt lat="48.59807" lon="7.27252">
        <ele>895.61</ele>
        <time>2013-04-14T07:51:35Z</time>
      </trkpt>
      <trkpt lat="48.59794" lon="7.27259">
        <ele>895.61</ele>
        <time>2013-04-14T07:51:44Z</time>
      </trkpt>
      <trkpt lat="48.59793" lon="7.2726">
        <ele>895.61</ele>
        <time>2013-04-14T07:51:45Z</time>
      </trkpt>
      <trkpt lat="48.59788" lon="7.27263">
        <ele>895.61</ele>
        <time>2013-04-14T07:51:49Z</time>
      </trkpt>
      <trkpt lat="48.59769" lon="7.27266">
        <ele>894.16</ele>
        <time>2013-04-14T07:51:59Z</time>
      </trkpt>
      <trkpt lat="48.59767" lon="7.27266">
        <ele>894.16</ele>
        <time>2013-04-14T07:52:00Z</time>
      </trkpt>
      <trkpt lat="48.59764" lon="7.27266">
        <ele>894.16</ele>
        <time>2013-04-14T07:52:01Z</time>
      </trkpt>
      <trkpt lat="48.59761" lon="7.27265">
        <ele>893.68</ele>
        <time>2013-04-14T07:52:02Z</time>
      </trkpt>
      <trkpt lat="48.59758" lon="7.27265">
        <ele>893.68</ele>
        <time>2013-04-14T07:52:03Z</time>
      </trkpt>
      <trkpt lat="48.59733" lon="7.27265">
        <ele>893.2</ele>
        <time>2013-04-14T07:52:12Z</time>
      </trkpt>
      <trkpt lat="48.59723" lon="7.27267">
        <ele>893.2</ele>
        <time>2013-04-14T07:52:15Z</time>
      </trkpt>
      <trkpt lat="48.59718" lon="7.27268">
        <ele>893.2</ele>
        <time>2013-04-14T07:52:16Z</time>
      </trkpt>
      <trkpt lat="48.59714" lon="7.27268">
        <ele>892.72</ele>
        <time>2013-04-14T07:52:17Z</time>
      </trkpt>
      <trkpt lat="48.59701" lon="7.27272">
        <ele>892.24</ele>
        <time>2013-04-14T07:52:20Z</time>
      </trkpt>
      <trkpt lat="48.59696" lon="7.27274">
        <ele>891.76</ele>
        <time>2013-04-14T07:52:21Z</time>
      </trkpt>
      <trkpt lat="48.59687" lon="7.27276">
        <ele>891.28</ele>
        <time>2013-04-14T07:52:23Z</time>
      </trkpt>
      <trkpt lat="48.59666" lon="7.27281">
        <ele>890.8</ele>
        <time>2013-04-14T07:52:27Z</time>
      </trkpt>
      <trkpt lat="48.5964" lon="7.27287">
        <ele>890.32</ele>
        <time>2013-04-14T07:52:35Z</time>
      </trkpt>
      <trkpt lat="48.59639" lon="7.27286">
        <ele>890.32</ele>
        <time>2013-04-14T07:52:36Z</time>
      </trkpt>
      <trkpt lat="48.59636" lon="7.27286">
        <ele>890.32</ele>
        <time>2013-04-14T07:52:37Z</time>
      </trkpt>
      <trkpt lat="48.59633" lon="7.27286">
        <ele>890.32</ele>
        <time>2013-04-14T07:52:38Z</time>
      </trkpt>
      <trkpt lat="48.59617" lon="7.27289">
        <ele>890.32</ele>
        <time>2013-04-14T07:52:41Z</time>
      </trkpt>
      <trkpt lat="48.59603" lon="7.27294">
        <ele>890.32</ele>
        <time>2013-04-14T07:52:44Z</time>
      </trkpt>
      <trkpt lat="48.59564" lon="7.27309">
        <ele>890.8</ele>
        <time>2013-04-14T07:52:54Z</time>
      </trkpt>
      <trkpt lat="48.59538" lon="7.27325">
        <ele>889.84</ele>
        <time>2013-04-14T07:53:04Z</time>
      </trkpt>
      <trkpt lat="48.59534" lon="7.27328">
        <ele>889.84</ele>
        <time>2013-04-14T07:53:05Z</time>
      </trkpt>
      <trkpt lat="48.59529" lon="7.2733">
        <ele>888.88</ele>
        <time>2013-04-14T07:53:06Z</time>
      </trkpt>
      <trkpt lat="48.59498" lon="7.27346">
        <ele>887.43</ele>
        <time>2013-04-14T07:53:12Z</time>
      </trkpt>
      <trkpt lat="48.59463" lon="7.27361">
        <ele>886.47</ele>
        <time>2013-04-14T07:53:18Z</time>
      </trkpt>
      <trkpt lat="48.59452" lon="7.27369">
        <ele>886.47</ele>
        <time>2013-04-14T07:53:20Z</time>
      </trkpt>
      <trkpt lat="48.59443" lon="7.27379">
        <ele>885.51</ele>
        <time>2013-04-14T07:53:22Z</time>
      </trkpt>
      <trkpt lat="48.59438" lon="7.27382">
        <ele>885.51</ele>
        <time>2013-04-14T07:53:23Z</time>
      </trkpt>
      <trkpt lat="48.59435" lon="7.27386">
        <ele>885.51</ele>
        <time>2013-04-14T07:53:24Z</time>
      </trkpt>
      <trkpt lat="48.59431" lon="7.2739">
        <ele>885.51</ele>
        <time>2013-04-14T07:53:25Z</time>
      </trkpt>
      <trkpt lat="48.59427" lon="7.27394">
        <ele>885.51</ele>
        <time>2013-04-14T07:53:26Z</time>
      </trkpt>
      <trkpt lat="48.59425" lon="7.27397">
        <ele>885.03</ele>
        <time>2013-04-14T07:53:27Z</time>
      </trkpt>
      <trkpt lat="48.59423" lon="7.27399">
        <ele>885.03</ele>
        <time>2013-04-14T07:53:28Z</time>
      </trkpt>
      <trkpt lat="48.59422" lon="7.27401">
        <ele>885.51</ele>
        <time>2013-04-14T07:53:29Z</time>
      </trkpt>
      <trkpt lat="48.5942" lon="7.27403">
        <ele>885.51</ele>
        <time>2013-04-14T07:53:30Z</time>
      </trkpt>
      <trkpt lat="48.59418" lon="7.27407">
        <ele>885.51</ele>
        <time>2013-04-14T07:53:31Z</time>
      </trkpt>
      <trkpt lat="48.59416" lon="7.27411">
        <ele>885.51</ele>
        <time>2013-04-14T07:53:32Z</time>
      </trkpt>
      <trkpt lat="48.59413" lon="7.2744">
        <ele>885.03</ele>
        <time>2013-04-14T07:53:38Z</time>
      </trkpt>
      <trkpt lat="48.59412" lon="7.27445">
        <ele>885.03</ele>
        <time>2013-04-14T07:53:39Z</time>
      </trkpt>
      <trkpt lat="48.59412" lon="7.2745">
        <ele>885.03</ele>
        <time>2013-04-14T07:53:40Z</time>
      </trkpt>
      <trkpt lat="48.59413" lon="7.27463">
        <ele>885.03</ele>
        <time>2013-04-14T07:53:42Z</time>
      </trkpt>
      <trkpt lat="48.59414" lon="7.2747">
        <ele>884.55</ele>
        <time>2013-04-14T07:53:43Z</time>
      </trkpt>
      <trkpt lat="48.59414" lon="7.27476">
        <ele>885.03</ele>
        <time>2013-04-14T07:53:44Z</time>
      </trkpt>
      <trkpt lat="48.59414" lon="7.27482">
        <ele>885.03</ele>
        <time>2013-04-14T07:53:45Z</time>
      </trkpt>
      <trkpt lat="48.59415" lon="7.27488">
        <ele>885.03</ele>
        <time>2013-04-14T07:53:46Z</time>
      </trkpt>
      <trkpt lat="48.59415" lon="7.27495">
        <ele>885.03</ele>
        <time>2013-04-14T07:53:47Z</time>
      </trkpt>
      <trkpt lat="48.59418" lon="7.27526">
        <ele>884.07</ele>
        <time>2013-04-14T07:53:51Z</time>
      </trkpt>
      <trkpt lat="48.59419" lon="7.27533">
        <ele>884.07</ele>
        <time>2013-04-14T07:53:52Z</time>
      </trkpt>
      <trkpt lat="48.5942" lon="7.27541">
        <ele>884.07</ele>
        <time>2013-04-14T07:53:53Z</time>
      </trkpt>
      <trkpt lat="48.5942" lon="7.27549">
        <ele>884.07</ele>
        <time>2013-04-14T07:53:54Z</time>
      </trkpt>
      <trkpt lat="48.5942" lon="7.27557">
        <ele>883.59</ele>
        <time>2013-04-14T07:53:55Z</time>
      </trkpt>
      <trkpt lat="48.59418" lon="7.27564">
        <ele>884.07</ele>
        <time>2013-04-14T07:53:56Z</time>
      </trkpt>
      <trkpt lat="48.59415" lon="7.2758">
        <ele>883.11</ele>
        <time>2013-04-14T07:53:58Z</time>
      </trkpt>
      <trkpt lat="48.59414" lon="7.27588">
        <ele>883.11</ele>
        <time>2013-04-14T07:53:59Z</time>
      </trkpt>
      <trkpt lat="48.5941" lon="7.27621">
        <ele>882.15</ele>
        <time>2013-04-14T07:54:03Z</time>
      </trkpt>
      <trkpt lat="48.59409" lon="7.27653">
        <ele>881.67</ele>
        <time>2013-04-14T07:54:07Z</time>
      </trkpt>
      <trkpt lat="48.59405" lon="7.27679">
        <ele>881.19</ele>
        <time>2013-04-14T07:54:10Z</time>
      </trkpt>
      <trkpt lat="48.59404" lon="7.27688">
        <ele>880.71</ele>
        <time>2013-04-14T07:54:11Z</time>
      </trkpt>
      <trkpt lat="48.59404" lon="7.27696">
        <ele>880.71</ele>
        <time>2013-04-14T07:54:12Z</time>
      </trkpt>
      <trkpt lat="48.59404" lon="7.27714">
        <ele>879.74</ele>
        <time>2013-04-14T07:54:14Z</time>
      </trkpt>
      <trkpt lat="48.59405" lon="7.27722">
        <ele>879.74</ele>
        <time>2013-04-14T07:54:15Z</time>
      </trkpt>
      <trkpt lat="48.59415" lon="7.27759">
        <ele>877.34</ele>
        <time>2013-04-14T07:54:19Z</time>
      </trkpt>
      <trkpt lat="48.59423" lon="7.27777">
        <ele>876.38</ele>
        <time>2013-04-14T07:54:21Z</time>
      </trkpt>
      <trkpt lat="48.59427" lon="7.27786">
        <ele>875.9</ele>
        <time>2013-04-14T07:54:22Z</time>
      </trkpt>
      <trkpt lat="48.59432" lon="7.27793">
        <ele>875.9</ele>
        <time>2013-04-14T07:54:23Z</time>
      </trkpt>
      <trkpt lat="48.59459" lon="7.27834">
        <ele>874.94</ele>
        <time>2013-04-14T07:54:30Z</time>
      </trkpt>
      <trkpt lat="48.59496" lon="7.27883">
        <ele>873.98</ele>
        <time>2013-04-14T07:54:42Z</time>
      </trkpt>
      <trkpt lat="48.5951" lon="7.279">
        <ele>873.5</ele>
        <time>2013-04-14T07:54:47Z</time>
      </trkpt>
      <trkpt lat="48.59513" lon="7.27898">
        <ele>873.01</ele>
        <time>2013-04-14T07:54:48Z</time>
      </trkpt>
      <trkpt lat="48.59516" lon="7.27894">
        <ele>872.53</ele>
        <time>2013-04-14T07:54:49Z</time>
      </trkpt>
      <trkpt lat="48.59517" lon="7.27887">
        <ele>872.05</ele>
        <time>2013-04-14T07:54:50Z</time>
      </trkpt>
      <trkpt lat="48.59516" lon="7.27881">
        <ele>871.57</ele>
        <time>2013-04-14T07:54:51Z</time>
      </trkpt>
      <trkpt lat="48.59515" lon="7.27874">
        <ele>870.61</ele>
        <time>2013-04-14T07:54:52Z</time>
      </trkpt>
      <trkpt lat="48.59515" lon="7.27867">
        <ele>869.65</ele>
        <time>2013-04-14T07:54:53Z</time>
      </trkpt>
      <trkpt lat="48.59515" lon="7.27859">
        <ele>869.65</ele>
        <time>2013-04-14T07:54:54Z</time>
      </trkpt>
      <trkpt lat="48.59514" lon="7.2785">
        <ele>868.69</ele>
        <time>2013-04-14T07:54:55Z</time>
      </trkpt>
      <trkpt lat="48.59513" lon="7.27841">
        <ele>868.21</ele>
        <time>2013-04-14T07:54:56Z</time>
      </trkpt>
      <trkpt lat="48.59511" lon="7.27831">
        <ele>867.73</ele>
        <time>2013-04-14T07:54:57Z</time>
      </trkpt>
      <trkpt lat="48.59505" lon="7.27797">
        <ele>865.8</ele>
        <time>2013-04-14T07:55:00Z</time>
      </trkpt>
      <trkpt lat="48.59502" lon="7.27785">
        <ele>865.32</ele>
        <time>2013-04-14T07:55:01Z</time>
      </trkpt>
      <trkpt lat="48.59501" lon="7.27772">
        <ele>864.84</ele>
        <time>2013-04-14T07:55:02Z</time>
      </trkpt>
      <trkpt lat="48.59499" lon="7.2776">
        <ele>864.36</ele>
        <time>2013-04-14T07:55:03Z</time>
      </trkpt>
      <trkpt lat="48.59498" lon="7.27747">
        <ele>863.88</ele>
        <time>2013-04-14T07:55:04Z</time>
      </trkpt>
      <trkpt lat="48.59495" lon="7.277">
        <ele>860.52</ele>
        <time>2013-04-14T07:55:08Z</time>
      </trkpt>
      <trkpt lat="48.59494" lon="7.27695">
        <ele>860.04</ele>
        <time>2013-04-14T07:55:09Z</time>
      </trkpt>
      <trkpt lat="48.59494" lon="7.27691">
        <ele>860.04</ele>
        <time>2013-04-14T07:55:10Z</time>
      </trkpt>
      <trkpt lat="48.59494" lon="7.2769">
        <ele>860.04</ele>
        <time>2013-04-14T07:55:11Z</time>
      </trkpt>
      <trkpt lat="48.59493" lon="7.27688">
        <ele>859.56</ele>
        <time>2013-04-14T07:55:12Z</time>
      </trkpt>
      <trkpt lat="48.59493" lon="7.27685">
        <ele>859.56</ele>
        <time>2013-04-14T07:55:13Z</time>
      </trkpt>
      <trkpt lat="48.59494" lon="7.27681">
        <ele>859.08</ele>
        <time>2013-04-14T07:55:14Z</time>
      </trkpt>
      <trkpt lat="48.59494" lon="7.27675">
        <ele>859.08</ele>
        <time>2013-04-14T07:55:15Z</time>
      </trkpt>
      <trkpt lat="48.59494" lon="7.27669">
        <ele>858.59</ele>
        <time>2013-04-14T07:55:16Z</time>
      </trkpt>
      <trkpt lat="48.59494" lon="7.27662">
        <ele>858.11</ele>
        <time>2013-04-14T07:55:17Z</time>
      </trkpt>
      <trkpt lat="48.59494" lon="7.27654">
        <ele>857.63</ele>
        <time>2013-04-14T07:55:18Z</time>
      </trkpt>
      <trkpt lat="48.59495" lon="7.27646">
        <ele>857.15</ele>
        <time>2013-04-14T07:55:19Z</time>
      </trkpt>
      <trkpt lat="48.59496" lon="7.27637">
        <ele>856.67</ele>
        <time>2013-04-14T07:55:20Z</time>
      </trkpt>
      <trkpt lat="48.59497" lon="7.27627">
        <ele>855.71</ele>
        <time>2013-04-14T07:55:21Z</time>
      </trkpt>
      <trkpt lat="48.59498" lon="7.27616">
        <ele>854.75</ele>
        <time>2013-04-14T07:55:22Z</time>
      </trkpt>
      <trkpt lat="48.59505" lon="7.27558">
        <ele>851.87</ele>
        <time>2013-04-14T07:55:27Z</time>
      </trkpt>
      <trkpt lat="48.59507" lon="7.27547">
        <ele>851.87</ele>
        <time>2013-04-14T07:55:28Z</time>
      </trkpt>
      <trkpt lat="48.5951" lon="7.27537">
        <ele>851.38</ele>
        <time>2013-04-14T07:55:29Z</time>
      </trkpt>
      <trkpt lat="48.59514" lon="7.27527">
        <ele>850.9</ele>
        <time>2013-04-14T07:55:30Z</time>
      </trkpt>
      <trkpt lat="48.59519" lon="7.2752">
        <ele>850.9</ele>
        <time>2013-04-14T07:55:31Z</time>
      </trkpt>
      <trkpt lat="48.59524" lon="7.27513">
        <ele>850.42</ele>
        <time>2013-04-14T07:55:32Z</time>
      </trkpt>
      <trkpt lat="48.5953" lon="7.27507">
        <ele>850.42</ele>
        <time>2013-04-14T07:55:33Z</time>
      </trkpt>
      <trkpt lat="48.59556" lon="7.27478">
        <ele>850.9</ele>
        <time>2013-04-14T07:55:41Z</time>
      </trkpt>
      <trkpt lat="48.59556" lon="7.27476">
        <ele>850.9</ele>
        <time>2013-04-14T07:55:44Z</time>
      </trkpt>
      <trkpt lat="48.59555" lon="7.27476">
        <ele>850.9</ele>
        <time>2013-04-14T07:55:45Z</time>
      </trkpt>
      <trkpt lat="48.59552" lon="7.27481">
        <ele>850.9</ele>
        <time>2013-04-14T07:55:49Z</time>
      </trkpt>
      <trkpt lat="48.59549" lon="7.2749">
        <ele>850.42</ele>
        <time>2013-04-14T07:56:01Z</time>
      </trkpt>
      <trkpt lat="48.59539" lon="7.27502">
        <ele>850.42</ele>
        <time>2013-04-14T07:56:12Z</time>
      </trkpt>
      <trkpt lat="48.59525" lon="7.27522">
        <ele>850.9</ele>
        <time>2013-04-14T07:56:18Z</time>
      </trkpt>
      <trkpt lat="48.59523" lon="7.27526">
        <ele>850.9</ele>
        <time>2013-04-14T07:56:19Z</time>
      </trkpt>
      <trkpt lat="48.59506" lon="7.27591">
        <ele>852.83</ele>
        <time>2013-04-14T07:56:31Z</time>
      </trkpt>
      <trkpt lat="48.59502" lon="7.27627">
        <ele>855.23</ele>
        <time>2013-04-14T07:56:40Z</time>
      </trkpt>
      <trkpt lat="48.59501" lon="7.2763">
        <ele>855.71</ele>
        <time>2013-04-14T07:56:41Z</time>
      </trkpt>
      <trkpt lat="48.595" lon="7.27633">
        <ele>855.71</ele>
        <time>2013-04-14T07:56:42Z</time>
      </trkpt>
      <trkpt lat="48.59499" lon="7.27636">
        <ele>856.19</ele>
        <time>2013-04-14T07:56:43Z</time>
      </trkpt>
      <trkpt lat="48.59499" lon="7.27639">
        <ele>856.19</ele>
        <time>2013-04-14T07:56:44Z</time>
      </trkpt>
      <trkpt lat="48.59498" lon="7.27641">
        <ele>856.19</ele>
        <time>2013-04-14T07:56:45Z</time>
      </trkpt>
      <trkpt lat="48.59498" lon="7.27651">
        <ele>857.15</ele>
        <time>2013-04-14T07:56:49Z</time>
      </trkpt>
      <trkpt lat="48.59497" lon="7.27654">
        <ele>857.15</ele>
        <time>2013-04-14T07:56:50Z</time>
      </trkpt>
      <trkpt lat="48.59497" lon="7.27656">
        <ele>857.15</ele>
        <time>2013-04-14T07:56:51Z</time>
      </trkpt>
      <trkpt lat="48.59497" lon="7.27659">
        <ele>857.15</ele>
        <time>2013-04-14T07:56:52Z</time>
      </trkpt>
      <trkpt lat="48.59496" lon="7.27661">
        <ele>857.63</ele>
        <time>2013-04-14T07:56:53Z</time>
      </trkpt>
      <trkpt lat="48.59496" lon="7.27664">
        <ele>857.63</ele>
        <time>2013-04-14T07:56:54Z</time>
      </trkpt>
      <trkpt lat="48.59496" lon="7.27666">
        <ele>857.63</ele>
        <time>2013-04-14T07:56:55Z</time>
      </trkpt>
      <trkpt lat="48.59496" lon="7.27668">
        <ele>858.11</ele>
        <time>2013-04-14T07:56:56Z</time>
      </trkpt>
      <trkpt lat="48.59496" lon="7.27671">
        <ele>858.11</ele>
        <time>2013-04-14T07:56:57Z</time>
      </trkpt>
      <trkpt lat="48.59497" lon="7.27673">
        <ele>858.11</ele>
        <time>2013-04-14T07:56:58Z</time>
      </trkpt>
      <trkpt lat="48.59497" lon="7.27675">
        <ele>858.11</ele>
        <time>2013-04-14T07:56:59Z</time>
      </trkpt>
      <trkpt lat="48.59496" lon="7.27677">
        <ele>858.59</ele>
        <time>2013-04-14T07:57:00Z</time>
      </trkpt>
      <trkpt lat="48.59496" lon="7.2768">
        <ele>858.59</ele>
        <time>2013-04-14T07:57:01Z</time>
      </trkpt>
      <trkpt lat="48.59496" lon="7.27682">
        <ele>858.59</ele>
        <time>2013-04-14T07:57:02Z</time>
      </trkpt>
      <trkpt lat="48.59496" lon="7.27684">
        <ele>859.08</ele>
        <time>2013-04-14T07:57:03Z</time>
      </trkpt>
      <trkpt lat="48.59496" lon="7.27686">
        <ele>859.08</ele>
        <time>2013-04-14T07:57:04Z</time>
      </trkpt>
      <trkpt lat="48.59496" lon="7.27689">
        <ele>859.08</ele>
        <time>2013-04-14T07:57:05Z</time>
      </trkpt>
      <trkpt lat="48.59496" lon="7.27697">
        <ele>860.04</ele>
        <time>2013-04-14T07:57:08Z</time>
      </trkpt>
      <trkpt lat="48.59496" lon="7.27699">
        <ele>860.04</ele>
        <time>2013-04-14T07:57:09Z</time>
      </trkpt>
      <trkpt lat="48.59496" lon="7.27701">
        <ele>860.04</ele>
        <time>2013-04-14T07:57:10Z</time>
      </trkpt>
      <trkpt lat="48.59497" lon="7.27703">
        <ele>860.52</ele>
        <time>2013-04-14T07:57:11Z</time>
      </trkpt>
      <trkpt lat="48.59497" lon="7.27705">
        <ele>860.52</ele>
        <time>2013-04-14T07:57:12Z</time>
      </trkpt>
      <trkpt lat="48.59497" lon="7.27708">
        <ele>860.52</ele>
        <time>2013-04-14T07:57:13Z</time>
      </trkpt>
      <trkpt lat="48.59497" lon="7.2771">
        <ele>860.52</ele>
        <time>2013-04-14T07:57:14Z</time>
      </trkpt>
      <trkpt lat="48.59498" lon="7.27712">
        <ele>861</ele>
        <time>2013-04-14T07:57:15Z</time>
      </trkpt>
      <trkpt lat="48.59498" lon="7.27715">
        <ele>861</ele>
        <time>2013-04-14T07:57:16Z</time>
      </trkpt>
      <trkpt lat="48.59499" lon="7.27717">
        <ele>861</ele>
        <time>2013-04-14T07:57:17Z</time>
      </trkpt>
      <trkpt lat="48.59499" lon="7.27719">
        <ele>861.48</ele>
        <time>2013-04-14T07:57:18Z</time>
      </trkpt>
      <trkpt lat="48.59499" lon="7.27722">
        <ele>861.48</ele>
        <time>2013-04-14T07:57:19Z</time>
      </trkpt>
      <trkpt lat="48.59499" lon="7.27724">
        <ele>861.48</ele>
        <time>2013-04-14T07:57:20Z</time>
      </trkpt>
      <trkpt lat="48.59499" lon="7.27726">
        <ele>861.48</ele>
        <time>2013-04-14T07:57:21Z</time>
      </trkpt>
      <trkpt lat="48.59499" lon="7.27728">
        <ele>861.96</ele>
        <time>2013-04-14T07:57:22Z</time>
      </trkpt>
      <trkpt lat="48.59499" lon="7.27729">
        <ele>861.96</ele>
        <time>2013-04-14T07:57:23Z</time>
      </trkpt>
      <trkpt lat="48.59499" lon="7.27731">
        <ele>861.96</ele>
        <time>2013-04-14T07:57:24Z</time>
      </trkpt>
      <trkpt lat="48.595" lon="7.27733">
        <ele>861.96</ele>
        <time>2013-04-14T07:57:25Z</time>
      </trkpt>
      <trkpt lat="48.59502" lon="7.27738">
        <ele>862.44</ele>
        <time>2013-04-14T07:57:28Z</time>
      </trkpt>
      <trkpt lat="48.59501" lon="7.27746">
        <ele>863.4</ele>
        <time>2013-04-14T07:57:33Z</time>
      </trkpt>
      <trkpt lat="48.59501" lon="7.2775">
        <ele>863.88</ele>
        <time>2013-04-14T07:57:36Z</time>
      </trkpt>
      <trkpt lat="48.59501" lon="7.27754">
        <ele>863.88</ele>
        <time>2013-04-14T07:57:38Z</time>
      </trkpt>
      <trkpt lat="48.59501" lon="7.27756">
        <ele>863.88</ele>
        <time>2013-04-14T07:57:39Z</time>
      </trkpt>
      <trkpt lat="48.59502" lon="7.27761">
        <ele>864.36</ele>
        <time>2013-04-14T07:57:41Z</time>
      </trkpt>
      <trkpt lat="48.59502" lon="7.27763">
        <ele>864.36</ele>
        <time>2013-04-14T07:57:42Z</time>
      </trkpt>
      <trkpt lat="48.59501" lon="7.27765">
        <ele>864.36</ele>
        <time>2013-04-14T07:57:43Z</time>
      </trkpt>
      <trkpt lat="48.59501" lon="7.27778">
        <ele>864.84</ele>
        <time>2013-04-14T07:57:49Z</time>
      </trkpt>
      <trkpt lat="48.59501" lon="7.2778">
        <ele>864.84</ele>
        <time>2013-04-14T07:57:50Z</time>
      </trkpt>
      <trkpt lat="48.59502" lon="7.27784">
        <ele>865.32</ele>
        <time>2013-04-14T07:57:52Z</time>
      </trkpt>
      <trkpt lat="48.59503" lon="7.27786">
        <ele>865.32</ele>
        <time>2013-04-14T07:57:53Z</time>
      </trkpt>
      <trkpt lat="48.59503" lon="7.27788">
        <ele>865.32</ele>
        <time>2013-04-14T07:57:54Z</time>
      </trkpt>
      <trkpt lat="48.59506" lon="7.27805">
        <ele>866.29</ele>
        <time>2013-04-14T07:58:03Z</time>
      </trkpt>
      <trkpt lat="48.59506" lon="7.27808">
        <ele>866.29</ele>
        <time>2013-04-14T07:58:04Z</time>
      </trkpt>
      <trkpt lat="48.59506" lon="7.2781">
        <ele>866.29</ele>
        <time>2013-04-14T07:58:05Z</time>
      </trkpt>
      <trkpt lat="48.59507" lon="7.27812">
        <ele>866.77</ele>
        <time>2013-04-14T07:58:06Z</time>
      </trkpt>
      <trkpt lat="48.59507" lon="7.27813">
        <ele>866.77</ele>
        <time>2013-04-14T07:58:07Z</time>
      </trkpt>
      <trkpt lat="48.59512" lon="7.27836">
        <ele>868.21</ele>
        <time>2013-04-14T07:58:19Z</time>
      </trkpt>
      <trkpt lat="48.59513" lon="7.27841">
        <ele>868.21</ele>
        <time>2013-04-14T07:58:21Z</time>
      </trkpt>
      <trkpt lat="48.59513" lon="7.27843">
        <ele>868.21</ele>
        <time>2013-04-14T07:58:22Z</time>
      </trkpt>
      <trkpt lat="48.59514" lon="7.27845">
        <ele>868.69</ele>
        <time>2013-04-14T07:58:23Z</time>
      </trkpt>
      <trkpt lat="48.59514" lon="7.27847">
        <ele>868.69</ele>
        <time>2013-04-14T07:58:24Z</time>
      </trkpt>
      <trkpt lat="48.59514" lon="7.27849">
        <ele>868.69</ele>
        <time>2013-04-14T07:58:25Z</time>
      </trkpt>
      <trkpt lat="48.59514" lon="7.27851">
        <ele>869.17</ele>
        <time>2013-04-14T07:58:26Z</time>
      </trkpt>
      <trkpt lat="48.59514" lon="7.27854">
        <ele>869.17</ele>
        <time>2013-04-14T07:58:27Z</time>
      </trkpt>
      <trkpt lat="48.59513" lon="7.27857">
        <ele>869.17</ele>
        <time>2013-04-14T07:58:28Z</time>
      </trkpt>
      <trkpt lat="48.59513" lon="7.2786">
        <ele>869.65</ele>
        <time>2013-04-14T07:58:29Z</time>
      </trkpt>
      <trkpt lat="48.59513" lon="7.27862">
        <ele>869.65</ele>
        <time>2013-04-14T07:58:30Z</time>
      </trkpt>
      <trkpt lat="48.59513" lon="7.27864">
        <ele>869.65</ele>
        <time>2013-04-14T07:58:31Z</time>
      </trkpt>
      <trkpt lat="48.59513" lon="7.27866">
        <ele>870.13</ele>
        <time>2013-04-14T07:58:32Z</time>
      </trkpt>
      <trkpt lat="48.59513" lon="7.27868">
        <ele>870.13</ele>
        <time>2013-04-14T07:58:33Z</time>
      </trkpt>
      <trkpt lat="48.59513" lon="7.2787">
        <ele>870.13</ele>
        <time>2013-04-14T07:58:34Z</time>
      </trkpt>
      <trkpt lat="48.59513" lon="7.27872">
        <ele>870.13</ele>
        <time>2013-04-14T07:58:35Z</time>
      </trkpt>
      <trkpt lat="48.59513" lon="7.27875">
        <ele>870.61</ele>
        <time>2013-04-14T07:58:36Z</time>
      </trkpt>
      <trkpt lat="48.59512" lon="7.27877">
        <ele>870.61</ele>
        <time>2013-04-14T07:58:37Z</time>
      </trkpt>
      <trkpt lat="48.59513" lon="7.27904">
        <ele>873.01</ele>
        <time>2013-04-14T07:58:50Z</time>
      </trkpt>
      <trkpt lat="48.59513" lon="7.27906">
        <ele>873.01</ele>
        <time>2013-04-14T07:58:51Z</time>
      </trkpt>
      <trkpt lat="48.59513" lon="7.27908">
        <ele>873.01</ele>
        <time>2013-04-14T07:58:52Z</time>
      </trkpt>
      <trkpt lat="48.59514" lon="7.2791">
        <ele>873.01</ele>
        <time>2013-04-14T07:58:53Z</time>
      </trkpt>
      <trkpt lat="48.59514" lon="7.27911">
        <ele>873.01</ele>
        <time>2013-04-14T07:58:54Z</time>
      </trkpt>
      <trkpt lat="48.59515" lon="7.27912">
        <ele>873.01</ele>
        <time>2013-04-14T07:58:55Z</time>
      </trkpt>
      <trkpt lat="48.59515" lon="7.27915">
        <ele>872.05</ele>
        <time>2013-04-14T07:59:09Z</time>
      </trkpt>
      <trkpt lat="48.59515" lon="7.27916">
        <ele>873.01</ele>
        <time>2013-04-14T07:59:26Z</time>
      </trkpt>
      <trkpt lat="48.59515" lon="7.27917">
        <ele>873.01</ele>
        <time>2013-04-14T07:59:51Z</time>
      </trkpt>
      <trkpt lat="48.59516" lon="7.27918">
        <ele>873.01</ele>
        <time>2013-04-14T08:00:14Z</time>
      </trkpt>
      <trkpt lat="48.59516" lon="7.27919">
        <ele>873.01</ele>
        <time>2013-04-14T08:00:40Z</time>
      </trkpt>
      <trkpt lat="48.59516" lon="7.27919">
        <ele>873.01</ele>
        <time>2013-04-14T08:00:57Z</time>
      </trkpt>
      <trkpt lat="48.59515" lon="7.27921">
        <ele>873.5</ele>
        <time>2013-04-14T08:00:58Z</time>
      </trkpt>
      <trkpt lat="48.59515" lon="7.27922">
        <ele>873.01</ele>
        <time>2013-04-14T08:00:59Z</time>
      </trkpt>
      <trkpt lat="48.59514" lon="7.27923">
        <ele>873.01</ele>
        <time>2013-04-14T08:01:00Z</time>
      </trkpt>
      <trkpt lat="48.59513" lon="7.27924">
        <ele>873.5</ele>
        <time>2013-04-14T08:01:01Z</time>
      </trkpt>
      <trkpt lat="48.59511" lon="7.27924">
        <ele>873.98</ele>
        <time>2013-04-14T08:01:02Z</time>
      </trkpt>
      <trkpt lat="48.5951" lon="7.27925">
        <ele>873.98</ele>
        <time>2013-04-14T08:01:03Z</time>
      </trkpt>
      <trkpt lat="48.59509" lon="7.27926">
        <ele>873.98</ele>
        <time>2013-04-14T08:01:04Z</time>
      </trkpt>
      <trkpt lat="48.59508" lon="7.27926">
        <ele>874.46</ele>
        <time>2013-04-14T08:01:05Z</time>
      </trkpt>
      <trkpt lat="48.59507" lon="7.27927">
        <ele>874.46</ele>
        <time>2013-04-14T08:01:06Z</time>
      </trkpt>
      <trkpt lat="48.59506" lon="7.27928">
        <ele>874.46</ele>
        <time>2013-04-14T08:01:07Z</time>
      </trkpt>
      <trkpt lat="48.59505" lon="7.27928">
        <ele>874.46</ele>
        <time>2013-04-14T08:01:08Z</time>
      </trkpt>
      <trkpt lat="48.59503" lon="7.27929">
        <ele>874.94</ele>
        <time>2013-04-14T08:01:09Z</time>
      </trkpt>
      <trkpt lat="48.59497" lon="7.27932">
        <ele>875.42</ele>
        <time>2013-04-14T08:01:13Z</time>
      </trkpt>
      <trkpt lat="48.59496" lon="7.27935">
        <ele>875.42</ele>
        <time>2013-04-14T08:01:14Z</time>
      </trkpt>
      <trkpt lat="48.59495" lon="7.27937">
        <ele>875.9</ele>
        <time>2013-04-14T08:01:15Z</time>
      </trkpt>
      <trkpt lat="48.59486" lon="7.27951">
        <ele>878.3</ele>
        <time>2013-04-14T08:01:24Z</time>
      </trkpt>
      <trkpt lat="48.59485" lon="7.27951">
        <ele>878.3</ele>
        <time>2013-04-14T08:01:25Z</time>
      </trkpt>
      <trkpt lat="48.59484" lon="7.27953">
        <ele>878.3</ele>
        <time>2013-04-14T08:01:26Z</time>
      </trkpt>
      <trkpt lat="48.59483" lon="7.27954">
        <ele>878.78</ele>
        <time>2013-04-14T08:01:27Z</time>
      </trkpt>
      <trkpt lat="48.59482" lon="7.27955">
        <ele>878.78</ele>
        <time>2013-04-14T08:01:28Z</time>
      </trkpt>
      <trkpt lat="48.5948" lon="7.27956">
        <ele>878.78</ele>
        <time>2013-04-14T08:01:29Z</time>
      </trkpt>
      <trkpt lat="48.59479" lon="7.27958">
        <ele>879.26</ele>
        <time>2013-04-14T08:01:30Z</time>
      </trkpt>
      <trkpt lat="48.59478" lon="7.27959">
        <ele>879.26</ele>
        <time>2013-04-14T08:01:31Z</time>
      </trkpt>
      <trkpt lat="48.59477" lon="7.27961">
        <ele>879.74</ele>
        <time>2013-04-14T08:01:32Z</time>
      </trkpt>
      <trkpt lat="48.59476" lon="7.27962">
        <ele>879.74</ele>
        <time>2013-04-14T08:01:33Z</time>
      </trkpt>
      <trkpt lat="48.59475" lon="7.27964">
        <ele>880.22</ele>
        <time>2013-04-14T08:01:34Z</time>
      </trkpt>
      <trkpt lat="48.59466" lon="7.27968">
        <ele>881.19</ele>
        <time>2013-04-14T08:01:40Z</time>
      </trkpt>
      <trkpt lat="48.59465" lon="7.27969">
        <ele>881.19</ele>
        <time>2013-04-14T08:01:41Z</time>
      </trkpt>
      <trkpt lat="48.59465" lon="7.2797">
        <ele>881.67</ele>
        <time>2013-04-14T08:01:42Z</time>
      </trkpt>
      <trkpt lat="48.59463" lon="7.27972">
        <ele>881.67</ele>
        <time>2013-04-14T08:01:43Z</time>
      </trkpt>
      <trkpt lat="48.59462" lon="7.27973">
        <ele>881.67</ele>
        <time>2013-04-14T08:01:44Z</time>
      </trkpt>
      <trkpt lat="48.59461" lon="7.27975">
        <ele>882.15</ele>
        <time>2013-04-14T08:01:45Z</time>
      </trkpt>
      <trkpt lat="48.5946" lon="7.27977">
        <ele>882.15</ele>
        <time>2013-04-14T08:01:46Z</time>
      </trkpt>
      <trkpt lat="48.5946" lon="7.27979">
        <ele>882.63</ele>
        <time>2013-04-14T08:01:47Z</time>
      </trkpt>
      <trkpt lat="48.59459" lon="7.2798">
        <ele>882.63</ele>
        <time>2013-04-14T08:01:48Z</time>
      </trkpt>
      <trkpt lat="48.59457" lon="7.27981">
        <ele>882.63</ele>
        <time>2013-04-14T08:01:49Z</time>
      </trkpt>
      <trkpt lat="48.59444" lon="7.27995">
        <ele>885.03</ele>
        <time>2013-04-14T08:02:01Z</time>
      </trkpt>
      <trkpt lat="48.59427" lon="7.2801">
        <ele>886.95</ele>
        <time>2013-04-14T08:02:15Z</time>
      </trkpt>
      <trkpt lat="48.59413" lon="7.28025">
        <ele>889.84</ele>
        <time>2013-04-14T08:02:27Z</time>
      </trkpt>
      <trkpt lat="48.59394" lon="7.28035">
        <ele>891.28</ele>
        <time>2013-04-14T08:02:41Z</time>
      </trkpt>
      <trkpt lat="48.59373" lon="7.2804">
        <ele>893.68</ele>
        <time>2013-04-14T08:02:56Z</time>
      </trkpt>
      <trkpt lat="48.59354" lon="7.28041">
        <ele>895.61</ele>
        <time>2013-04-14T08:03:09Z</time>
      </trkpt>
      <trkpt lat="48.59348" lon="7.28041">
        <ele>896.09</ele>
        <time>2013-04-14T08:03:14Z</time>
      </trkpt>
      <trkpt lat="48.59347" lon="7.2804">
        <ele>896.09</ele>
        <time>2013-04-14T08:03:15Z</time>
      </trkpt>
      <trkpt lat="48.59338" lon="7.28038">
        <ele>896.57</ele>
        <time>2013-04-14T08:03:25Z</time>
      </trkpt>
      <trkpt lat="48.59333" lon="7.28038">
        <ele>897.05</ele>
        <time>2013-04-14T08:03:29Z</time>
      </trkpt>
      <trkpt lat="48.59332" lon="7.28037">
        <ele>897.53</ele>
        <time>2013-04-14T08:03:30Z</time>
      </trkpt>
      <trkpt lat="48.5933" lon="7.28037">
        <ele>897.53</ele>
        <time>2013-04-14T08:03:31Z</time>
      </trkpt>
      <trkpt lat="48.59329" lon="7.28037">
        <ele>897.53</ele>
        <time>2013-04-14T08:03:32Z</time>
      </trkpt>
      <trkpt lat="48.59328" lon="7.28036">
        <ele>897.53</ele>
        <time>2013-04-14T08:03:33Z</time>
      </trkpt>
      <trkpt lat="48.59314" lon="7.28035">
        <ele>898.49</ele>
        <time>2013-04-14T08:03:44Z</time>
      </trkpt>
      <trkpt lat="48.59298" lon="7.28032">
        <ele>898.49</ele>
        <time>2013-04-14T08:03:55Z</time>
      </trkpt>
      <trkpt lat="48.59282" lon="7.2803">
        <ele>899.45</ele>
        <time>2013-04-14T08:04:08Z</time>
      </trkpt>
      <trkpt lat="48.59279" lon="7.28029">
        <ele>898.97</ele>
        <time>2013-04-14T08:04:26Z</time>
      </trkpt>
      <trkpt lat="48.59275" lon="7.28028">
        <ele>899.45</ele>
        <time>2013-04-14T08:04:50Z</time>
      </trkpt>
      <trkpt lat="48.59271" lon="7.28029">
        <ele>897.05</ele>
        <time>2013-04-14T08:05:21Z</time>
      </trkpt>
      <trkpt lat="48.59271" lon="7.28029">
        <ele>901.37</ele>
        <time>2013-04-14T08:05:22Z</time>
      </trkpt>
      <trkpt lat="48.59271" lon="7.28029">
        <ele>897.05</ele>
        <time>2013-04-14T08:05:23Z</time>
      </trkpt>
      <trkpt lat="48.59271" lon="7.28029">
        <ele>901.37</ele>
        <time>2013-04-14T08:05:24Z</time>
      </trkpt>
      <trkpt lat="48.59271" lon="7.28029">
        <ele>897.53</ele>
        <time>2013-04-14T08:05:25Z</time>
      </trkpt>
      <trkpt lat="48.59272" lon="7.28028">
        <ele>900.89</ele>
        <time>2013-04-14T08:05:44Z</time>
      </trkpt>
      <trkpt lat="48.59271" lon="7.28028">
        <ele>899.45</ele>
        <time>2013-04-14T08:06:08Z</time>
      </trkpt>
      <trkpt lat="48.59271" lon="7.28028">
        <ele>898.97</ele>
        <time>2013-04-14T08:06:15Z</time>
      </trkpt>
      <trkpt lat="48.59271" lon="7.28027">
        <ele>900.89</ele>
        <time>2013-04-14T08:06:17Z</time>
      </trkpt>
      <trkpt lat="48.5927" lon="7.28027">
        <ele>899.45</ele>
        <time>2013-04-14T08:06:40Z</time>
      </trkpt>
      <trkpt lat="48.59269" lon="7.28029">
        <ele>898.97</ele>
        <time>2013-04-14T08:06:41Z</time>
      </trkpt>
      <trkpt lat="48.59266" lon="7.2803">
        <ele>898.97</ele>
        <time>2013-04-14T08:06:44Z</time>
      </trkpt>
      <trkpt lat="48.59265" lon="7.2803">
        <ele>898.97</ele>
        <time>2013-04-14T08:06:45Z</time>
      </trkpt>
      <trkpt lat="48.59264" lon="7.28029">
        <ele>898.97</ele>
        <time>2013-04-14T08:06:46Z</time>
      </trkpt>
      <trkpt lat="48.59263" lon="7.28028">
        <ele>898.97</ele>
        <time>2013-04-14T08:06:47Z</time>
      </trkpt>
      <trkpt lat="48.59262" lon="7.28026">
        <ele>898.97</ele>
        <time>2013-04-14T08:06:49Z</time>
      </trkpt>
      <trkpt lat="48.59255" lon="7.2802">
        <ele>899.45</ele>
        <time>2013-04-14T08:06:55Z</time>
      </trkpt>
      <trkpt lat="48.59239" lon="7.28003">
        <ele>899.45</ele>
        <time>2013-04-14T08:07:06Z</time>
      </trkpt>
      <trkpt lat="48.59223" lon="7.27983">
        <ele>900.89</ele>
        <time>2013-04-14T08:07:17Z</time>
      </trkpt>
      <trkpt lat="48.59222" lon="7.27977">
        <ele>901.37</ele>
        <time>2013-04-14T08:07:20Z</time>
      </trkpt>
      <trkpt lat="48.59221" lon="7.27974">
        <ele>901.37</ele>
        <time>2013-04-14T08:07:21Z</time>
      </trkpt>
      <trkpt lat="48.5922" lon="7.27972">
        <ele>901.85</ele>
        <time>2013-04-14T08:07:22Z</time>
      </trkpt>
      <trkpt lat="48.59219" lon="7.2797">
        <ele>901.85</ele>
        <time>2013-04-14T08:07:23Z</time>
      </trkpt>
      <trkpt lat="48.59218" lon="7.27968">
        <ele>901.85</ele>
        <time>2013-04-14T08:07:24Z</time>
      </trkpt>
      <trkpt lat="48.59216" lon="7.27966">
        <ele>901.85</ele>
        <time>2013-04-14T08:07:25Z</time>
      </trkpt>
      <trkpt lat="48.59215" lon="7.27964">
        <ele>902.33</ele>
        <time>2013-04-14T08:07:26Z</time>
      </trkpt>
      <trkpt lat="48.5921" lon="7.27952">
        <ele>903.3</ele>
        <time>2013-04-14T08:07:33Z</time>
      </trkpt>
      <trkpt lat="48.59209" lon="7.2795">
        <ele>903.3</ele>
        <time>2013-04-14T08:07:34Z</time>
      </trkpt>
      <trkpt lat="48.59208" lon="7.27949">
        <ele>903.3</ele>
        <time>2013-04-14T08:07:35Z</time>
      </trkpt>
      <trkpt lat="48.59195" lon="7.27938">
        <ele>903.78</ele>
        <time>2013-04-14T08:07:47Z</time>
      </trkpt>
      <trkpt lat="48.59175" lon="7.27927">
        <ele>903.78</ele>
        <time>2013-04-14T08:07:57Z</time>
      </trkpt>
      <trkpt lat="48.59148" lon="7.27909">
        <ele>904.26</ele>
        <time>2013-04-14T08:08:07Z</time>
      </trkpt>
      <trkpt lat="48.59121" lon="7.27886">
        <ele>900.89</ele>
        <time>2013-04-14T08:08:17Z</time>
      </trkpt>
      <trkpt lat="48.59119" lon="7.27884">
        <ele>910.03</ele>
        <time>2013-04-14T08:08:18Z</time>
      </trkpt>
      <trkpt lat="48.59117" lon="7.27882">
        <ele>905.22</ele>
        <time>2013-04-14T08:08:19Z</time>
      </trkpt>
      <trkpt lat="48.59096" lon="7.27855">
        <ele>906.18</ele>
        <time>2013-04-14T08:08:30Z</time>
      </trkpt>
      <trkpt lat="48.59062" lon="7.27824">
        <ele>906.66</ele>
        <time>2013-04-14T08:08:42Z</time>
      </trkpt>
      <trkpt lat="48.59025" lon="7.27805">
        <ele>906.66</ele>
        <time>2013-04-14T08:08:54Z</time>
      </trkpt>
      <trkpt lat="48.58989" lon="7.27794">
        <ele>907.14</ele>
        <time>2013-04-14T08:09:05Z</time>
      </trkpt>
      <trkpt lat="48.58945" lon="7.27793">
        <ele>908.1</ele>
        <time>2013-04-14T08:09:19Z</time>
      </trkpt>
      <trkpt lat="48.58915" lon="7.27805">
        <ele>908.1</ele>
        <time>2013-04-14T08:09:29Z</time>
      </trkpt>
      <trkpt lat="48.58885" lon="7.27808">
        <ele>909.54</ele>
        <time>2013-04-14T08:09:40Z</time>
      </trkpt>
      <trkpt lat="48.58872" lon="7.27804">
        <ele>909.06</ele>
        <time>2013-04-14T08:09:45Z</time>
      </trkpt>
      <trkpt lat="48.5887" lon="7.27803">
        <ele>909.06</ele>
        <time>2013-04-14T08:09:46Z</time>
      </trkpt>
      <trkpt lat="48.5885" lon="7.27777">
        <ele>908.1</ele>
        <time>2013-04-14T08:09:59Z</time>
      </trkpt>
      <trkpt lat="48.58829" lon="7.2773">
        <ele>906.18</ele>
        <time>2013-04-14T08:10:10Z</time>
      </trkpt>
      <trkpt lat="48.58812" lon="7.2769">
        <ele>905.22</ele>
        <time>2013-04-14T08:10:20Z</time>
      </trkpt>
      <trkpt lat="48.58809" lon="7.27678">
        <ele>903.78</ele>
        <time>2013-04-14T08:10:22Z</time>
      </trkpt>
      <trkpt lat="48.58788" lon="7.27621">
        <ele>900.41</ele>
        <time>2013-04-14T08:10:30Z</time>
      </trkpt>
      <trkpt lat="48.58756" lon="7.27545">
        <ele>897.53</ele>
        <time>2013-04-14T08:10:39Z</time>
      </trkpt>
      <trkpt lat="48.58747" lon="7.27519">
        <ele>896.09</ele>
        <time>2013-04-14T08:10:42Z</time>
      </trkpt>
      <trkpt lat="48.58734" lon="7.2744">
        <ele>892.72</ele>
        <time>2013-04-14T08:10:50Z</time>
      </trkpt>
      <trkpt lat="48.58734" lon="7.27419">
        <ele>891.76</ele>
        <time>2013-04-14T08:10:52Z</time>
      </trkpt>
      <trkpt lat="48.58735" lon="7.27409">
        <ele>891.28</ele>
        <time>2013-04-14T08:10:53Z</time>
      </trkpt>
      <trkpt lat="48.58737" lon="7.27399">
        <ele>891.28</ele>
        <time>2013-04-14T08:10:54Z</time>
      </trkpt>
      <trkpt lat="48.5874" lon="7.27389">
        <ele>890.8</ele>
        <time>2013-04-14T08:10:55Z</time>
      </trkpt>
      <trkpt lat="48.58743" lon="7.2738">
        <ele>890.8</ele>
        <time>2013-04-14T08:10:56Z</time>
      </trkpt>
      <trkpt lat="48.58747" lon="7.27371">
        <ele>890.32</ele>
        <time>2013-04-14T08:10:57Z</time>
      </trkpt>
      <trkpt lat="48.58751" lon="7.27363">
        <ele>889.84</ele>
        <time>2013-04-14T08:10:58Z</time>
      </trkpt>
      <trkpt lat="48.58756" lon="7.27355">
        <ele>889.36</ele>
        <time>2013-04-14T08:10:59Z</time>
      </trkpt>
      <trkpt lat="48.58761" lon="7.27348">
        <ele>888.88</ele>
        <time>2013-04-14T08:11:00Z</time>
      </trkpt>
      <trkpt lat="48.58781" lon="7.27319">
        <ele>887.43</ele>
        <time>2013-04-14T08:11:04Z</time>
      </trkpt>
      <trkpt lat="48.58786" lon="7.27312">
        <ele>886.95</ele>
        <time>2013-04-14T08:11:05Z</time>
      </trkpt>
      <trkpt lat="48.58809" lon="7.2729">
        <ele>885.51</ele>
        <time>2013-04-14T08:11:09Z</time>
      </trkpt>
      <trkpt lat="48.58847" lon="7.27254">
        <ele>881.67</ele>
        <time>2013-04-14T08:11:15Z</time>
      </trkpt>
      <trkpt lat="48.58879" lon="7.27219">
        <ele>879.74</ele>
        <time>2013-04-14T08:11:20Z</time>
      </trkpt>
      <trkpt lat="48.58923" lon="7.27173">
        <ele>875.9</ele>
        <time>2013-04-14T08:11:27Z</time>
      </trkpt>
      <trkpt lat="48.58943" lon="7.27154">
        <ele>874.46</ele>
        <time>2013-04-14T08:11:30Z</time>
      </trkpt>
      <trkpt lat="48.58957" lon="7.27144">
        <ele>873.5</ele>
        <time>2013-04-14T08:11:32Z</time>
      </trkpt>
      <trkpt lat="48.58979" lon="7.27124">
        <ele>873.5</ele>
        <time>2013-04-14T08:11:36Z</time>
      </trkpt>
      <trkpt lat="48.58989" lon="7.27121">
        <ele>875.9</ele>
        <time>2013-04-14T08:11:43Z</time>
      </trkpt>
      <trkpt lat="48.58996" lon="7.27113">
        <ele>877.34</ele>
        <time>2013-04-14T08:11:56Z</time>
      </trkpt>
      <trkpt lat="48.58998" lon="7.27111">
        <ele>877.82</ele>
        <time>2013-04-14T08:12:12Z</time>
      </trkpt>
      <trkpt lat="48.59003" lon="7.27104">
        <ele>878.3</ele>
        <time>2013-04-14T08:12:25Z</time>
      </trkpt>
      <trkpt lat="48.59006" lon="7.27099">
        <ele>878.78</ele>
        <time>2013-04-14T08:12:28Z</time>
      </trkpt>
      <trkpt lat="48.59007" lon="7.27098">
        <ele>878.78</ele>
        <time>2013-04-14T08:12:29Z</time>
      </trkpt>
      <trkpt lat="48.59015" lon="7.27086">
        <ele>879.74</ele>
        <time>2013-04-14T08:12:37Z</time>
      </trkpt>
      <trkpt lat="48.59016" lon="7.27084">
        <ele>880.22</ele>
        <time>2013-04-14T08:12:38Z</time>
      </trkpt>
      <trkpt lat="48.59016" lon="7.27082">
        <ele>880.22</ele>
        <time>2013-04-14T08:12:39Z</time>
      </trkpt>
      <trkpt lat="48.59017" lon="7.2708">
        <ele>880.22</ele>
        <time>2013-04-14T08:12:40Z</time>
      </trkpt>
      <trkpt lat="48.59018" lon="7.27078">
        <ele>880.22</ele>
        <time>2013-04-14T08:12:41Z</time>
      </trkpt>
      <trkpt lat="48.59018" lon="7.27076">
        <ele>880.71</ele>
        <time>2013-04-14T08:12:42Z</time>
      </trkpt>
      <trkpt lat="48.59019" lon="7.27074">
        <ele>880.71</ele>
        <time>2013-04-14T08:12:43Z</time>
      </trkpt>
      <trkpt lat="48.5902" lon="7.27071">
        <ele>881.19</ele>
        <time>2013-04-14T08:12:45Z</time>
      </trkpt>
      <trkpt lat="48.59021" lon="7.27069">
        <ele>881.19</ele>
        <time>2013-04-14T08:12:46Z</time>
      </trkpt>
      <trkpt lat="48.59023" lon="7.27065">
        <ele>881.19</ele>
        <time>2013-04-14T08:12:49Z</time>
      </trkpt>
      <trkpt lat="48.59024" lon="7.27063">
        <ele>881.67</ele>
        <time>2013-04-14T08:12:50Z</time>
      </trkpt>
      <trkpt lat="48.59024" lon="7.27061">
        <ele>881.67</ele>
        <time>2013-04-14T08:12:51Z</time>
      </trkpt>
      <trkpt lat="48.59024" lon="7.27059">
        <ele>881.67</ele>
        <time>2013-04-14T08:12:52Z</time>
      </trkpt>
      <trkpt lat="48.59025" lon="7.27057">
        <ele>881.67</ele>
        <time>2013-04-14T08:12:53Z</time>
      </trkpt>
      <trkpt lat="48.59028" lon="7.2705">
        <ele>882.15</ele>
        <time>2013-04-14T08:12:56Z</time>
      </trkpt>
      <trkpt lat="48.5903" lon="7.27049">
        <ele>882.15</ele>
        <time>2013-04-14T08:12:57Z</time>
      </trkpt>
      <trkpt lat="48.59031" lon="7.27047">
        <ele>882.15</ele>
        <time>2013-04-14T08:12:58Z</time>
      </trkpt>
      <trkpt lat="48.59032" lon="7.27046">
        <ele>882.63</ele>
        <time>2013-04-14T08:12:59Z</time>
      </trkpt>
      <trkpt lat="48.59033" lon="7.27044">
        <ele>882.63</ele>
        <time>2013-04-14T08:13:00Z</time>
      </trkpt>
      <trkpt lat="48.59034" lon="7.27041">
        <ele>882.63</ele>
        <time>2013-04-14T08:13:01Z</time>
      </trkpt>
      <trkpt lat="48.59034" lon="7.27038">
        <ele>883.11</ele>
        <time>2013-04-14T08:13:02Z</time>
      </trkpt>
      <trkpt lat="48.59036" lon="7.27035">
        <ele>883.11</ele>
        <time>2013-04-14T08:13:04Z</time>
      </trkpt>
      <trkpt lat="48.59037" lon="7.27033">
        <ele>883.59</ele>
        <time>2013-04-14T08:13:05Z</time>
      </trkpt>
      <trkpt lat="48.59041" lon="7.27027">
        <ele>883.59</ele>
        <time>2013-04-14T08:13:08Z</time>
      </trkpt>
      <trkpt lat="48.59043" lon="7.27025">
        <ele>884.07</ele>
        <time>2013-04-14T08:13:09Z</time>
      </trkpt>
      <trkpt lat="48.59044" lon="7.27024">
        <ele>884.07</ele>
        <time>2013-04-14T08:13:10Z</time>
      </trkpt>
      <trkpt lat="48.59047" lon="7.2702">
        <ele>884.07</ele>
        <time>2013-04-14T08:13:12Z</time>
      </trkpt>
      <trkpt lat="48.59048" lon="7.27017">
        <ele>884.07</ele>
        <time>2013-04-14T08:13:13Z</time>
      </trkpt>
      <trkpt lat="48.59049" lon="7.27015">
        <ele>884.55</ele>
        <time>2013-04-14T08:13:14Z</time>
      </trkpt>
      <trkpt lat="48.5905" lon="7.27013">
        <ele>884.55</ele>
        <time>2013-04-14T08:13:15Z</time>
      </trkpt>
      <trkpt lat="48.59051" lon="7.27011">
        <ele>884.55</ele>
        <time>2013-04-14T08:13:16Z</time>
      </trkpt>
      <trkpt lat="48.59052" lon="7.2701">
        <ele>884.55</ele>
        <time>2013-04-14T08:13:17Z</time>
      </trkpt>
      <trkpt lat="48.59053" lon="7.27008">
        <ele>885.03</ele>
        <time>2013-04-14T08:13:18Z</time>
      </trkpt>
      <trkpt lat="48.59054" lon="7.27005">
        <ele>885.51</ele>
        <time>2013-04-14T08:13:19Z</time>
      </trkpt>
      <trkpt lat="48.59055" lon="7.27003">
        <ele>885.51</ele>
        <time>2013-04-14T08:13:20Z</time>
      </trkpt>
      <trkpt lat="48.59056" lon="7.27001">
        <ele>885.51</ele>
        <time>2013-04-14T08:13:21Z</time>
      </trkpt>
      <trkpt lat="48.59056" lon="7.27">
        <ele>885.99</ele>
        <time>2013-04-14T08:13:22Z</time>
      </trkpt>
      <trkpt lat="48.59057" lon="7.26997">
        <ele>885.99</ele>
        <time>2013-04-14T08:13:23Z</time>
      </trkpt>
      <trkpt lat="48.5907" lon="7.26978">
        <ele>886.95</ele>
        <time>2013-04-14T08:13:34Z</time>
      </trkpt>
      <trkpt lat="48.5907" lon="7.26976">
        <ele>887.43</ele>
        <time>2013-04-14T08:13:35Z</time>
      </trkpt>
      <trkpt lat="48.59071" lon="7.26974">
        <ele>887.43</ele>
        <time>2013-04-14T08:13:36Z</time>
      </trkpt>
      <trkpt lat="48.59072" lon="7.26971">
        <ele>887.43</ele>
        <time>2013-04-14T08:13:37Z</time>
      </trkpt>
      <trkpt lat="48.59073" lon="7.26968">
        <ele>887.91</ele>
        <time>2013-04-14T08:13:38Z</time>
      </trkpt>
      <trkpt lat="48.59074" lon="7.26966">
        <ele>887.91</ele>
        <time>2013-04-14T08:13:39Z</time>
      </trkpt>
      <trkpt lat="48.59075" lon="7.26964">
        <ele>887.91</ele>
        <time>2013-04-14T08:13:40Z</time>
      </trkpt>
      <trkpt lat="48.59076" lon="7.26962">
        <ele>888.4</ele>
        <time>2013-04-14T08:13:41Z</time>
      </trkpt>
      <trkpt lat="48.59077" lon="7.2696">
        <ele>888.4</ele>
        <time>2013-04-14T08:13:42Z</time>
      </trkpt>
      <trkpt lat="48.59079" lon="7.26959">
        <ele>888.88</ele>
        <time>2013-04-14T08:13:43Z</time>
      </trkpt>
      <trkpt lat="48.59081" lon="7.26957">
        <ele>888.88</ele>
        <time>2013-04-14T08:13:44Z</time>
      </trkpt>
      <trkpt lat="48.59081" lon="7.26955">
        <ele>888.88</ele>
        <time>2013-04-14T08:13:45Z</time>
      </trkpt>
      <trkpt lat="48.59082" lon="7.26954">
        <ele>888.88</ele>
        <time>2013-04-14T08:13:46Z</time>
      </trkpt>
      <trkpt lat="48.59083" lon="7.26953">
        <ele>888.88</ele>
        <time>2013-04-14T08:13:47Z</time>
      </trkpt>
      <trkpt lat="48.59087" lon="7.26943">
        <ele>890.32</ele>
        <time>2013-04-14T08:13:58Z</time>
      </trkpt>
      <trkpt lat="48.59089" lon="7.26939">
        <ele>889.84</ele>
        <time>2013-04-14T08:14:00Z</time>
      </trkpt>
      <trkpt lat="48.59089" lon="7.26938">
        <ele>890.32</ele>
        <time>2013-04-14T08:14:01Z</time>
      </trkpt>
      <trkpt lat="48.59091" lon="7.26936">
        <ele>889.84</ele>
        <time>2013-04-14T08:14:02Z</time>
      </trkpt>
      <trkpt lat="48.59095" lon="7.26931">
        <ele>890.8</ele>
        <time>2013-04-14T08:14:06Z</time>
      </trkpt>
      <trkpt lat="48.59099" lon="7.26922">
        <ele>891.28</ele>
        <time>2013-04-14T08:14:18Z</time>
      </trkpt>
      <trkpt lat="48.59101" lon="7.2692">
        <ele>892.24</ele>
        <time>2013-04-14T08:14:21Z</time>
      </trkpt>
      <trkpt lat="48.59102" lon="7.26919">
        <ele>891.76</ele>
        <time>2013-04-14T08:14:22Z</time>
      </trkpt>
      <trkpt lat="48.59104" lon="7.26918">
        <ele>891.76</ele>
        <time>2013-04-14T08:14:23Z</time>
      </trkpt>
      <trkpt lat="48.59105" lon="7.26916">
        <ele>891.76</ele>
        <time>2013-04-14T08:14:24Z</time>
      </trkpt>
      <trkpt lat="48.59106" lon="7.26915">
        <ele>892.24</ele>
        <time>2013-04-14T08:14:25Z</time>
      </trkpt>
      <trkpt lat="48.59106" lon="7.26913">
        <ele>892.24</ele>
        <time>2013-04-14T08:14:26Z</time>
      </trkpt>
      <trkpt lat="48.59107" lon="7.26911">
        <ele>892.24</ele>
        <time>2013-04-14T08:14:27Z</time>
      </trkpt>
      <trkpt lat="48.59108" lon="7.26909">
        <ele>892.24</ele>
        <time>2013-04-14T08:14:28Z</time>
      </trkpt>
      <trkpt lat="48.5911" lon="7.26907">
        <ele>892.72</ele>
        <time>2013-04-14T08:14:29Z</time>
      </trkpt>
      <trkpt lat="48.59114" lon="7.26897">
        <ele>893.2</ele>
        <time>2013-04-14T08:14:34Z</time>
      </trkpt>
      <trkpt lat="48.59116" lon="7.26894">
        <ele>893.68</ele>
        <time>2013-04-14T08:14:36Z</time>
      </trkpt>
      <trkpt lat="48.59118" lon="7.26886">
        <ele>894.64</ele>
        <time>2013-04-14T08:14:41Z</time>
      </trkpt>
      <trkpt lat="48.5912" lon="7.26885">
        <ele>894.64</ele>
        <time>2013-04-14T08:14:42Z</time>
      </trkpt>
      <trkpt lat="48.59124" lon="7.26875">
        <ele>895.12</ele>
        <time>2013-04-14T08:14:47Z</time>
      </trkpt>
      <trkpt lat="48.59125" lon="7.26873">
        <ele>895.12</ele>
        <time>2013-04-14T08:14:48Z</time>
      </trkpt>
      <trkpt lat="48.59126" lon="7.26871">
        <ele>895.61</ele>
        <time>2013-04-14T08:14:49Z</time>
      </trkpt>
      <trkpt lat="48.59127" lon="7.2687">
        <ele>895.61</ele>
        <time>2013-04-14T08:14:50Z</time>
      </trkpt>
      <trkpt lat="48.59132" lon="7.26864">
        <ele>896.09</ele>
        <time>2013-04-14T08:14:54Z</time>
      </trkpt>
      <trkpt lat="48.59134" lon="7.26862">
        <ele>896.09</ele>
        <time>2013-04-14T08:14:55Z</time>
      </trkpt>
      <trkpt lat="48.59135" lon="7.2686">
        <ele>896.57</ele>
        <time>2013-04-14T08:14:56Z</time>
      </trkpt>
      <trkpt lat="48.59149" lon="7.26838">
        <ele>898.49</ele>
        <time>2013-04-14T08:15:09Z</time>
      </trkpt>
      <trkpt lat="48.59151" lon="7.26835">
        <ele>898.49</ele>
        <time>2013-04-14T08:15:10Z</time>
      </trkpt>
      <trkpt lat="48.59152" lon="7.26832">
        <ele>898.97</ele>
        <time>2013-04-14T08:15:12Z</time>
      </trkpt>
      <trkpt lat="48.59153" lon="7.2683">
        <ele>898.97</ele>
        <time>2013-04-14T08:15:13Z</time>
      </trkpt>
      <trkpt lat="48.5916" lon="7.26818">
        <ele>899.93</ele>
        <time>2013-04-14T08:15:21Z</time>
      </trkpt>
      <trkpt lat="48.59161" lon="7.26815">
        <ele>899.93</ele>
        <time>2013-04-14T08:15:22Z</time>
      </trkpt>
      <trkpt lat="48.59163" lon="7.26813">
        <ele>899.93</ele>
        <time>2013-04-14T08:15:23Z</time>
      </trkpt>
      <trkpt lat="48.59175" lon="7.26796">
        <ele>901.37</ele>
        <time>2013-04-14T08:15:32Z</time>
      </trkpt>
      <trkpt lat="48.59175" lon="7.26794">
        <ele>901.37</ele>
        <time>2013-04-14T08:15:33Z</time>
      </trkpt>
      <trkpt lat="48.59176" lon="7.26791">
        <ele>901.37</ele>
        <time>2013-04-14T08:15:34Z</time>
      </trkpt>
      <trkpt lat="48.5918" lon="7.26776">
        <ele>903.3</ele>
        <time>2013-04-14T08:15:42Z</time>
      </trkpt>
      <trkpt lat="48.5918" lon="7.26773">
        <ele>903.3</ele>
        <time>2013-04-14T08:15:43Z</time>
      </trkpt>
      <trkpt lat="48.5918" lon="7.26771">
        <ele>903.3</ele>
        <time>2013-04-14T08:15:44Z</time>
      </trkpt>
      <trkpt lat="48.59182" lon="7.26768">
        <ele>903.3</ele>
        <time>2013-04-14T08:15:45Z</time>
      </trkpt>
      <trkpt lat="48.59183" lon="7.26765">
        <ele>902.33</ele>
        <time>2013-04-14T08:15:46Z</time>
      </trkpt>
      <trkpt lat="48.59184" lon="7.26763">
        <ele>903.78</ele>
        <time>2013-04-14T08:15:47Z</time>
      </trkpt>
      <trkpt lat="48.59185" lon="7.2676">
        <ele>903.78</ele>
        <time>2013-04-14T08:15:48Z</time>
      </trkpt>
      <trkpt lat="48.59187" lon="7.26755">
        <ele>903.78</ele>
        <time>2013-04-14T08:15:51Z</time>
      </trkpt>
      <trkpt lat="48.59188" lon="7.26753">
        <ele>903.78</ele>
        <time>2013-04-14T08:15:52Z</time>
      </trkpt>
      <trkpt lat="48.59189" lon="7.2675">
        <ele>904.26</ele>
        <time>2013-04-14T08:15:53Z</time>
      </trkpt>
      <trkpt lat="48.5919" lon="7.26748">
        <ele>904.26</ele>
        <time>2013-04-14T08:15:54Z</time>
      </trkpt>
      <trkpt lat="48.59191" lon="7.26746">
        <ele>904.26</ele>
        <time>2013-04-14T08:15:55Z</time>
      </trkpt>
      <trkpt lat="48.59194" lon="7.26721">
        <ele>905.22</ele>
        <time>2013-04-14T08:16:04Z</time>
      </trkpt>
      <trkpt lat="48.59194" lon="7.26717">
        <ele>905.7</ele>
        <time>2013-04-14T08:16:05Z</time>
      </trkpt>
      <trkpt lat="48.59195" lon="7.26714">
        <ele>906.18</ele>
        <time>2013-04-14T08:16:06Z</time>
      </trkpt>
      <trkpt lat="48.59194" lon="7.267">
        <ele>907.14</ele>
        <time>2013-04-14T08:16:18Z</time>
      </trkpt>
      <trkpt lat="48.59194" lon="7.2669">
        <ele>907.62</ele>
        <time>2013-04-14T08:16:32Z</time>
      </trkpt>
      <trkpt lat="48.59197" lon="7.26679">
        <ele>908.58</ele>
        <time>2013-04-14T08:16:45Z</time>
      </trkpt>
      <trkpt lat="48.59197" lon="7.26664">
        <ele>909.06</ele>
        <time>2013-04-14T08:16:57Z</time>
      </trkpt>
      <trkpt lat="48.59197" lon="7.2666">
        <ele>909.06</ele>
        <time>2013-04-14T08:16:59Z</time>
      </trkpt>
      <trkpt lat="48.59198" lon="7.26658">
        <ele>909.54</ele>
        <time>2013-04-14T08:17:00Z</time>
      </trkpt>
      <trkpt lat="48.59198" lon="7.26656">
        <ele>909.54</ele>
        <time>2013-04-14T08:17:01Z</time>
      </trkpt>
      <trkpt lat="48.59197" lon="7.26653">
        <ele>909.54</ele>
        <time>2013-04-14T08:17:03Z</time>
      </trkpt>
      <trkpt lat="48.59197" lon="7.26651">
        <ele>910.03</ele>
        <time>2013-04-14T08:17:04Z</time>
      </trkpt>
      <trkpt lat="48.59195" lon="7.2664">
        <ele>910.51</ele>
        <time>2013-04-14T08:17:12Z</time>
      </trkpt>
      <trkpt lat="48.59196" lon="7.26629">
        <ele>911.47</ele>
        <time>2013-04-14T08:17:16Z</time>
      </trkpt>
      <trkpt lat="48.59195" lon="7.26626">
        <ele>911.47</ele>
        <time>2013-04-14T08:17:17Z</time>
      </trkpt>
      <trkpt lat="48.59195" lon="7.26623">
        <ele>911.47</ele>
        <time>2013-04-14T08:17:18Z</time>
      </trkpt>
      <trkpt lat="48.59195" lon="7.26619">
        <ele>912.43</ele>
        <time>2013-04-14T08:17:20Z</time>
      </trkpt>
      <trkpt lat="48.59198" lon="7.26605">
        <ele>913.87</ele>
        <time>2013-04-14T08:17:30Z</time>
      </trkpt>
      <trkpt lat="48.59198" lon="7.26601">
        <ele>914.83</ele>
        <time>2013-04-14T08:17:32Z</time>
      </trkpt>
      <trkpt lat="48.592" lon="7.2657">
        <ele>914.35</ele>
        <time>2013-04-14T08:17:43Z</time>
      </trkpt>
      <trkpt lat="48.592" lon="7.26562">
        <ele>914.83</ele>
        <time>2013-04-14T08:17:46Z</time>
      </trkpt>
      <trkpt lat="48.592" lon="7.26559">
        <ele>914.35</ele>
        <time>2013-04-14T08:17:48Z</time>
      </trkpt>
      <trkpt lat="48.59199" lon="7.26557">
        <ele>914.35</ele>
        <time>2013-04-14T08:17:49Z</time>
      </trkpt>
      <trkpt lat="48.59198" lon="7.26553">
        <ele>913.87</ele>
        <time>2013-04-14T08:17:57Z</time>
      </trkpt>
      <trkpt lat="48.59198" lon="7.26553">
        <ele>916.27</ele>
        <time>2013-04-14T08:17:58Z</time>
      </trkpt>
      <trkpt lat="48.59198" lon="7.26553">
        <ele>914.83</ele>
        <time>2013-04-14T08:17:59Z</time>
      </trkpt>
      <trkpt lat="48.592" lon="7.26551">
        <ele>916.27</ele>
        <time>2013-04-14T08:18:24Z</time>
      </trkpt>
      <trkpt lat="48.59199" lon="7.26549">
        <ele>913.39</ele>
        <time>2013-04-14T08:18:42Z</time>
      </trkpt>
      <trkpt lat="48.592" lon="7.26549">
        <ele>915.79</ele>
        <time>2013-04-14T08:18:43Z</time>
      </trkpt>
      <trkpt lat="48.59199" lon="7.26549">
        <ele>916.27</ele>
        <time>2013-04-14T08:19:08Z</time>
      </trkpt>
      <trkpt lat="48.59199" lon="7.26549">
        <ele>913.39</ele>
        <time>2013-04-14T08:19:15Z</time>
      </trkpt>
      <trkpt lat="48.59199" lon="7.26549">
        <ele>916.75</ele>
        <time>2013-04-14T08:19:16Z</time>
      </trkpt>
      <trkpt lat="48.59199" lon="7.26548">
        <ele>914.83</ele>
        <time>2013-04-14T08:19:35Z</time>
      </trkpt>
      <trkpt lat="48.59199" lon="7.26548">
        <ele>915.31</ele>
        <time>2013-04-14T08:19:52Z</time>
      </trkpt>
      <trkpt lat="48.59199" lon="7.26548">
        <ele>915.31</ele>
        <time>2013-04-14T08:20:16Z</time>
      </trkpt>
      <trkpt lat="48.59198" lon="7.26547">
        <ele>915.31</ele>
        <time>2013-04-14T08:20:32Z</time>
      </trkpt>
      <trkpt lat="48.59198" lon="7.26547">
        <ele>915.31</ele>
        <time>2013-04-14T08:20:44Z</time>
      </trkpt>
      <trkpt lat="48.59198" lon="7.26545">
        <ele>914.83</ele>
        <time>2013-04-14T08:20:45Z</time>
      </trkpt>
      <trkpt lat="48.59194" lon="7.26539">
        <ele>914.83</ele>
        <time>2013-04-14T08:20:57Z</time>
      </trkpt>
      <trkpt lat="48.59194" lon="7.26538">
        <ele>914.83</ele>
        <time>2013-04-14T08:20:58Z</time>
      </trkpt>
      <trkpt lat="48.59194" lon="7.26535">
        <ele>914.83</ele>
        <time>2013-04-14T08:20:59Z</time>
      </trkpt>
      <trkpt lat="48.59193" lon="7.26533">
        <ele>914.83</ele>
        <time>2013-04-14T08:21:00Z</time>
      </trkpt>
      <trkpt lat="48.59192" lon="7.26531">
        <ele>914.83</ele>
        <time>2013-04-14T08:21:01Z</time>
      </trkpt>
      <trkpt lat="48.59191" lon="7.26529">
        <ele>914.83</ele>
        <time>2013-04-14T08:21:02Z</time>
      </trkpt>
      <trkpt lat="48.5919" lon="7.26527">
        <ele>915.31</ele>
        <time>2013-04-14T08:21:03Z</time>
      </trkpt>
      <trkpt lat="48.59188" lon="7.26525">
        <ele>915.31</ele>
        <time>2013-04-14T08:21:04Z</time>
      </trkpt>
      <trkpt lat="48.59179" lon="7.26497">
        <ele>916.75</ele>
        <time>2013-04-14T08:21:17Z</time>
      </trkpt>
      <trkpt lat="48.59175" lon="7.26489">
        <ele>917.72</ele>
        <time>2013-04-14T08:21:22Z</time>
      </trkpt>
      <trkpt lat="48.59167" lon="7.26472">
        <ele>920.6</ele>
        <time>2013-04-14T08:21:33Z</time>
      </trkpt>
      <trkpt lat="48.59164" lon="7.26465">
        <ele>921.56</ele>
        <time>2013-04-14T08:21:37Z</time>
      </trkpt>
      <trkpt lat="48.59163" lon="7.26463">
        <ele>922.04</ele>
        <time>2013-04-14T08:21:38Z</time>
      </trkpt>
      <trkpt lat="48.59162" lon="7.26461">
        <ele>922.52</ele>
        <time>2013-04-14T08:21:39Z</time>
      </trkpt>
      <trkpt lat="48.59161" lon="7.26459">
        <ele>923</ele>
        <time>2013-04-14T08:21:40Z</time>
      </trkpt>
      <trkpt lat="48.59152" lon="7.26439">
        <ele>926.37</ele>
        <time>2013-04-14T08:21:52Z</time>
      </trkpt>
      <trkpt lat="48.59151" lon="7.26437">
        <ele>926.85</ele>
        <time>2013-04-14T08:21:54Z</time>
      </trkpt>
      <trkpt lat="48.59143" lon="7.26432">
        <ele>928.29</ele>
        <time>2013-04-14T08:22:00Z</time>
      </trkpt>
      <trkpt lat="48.59142" lon="7.26432">
        <ele>928.77</ele>
        <time>2013-04-14T08:22:01Z</time>
      </trkpt>
      <trkpt lat="48.5914" lon="7.2643">
        <ele>928.77</ele>
        <time>2013-04-14T08:22:02Z</time>
      </trkpt>
      <trkpt lat="48.59138" lon="7.26427">
        <ele>929.73</ele>
        <time>2013-04-14T08:22:04Z</time>
      </trkpt>
      <trkpt lat="48.59137" lon="7.26425">
        <ele>929.73</ele>
        <time>2013-04-14T08:22:05Z</time>
      </trkpt>
      <trkpt lat="48.59135" lon="7.26423">
        <ele>930.21</ele>
        <time>2013-04-14T08:22:06Z</time>
      </trkpt>
      <trkpt lat="48.59129" lon="7.26412">
        <ele>931.65</ele>
        <time>2013-04-14T08:22:13Z</time>
      </trkpt>
      <trkpt lat="48.59117" lon="7.26397">
        <ele>934.54</ele>
        <time>2013-04-14T08:22:25Z</time>
      </trkpt>
      <trkpt lat="48.59108" lon="7.26388">
        <ele>935.98</ele>
        <time>2013-04-14T08:22:34Z</time>
      </trkpt>
      <trkpt lat="48.59106" lon="7.26387">
        <ele>936.46</ele>
        <time>2013-04-14T08:22:35Z</time>
      </trkpt>
      <trkpt lat="48.59099" lon="7.26383">
        <ele>936.94</ele>
        <time>2013-04-14T08:22:40Z</time>
      </trkpt>
      <trkpt lat="48.59098" lon="7.26382">
        <ele>937.42</ele>
        <time>2013-04-14T08:22:41Z</time>
      </trkpt>
      <trkpt lat="48.59097" lon="7.26381">
        <ele>937.42</ele>
        <time>2013-04-14T08:22:42Z</time>
      </trkpt>
      <trkpt lat="48.59095" lon="7.2638">
        <ele>937.42</ele>
        <time>2013-04-14T08:22:43Z</time>
      </trkpt>
      <trkpt lat="48.59083" lon="7.26373">
        <ele>938.86</ele>
        <time>2013-04-14T08:22:53Z</time>
      </trkpt>
      <trkpt lat="48.59082" lon="7.26372">
        <ele>938.86</ele>
        <time>2013-04-14T08:22:54Z</time>
      </trkpt>
      <trkpt lat="48.59075" lon="7.26366">
        <ele>940.79</ele>
        <time>2013-04-14T08:23:00Z</time>
      </trkpt>
      <trkpt lat="48.59073" lon="7.26365">
        <ele>940.79</ele>
        <time>2013-04-14T08:23:01Z</time>
      </trkpt>
      <trkpt lat="48.59058" lon="7.26354">
        <ele>942.23</ele>
        <time>2013-04-14T08:23:12Z</time>
      </trkpt>
      <trkpt lat="48.59053" lon="7.26349">
        <ele>942.71</ele>
        <time>2013-04-14T08:23:16Z</time>
      </trkpt>
      <trkpt lat="48.59052" lon="7.26347">
        <ele>943.19</ele>
        <time>2013-04-14T08:23:17Z</time>
      </trkpt>
      <trkpt lat="48.59051" lon="7.26346">
        <ele>943.67</ele>
        <time>2013-04-14T08:23:18Z</time>
      </trkpt>
      <trkpt lat="48.59042" lon="7.26338">
        <ele>944.15</ele>
        <time>2013-04-14T08:23:25Z</time>
      </trkpt>
      <trkpt lat="48.59028" lon="7.26326">
        <ele>944.63</ele>
        <time>2013-04-14T08:23:36Z</time>
      </trkpt>
      <trkpt lat="48.59025" lon="7.26324">
        <ele>945.11</ele>
        <time>2013-04-14T08:23:40Z</time>
      </trkpt>
      <trkpt lat="48.59023" lon="7.26323">
        <ele>945.11</ele>
        <time>2013-04-14T08:23:41Z</time>
      </trkpt>
      <trkpt lat="48.5902" lon="7.26316">
        <ele>944.63</ele>
        <time>2013-04-14T08:23:46Z</time>
      </trkpt>
      <trkpt lat="48.59019" lon="7.26314">
        <ele>945.11</ele>
        <time>2013-04-14T08:23:47Z</time>
      </trkpt>
      <trkpt lat="48.59018" lon="7.26312">
        <ele>945.11</ele>
        <time>2013-04-14T08:23:48Z</time>
      </trkpt>
      <trkpt lat="48.59018" lon="7.26309">
        <ele>944.63</ele>
        <time>2013-04-14T08:23:49Z</time>
      </trkpt>
      <trkpt lat="48.59017" lon="7.26306">
        <ele>944.63</ele>
        <time>2013-04-14T08:23:50Z</time>
      </trkpt>
      <trkpt lat="48.59016" lon="7.26303">
        <ele>944.63</ele>
        <time>2013-04-14T08:23:51Z</time>
      </trkpt>
      <trkpt lat="48.59015" lon="7.26301">
        <ele>944.63</ele>
        <time>2013-04-14T08:23:52Z</time>
      </trkpt>
      <trkpt lat="48.59015" lon="7.26298">
        <ele>944.63</ele>
        <time>2013-04-14T08:23:53Z</time>
      </trkpt>
      <trkpt lat="48.59014" lon="7.26295">
        <ele>944.63</ele>
        <time>2013-04-14T08:23:54Z</time>
      </trkpt>
      <trkpt lat="48.59014" lon="7.26293">
        <ele>944.63</ele>
        <time>2013-04-14T08:23:55Z</time>
      </trkpt>
      <trkpt lat="48.59014" lon="7.26291">
        <ele>945.11</ele>
        <time>2013-04-14T08:23:56Z</time>
      </trkpt>
      <trkpt lat="48.59014" lon="7.26289">
        <ele>945.11</ele>
        <time>2013-04-14T08:23:57Z</time>
      </trkpt>
      <trkpt lat="48.59014" lon="7.26286">
        <ele>944.63</ele>
        <time>2013-04-14T08:23:58Z</time>
      </trkpt>
      <trkpt lat="48.59014" lon="7.26284">
        <ele>944.63</ele>
        <time>2013-04-14T08:23:59Z</time>
      </trkpt>
      <trkpt lat="48.59013" lon="7.2628">
        <ele>945.11</ele>
        <time>2013-04-14T08:24:01Z</time>
      </trkpt>
      <trkpt lat="48.59013" lon="7.26278">
        <ele>945.11</ele>
        <time>2013-04-14T08:24:02Z</time>
      </trkpt>
      <trkpt lat="48.59012" lon="7.26275">
        <ele>945.11</ele>
        <time>2013-04-14T08:24:03Z</time>
      </trkpt>
      <trkpt lat="48.59011" lon="7.26273">
        <ele>945.11</ele>
        <time>2013-04-14T08:24:04Z</time>
      </trkpt>
      <trkpt lat="48.59011" lon="7.2627">
        <ele>945.11</ele>
        <time>2013-04-14T08:24:05Z</time>
      </trkpt>
      <trkpt lat="48.59011" lon="7.26262">
        <ele>945.11</ele>
        <time>2013-04-14T08:24:08Z</time>
      </trkpt>
      <trkpt lat="48.59011" lon="7.2626">
        <ele>945.11</ele>
        <time>2013-04-14T08:24:09Z</time>
      </trkpt>
      <trkpt lat="48.59011" lon="7.26258">
        <ele>945.11</ele>
        <time>2013-04-14T08:24:10Z</time>
      </trkpt>
      <trkpt lat="48.59012" lon="7.26256">
        <ele>945.11</ele>
        <time>2013-04-14T08:24:11Z</time>
      </trkpt>
      <trkpt lat="48.59013" lon="7.26253">
        <ele>945.11</ele>
        <time>2013-04-14T08:24:12Z</time>
      </trkpt>
      <trkpt lat="48.59013" lon="7.26245">
        <ele>945.11</ele>
        <time>2013-04-14T08:24:17Z</time>
      </trkpt>
      <trkpt lat="48.59011" lon="7.26232">
        <ele>945.11</ele>
        <time>2013-04-14T08:24:29Z</time>
      </trkpt>
      <trkpt lat="48.59013" lon="7.2622">
        <ele>944.63</ele>
        <time>2013-04-14T08:24:34Z</time>
      </trkpt>
      <trkpt lat="48.59011" lon="7.26203">
        <ele>944.63</ele>
        <time>2013-04-14T08:24:39Z</time>
      </trkpt>
      <trkpt lat="48.59011" lon="7.262">
        <ele>944.63</ele>
        <time>2013-04-14T08:24:40Z</time>
      </trkpt>
      <trkpt lat="48.59011" lon="7.26196">
        <ele>945.11</ele>
        <time>2013-04-14T08:24:41Z</time>
      </trkpt>
      <trkpt lat="48.5901" lon="7.26186">
        <ele>946.07</ele>
        <time>2013-04-14T08:24:44Z</time>
      </trkpt>
      <trkpt lat="48.59009" lon="7.26179">
        <ele>946.07</ele>
        <time>2013-04-14T08:24:46Z</time>
      </trkpt>
      <trkpt lat="48.59009" lon="7.26176">
        <ele>946.07</ele>
        <time>2013-04-14T08:24:47Z</time>
      </trkpt>
      <trkpt lat="48.59008" lon="7.26171">
        <ele>945.59</ele>
        <time>2013-04-14T08:24:48Z</time>
      </trkpt>
      <trkpt lat="48.59007" lon="7.26163">
        <ele>945.59</ele>
        <time>2013-04-14T08:24:50Z</time>
      </trkpt>
      <trkpt lat="48.59007" lon="7.26159">
        <ele>945.59</ele>
        <time>2013-04-14T08:24:51Z</time>
      </trkpt>
      <trkpt lat="48.59006" lon="7.26155">
        <ele>945.59</ele>
        <time>2013-04-14T08:24:52Z</time>
      </trkpt>
      <trkpt lat="48.59005" lon="7.26148">
        <ele>945.11</ele>
        <time>2013-04-14T08:24:53Z</time>
      </trkpt>
      <trkpt lat="48.59004" lon="7.26142">
        <ele>944.63</ele>
        <time>2013-04-14T08:24:54Z</time>
      </trkpt>
      <trkpt lat="48.59004" lon="7.26135">
        <ele>944.15</ele>
        <time>2013-04-14T08:24:55Z</time>
      </trkpt>
      <trkpt lat="48.58999" lon="7.26082">
        <ele>943.67</ele>
        <time>2013-04-14T08:25:05Z</time>
      </trkpt>
      <trkpt lat="48.58997" lon="7.26077">
        <ele>944.15</ele>
        <time>2013-04-14T08:25:06Z</time>
      </trkpt>
      <trkpt lat="48.58997" lon="7.26073">
        <ele>944.15</ele>
        <time>2013-04-14T08:25:07Z</time>
      </trkpt>
      <trkpt lat="48.58989" lon="7.26014">
        <ele>942.23</ele>
        <time>2013-04-14T08:25:21Z</time>
      </trkpt>
      <trkpt lat="48.58989" lon="7.26009">
        <ele>941.75</ele>
        <time>2013-04-14T08:25:33Z</time>
      </trkpt>
      <trkpt lat="48.58988" lon="7.26006">
        <ele>941.75</ele>
        <time>2013-04-14T08:25:34Z</time>
      </trkpt>
      <trkpt lat="48.58988" lon="7.26002">
        <ele>941.75</ele>
        <time>2013-04-14T08:25:36Z</time>
      </trkpt>
      <trkpt lat="48.58987" lon="7.26">
        <ele>941.75</ele>
        <time>2013-04-14T08:25:37Z</time>
      </trkpt>
      <trkpt lat="48.58983" lon="7.25987">
        <ele>941.27</ele>
        <time>2013-04-14T08:25:43Z</time>
      </trkpt>
      <trkpt lat="48.58982" lon="7.25984">
        <ele>940.79</ele>
        <time>2013-04-14T08:25:44Z</time>
      </trkpt>
      <trkpt lat="48.58981" lon="7.25982">
        <ele>940.79</ele>
        <time>2013-04-14T08:25:45Z</time>
      </trkpt>
      <trkpt lat="48.5898" lon="7.25979">
        <ele>940.79</ele>
        <time>2013-04-14T08:25:46Z</time>
      </trkpt>
      <trkpt lat="48.5898" lon="7.25976">
        <ele>940.79</ele>
        <time>2013-04-14T08:25:47Z</time>
      </trkpt>
      <trkpt lat="48.58979" lon="7.25973">
        <ele>940.79</ele>
        <time>2013-04-14T08:25:48Z</time>
      </trkpt>
      <trkpt lat="48.58978" lon="7.25971">
        <ele>940.79</ele>
        <time>2013-04-14T08:25:49Z</time>
      </trkpt>
      <trkpt lat="48.58977" lon="7.25968">
        <ele>940.79</ele>
        <time>2013-04-14T08:25:50Z</time>
      </trkpt>
      <trkpt lat="48.58976" lon="7.25965">
        <ele>940.79</ele>
        <time>2013-04-14T08:25:51Z</time>
      </trkpt>
      <trkpt lat="48.58975" lon="7.25962">
        <ele>940.31</ele>
        <time>2013-04-14T08:25:52Z</time>
      </trkpt>
      <trkpt lat="48.58972" lon="7.25952">
        <ele>940.31</ele>
        <time>2013-04-14T08:26:02Z</time>
      </trkpt>
      <trkpt lat="48.58971" lon="7.25951">
        <ele>940.31</ele>
        <time>2013-04-14T08:26:20Z</time>
      </trkpt>
      <trkpt lat="48.58972" lon="7.25952">
        <ele>939.83</ele>
        <time>2013-04-14T08:26:44Z</time>
      </trkpt>
      <trkpt lat="48.58972" lon="7.25952">
        <ele>939.83</ele>
        <time>2013-04-14T08:27:02Z</time>
      </trkpt>
      <trkpt lat="48.58972" lon="7.25954">
        <ele>940.31</ele>
        <time>2013-04-14T08:27:33Z</time>
      </trkpt>
      <trkpt lat="48.58971" lon="7.25951">
        <ele>940.31</ele>
        <time>2013-04-14T08:27:49Z</time>
      </trkpt>
      <trkpt lat="48.58971" lon="7.2595">
        <ele>940.31</ele>
        <time>2013-04-14T08:28:08Z</time>
      </trkpt>
      <trkpt lat="48.5897" lon="7.25944">
        <ele>940.31</ele>
        <time>2013-04-14T08:28:11Z</time>
      </trkpt>
      <trkpt lat="48.5897" lon="7.25941">
        <ele>940.31</ele>
        <time>2013-04-14T08:28:12Z</time>
      </trkpt>
      <trkpt lat="48.58969" lon="7.25937">
        <ele>939.83</ele>
        <time>2013-04-14T08:28:13Z</time>
      </trkpt>
      <trkpt lat="48.58968" lon="7.25933">
        <ele>939.83</ele>
        <time>2013-04-14T08:28:14Z</time>
      </trkpt>
      <trkpt lat="48.58967" lon="7.25928">
        <ele>939.35</ele>
        <time>2013-04-14T08:28:15Z</time>
      </trkpt>
      <trkpt lat="48.58966" lon="7.25923">
        <ele>938.86</ele>
        <time>2013-04-14T08:28:16Z</time>
      </trkpt>
      <trkpt lat="48.58958" lon="7.25898">
        <ele>938.86</ele>
        <time>2013-04-14T08:28:25Z</time>
      </trkpt>
      <trkpt lat="48.58957" lon="7.25894">
        <ele>939.35</ele>
        <time>2013-04-14T08:28:39Z</time>
      </trkpt>
      <trkpt lat="48.58956" lon="7.25894">
        <ele>939.35</ele>
        <time>2013-04-14T08:29:05Z</time>
      </trkpt>
      <trkpt lat="48.58955" lon="7.25892">
        <ele>939.35</ele>
        <time>2013-04-14T08:29:06Z</time>
      </trkpt>
      <trkpt lat="48.58954" lon="7.2589">
        <ele>938.86</ele>
        <time>2013-04-14T08:29:07Z</time>
      </trkpt>
      <trkpt lat="48.58953" lon="7.25888">
        <ele>938.86</ele>
        <time>2013-04-14T08:29:08Z</time>
      </trkpt>
      <trkpt lat="48.58953" lon="7.25885">
        <ele>938.86</ele>
        <time>2013-04-14T08:29:09Z</time>
      </trkpt>
      <trkpt lat="48.58953" lon="7.25883">
        <ele>938.86</ele>
        <time>2013-04-14T08:29:10Z</time>
      </trkpt>
      <trkpt lat="48.58952" lon="7.2588">
        <ele>938.86</ele>
        <time>2013-04-14T08:29:11Z</time>
      </trkpt>
      <trkpt lat="48.58951" lon="7.25876">
        <ele>938.86</ele>
        <time>2013-04-14T08:29:13Z</time>
      </trkpt>
      <trkpt lat="48.5895" lon="7.25872">
        <ele>938.38</ele>
        <time>2013-04-14T08:29:14Z</time>
      </trkpt>
      <trkpt lat="48.58947" lon="7.25867">
        <ele>938.38</ele>
        <time>2013-04-14T08:29:15Z</time>
      </trkpt>
      <trkpt lat="48.58945" lon="7.25863">
        <ele>938.38</ele>
        <time>2013-04-14T08:29:16Z</time>
      </trkpt>
      <trkpt lat="48.58943" lon="7.25858">
        <ele>937.9</ele>
        <time>2013-04-14T08:29:17Z</time>
      </trkpt>
      <trkpt lat="48.58941" lon="7.25852">
        <ele>937.9</ele>
        <time>2013-04-14T08:29:18Z</time>
      </trkpt>
      <trkpt lat="48.5894" lon="7.25845">
        <ele>938.38</ele>
        <time>2013-04-14T08:29:19Z</time>
      </trkpt>
      <trkpt lat="48.5893" lon="7.25811">
        <ele>939.35</ele>
        <time>2013-04-14T08:29:27Z</time>
      </trkpt>
      <trkpt lat="48.58916" lon="7.25766">
        <ele>939.35</ele>
        <time>2013-04-14T08:29:38Z</time>
      </trkpt>
      <trkpt lat="48.58908" lon="7.25733">
        <ele>940.31</ele>
        <time>2013-04-14T08:29:48Z</time>
      </trkpt>
      <trkpt lat="48.58899" lon="7.25694">
        <ele>941.75</ele>
        <time>2013-04-14T08:29:59Z</time>
      </trkpt>
      <trkpt lat="48.58892" lon="7.25661">
        <ele>941.75</ele>
        <time>2013-04-14T08:30:08Z</time>
      </trkpt>
      <trkpt lat="48.58891" lon="7.25658">
        <ele>942.23</ele>
        <time>2013-04-14T08:30:09Z</time>
      </trkpt>
      <trkpt lat="48.5889" lon="7.25655">
        <ele>942.23</ele>
        <time>2013-04-14T08:30:10Z</time>
      </trkpt>
      <trkpt lat="48.5889" lon="7.25651">
        <ele>942.23</ele>
        <time>2013-04-14T08:30:11Z</time>
      </trkpt>
      <trkpt lat="48.5889" lon="7.25648">
        <ele>942.71</ele>
        <time>2013-04-14T08:30:12Z</time>
      </trkpt>
      <trkpt lat="48.58889" lon="7.25645">
        <ele>942.71</ele>
        <time>2013-04-14T08:30:13Z</time>
      </trkpt>
      <trkpt lat="48.58889" lon="7.25642">
        <ele>942.71</ele>
        <time>2013-04-14T08:30:14Z</time>
      </trkpt>
      <trkpt lat="48.5889" lon="7.2564">
        <ele>942.71</ele>
        <time>2013-04-14T08:30:15Z</time>
      </trkpt>
      <trkpt lat="48.5889" lon="7.25637">
        <ele>942.71</ele>
        <time>2013-04-14T08:30:16Z</time>
      </trkpt>
      <trkpt lat="48.5889" lon="7.25635">
        <ele>942.71</ele>
        <time>2013-04-14T08:30:17Z</time>
      </trkpt>
      <trkpt lat="48.58891" lon="7.25617">
        <ele>941.75</ele>
        <time>2013-04-14T08:30:23Z</time>
      </trkpt>
      <trkpt lat="48.58891" lon="7.25613">
        <ele>941.75</ele>
        <time>2013-04-14T08:30:24Z</time>
      </trkpt>
      <trkpt lat="48.5889" lon="7.25609">
        <ele>942.71</ele>
        <time>2013-04-14T08:30:25Z</time>
      </trkpt>
      <trkpt lat="48.58888" lon="7.25606">
        <ele>941.75</ele>
        <time>2013-04-14T08:30:26Z</time>
      </trkpt>
      <trkpt lat="48.58887" lon="7.25603">
        <ele>941.75</ele>
        <time>2013-04-14T08:30:27Z</time>
      </trkpt>
      <trkpt lat="48.5888" lon="7.25587">
        <ele>941.27</ele>
        <time>2013-04-14T08:30:38Z</time>
      </trkpt>
      <trkpt lat="48.58881" lon="7.25581">
        <ele>940.31</ele>
        <time>2013-04-14T08:30:42Z</time>
      </trkpt>
      <trkpt lat="48.58881" lon="7.25579">
        <ele>939.83</ele>
        <time>2013-04-14T08:30:43Z</time>
      </trkpt>
      <trkpt lat="48.5888" lon="7.25576">
        <ele>939.35</ele>
        <time>2013-04-14T08:30:44Z</time>
      </trkpt>
      <trkpt lat="48.58881" lon="7.25575">
        <ele>939.35</ele>
        <time>2013-04-14T08:30:45Z</time>
      </trkpt>
      <trkpt lat="48.58882" lon="7.25574">
        <ele>938.86</ele>
        <time>2013-04-14T08:30:46Z</time>
      </trkpt>
      <trkpt lat="48.58882" lon="7.2557">
        <ele>937.42</ele>
        <time>2013-04-14T08:30:56Z</time>
      </trkpt>
      <trkpt lat="48.5888" lon="7.25569">
        <ele>937.42</ele>
        <time>2013-04-14T08:31:14Z</time>
      </trkpt>
      <trkpt lat="48.58879" lon="7.25564">
        <ele>936.46</ele>
        <time>2013-04-14T08:31:27Z</time>
      </trkpt>
      <trkpt lat="48.58884" lon="7.25558">
        <ele>934.54</ele>
        <time>2013-04-14T08:31:35Z</time>
      </trkpt>
      <trkpt lat="48.5889" lon="7.25553">
        <ele>931.17</ele>
        <time>2013-04-14T08:31:43Z</time>
      </trkpt>
      <trkpt lat="48.5889" lon="7.25552">
        <ele>930.69</ele>
        <time>2013-04-14T08:31:44Z</time>
      </trkpt>
      <trkpt lat="48.5889" lon="7.25552">
        <ele>930.21</ele>
        <time>2013-04-14T08:31:45Z</time>
      </trkpt>
      <trkpt lat="48.58891" lon="7.25552">
        <ele>930.21</ele>
        <time>2013-04-14T08:31:46Z</time>
      </trkpt>
      <trkpt lat="48.58893" lon="7.25549">
        <ele>929.25</ele>
        <time>2013-04-14T08:31:49Z</time>
      </trkpt>
      <trkpt lat="48.58895" lon="7.25549">
        <ele>929.25</ele>
        <time>2013-04-14T08:31:50Z</time>
      </trkpt>
      <trkpt lat="48.58904" lon="7.2554">
        <ele>927.33</ele>
        <time>2013-04-14T08:31:54Z</time>
      </trkpt>
      <trkpt lat="48.58907" lon="7.25535">
        <ele>926.85</ele>
        <time>2013-04-14T08:31:55Z</time>
      </trkpt>
      <trkpt lat="48.58914" lon="7.25523">
        <ele>924.93</ele>
        <time>2013-04-14T08:31:57Z</time>
      </trkpt>
      <trkpt lat="48.58918" lon="7.25518">
        <ele>923.96</ele>
        <time>2013-04-14T08:31:58Z</time>
      </trkpt>
      <trkpt lat="48.58932" lon="7.25496">
        <ele>920.6</ele>
        <time>2013-04-14T08:32:03Z</time>
      </trkpt>
      <trkpt lat="48.58935" lon="7.2549">
        <ele>919.64</ele>
        <time>2013-04-14T08:32:05Z</time>
      </trkpt>
      <trkpt lat="48.58935" lon="7.25488">
        <ele>919.16</ele>
        <time>2013-04-14T08:32:06Z</time>
      </trkpt>
      <trkpt lat="48.58936" lon="7.25487">
        <ele>918.68</ele>
        <time>2013-04-14T08:32:07Z</time>
      </trkpt>
      <trkpt lat="48.58938" lon="7.25485">
        <ele>918.68</ele>
        <time>2013-04-14T08:32:08Z</time>
      </trkpt>
      <trkpt lat="48.58939" lon="7.25484">
        <ele>918.68</ele>
        <time>2013-04-14T08:32:09Z</time>
      </trkpt>
      <trkpt lat="48.58941" lon="7.25479">
        <ele>918.2</ele>
        <time>2013-04-14T08:32:15Z</time>
      </trkpt>
      <trkpt lat="48.5894" lon="7.25476">
        <ele>917.72</ele>
        <time>2013-04-14T08:32:16Z</time>
      </trkpt>
      <trkpt lat="48.58942" lon="7.25473">
        <ele>917.72</ele>
        <time>2013-04-14T08:32:18Z</time>
      </trkpt>
      <trkpt lat="48.58944" lon="7.2547">
        <ele>916.75</ele>
        <time>2013-04-14T08:32:19Z</time>
      </trkpt>
      <trkpt lat="48.58947" lon="7.25467">
        <ele>916.27</ele>
        <time>2013-04-14T08:32:20Z</time>
      </trkpt>
      <trkpt lat="48.58953" lon="7.25459">
        <ele>915.31</ele>
        <time>2013-04-14T08:32:23Z</time>
      </trkpt>
      <trkpt lat="48.58956" lon="7.25456">
        <ele>915.31</ele>
        <time>2013-04-14T08:32:25Z</time>
      </trkpt>
      <trkpt lat="48.58957" lon="7.25456">
        <ele>914.83</ele>
        <time>2013-04-14T08:32:26Z</time>
      </trkpt>
      <trkpt lat="48.5896" lon="7.25448">
        <ele>913.87</ele>
        <time>2013-04-14T08:32:33Z</time>
      </trkpt>
      <trkpt lat="48.5896" lon="7.25443">
        <ele>913.87</ele>
        <time>2013-04-14T08:32:35Z</time>
      </trkpt>
      <trkpt lat="48.58961" lon="7.2544">
        <ele>913.39</ele>
        <time>2013-04-14T08:32:36Z</time>
      </trkpt>
      <trkpt lat="48.58962" lon="7.25438">
        <ele>912.91</ele>
        <time>2013-04-14T08:32:37Z</time>
      </trkpt>
      <trkpt lat="48.58964" lon="7.25436">
        <ele>911.95</ele>
        <time>2013-04-14T08:32:39Z</time>
      </trkpt>
      <trkpt lat="48.58971" lon="7.25423">
        <ele>910.03</ele>
        <time>2013-04-14T08:32:47Z</time>
      </trkpt>
      <trkpt lat="48.58973" lon="7.25421">
        <ele>909.54</ele>
        <time>2013-04-14T08:32:48Z</time>
      </trkpt>
      <trkpt lat="48.58975" lon="7.25418">
        <ele>908.58</ele>
        <time>2013-04-14T08:32:49Z</time>
      </trkpt>
      <trkpt lat="48.58977" lon="7.25413">
        <ele>907.62</ele>
        <time>2013-04-14T08:32:51Z</time>
      </trkpt>
      <trkpt lat="48.58978" lon="7.2541">
        <ele>907.62</ele>
        <time>2013-04-14T08:32:52Z</time>
      </trkpt>
      <trkpt lat="48.58979" lon="7.25408">
        <ele>907.14</ele>
        <time>2013-04-14T08:32:53Z</time>
      </trkpt>
      <trkpt lat="48.5898" lon="7.25407">
        <ele>907.14</ele>
        <time>2013-04-14T08:32:54Z</time>
      </trkpt>
      <trkpt lat="48.58981" lon="7.25405">
        <ele>906.66</ele>
        <time>2013-04-14T08:32:55Z</time>
      </trkpt>
      <trkpt lat="48.58983" lon="7.25399">
        <ele>906.18</ele>
        <time>2013-04-14T08:33:07Z</time>
      </trkpt>
      <trkpt lat="48.58984" lon="7.25398">
        <ele>906.66</ele>
        <time>2013-04-14T08:33:22Z</time>
      </trkpt>
      <trkpt lat="48.58985" lon="7.25398">
        <ele>906.66</ele>
        <time>2013-04-14T08:33:44Z</time>
      </trkpt>
      <trkpt lat="48.5899" lon="7.25392">
        <ele>905.7</ele>
        <time>2013-04-14T08:34:02Z</time>
      </trkpt>
      <trkpt lat="48.58992" lon="7.25388">
        <ele>905.22</ele>
        <time>2013-04-14T08:34:04Z</time>
      </trkpt>
      <trkpt lat="48.58992" lon="7.25386">
        <ele>904.74</ele>
        <time>2013-04-14T08:34:05Z</time>
      </trkpt>
      <trkpt lat="48.58993" lon="7.25384">
        <ele>904.26</ele>
        <time>2013-04-14T08:34:06Z</time>
      </trkpt>
      <trkpt lat="48.58998" lon="7.25378">
        <ele>903.3</ele>
        <time>2013-04-14T08:34:09Z</time>
      </trkpt>
      <trkpt lat="48.59" lon="7.25374">
        <ele>902.33</ele>
        <time>2013-04-14T08:34:10Z</time>
      </trkpt>
      <trkpt lat="48.59003" lon="7.2537">
        <ele>902.33</ele>
        <time>2013-04-14T08:34:11Z</time>
      </trkpt>
      <trkpt lat="48.59005" lon="7.25366">
        <ele>901.85</ele>
        <time>2013-04-14T08:34:12Z</time>
      </trkpt>
      <trkpt lat="48.59007" lon="7.25363">
        <ele>901.37</ele>
        <time>2013-04-14T08:34:13Z</time>
      </trkpt>
      <trkpt lat="48.59008" lon="7.2536">
        <ele>901.37</ele>
        <time>2013-04-14T08:34:14Z</time>
      </trkpt>
      <trkpt lat="48.59009" lon="7.25354">
        <ele>900.89</ele>
        <time>2013-04-14T08:34:16Z</time>
      </trkpt>
      <trkpt lat="48.5901" lon="7.25351">
        <ele>900.41</ele>
        <time>2013-04-14T08:34:17Z</time>
      </trkpt>
      <trkpt lat="48.59011" lon="7.25349">
        <ele>900.41</ele>
        <time>2013-04-14T08:34:18Z</time>
      </trkpt>
      <trkpt lat="48.59013" lon="7.25347">
        <ele>899.93</ele>
        <time>2013-04-14T08:34:19Z</time>
      </trkpt>
      <trkpt lat="48.59015" lon="7.25344">
        <ele>899.45</ele>
        <time>2013-04-14T08:34:20Z</time>
      </trkpt>
      <trkpt lat="48.59016" lon="7.25341">
        <ele>898.97</ele>
        <time>2013-04-14T08:34:21Z</time>
      </trkpt>
      <trkpt lat="48.59023" lon="7.25331">
        <ele>897.53</ele>
        <time>2013-04-14T08:34:24Z</time>
      </trkpt>
      <trkpt lat="48.59026" lon="7.25328">
        <ele>898.01</ele>
        <time>2013-04-14T08:34:25Z</time>
      </trkpt>
      <trkpt lat="48.59038" lon="7.25318">
        <ele>896.09</ele>
        <time>2013-04-14T08:34:30Z</time>
      </trkpt>
      <trkpt lat="48.5905" lon="7.25307">
        <ele>895.61</ele>
        <time>2013-04-14T08:34:41Z</time>
      </trkpt>
      <trkpt lat="48.59051" lon="7.25305">
        <ele>895.61</ele>
        <time>2013-04-14T08:34:42Z</time>
      </trkpt>
      <trkpt lat="48.59051" lon="7.25303">
        <ele>895.12</ele>
        <time>2013-04-14T08:34:43Z</time>
      </trkpt>
      <trkpt lat="48.59051" lon="7.25301">
        <ele>895.12</ele>
        <time>2013-04-14T08:34:44Z</time>
      </trkpt>
      <trkpt lat="48.59052" lon="7.25298">
        <ele>894.64</ele>
        <time>2013-04-14T08:34:45Z</time>
      </trkpt>
      <trkpt lat="48.59051" lon="7.25296">
        <ele>894.64</ele>
        <time>2013-04-14T08:34:46Z</time>
      </trkpt>
      <trkpt lat="48.59049" lon="7.25293">
        <ele>894.16</ele>
        <time>2013-04-14T08:34:47Z</time>
      </trkpt>
      <trkpt lat="48.59047" lon="7.2529">
        <ele>894.16</ele>
        <time>2013-04-14T08:34:48Z</time>
      </trkpt>
      <trkpt lat="48.59046" lon="7.25289">
        <ele>894.16</ele>
        <time>2013-04-14T08:34:49Z</time>
      </trkpt>
      <trkpt lat="48.59045" lon="7.25286">
        <ele>894.16</ele>
        <time>2013-04-14T08:34:50Z</time>
      </trkpt>
      <trkpt lat="48.59044" lon="7.25283">
        <ele>894.16</ele>
        <time>2013-04-14T08:34:51Z</time>
      </trkpt>
      <trkpt lat="48.59044" lon="7.25279">
        <ele>893.68</ele>
        <time>2013-04-14T08:34:52Z</time>
      </trkpt>
      <trkpt lat="48.59044" lon="7.25276">
        <ele>893.68</ele>
        <time>2013-04-14T08:34:53Z</time>
      </trkpt>
      <trkpt lat="48.59045" lon="7.25272">
        <ele>893.68</ele>
        <time>2013-04-14T08:34:54Z</time>
      </trkpt>
      <trkpt lat="48.59045" lon="7.25268">
        <ele>893.2</ele>
        <time>2013-04-14T08:34:55Z</time>
      </trkpt>
      <trkpt lat="48.59045" lon="7.25263">
        <ele>893.2</ele>
        <time>2013-04-14T08:34:56Z</time>
      </trkpt>
      <trkpt lat="48.59046" lon="7.25259">
        <ele>893.2</ele>
        <time>2013-04-14T08:34:57Z</time>
      </trkpt>
      <trkpt lat="48.59047" lon="7.25254">
        <ele>892.72</ele>
        <time>2013-04-14T08:34:58Z</time>
      </trkpt>
      <trkpt lat="48.59048" lon="7.2525">
        <ele>892.72</ele>
        <time>2013-04-14T08:34:59Z</time>
      </trkpt>
      <trkpt lat="48.59052" lon="7.25227">
        <ele>892.24</ele>
        <time>2013-04-14T08:35:06Z</time>
      </trkpt>
      <trkpt lat="48.59053" lon="7.25224">
        <ele>892.24</ele>
        <time>2013-04-14T08:35:07Z</time>
      </trkpt>
      <trkpt lat="48.59054" lon="7.25221">
        <ele>892.24</ele>
        <time>2013-04-14T08:35:08Z</time>
      </trkpt>
      <trkpt lat="48.59055" lon="7.25219">
        <ele>892.24</ele>
        <time>2013-04-14T08:35:09Z</time>
      </trkpt>
      <trkpt lat="48.59056" lon="7.25218">
        <ele>892.24</ele>
        <time>2013-04-14T08:35:10Z</time>
      </trkpt>
      <trkpt lat="48.59056" lon="7.25215">
        <ele>892.24</ele>
        <time>2013-04-14T08:35:11Z</time>
      </trkpt>
      <trkpt lat="48.59054" lon="7.25212">
        <ele>892.24</ele>
        <time>2013-04-14T08:35:13Z</time>
      </trkpt>
      <trkpt lat="48.59047" lon="7.25204">
        <ele>891.76</ele>
        <time>2013-04-14T08:35:18Z</time>
      </trkpt>
      <trkpt lat="48.59044" lon="7.25189">
        <ele>890.8</ele>
        <time>2013-04-14T08:35:25Z</time>
      </trkpt>
      <trkpt lat="48.59058" lon="7.25164">
        <ele>890.32</ele>
        <time>2013-04-14T08:35:33Z</time>
      </trkpt>
      <trkpt lat="48.59091" lon="7.25136">
        <ele>888.88</ele>
        <time>2013-04-14T08:35:44Z</time>
      </trkpt>
      <trkpt lat="48.59101" lon="7.25127">
        <ele>887.91</ele>
        <time>2013-04-14T08:35:48Z</time>
      </trkpt>
      <trkpt lat="48.59128" lon="7.25103">
        <ele>885.51</ele>
        <time>2013-04-14T08:35:57Z</time>
      </trkpt>
      <trkpt lat="48.59131" lon="7.25098">
        <ele>885.51</ele>
        <time>2013-04-14T08:35:58Z</time>
      </trkpt>
      <trkpt lat="48.59135" lon="7.25092">
        <ele>884.55</ele>
        <time>2013-04-14T08:35:59Z</time>
      </trkpt>
      <trkpt lat="48.59142" lon="7.25085">
        <ele>884.07</ele>
        <time>2013-04-14T08:36:01Z</time>
      </trkpt>
      <trkpt lat="48.59162" lon="7.2507">
        <ele>881.19</ele>
        <time>2013-04-14T08:36:06Z</time>
      </trkpt>
      <trkpt lat="48.59166" lon="7.25069">
        <ele>880.22</ele>
        <time>2013-04-14T08:36:07Z</time>
      </trkpt>
      <trkpt lat="48.59171" lon="7.25068">
        <ele>880.22</ele>
        <time>2013-04-14T08:36:08Z</time>
      </trkpt>
      <trkpt lat="48.59174" lon="7.25066">
        <ele>879.74</ele>
        <time>2013-04-14T08:36:09Z</time>
      </trkpt>
      <trkpt lat="48.59176" lon="7.25063">
        <ele>880.22</ele>
        <time>2013-04-14T08:36:10Z</time>
      </trkpt>
      <trkpt lat="48.59179" lon="7.2506">
        <ele>880.22</ele>
        <time>2013-04-14T08:36:11Z</time>
      </trkpt>
      <trkpt lat="48.59181" lon="7.25058">
        <ele>880.22</ele>
        <time>2013-04-14T08:36:12Z</time>
      </trkpt>
      <trkpt lat="48.59184" lon="7.25055">
        <ele>879.74</ele>
        <time>2013-04-14T08:36:13Z</time>
      </trkpt>
      <trkpt lat="48.59196" lon="7.25043">
        <ele>878.78</ele>
        <time>2013-04-14T08:36:17Z</time>
      </trkpt>
      <trkpt lat="48.59209" lon="7.25032">
        <ele>878.3</ele>
        <time>2013-04-14T08:36:22Z</time>
      </trkpt>
      <trkpt lat="48.59212" lon="7.25031">
        <ele>878.3</ele>
        <time>2013-04-14T08:36:23Z</time>
      </trkpt>
      <trkpt lat="48.59215" lon="7.25029">
        <ele>878.3</ele>
        <time>2013-04-14T08:36:24Z</time>
      </trkpt>
      <trkpt lat="48.59221" lon="7.25026">
        <ele>878.78</ele>
        <time>2013-04-14T08:36:26Z</time>
      </trkpt>
      <trkpt lat="48.59223" lon="7.25027">
        <ele>878.78</ele>
        <time>2013-04-14T08:36:27Z</time>
      </trkpt>
      <trkpt lat="48.5925" lon="7.25031">
        <ele>880.22</ele>
        <time>2013-04-14T08:36:38Z</time>
      </trkpt>
      <trkpt lat="48.59267" lon="7.25051">
        <ele>882.63</ele>
        <time>2013-04-14T08:36:49Z</time>
      </trkpt>
      <trkpt lat="48.59269" lon="7.25055">
        <ele>883.11</ele>
        <time>2013-04-14T08:36:51Z</time>
      </trkpt>
      <trkpt lat="48.59274" lon="7.2506">
        <ele>883.11</ele>
        <time>2013-04-14T08:36:54Z</time>
      </trkpt>
      <trkpt lat="48.59275" lon="7.25062">
        <ele>883.59</ele>
        <time>2013-04-14T08:36:55Z</time>
      </trkpt>
      <trkpt lat="48.59276" lon="7.25063">
        <ele>883.59</ele>
        <time>2013-04-14T08:36:56Z</time>
      </trkpt>
      <trkpt lat="48.59277" lon="7.25065">
        <ele>883.59</ele>
        <time>2013-04-14T08:36:57Z</time>
      </trkpt>
      <trkpt lat="48.59278" lon="7.25066">
        <ele>884.07</ele>
        <time>2013-04-14T08:36:58Z</time>
      </trkpt>
      <trkpt lat="48.5928" lon="7.25068">
        <ele>884.07</ele>
        <time>2013-04-14T08:36:59Z</time>
      </trkpt>
      <trkpt lat="48.59281" lon="7.25071">
        <ele>884.55</ele>
        <time>2013-04-14T08:37:00Z</time>
      </trkpt>
      <trkpt lat="48.59282" lon="7.25074">
        <ele>884.55</ele>
        <time>2013-04-14T08:37:01Z</time>
      </trkpt>
      <trkpt lat="48.59295" lon="7.25101">
        <ele>885.51</ele>
        <time>2013-04-14T08:37:11Z</time>
      </trkpt>
      <trkpt lat="48.59312" lon="7.25116">
        <ele>886.47</ele>
        <time>2013-04-14T08:37:21Z</time>
      </trkpt>
      <trkpt lat="48.59333" lon="7.25131">
        <ele>886.95</ele>
        <time>2013-04-14T08:37:31Z</time>
      </trkpt>
      <trkpt lat="48.59358" lon="7.25157">
        <ele>887.91</ele>
        <time>2013-04-14T08:37:43Z</time>
      </trkpt>
      <trkpt lat="48.59378" lon="7.25169">
        <ele>888.88</ele>
        <time>2013-04-14T08:37:53Z</time>
      </trkpt>
      <trkpt lat="48.59381" lon="7.25172">
        <ele>888.88</ele>
        <time>2013-04-14T08:37:55Z</time>
      </trkpt>
      <trkpt lat="48.59406" lon="7.25166">
        <ele>888.88</ele>
        <time>2013-04-14T08:38:06Z</time>
      </trkpt>
      <trkpt lat="48.59414" lon="7.25161">
        <ele>888.88</ele>
        <time>2013-04-14T08:38:10Z</time>
      </trkpt>
      <trkpt lat="48.59416" lon="7.25158">
        <ele>888.4</ele>
        <time>2013-04-14T08:38:11Z</time>
      </trkpt>
      <trkpt lat="48.59419" lon="7.25156">
        <ele>888.4</ele>
        <time>2013-04-14T08:38:12Z</time>
      </trkpt>
      <trkpt lat="48.59432" lon="7.2514">
        <ele>887.91</ele>
        <time>2013-04-14T08:38:16Z</time>
      </trkpt>
      <trkpt lat="48.59438" lon="7.2513">
        <ele>887.43</ele>
        <time>2013-04-14T08:38:18Z</time>
      </trkpt>
      <trkpt lat="48.59442" lon="7.25124">
        <ele>887.43</ele>
        <time>2013-04-14T08:38:19Z</time>
      </trkpt>
      <trkpt lat="48.59445" lon="7.2512">
        <ele>887.43</ele>
        <time>2013-04-14T08:38:20Z</time>
      </trkpt>
      <trkpt lat="48.59457" lon="7.25095">
        <ele>888.4</ele>
        <time>2013-04-14T08:38:31Z</time>
      </trkpt>
      <trkpt lat="48.59458" lon="7.25094">
        <ele>888.4</ele>
        <time>2013-04-14T08:38:32Z</time>
      </trkpt>
      <trkpt lat="48.5946" lon="7.25094">
        <ele>887.91</ele>
        <time>2013-04-14T08:38:33Z</time>
      </trkpt>
      <trkpt lat="48.59462" lon="7.25094">
        <ele>887.91</ele>
        <time>2013-04-14T08:38:34Z</time>
      </trkpt>
      <trkpt lat="48.59465" lon="7.25093">
        <ele>887.43</ele>
        <time>2013-04-14T08:38:35Z</time>
      </trkpt>
      <trkpt lat="48.59468" lon="7.25092">
        <ele>887.43</ele>
        <time>2013-04-14T08:38:36Z</time>
      </trkpt>
      <trkpt lat="48.59471" lon="7.2509">
        <ele>886.95</ele>
        <time>2013-04-14T08:38:37Z</time>
      </trkpt>
      <trkpt lat="48.59473" lon="7.25088">
        <ele>886.47</ele>
        <time>2013-04-14T08:38:38Z</time>
      </trkpt>
      <trkpt lat="48.59476" lon="7.25087">
        <ele>885.99</ele>
        <time>2013-04-14T08:38:39Z</time>
      </trkpt>
      <trkpt lat="48.59478" lon="7.25086">
        <ele>885.51</ele>
        <time>2013-04-14T08:38:40Z</time>
      </trkpt>
      <trkpt lat="48.59481" lon="7.25085">
        <ele>884.55</ele>
        <time>2013-04-14T08:38:41Z</time>
      </trkpt>
      <trkpt lat="48.59482" lon="7.25084">
        <ele>884.55</ele>
        <time>2013-04-14T08:38:42Z</time>
      </trkpt>
      <trkpt lat="48.59488" lon="7.25081">
        <ele>882.63</ele>
        <time>2013-04-14T08:38:45Z</time>
      </trkpt>
      <trkpt lat="48.59491" lon="7.25082">
        <ele>881.19</ele>
        <time>2013-04-14T08:38:46Z</time>
      </trkpt>
      <trkpt lat="48.59494" lon="7.25084">
        <ele>880.71</ele>
        <time>2013-04-14T08:38:47Z</time>
      </trkpt>
      <trkpt lat="48.59498" lon="7.25088">
        <ele>879.74</ele>
        <time>2013-04-14T08:38:48Z</time>
      </trkpt>
      <trkpt lat="48.59501" lon="7.25091">
        <ele>879.26</ele>
        <time>2013-04-14T08:38:49Z</time>
      </trkpt>
      <trkpt lat="48.59504" lon="7.25096">
        <ele>877.82</ele>
        <time>2013-04-14T08:38:50Z</time>
      </trkpt>
      <trkpt lat="48.59507" lon="7.251">
        <ele>877.34</ele>
        <time>2013-04-14T08:38:51Z</time>
      </trkpt>
      <trkpt lat="48.59509" lon="7.25104">
        <ele>876.86</ele>
        <time>2013-04-14T08:38:52Z</time>
      </trkpt>
      <trkpt lat="48.59515" lon="7.25113">
        <ele>875.9</ele>
        <time>2013-04-14T08:38:56Z</time>
      </trkpt>
      <trkpt lat="48.59517" lon="7.25119">
        <ele>874.46</ele>
        <time>2013-04-14T08:38:59Z</time>
      </trkpt>
      <trkpt lat="48.59519" lon="7.25122">
        <ele>873.98</ele>
        <time>2013-04-14T08:39:00Z</time>
      </trkpt>
      <trkpt lat="48.59521" lon="7.25126">
        <ele>873.01</ele>
        <time>2013-04-14T08:39:01Z</time>
      </trkpt>
      <trkpt lat="48.59524" lon="7.25132">
        <ele>872.53</ele>
        <time>2013-04-14T08:39:02Z</time>
      </trkpt>
      <trkpt lat="48.59526" lon="7.25137">
        <ele>871.57</ele>
        <time>2013-04-14T08:39:03Z</time>
      </trkpt>
      <trkpt lat="48.59529" lon="7.25143">
        <ele>871.09</ele>
        <time>2013-04-14T08:39:04Z</time>
      </trkpt>
      <trkpt lat="48.59531" lon="7.25148">
        <ele>870.61</ele>
        <time>2013-04-14T08:39:05Z</time>
      </trkpt>
      <trkpt lat="48.59532" lon="7.25152">
        <ele>869.65</ele>
        <time>2013-04-14T08:39:06Z</time>
      </trkpt>
      <trkpt lat="48.59533" lon="7.25156">
        <ele>869.17</ele>
        <time>2013-04-14T08:39:07Z</time>
      </trkpt>
      <trkpt lat="48.59534" lon="7.25159">
        <ele>868.21</ele>
        <time>2013-04-14T08:39:08Z</time>
      </trkpt>
      <trkpt lat="48.59535" lon="7.25163">
        <ele>867.73</ele>
        <time>2013-04-14T08:39:09Z</time>
      </trkpt>
      <trkpt lat="48.59536" lon="7.25166">
        <ele>866.77</ele>
        <time>2013-04-14T08:39:11Z</time>
      </trkpt>
      <trkpt lat="48.59537" lon="7.25168">
        <ele>866.29</ele>
        <time>2013-04-14T08:39:12Z</time>
      </trkpt>
      <trkpt lat="48.59538" lon="7.2517">
        <ele>865.8</ele>
        <time>2013-04-14T08:39:13Z</time>
      </trkpt>
      <trkpt lat="48.59539" lon="7.25173">
        <ele>865.32</ele>
        <time>2013-04-14T08:39:14Z</time>
      </trkpt>
      <trkpt lat="48.59541" lon="7.25175">
        <ele>864.84</ele>
        <time>2013-04-14T08:39:15Z</time>
      </trkpt>
      <trkpt lat="48.59542" lon="7.25177">
        <ele>864.84</ele>
        <time>2013-04-14T08:39:16Z</time>
      </trkpt>
      <trkpt lat="48.59546" lon="7.25184">
        <ele>862.92</ele>
        <time>2013-04-14T08:39:18Z</time>
      </trkpt>
      <trkpt lat="48.59547" lon="7.25188">
        <ele>862.44</ele>
        <time>2013-04-14T08:39:19Z</time>
      </trkpt>
      <trkpt lat="48.59549" lon="7.25194">
        <ele>861.96</ele>
        <time>2013-04-14T08:39:20Z</time>
      </trkpt>
      <trkpt lat="48.5955" lon="7.25199">
        <ele>861.48</ele>
        <time>2013-04-14T08:39:21Z</time>
      </trkpt>
      <trkpt lat="48.59552" lon="7.25203">
        <ele>860.52</ele>
        <time>2013-04-14T08:39:22Z</time>
      </trkpt>
      <trkpt lat="48.5956" lon="7.25216">
        <ele>859.08</ele>
        <time>2013-04-14T08:39:25Z</time>
      </trkpt>
      <trkpt lat="48.59563" lon="7.25219">
        <ele>858.11</ele>
        <time>2013-04-14T08:39:26Z</time>
      </trkpt>
      <trkpt lat="48.59575" lon="7.25228">
        <ele>854.75</ele>
        <time>2013-04-14T08:39:30Z</time>
      </trkpt>
      <trkpt lat="48.59589" lon="7.25247">
        <ele>851.38</ele>
        <time>2013-04-14T08:39:36Z</time>
      </trkpt>
      <trkpt lat="48.59595" lon="7.2526">
        <ele>849.94</ele>
        <time>2013-04-14T08:39:38Z</time>
      </trkpt>
      <trkpt lat="48.59602" lon="7.25273">
        <ele>848.5</ele>
        <time>2013-04-14T08:39:40Z</time>
      </trkpt>
      <trkpt lat="48.59607" lon="7.25279">
        <ele>848.5</ele>
        <time>2013-04-14T08:39:41Z</time>
      </trkpt>
      <trkpt lat="48.59611" lon="7.25284">
        <ele>847.54</ele>
        <time>2013-04-14T08:39:42Z</time>
      </trkpt>
      <trkpt lat="48.59614" lon="7.25289">
        <ele>847.06</ele>
        <time>2013-04-14T08:39:43Z</time>
      </trkpt>
      <trkpt lat="48.59615" lon="7.25294">
        <ele>846.58</ele>
        <time>2013-04-14T08:39:44Z</time>
      </trkpt>
      <trkpt lat="48.59617" lon="7.25299">
        <ele>845.62</ele>
        <time>2013-04-14T08:39:45Z</time>
      </trkpt>
      <trkpt lat="48.5962" lon="7.25303">
        <ele>845.14</ele>
        <time>2013-04-14T08:39:46Z</time>
      </trkpt>
      <trkpt lat="48.59624" lon="7.25306">
        <ele>844.18</ele>
        <time>2013-04-14T08:39:47Z</time>
      </trkpt>
      <trkpt lat="48.5963" lon="7.25307">
        <ele>842.73</ele>
        <time>2013-04-14T08:39:48Z</time>
      </trkpt>
      <trkpt lat="48.59635" lon="7.25308">
        <ele>841.77</ele>
        <time>2013-04-14T08:39:49Z</time>
      </trkpt>
      <trkpt lat="48.59647" lon="7.2531">
        <ele>840.81</ele>
        <time>2013-04-14T08:39:51Z</time>
      </trkpt>
      <trkpt lat="48.59652" lon="7.25313">
        <ele>840.33</ele>
        <time>2013-04-14T08:39:52Z</time>
      </trkpt>
      <trkpt lat="48.59656" lon="7.25315">
        <ele>839.85</ele>
        <time>2013-04-14T08:39:53Z</time>
      </trkpt>
      <trkpt lat="48.59669" lon="7.2532">
        <ele>838.89</ele>
        <time>2013-04-14T08:39:56Z</time>
      </trkpt>
      <trkpt lat="48.59687" lon="7.25316">
        <ele>836</ele>
        <time>2013-04-14T08:40:02Z</time>
      </trkpt>
      <trkpt lat="48.59689" lon="7.25315">
        <ele>835.52</ele>
        <time>2013-04-14T08:40:03Z</time>
      </trkpt>
      <trkpt lat="48.59691" lon="7.25313">
        <ele>835.04</ele>
        <time>2013-04-14T08:40:04Z</time>
      </trkpt>
      <trkpt lat="48.59693" lon="7.25312">
        <ele>835.04</ele>
        <time>2013-04-14T08:40:05Z</time>
      </trkpt>
      <trkpt lat="48.59696" lon="7.25311">
        <ele>834.56</ele>
        <time>2013-04-14T08:40:06Z</time>
      </trkpt>
      <trkpt lat="48.59697" lon="7.25309">
        <ele>834.56</ele>
        <time>2013-04-14T08:40:07Z</time>
      </trkpt>
      <trkpt lat="48.59698" lon="7.25306">
        <ele>834.08</ele>
        <time>2013-04-14T08:40:08Z</time>
      </trkpt>
      <trkpt lat="48.59698" lon="7.25304">
        <ele>834.08</ele>
        <time>2013-04-14T08:40:09Z</time>
      </trkpt>
      <trkpt lat="48.59704" lon="7.25299">
        <ele>833.12</ele>
        <time>2013-04-14T08:40:12Z</time>
      </trkpt>
      <trkpt lat="48.59707" lon="7.25298">
        <ele>832.64</ele>
        <time>2013-04-14T08:40:13Z</time>
      </trkpt>
      <trkpt lat="48.59715" lon="7.25295">
        <ele>831.68</ele>
        <time>2013-04-14T08:40:15Z</time>
      </trkpt>
      <trkpt lat="48.5972" lon="7.25295">
        <ele>831.2</ele>
        <time>2013-04-14T08:40:16Z</time>
      </trkpt>
      <trkpt lat="48.59725" lon="7.25294">
        <ele>830.24</ele>
        <time>2013-04-14T08:40:17Z</time>
      </trkpt>
      <trkpt lat="48.59731" lon="7.25292">
        <ele>829.76</ele>
        <time>2013-04-14T08:40:18Z</time>
      </trkpt>
      <trkpt lat="48.59736" lon="7.25289">
        <ele>829.27</ele>
        <time>2013-04-14T08:40:19Z</time>
      </trkpt>
      <trkpt lat="48.5974" lon="7.25287">
        <ele>828.79</ele>
        <time>2013-04-14T08:40:20Z</time>
      </trkpt>
      <trkpt lat="48.59745" lon="7.25286">
        <ele>828.31</ele>
        <time>2013-04-14T08:40:21Z</time>
      </trkpt>
      <trkpt lat="48.5975" lon="7.25285">
        <ele>827.83</ele>
        <time>2013-04-14T08:40:22Z</time>
      </trkpt>
      <trkpt lat="48.59755" lon="7.25284">
        <ele>827.35</ele>
        <time>2013-04-14T08:40:23Z</time>
      </trkpt>
      <trkpt lat="48.59765" lon="7.2528">
        <ele>827.35</ele>
        <time>2013-04-14T08:40:25Z</time>
      </trkpt>
      <trkpt lat="48.59769" lon="7.25277">
        <ele>826.87</ele>
        <time>2013-04-14T08:40:26Z</time>
      </trkpt>
      <trkpt lat="48.59773" lon="7.25277">
        <ele>827.35</ele>
        <time>2013-04-14T08:40:27Z</time>
      </trkpt>
      <trkpt lat="48.59783" lon="7.25276">
        <ele>825.43</ele>
        <time>2013-04-14T08:40:29Z</time>
      </trkpt>
      <trkpt lat="48.59793" lon="7.25272">
        <ele>824.47</ele>
        <time>2013-04-14T08:40:31Z</time>
      </trkpt>
      <trkpt lat="48.59799" lon="7.2527">
        <ele>823.99</ele>
        <time>2013-04-14T08:40:32Z</time>
      </trkpt>
      <trkpt lat="48.59834" lon="7.25253">
        <ele>822.55</ele>
        <time>2013-04-14T08:40:40Z</time>
      </trkpt>
      <trkpt lat="48.59855" lon="7.25242">
        <ele>822.55</ele>
        <time>2013-04-14T08:40:50Z</time>
      </trkpt>
      <trkpt lat="48.59885" lon="7.25217">
        <ele>821.1</ele>
        <time>2013-04-14T08:40:59Z</time>
      </trkpt>
      <trkpt lat="48.59922" lon="7.25203">
        <ele>820.62</ele>
        <time>2013-04-14T08:41:09Z</time>
      </trkpt>
      <trkpt lat="48.59939" lon="7.25198">
        <ele>820.14</ele>
        <time>2013-04-14T08:41:14Z</time>
      </trkpt>
      <trkpt lat="48.59942" lon="7.252">
        <ele>819.66</ele>
        <time>2013-04-14T08:41:15Z</time>
      </trkpt>
      <trkpt lat="48.59946" lon="7.25201">
        <ele>819.66</ele>
        <time>2013-04-14T08:41:16Z</time>
      </trkpt>
      <trkpt lat="48.59949" lon="7.25202">
        <ele>819.18</ele>
        <time>2013-04-14T08:41:17Z</time>
      </trkpt>
      <trkpt lat="48.59954" lon="7.25203">
        <ele>819.18</ele>
        <time>2013-04-14T08:41:18Z</time>
      </trkpt>
      <trkpt lat="48.59984" lon="7.25205">
        <ele>817.26</ele>
        <time>2013-04-14T08:41:27Z</time>
      </trkpt>
      <trkpt lat="48.59995" lon="7.25205">
        <ele>816.78</ele>
        <time>2013-04-14T08:41:30Z</time>
      </trkpt>
      <trkpt lat="48.6" lon="7.25203">
        <ele>816.78</ele>
        <time>2013-04-14T08:41:31Z</time>
      </trkpt>
      <trkpt lat="48.60004" lon="7.25202">
        <ele>816.3</ele>
        <time>2013-04-14T08:41:32Z</time>
      </trkpt>
      <trkpt lat="48.60014" lon="7.25198">
        <ele>816.3</ele>
        <time>2013-04-14T08:41:34Z</time>
      </trkpt>
      <trkpt lat="48.60018" lon="7.25195">
        <ele>815.82</ele>
        <time>2013-04-14T08:41:35Z</time>
      </trkpt>
      <trkpt lat="48.60023" lon="7.25194">
        <ele>815.82</ele>
        <time>2013-04-14T08:41:36Z</time>
      </trkpt>
      <trkpt lat="48.60028" lon="7.25191">
        <ele>815.34</ele>
        <time>2013-04-14T08:41:37Z</time>
      </trkpt>
      <trkpt lat="48.60033" lon="7.25188">
        <ele>814.85</ele>
        <time>2013-04-14T08:41:38Z</time>
      </trkpt>
      <trkpt lat="48.60047" lon="7.25181">
        <ele>813.41</ele>
        <time>2013-04-14T08:41:41Z</time>
      </trkpt>
      <trkpt lat="48.60074" lon="7.25173">
        <ele>811.49</ele>
        <time>2013-04-14T08:41:47Z</time>
      </trkpt>
      <trkpt lat="48.60113" lon="7.25175">
        <ele>810.05</ele>
        <time>2013-04-14T08:41:56Z</time>
      </trkpt>
      <trkpt lat="48.60119" lon="7.25176">
        <ele>809.57</ele>
        <time>2013-04-14T08:41:57Z</time>
      </trkpt>
      <trkpt lat="48.60123" lon="7.25177">
        <ele>809.09</ele>
        <time>2013-04-14T08:41:58Z</time>
      </trkpt>
      <trkpt lat="48.60139" lon="7.25179">
        <ele>808.61</ele>
        <time>2013-04-14T08:42:01Z</time>
      </trkpt>
      <trkpt lat="48.60162" lon="7.25185">
        <ele>807.64</ele>
        <time>2013-04-14T08:42:05Z</time>
      </trkpt>
      <trkpt lat="48.60168" lon="7.25186">
        <ele>807.16</ele>
        <time>2013-04-14T08:42:06Z</time>
      </trkpt>
      <trkpt lat="48.60174" lon="7.25188">
        <ele>807.16</ele>
        <time>2013-04-14T08:42:07Z</time>
      </trkpt>
      <trkpt lat="48.60179" lon="7.2519">
        <ele>807.16</ele>
        <time>2013-04-14T08:42:08Z</time>
      </trkpt>
      <trkpt lat="48.60184" lon="7.25193">
        <ele>806.68</ele>
        <time>2013-04-14T08:42:09Z</time>
      </trkpt>
      <trkpt lat="48.6019" lon="7.25196">
        <ele>806.68</ele>
        <time>2013-04-14T08:42:10Z</time>
      </trkpt>
      <trkpt lat="48.60196" lon="7.25199">
        <ele>806.2</ele>
        <time>2013-04-14T08:42:11Z</time>
      </trkpt>
      <trkpt lat="48.60202" lon="7.25201">
        <ele>806.2</ele>
        <time>2013-04-14T08:42:12Z</time>
      </trkpt>
      <trkpt lat="48.60207" lon="7.25204">
        <ele>805.72</ele>
        <time>2013-04-14T08:42:13Z</time>
      </trkpt>
      <trkpt lat="48.60213" lon="7.25207">
        <ele>805.72</ele>
        <time>2013-04-14T08:42:14Z</time>
      </trkpt>
      <trkpt lat="48.6022" lon="7.2521">
        <ele>805.24</ele>
        <time>2013-04-14T08:42:15Z</time>
      </trkpt>
      <trkpt lat="48.60225" lon="7.25214">
        <ele>805.24</ele>
        <time>2013-04-14T08:42:16Z</time>
      </trkpt>
      <trkpt lat="48.60231" lon="7.25219">
        <ele>804.76</ele>
        <time>2013-04-14T08:42:17Z</time>
      </trkpt>
      <trkpt lat="48.60236" lon="7.25223">
        <ele>804.76</ele>
        <time>2013-04-14T08:42:18Z</time>
      </trkpt>
      <trkpt lat="48.6024" lon="7.25228">
        <ele>804.76</ele>
        <time>2013-04-14T08:42:19Z</time>
      </trkpt>
      <trkpt lat="48.60245" lon="7.25232">
        <ele>804.28</ele>
        <time>2013-04-14T08:42:20Z</time>
      </trkpt>
      <trkpt lat="48.60249" lon="7.25235">
        <ele>804.28</ele>
        <time>2013-04-14T08:42:21Z</time>
      </trkpt>
      <trkpt lat="48.60252" lon="7.25239">
        <ele>803.32</ele>
        <time>2013-04-14T08:42:22Z</time>
      </trkpt>
      <trkpt lat="48.60255" lon="7.25243">
        <ele>802.84</ele>
        <time>2013-04-14T08:42:23Z</time>
      </trkpt>
      <trkpt lat="48.60259" lon="7.25247">
        <ele>801.88</ele>
        <time>2013-04-14T08:42:24Z</time>
      </trkpt>
      <trkpt lat="48.60261" lon="7.25252">
        <ele>801.4</ele>
        <time>2013-04-14T08:42:25Z</time>
      </trkpt>
      <trkpt lat="48.60265" lon="7.25257">
        <ele>800.92</ele>
        <time>2013-04-14T08:42:26Z</time>
      </trkpt>
      <trkpt lat="48.60269" lon="7.25261">
        <ele>800.92</ele>
        <time>2013-04-14T08:42:27Z</time>
      </trkpt>
      <trkpt lat="48.6028" lon="7.25274">
        <ele>798.99</ele>
        <time>2013-04-14T08:42:30Z</time>
      </trkpt>
      <trkpt lat="48.60288" lon="7.25285">
        <ele>798.03</ele>
        <time>2013-04-14T08:42:32Z</time>
      </trkpt>
      <trkpt lat="48.60293" lon="7.2529">
        <ele>797.55</ele>
        <time>2013-04-14T08:42:33Z</time>
      </trkpt>
      <trkpt lat="48.60298" lon="7.25296">
        <ele>796.59</ele>
        <time>2013-04-14T08:42:34Z</time>
      </trkpt>
      <trkpt lat="48.60303" lon="7.25304">
        <ele>795.63</ele>
        <time>2013-04-14T08:42:35Z</time>
      </trkpt>
      <trkpt lat="48.60307" lon="7.2531">
        <ele>795.63</ele>
        <time>2013-04-14T08:42:36Z</time>
      </trkpt>
      <trkpt lat="48.6031" lon="7.25314">
        <ele>795.15</ele>
        <time>2013-04-14T08:42:37Z</time>
      </trkpt>
      <trkpt lat="48.60312" lon="7.25319">
        <ele>794.67</ele>
        <time>2013-04-14T08:42:38Z</time>
      </trkpt>
      <trkpt lat="48.60314" lon="7.25323">
        <ele>794.67</ele>
        <time>2013-04-14T08:42:39Z</time>
      </trkpt>
      <trkpt lat="48.60316" lon="7.25328">
        <ele>795.15</ele>
        <time>2013-04-14T08:42:40Z</time>
      </trkpt>
      <trkpt lat="48.60318" lon="7.25333">
        <ele>794.67</ele>
        <time>2013-04-14T08:42:41Z</time>
      </trkpt>
      <trkpt lat="48.6032" lon="7.25338">
        <ele>794.67</ele>
        <time>2013-04-14T08:42:42Z</time>
      </trkpt>
      <trkpt lat="48.60321" lon="7.25342">
        <ele>794.67</ele>
        <time>2013-04-14T08:42:43Z</time>
      </trkpt>
      <trkpt lat="48.60322" lon="7.25347">
        <ele>794.67</ele>
        <time>2013-04-14T08:42:44Z</time>
      </trkpt>
      <trkpt lat="48.60323" lon="7.25353">
        <ele>794.67</ele>
        <time>2013-04-14T08:42:45Z</time>
      </trkpt>
      <trkpt lat="48.60324" lon="7.25358">
        <ele>794.67</ele>
        <time>2013-04-14T08:42:46Z</time>
      </trkpt>
      <trkpt lat="48.60328" lon="7.25418">
        <ele>794.19</ele>
        <time>2013-04-14T08:42:57Z</time>
      </trkpt>
      <trkpt lat="48.60329" lon="7.25452">
        <ele>794.19</ele>
        <time>2013-04-14T08:43:05Z</time>
      </trkpt>
      <trkpt lat="48.6033" lon="7.25455">
        <ele>794.19</ele>
        <time>2013-04-14T08:43:06Z</time>
      </trkpt>
      <trkpt lat="48.60332" lon="7.25457">
        <ele>793.71</ele>
        <time>2013-04-14T08:43:07Z</time>
      </trkpt>
      <trkpt lat="48.60334" lon="7.25456">
        <ele>793.71</ele>
        <time>2013-04-14T08:43:08Z</time>
      </trkpt>
      <trkpt lat="48.60335" lon="7.25456">
        <ele>793.71</ele>
        <time>2013-04-14T08:43:09Z</time>
      </trkpt>
      <trkpt lat="48.60333" lon="7.25457">
        <ele>793.22</ele>
        <time>2013-04-14T08:43:20Z</time>
      </trkpt>
      <trkpt lat="48.60333" lon="7.25456">
        <ele>793.22</ele>
        <time>2013-04-14T08:43:45Z</time>
      </trkpt>
      <trkpt lat="48.60337" lon="7.25452">
        <ele>792.74</ele>
        <time>2013-04-14T08:43:51Z</time>
      </trkpt>
      <trkpt lat="48.60338" lon="7.2545">
        <ele>792.74</ele>
        <time>2013-04-14T08:43:52Z</time>
      </trkpt>
      <trkpt lat="48.60346" lon="7.25435">
        <ele>792.26</ele>
        <time>2013-04-14T08:43:56Z</time>
      </trkpt>
      <trkpt lat="48.60352" lon="7.25425">
        <ele>790.82</ele>
        <time>2013-04-14T08:43:58Z</time>
      </trkpt>
      <trkpt lat="48.60357" lon="7.25422">
        <ele>790.34</ele>
        <time>2013-04-14T08:43:59Z</time>
      </trkpt>
      <trkpt lat="48.60365" lon="7.25414">
        <ele>789.38</ele>
        <time>2013-04-14T08:44:01Z</time>
      </trkpt>
      <trkpt lat="48.60369" lon="7.25408">
        <ele>788.9</ele>
        <time>2013-04-14T08:44:02Z</time>
      </trkpt>
      <trkpt lat="48.60373" lon="7.25403">
        <ele>787.94</ele>
        <time>2013-04-14T08:44:03Z</time>
      </trkpt>
      <trkpt lat="48.60376" lon="7.254">
        <ele>787.46</ele>
        <time>2013-04-14T08:44:04Z</time>
      </trkpt>
      <trkpt lat="48.60378" lon="7.25396">
        <ele>786.98</ele>
        <time>2013-04-14T08:44:05Z</time>
      </trkpt>
      <trkpt lat="48.6038" lon="7.25393">
        <ele>786.5</ele>
        <time>2013-04-14T08:44:06Z</time>
      </trkpt>
      <trkpt lat="48.60382" lon="7.25389">
        <ele>786.02</ele>
        <time>2013-04-14T08:44:07Z</time>
      </trkpt>
      <trkpt lat="48.60385" lon="7.25385">
        <ele>785.53</ele>
        <time>2013-04-14T08:44:08Z</time>
      </trkpt>
      <trkpt lat="48.60389" lon="7.25381">
        <ele>785.05</ele>
        <time>2013-04-14T08:44:09Z</time>
      </trkpt>
      <trkpt lat="48.60392" lon="7.25376">
        <ele>784.09</ele>
        <time>2013-04-14T08:44:10Z</time>
      </trkpt>
      <trkpt lat="48.60396" lon="7.2537">
        <ele>783.61</ele>
        <time>2013-04-14T08:44:11Z</time>
      </trkpt>
      <trkpt lat="48.60398" lon="7.25364">
        <ele>782.65</ele>
        <time>2013-04-14T08:44:12Z</time>
      </trkpt>
      <trkpt lat="48.60401" lon="7.25358">
        <ele>782.17</ele>
        <time>2013-04-14T08:44:13Z</time>
      </trkpt>
      <trkpt lat="48.60403" lon="7.25352">
        <ele>782.17</ele>
        <time>2013-04-14T08:44:14Z</time>
      </trkpt>
      <trkpt lat="48.60411" lon="7.25339">
        <ele>781.21</ele>
        <time>2013-04-14T08:44:16Z</time>
      </trkpt>
      <trkpt lat="48.60419" lon="7.25324">
        <ele>779.29</ele>
        <time>2013-04-14T08:44:18Z</time>
      </trkpt>
      <trkpt lat="48.6043" lon="7.25302">
        <ele>777.36</ele>
        <time>2013-04-14T08:44:21Z</time>
      </trkpt>
      <trkpt lat="48.60432" lon="7.25294">
        <ele>776.88</ele>
        <time>2013-04-14T08:44:22Z</time>
      </trkpt>
      <trkpt lat="48.60435" lon="7.25287">
        <ele>774.96</ele>
        <time>2013-04-14T08:44:23Z</time>
      </trkpt>
      <trkpt lat="48.60441" lon="7.25268">
        <ele>773.52</ele>
        <time>2013-04-14T08:44:26Z</time>
      </trkpt>
      <trkpt lat="48.60443" lon="7.25261">
        <ele>773.04</ele>
        <time>2013-04-14T08:44:27Z</time>
      </trkpt>
      <trkpt lat="48.60445" lon="7.25255">
        <ele>772.56</ele>
        <time>2013-04-14T08:44:28Z</time>
      </trkpt>
      <trkpt lat="48.60447" lon="7.25249">
        <ele>772.08</ele>
        <time>2013-04-14T08:44:29Z</time>
      </trkpt>
      <trkpt lat="48.60461" lon="7.25226">
        <ele>769.67</ele>
        <time>2013-04-14T08:44:36Z</time>
      </trkpt>
      <trkpt lat="48.60471" lon="7.25201">
        <ele>766.79</ele>
        <time>2013-04-14T08:44:44Z</time>
      </trkpt>
      <trkpt lat="48.60486" lon="7.25171">
        <ele>764.39</ele>
        <time>2013-04-14T08:44:52Z</time>
      </trkpt>
      <trkpt lat="48.6049" lon="7.25163">
        <ele>762.94</ele>
        <time>2013-04-14T08:44:55Z</time>
      </trkpt>
      <trkpt lat="48.6051" lon="7.25121">
        <ele>761.5</ele>
        <time>2013-04-14T08:45:05Z</time>
      </trkpt>
      <trkpt lat="48.60515" lon="7.25111">
        <ele>761.02</ele>
        <time>2013-04-14T08:45:07Z</time>
      </trkpt>
      <trkpt lat="48.60538" lon="7.25064">
        <ele>757.66</ele>
        <time>2013-04-14T08:45:14Z</time>
      </trkpt>
      <trkpt lat="48.60541" lon="7.25056">
        <ele>756.69</ele>
        <time>2013-04-14T08:45:15Z</time>
      </trkpt>
      <trkpt lat="48.60545" lon="7.25045">
        <ele>755.73</ele>
        <time>2013-04-14T08:45:17Z</time>
      </trkpt>
      <trkpt lat="48.60554" lon="7.25027">
        <ele>753.81</ele>
        <time>2013-04-14T08:45:22Z</time>
      </trkpt>
      <trkpt lat="48.60576" lon="7.25014">
        <ele>749.49</ele>
        <time>2013-04-14T08:45:29Z</time>
      </trkpt>
      <trkpt lat="48.60581" lon="7.25012">
        <ele>748.52</ele>
        <time>2013-04-14T08:45:31Z</time>
      </trkpt>
      <trkpt lat="48.60592" lon="7.24996">
        <ele>745.16</ele>
        <time>2013-04-14T08:45:39Z</time>
      </trkpt>
      <trkpt lat="48.60592" lon="7.24995">
        <ele>744.68</ele>
        <time>2013-04-14T08:45:40Z</time>
      </trkpt>
      <trkpt lat="48.60607" lon="7.24986">
        <ele>741.31</ele>
        <time>2013-04-14T08:45:47Z</time>
      </trkpt>
      <trkpt lat="48.60608" lon="7.24984">
        <ele>741.31</ele>
        <time>2013-04-14T08:45:48Z</time>
      </trkpt>
      <trkpt lat="48.60618" lon="7.24973">
        <ele>739.39</ele>
        <time>2013-04-14T08:46:00Z</time>
      </trkpt>
      <trkpt lat="48.60621" lon="7.24969">
        <ele>738.43</ele>
        <time>2013-04-14T08:46:11Z</time>
      </trkpt>
      <trkpt lat="48.60628" lon="7.24964">
        <ele>738.43</ele>
        <time>2013-04-14T08:46:22Z</time>
      </trkpt>
      <trkpt lat="48.60641" lon="7.24952">
        <ele>736.99</ele>
        <time>2013-04-14T08:46:28Z</time>
      </trkpt>
      <trkpt lat="48.60652" lon="7.24938">
        <ele>734.1</ele>
        <time>2013-04-14T08:46:33Z</time>
      </trkpt>
      <trkpt lat="48.60656" lon="7.24935">
        <ele>734.1</ele>
        <time>2013-04-14T08:46:45Z</time>
      </trkpt>
      <trkpt lat="48.60657" lon="7.24939">
        <ele>734.1</ele>
        <time>2013-04-14T08:46:47Z</time>
      </trkpt>
      <trkpt lat="48.60659" lon="7.24949">
        <ele>733.62</ele>
        <time>2013-04-14T08:46:51Z</time>
      </trkpt>
      <trkpt lat="48.60665" lon="7.24968">
        <ele>733.62</ele>
        <time>2013-04-14T08:46:55Z</time>
      </trkpt>
      <trkpt lat="48.60667" lon="7.24973">
        <ele>733.62</ele>
        <time>2013-04-14T08:46:56Z</time>
      </trkpt>
      <trkpt lat="48.60668" lon="7.24978">
        <ele>733.62</ele>
        <time>2013-04-14T08:46:57Z</time>
      </trkpt>
      <trkpt lat="48.60671" lon="7.2499">
        <ele>733.14</ele>
        <time>2013-04-14T08:46:59Z</time>
      </trkpt>
      <trkpt lat="48.60671" lon="7.25004">
        <ele>733.14</ele>
        <time>2013-04-14T08:47:01Z</time>
      </trkpt>
      <trkpt lat="48.60672" lon="7.2503">
        <ele>733.14</ele>
        <time>2013-04-14T08:47:05Z</time>
      </trkpt>
      <trkpt lat="48.60675" lon="7.25035">
        <ele>733.14</ele>
        <time>2013-04-14T08:47:06Z</time>
      </trkpt>
      <trkpt lat="48.60675" lon="7.25053">
        <ele>733.14</ele>
        <time>2013-04-14T08:47:09Z</time>
      </trkpt>
      <trkpt lat="48.60679" lon="7.25063">
        <ele>733.14</ele>
        <time>2013-04-14T08:47:11Z</time>
      </trkpt>
      <trkpt lat="48.60678" lon="7.25068">
        <ele>733.14</ele>
        <time>2013-04-14T08:47:12Z</time>
      </trkpt>
      <trkpt lat="48.6065" lon="7.25124">
        <ele>732.66</ele>
        <time>2013-04-14T08:47:23Z</time>
      </trkpt>
      <trkpt lat="48.60624" lon="7.25166">
        <ele>732.18</ele>
        <time>2013-04-14T08:47:33Z</time>
      </trkpt>
      <trkpt lat="48.60608" lon="7.25195">
        <ele>732.18</ele>
        <time>2013-04-14T08:47:40Z</time>
      </trkpt>
      <trkpt lat="48.60596" lon="7.25257">
        <ele>731.7</ele>
        <time>2013-04-14T08:47:50Z</time>
      </trkpt>
      <trkpt lat="48.60598" lon="7.25277">
        <ele>731.7</ele>
        <time>2013-04-14T08:47:53Z</time>
      </trkpt>
      <trkpt lat="48.606" lon="7.25283">
        <ele>731.7</ele>
        <time>2013-04-14T08:47:54Z</time>
      </trkpt>
      <trkpt lat="48.60601" lon="7.25289">
        <ele>731.7</ele>
        <time>2013-04-14T08:47:55Z</time>
      </trkpt>
      <trkpt lat="48.60601" lon="7.25297">
        <ele>731.22</ele>
        <time>2013-04-14T08:47:56Z</time>
      </trkpt>
      <trkpt lat="48.60602" lon="7.25304">
        <ele>731.22</ele>
        <time>2013-04-14T08:47:57Z</time>
      </trkpt>
      <trkpt lat="48.60602" lon="7.25311">
        <ele>731.22</ele>
        <time>2013-04-14T08:47:58Z</time>
      </trkpt>
      <trkpt lat="48.60603" lon="7.25318">
        <ele>731.22</ele>
        <time>2013-04-14T08:47:59Z</time>
      </trkpt>
      <trkpt lat="48.60605" lon="7.25324">
        <ele>731.22</ele>
        <time>2013-04-14T08:48:00Z</time>
      </trkpt>
      <trkpt lat="48.60605" lon="7.2533">
        <ele>731.22</ele>
        <time>2013-04-14T08:48:01Z</time>
      </trkpt>
      <trkpt lat="48.60603" lon="7.25336">
        <ele>731.22</ele>
        <time>2013-04-14T08:48:02Z</time>
      </trkpt>
      <trkpt lat="48.60603" lon="7.25342">
        <ele>731.22</ele>
        <time>2013-04-14T08:48:03Z</time>
      </trkpt>
      <trkpt lat="48.60601" lon="7.25349">
        <ele>731.22</ele>
        <time>2013-04-14T08:48:04Z</time>
      </trkpt>
      <trkpt lat="48.60602" lon="7.25369">
        <ele>731.22</ele>
        <time>2013-04-14T08:48:07Z</time>
      </trkpt>
      <trkpt lat="48.60621" lon="7.2543">
        <ele>729.78</ele>
        <time>2013-04-14T08:48:14Z</time>
      </trkpt>
      <trkpt lat="48.60656" lon="7.25492">
        <ele>729.3</ele>
        <time>2013-04-14T08:48:21Z</time>
      </trkpt>
      <trkpt lat="48.60661" lon="7.25498">
        <ele>729.78</ele>
        <time>2013-04-14T08:48:22Z</time>
      </trkpt>
      <trkpt lat="48.60666" lon="7.25504">
        <ele>729.3</ele>
        <time>2013-04-14T08:48:23Z</time>
      </trkpt>
      <trkpt lat="48.60677" lon="7.25517">
        <ele>729.3</ele>
        <time>2013-04-14T08:48:25Z</time>
      </trkpt>
      <trkpt lat="48.6069" lon="7.25526">
        <ele>729.3</ele>
        <time>2013-04-14T08:48:27Z</time>
      </trkpt>
      <trkpt lat="48.60698" lon="7.2553">
        <ele>729.78</ele>
        <time>2013-04-14T08:48:28Z</time>
      </trkpt>
      <trkpt lat="48.60707" lon="7.25533">
        <ele>728.82</ele>
        <time>2013-04-14T08:48:29Z</time>
      </trkpt>
      <trkpt lat="48.60747" lon="7.25543">
        <ele>728.82</ele>
        <time>2013-04-14T08:48:34Z</time>
      </trkpt>
      <trkpt lat="48.60754" lon="7.25546">
        <ele>728.82</ele>
        <time>2013-04-14T08:48:35Z</time>
      </trkpt>
      <trkpt lat="48.60766" lon="7.25552">
        <ele>728.82</ele>
        <time>2013-04-14T08:48:37Z</time>
      </trkpt>
      <trkpt lat="48.60772" lon="7.25554">
        <ele>728.34</ele>
        <time>2013-04-14T08:48:38Z</time>
      </trkpt>
      <trkpt lat="48.6079" lon="7.2556">
        <ele>728.82</ele>
        <time>2013-04-14T08:48:41Z</time>
      </trkpt>
      <trkpt lat="48.60796" lon="7.25562">
        <ele>728.34</ele>
        <time>2013-04-14T08:48:42Z</time>
      </trkpt>
      <trkpt lat="48.60802" lon="7.25564">
        <ele>728.34</ele>
        <time>2013-04-14T08:48:43Z</time>
      </trkpt>
      <trkpt lat="48.60814" lon="7.25566">
        <ele>728.82</ele>
        <time>2013-04-14T08:48:45Z</time>
      </trkpt>
      <trkpt lat="48.60819" lon="7.25568">
        <ele>728.34</ele>
        <time>2013-04-14T08:48:46Z</time>
      </trkpt>
      <trkpt lat="48.60824" lon="7.2557">
        <ele>728.34</ele>
        <time>2013-04-14T08:48:47Z</time>
      </trkpt>
      <trkpt lat="48.60829" lon="7.25572">
        <ele>728.34</ele>
        <time>2013-04-14T08:48:48Z</time>
      </trkpt>
      <trkpt lat="48.60833" lon="7.25573">
        <ele>728.82</ele>
        <time>2013-04-14T08:48:49Z</time>
      </trkpt>
      <trkpt lat="48.60839" lon="7.25573">
        <ele>728.82</ele>
        <time>2013-04-14T08:48:50Z</time>
      </trkpt>
      <trkpt lat="48.60844" lon="7.25574">
        <ele>728.34</ele>
        <time>2013-04-14T08:48:51Z</time>
      </trkpt>
      <trkpt lat="48.6086" lon="7.25576">
        <ele>728.34</ele>
        <time>2013-04-14T08:48:54Z</time>
      </trkpt>
      <trkpt lat="48.60864" lon="7.25577">
        <ele>728.34</ele>
        <time>2013-04-14T08:48:55Z</time>
      </trkpt>
      <trkpt lat="48.60897" lon="7.25587">
        <ele>728.82</ele>
        <time>2013-04-14T08:49:03Z</time>
      </trkpt>
      <trkpt lat="48.60926" lon="7.25596">
        <ele>728.82</ele>
        <time>2013-04-14T08:49:12Z</time>
      </trkpt>
      <trkpt lat="48.60946" lon="7.25608">
        <ele>728.82</ele>
        <time>2013-04-14T08:49:18Z</time>
      </trkpt>
      <trkpt lat="48.60997" lon="7.25626">
        <ele>728.34</ele>
        <time>2013-04-14T08:49:27Z</time>
      </trkpt>
      <trkpt lat="48.61021" lon="7.25637">
        <ele>728.34</ele>
        <time>2013-04-14T08:49:32Z</time>
      </trkpt>
      <trkpt lat="48.61025" lon="7.2564">
        <ele>728.34</ele>
        <time>2013-04-14T08:49:33Z</time>
      </trkpt>
      <trkpt lat="48.61028" lon="7.25643">
        <ele>728.82</ele>
        <time>2013-04-14T08:49:34Z</time>
      </trkpt>
      <trkpt lat="48.61031" lon="7.25645">
        <ele>728.82</ele>
        <time>2013-04-14T08:49:35Z</time>
      </trkpt>
      <trkpt lat="48.61033" lon="7.25647">
        <ele>729.3</ele>
        <time>2013-04-14T08:49:36Z</time>
      </trkpt>
      <trkpt lat="48.61052" lon="7.25657">
        <ele>730.26</ele>
        <time>2013-04-14T08:49:42Z</time>
      </trkpt>
      <trkpt lat="48.61055" lon="7.25659">
        <ele>730.74</ele>
        <time>2013-04-14T08:49:43Z</time>
      </trkpt>
      <trkpt lat="48.61058" lon="7.25661">
        <ele>730.74</ele>
        <time>2013-04-14T08:49:44Z</time>
      </trkpt>
      <trkpt lat="48.61061" lon="7.25664">
        <ele>731.22</ele>
        <time>2013-04-14T08:49:45Z</time>
      </trkpt>
      <trkpt lat="48.61062" lon="7.25666">
        <ele>731.22</ele>
        <time>2013-04-14T08:49:46Z</time>
      </trkpt>
      <trkpt lat="48.61089" lon="7.25679">
        <ele>731.7</ele>
        <time>2013-04-14T08:49:53Z</time>
      </trkpt>
      <trkpt lat="48.61094" lon="7.2568">
        <ele>731.22</ele>
        <time>2013-04-14T08:49:54Z</time>
      </trkpt>
      <trkpt lat="48.61098" lon="7.25681">
        <ele>730.74</ele>
        <time>2013-04-14T08:49:55Z</time>
      </trkpt>
      <trkpt lat="48.61109" lon="7.25684">
        <ele>729.78</ele>
        <time>2013-04-14T08:49:57Z</time>
      </trkpt>
      <trkpt lat="48.61115" lon="7.25686">
        <ele>729.3</ele>
        <time>2013-04-14T08:49:58Z</time>
      </trkpt>
      <trkpt lat="48.61119" lon="7.25688">
        <ele>729.78</ele>
        <time>2013-04-14T08:49:59Z</time>
      </trkpt>
      <trkpt lat="48.61125" lon="7.25689">
        <ele>729.3</ele>
        <time>2013-04-14T08:50:00Z</time>
      </trkpt>
      <trkpt lat="48.61131" lon="7.25691">
        <ele>728.82</ele>
        <time>2013-04-14T08:50:01Z</time>
      </trkpt>
      <trkpt lat="48.61137" lon="7.25693">
        <ele>728.34</ele>
        <time>2013-04-14T08:50:02Z</time>
      </trkpt>
      <trkpt lat="48.61143" lon="7.25695">
        <ele>728.82</ele>
        <time>2013-04-14T08:50:03Z</time>
      </trkpt>
      <trkpt lat="48.61164" lon="7.25704">
        <ele>728.82</ele>
        <time>2013-04-14T08:50:07Z</time>
      </trkpt>
      <trkpt lat="48.61168" lon="7.25706">
        <ele>728.82</ele>
        <time>2013-04-14T08:50:08Z</time>
      </trkpt>
      <trkpt lat="48.61172" lon="7.25707">
        <ele>728.82</ele>
        <time>2013-04-14T08:50:09Z</time>
      </trkpt>
      <trkpt lat="48.61176" lon="7.25709">
        <ele>728.82</ele>
        <time>2013-04-14T08:50:10Z</time>
      </trkpt>
      <trkpt lat="48.61181" lon="7.2571">
        <ele>728.82</ele>
        <time>2013-04-14T08:50:11Z</time>
      </trkpt>
      <trkpt lat="48.61185" lon="7.25711">
        <ele>728.82</ele>
        <time>2013-04-14T08:50:12Z</time>
      </trkpt>
      <trkpt lat="48.61212" lon="7.25713">
        <ele>727.37</ele>
        <time>2013-04-14T08:50:17Z</time>
      </trkpt>
      <trkpt lat="48.61218" lon="7.25713">
        <ele>727.37</ele>
        <time>2013-04-14T08:50:18Z</time>
      </trkpt>
      <trkpt lat="48.61237" lon="7.25713">
        <ele>726.89</ele>
        <time>2013-04-14T08:50:21Z</time>
      </trkpt>
      <trkpt lat="48.61248" lon="7.25716">
        <ele>726.89</ele>
        <time>2013-04-14T08:50:23Z</time>
      </trkpt>
      <trkpt lat="48.61252" lon="7.25718">
        <ele>726.89</ele>
        <time>2013-04-14T08:50:24Z</time>
      </trkpt>
      <trkpt lat="48.61269" lon="7.25723">
        <ele>726.89</ele>
        <time>2013-04-14T08:50:27Z</time>
      </trkpt>
      <trkpt lat="48.61316" lon="7.25743">
        <ele>726.89</ele>
        <time>2013-04-14T08:50:37Z</time>
      </trkpt>
      <trkpt lat="48.61349" lon="7.25757">
        <ele>726.41</ele>
        <time>2013-04-14T08:50:45Z</time>
      </trkpt>
      <trkpt lat="48.61353" lon="7.2576">
        <ele>725.93</ele>
        <time>2013-04-14T08:50:46Z</time>
      </trkpt>
      <trkpt lat="48.61356" lon="7.25764">
        <ele>726.41</ele>
        <time>2013-04-14T08:50:47Z</time>
      </trkpt>
      <trkpt lat="48.61358" lon="7.25768">
        <ele>726.89</ele>
        <time>2013-04-14T08:50:48Z</time>
      </trkpt>
      <trkpt lat="48.61361" lon="7.25772">
        <ele>726.89</ele>
        <time>2013-04-14T08:50:49Z</time>
      </trkpt>
      <trkpt lat="48.61362" lon="7.25776">
        <ele>727.37</ele>
        <time>2013-04-14T08:50:50Z</time>
      </trkpt>
      <trkpt lat="48.61365" lon="7.25778">
        <ele>727.86</ele>
        <time>2013-04-14T08:50:51Z</time>
      </trkpt>
      <trkpt lat="48.61372" lon="7.25783">
        <ele>728.34</ele>
        <time>2013-04-14T08:50:53Z</time>
      </trkpt>
      <trkpt lat="48.61388" lon="7.25808">
        <ele>728.82</ele>
        <time>2013-04-14T08:51:03Z</time>
      </trkpt>
      <trkpt lat="48.61391" lon="7.25808">
        <ele>728.82</ele>
        <time>2013-04-14T08:51:04Z</time>
      </trkpt>
      <trkpt lat="48.61394" lon="7.25808">
        <ele>728.82</ele>
        <time>2013-04-14T08:51:05Z</time>
      </trkpt>
      <trkpt lat="48.61406" lon="7.25811">
        <ele>728.34</ele>
        <time>2013-04-14T08:51:15Z</time>
      </trkpt>
      <trkpt lat="48.61405" lon="7.25809">
        <ele>728.34</ele>
        <time>2013-04-14T08:51:38Z</time>
      </trkpt>
      <trkpt lat="48.61405" lon="7.25811">
        <ele>727.86</ele>
        <time>2013-04-14T08:52:03Z</time>
      </trkpt>
      <trkpt lat="48.61406" lon="7.25812">
        <ele>727.86</ele>
        <time>2013-04-14T08:52:05Z</time>
      </trkpt>
      <trkpt lat="48.61431" lon="7.25812">
        <ele>726.89</ele>
        <time>2013-04-14T08:52:16Z</time>
      </trkpt>
      <trkpt lat="48.61456" lon="7.25808">
        <ele>726.89</ele>
        <time>2013-04-14T08:52:28Z</time>
      </trkpt>
      <trkpt lat="48.61477" lon="7.25794">
        <ele>726.89</ele>
        <time>2013-04-14T08:52:40Z</time>
      </trkpt>
      <trkpt lat="48.61489" lon="7.25785">
        <ele>726.89</ele>
        <time>2013-04-14T08:52:45Z</time>
      </trkpt>
      <trkpt lat="48.61491" lon="7.25783">
        <ele>726.89</ele>
        <time>2013-04-14T08:52:46Z</time>
      </trkpt>
      <trkpt lat="48.61494" lon="7.2578">
        <ele>726.89</ele>
        <time>2013-04-14T08:52:47Z</time>
      </trkpt>
      <trkpt lat="48.61496" lon="7.25777">
        <ele>726.89</ele>
        <time>2013-04-14T08:52:48Z</time>
      </trkpt>
      <trkpt lat="48.61498" lon="7.25775">
        <ele>726.89</ele>
        <time>2013-04-14T08:52:49Z</time>
      </trkpt>
      <trkpt lat="48.615" lon="7.25773">
        <ele>726.89</ele>
        <time>2013-04-14T08:52:50Z</time>
      </trkpt>
      <trkpt lat="48.61503" lon="7.25771">
        <ele>726.89</ele>
        <time>2013-04-14T08:52:51Z</time>
      </trkpt>
      <trkpt lat="48.61505" lon="7.25768">
        <ele>726.89</ele>
        <time>2013-04-14T08:52:52Z</time>
      </trkpt>
      <trkpt lat="48.61544" lon="7.25746">
        <ele>726.89</ele>
        <time>2013-04-14T08:53:04Z</time>
      </trkpt>
      <trkpt lat="48.61571" lon="7.25733">
        <ele>726.41</ele>
        <time>2013-04-14T08:53:11Z</time>
      </trkpt>
      <trkpt lat="48.61588" lon="7.25727">
        <ele>726.41</ele>
        <time>2013-04-14T08:53:15Z</time>
      </trkpt>
      <trkpt lat="48.61593" lon="7.25725">
        <ele>726.41</ele>
        <time>2013-04-14T08:53:16Z</time>
      </trkpt>
      <trkpt lat="48.61598" lon="7.25724">
        <ele>726.41</ele>
        <time>2013-04-14T08:53:17Z</time>
      </trkpt>
      <trkpt lat="48.61629" lon="7.25726">
        <ele>726.41</ele>
        <time>2013-04-14T08:53:24Z</time>
      </trkpt>
      <trkpt lat="48.61634" lon="7.25728">
        <ele>726.41</ele>
        <time>2013-04-14T08:53:25Z</time>
      </trkpt>
      <trkpt lat="48.61646" lon="7.25738">
        <ele>726.89</ele>
        <time>2013-04-14T08:53:28Z</time>
      </trkpt>
      <trkpt lat="48.6165" lon="7.25742">
        <ele>726.41</ele>
        <time>2013-04-14T08:53:29Z</time>
      </trkpt>
      <trkpt lat="48.61676" lon="7.25779">
        <ele>726.41</ele>
        <time>2013-04-14T08:53:36Z</time>
      </trkpt>
      <trkpt lat="48.61679" lon="7.25786">
        <ele>726.41</ele>
        <time>2013-04-14T08:53:37Z</time>
      </trkpt>
      <trkpt lat="48.61695" lon="7.25812">
        <ele>726.41</ele>
        <time>2013-04-14T08:53:41Z</time>
      </trkpt>
      <trkpt lat="48.61699" lon="7.25818">
        <ele>726.41</ele>
        <time>2013-04-14T08:53:42Z</time>
      </trkpt>
      <trkpt lat="48.61703" lon="7.25824">
        <ele>726.41</ele>
        <time>2013-04-14T08:53:43Z</time>
      </trkpt>
      <trkpt lat="48.61706" lon="7.25832">
        <ele>726.41</ele>
        <time>2013-04-14T08:53:44Z</time>
      </trkpt>
      <trkpt lat="48.6171" lon="7.25839">
        <ele>726.41</ele>
        <time>2013-04-14T08:53:45Z</time>
      </trkpt>
      <trkpt lat="48.6172" lon="7.25861">
        <ele>726.41</ele>
        <time>2013-04-14T08:53:48Z</time>
      </trkpt>
      <trkpt lat="48.61726" lon="7.25867">
        <ele>726.41</ele>
        <time>2013-04-14T08:53:49Z</time>
      </trkpt>
      <trkpt lat="48.6173" lon="7.25873">
        <ele>726.41</ele>
        <time>2013-04-14T08:53:50Z</time>
      </trkpt>
      <trkpt lat="48.61734" lon="7.25881">
        <ele>726.41</ele>
        <time>2013-04-14T08:53:51Z</time>
      </trkpt>
      <trkpt lat="48.61737" lon="7.25888">
        <ele>726.41</ele>
        <time>2013-04-14T08:53:52Z</time>
      </trkpt>
      <trkpt lat="48.61761" lon="7.25928">
        <ele>726.41</ele>
        <time>2013-04-14T08:53:58Z</time>
      </trkpt>
      <trkpt lat="48.61766" lon="7.25933">
        <ele>726.41</ele>
        <time>2013-04-14T08:53:59Z</time>
      </trkpt>
      <trkpt lat="48.61776" lon="7.25943">
        <ele>726.41</ele>
        <time>2013-04-14T08:54:01Z</time>
      </trkpt>
      <trkpt lat="48.61781" lon="7.25948">
        <ele>726.41</ele>
        <time>2013-04-14T08:54:02Z</time>
      </trkpt>
      <trkpt lat="48.61786" lon="7.25952">
        <ele>726.41</ele>
        <time>2013-04-14T08:54:03Z</time>
      </trkpt>
      <trkpt lat="48.61806" lon="7.25968">
        <ele>726.41</ele>
        <time>2013-04-14T08:54:07Z</time>
      </trkpt>
      <trkpt lat="48.61843" lon="7.25986">
        <ele>726.41</ele>
        <time>2013-04-14T08:54:14Z</time>
      </trkpt>
      <trkpt lat="48.61916" lon="7.26006">
        <ele>725.45</ele>
        <time>2013-04-14T08:54:26Z</time>
      </trkpt>
      <trkpt lat="48.61941" lon="7.26013">
        <ele>724.49</ele>
        <time>2013-04-14T08:54:30Z</time>
      </trkpt>
      <trkpt lat="48.62007" lon="7.26019">
        <ele>724.01</ele>
        <time>2013-04-14T08:54:40Z</time>
      </trkpt>
      <trkpt lat="48.62044" lon="7.2601">
        <ele>723.53</ele>
        <time>2013-04-14T08:54:46Z</time>
      </trkpt>
      <trkpt lat="48.62051" lon="7.26007">
        <ele>723.53</ele>
        <time>2013-04-14T08:54:47Z</time>
      </trkpt>
      <trkpt lat="48.62113" lon="7.25966">
        <ele>722.09</ele>
        <time>2013-04-14T08:54:57Z</time>
      </trkpt>
      <trkpt lat="48.62136" lon="7.25944">
        <ele>721.61</ele>
        <time>2013-04-14T08:55:01Z</time>
      </trkpt>
      <trkpt lat="48.62152" lon="7.25923">
        <ele>721.13</ele>
        <time>2013-04-14T08:55:04Z</time>
      </trkpt>
      <trkpt lat="48.62161" lon="7.25908">
        <ele>721.13</ele>
        <time>2013-04-14T08:55:06Z</time>
      </trkpt>
      <trkpt lat="48.62165" lon="7.25899">
        <ele>720.65</ele>
        <time>2013-04-14T08:55:07Z</time>
      </trkpt>
      <trkpt lat="48.6217" lon="7.25892">
        <ele>720.65</ele>
        <time>2013-04-14T08:55:08Z</time>
      </trkpt>
      <trkpt lat="48.6219" lon="7.25863">
        <ele>719.68</ele>
        <time>2013-04-14T08:55:12Z</time>
      </trkpt>
      <trkpt lat="48.62212" lon="7.2584">
        <ele>719.68</ele>
        <time>2013-04-14T08:55:16Z</time>
      </trkpt>
      <trkpt lat="48.62223" lon="7.25833">
        <ele>718.72</ele>
        <time>2013-04-14T08:55:18Z</time>
      </trkpt>
      <trkpt lat="48.62228" lon="7.25831">
        <ele>719.2</ele>
        <time>2013-04-14T08:55:19Z</time>
      </trkpt>
      <trkpt lat="48.62241" lon="7.25828">
        <ele>718.72</ele>
        <time>2013-04-14T08:55:21Z</time>
      </trkpt>
      <trkpt lat="48.62272" lon="7.25826">
        <ele>718.24</ele>
        <time>2013-04-14T08:55:26Z</time>
      </trkpt>
      <trkpt lat="48.62279" lon="7.25826">
        <ele>717.76</ele>
        <time>2013-04-14T08:55:27Z</time>
      </trkpt>
      <trkpt lat="48.62285" lon="7.25828">
        <ele>718.24</ele>
        <time>2013-04-14T08:55:28Z</time>
      </trkpt>
      <trkpt lat="48.62291" lon="7.2583">
        <ele>718.24</ele>
        <time>2013-04-14T08:55:29Z</time>
      </trkpt>
      <trkpt lat="48.62297" lon="7.25833">
        <ele>717.76</ele>
        <time>2013-04-14T08:55:30Z</time>
      </trkpt>
      <trkpt lat="48.62303" lon="7.25836">
        <ele>717.76</ele>
        <time>2013-04-14T08:55:31Z</time>
      </trkpt>
      <trkpt lat="48.62309" lon="7.25838">
        <ele>717.76</ele>
        <time>2013-04-14T08:55:32Z</time>
      </trkpt>
      <trkpt lat="48.62316" lon="7.25839">
        <ele>717.76</ele>
        <time>2013-04-14T08:55:33Z</time>
      </trkpt>
      <trkpt lat="48.62322" lon="7.2584">
        <ele>717.28</ele>
        <time>2013-04-14T08:55:34Z</time>
      </trkpt>
      <trkpt lat="48.62328" lon="7.2584">
        <ele>717.76</ele>
        <time>2013-04-14T08:55:35Z</time>
      </trkpt>
      <trkpt lat="48.62335" lon="7.25839">
        <ele>717.28</ele>
        <time>2013-04-14T08:55:36Z</time>
      </trkpt>
      <trkpt lat="48.62342" lon="7.25838">
        <ele>716.8</ele>
        <time>2013-04-14T08:55:37Z</time>
      </trkpt>
      <trkpt lat="48.62349" lon="7.25838">
        <ele>716.8</ele>
        <time>2013-04-14T08:55:38Z</time>
      </trkpt>
      <trkpt lat="48.62357" lon="7.25836">
        <ele>716.8</ele>
        <time>2013-04-14T08:55:39Z</time>
      </trkpt>
      <trkpt lat="48.62364" lon="7.25834">
        <ele>716.32</ele>
        <time>2013-04-14T08:55:40Z</time>
      </trkpt>
      <trkpt lat="48.62436" lon="7.25808">
        <ele>715.84</ele>
        <time>2013-04-14T08:55:50Z</time>
      </trkpt>
      <trkpt lat="48.62441" lon="7.25803">
        <ele>715.84</ele>
        <time>2013-04-14T08:55:51Z</time>
      </trkpt>
      <trkpt lat="48.62447" lon="7.25797">
        <ele>715.84</ele>
        <time>2013-04-14T08:55:52Z</time>
      </trkpt>
      <trkpt lat="48.62452" lon="7.25791">
        <ele>715.84</ele>
        <time>2013-04-14T08:55:53Z</time>
      </trkpt>
      <trkpt lat="48.62458" lon="7.25785">
        <ele>715.36</ele>
        <time>2013-04-14T08:55:54Z</time>
      </trkpt>
      <trkpt lat="48.62469" lon="7.25773">
        <ele>715.36</ele>
        <time>2013-04-14T08:55:56Z</time>
      </trkpt>
      <trkpt lat="48.62484" lon="7.25751">
        <ele>714.88</ele>
        <time>2013-04-14T08:55:59Z</time>
      </trkpt>
      <trkpt lat="48.62488" lon="7.25743">
        <ele>714.88</ele>
        <time>2013-04-14T08:56:00Z</time>
      </trkpt>
      <trkpt lat="48.62492" lon="7.25736">
        <ele>714.88</ele>
        <time>2013-04-14T08:56:01Z</time>
      </trkpt>
      <trkpt lat="48.62505" lon="7.25714">
        <ele>714.4</ele>
        <time>2013-04-14T08:56:04Z</time>
      </trkpt>
      <trkpt lat="48.62538" lon="7.25649">
        <ele>711.51</ele>
        <time>2013-04-14T08:56:11Z</time>
      </trkpt>
      <trkpt lat="48.62542" lon="7.25639">
        <ele>711.03</ele>
        <time>2013-04-14T08:56:12Z</time>
      </trkpt>
      <trkpt lat="48.62547" lon="7.25629">
        <ele>710.55</ele>
        <time>2013-04-14T08:56:13Z</time>
      </trkpt>
      <trkpt lat="48.62573" lon="7.25557">
        <ele>708.15</ele>
        <time>2013-04-14T08:56:20Z</time>
      </trkpt>
      <trkpt lat="48.62576" lon="7.25546">
        <ele>708.15</ele>
        <time>2013-04-14T08:56:21Z</time>
      </trkpt>
      <trkpt lat="48.62579" lon="7.25536">
        <ele>707.67</ele>
        <time>2013-04-14T08:56:22Z</time>
      </trkpt>
      <trkpt lat="48.62584" lon="7.25504">
        <ele>707.67</ele>
        <time>2013-04-14T08:56:25Z</time>
      </trkpt>
      <trkpt lat="48.62584" lon="7.25494">
        <ele>707.67</ele>
        <time>2013-04-14T08:56:26Z</time>
      </trkpt>
      <trkpt lat="48.62586" lon="7.25484">
        <ele>707.67</ele>
        <time>2013-04-14T08:56:27Z</time>
      </trkpt>
      <trkpt lat="48.62586" lon="7.25474">
        <ele>707.67</ele>
        <time>2013-04-14T08:56:28Z</time>
      </trkpt>
      <trkpt lat="48.62587" lon="7.25464">
        <ele>707.67</ele>
        <time>2013-04-14T08:56:29Z</time>
      </trkpt>
      <trkpt lat="48.62587" lon="7.25454">
        <ele>707.67</ele>
        <time>2013-04-14T08:56:30Z</time>
      </trkpt>
      <trkpt lat="48.62589" lon="7.25443">
        <ele>707.19</ele>
        <time>2013-04-14T08:56:31Z</time>
      </trkpt>
      <trkpt lat="48.6259" lon="7.25434">
        <ele>707.19</ele>
        <time>2013-04-14T08:56:32Z</time>
      </trkpt>
      <trkpt lat="48.62593" lon="7.25425">
        <ele>706.71</ele>
        <time>2013-04-14T08:56:33Z</time>
      </trkpt>
      <trkpt lat="48.626" lon="7.25409">
        <ele>706.71</ele>
        <time>2013-04-14T08:56:35Z</time>
      </trkpt>
      <trkpt lat="48.62604" lon="7.25403">
        <ele>706.71</ele>
        <time>2013-04-14T08:56:36Z</time>
      </trkpt>
      <trkpt lat="48.62609" lon="7.25398">
        <ele>706.23</ele>
        <time>2013-04-14T08:56:37Z</time>
      </trkpt>
      <trkpt lat="48.62615" lon="7.25395">
        <ele>706.23</ele>
        <time>2013-04-14T08:56:38Z</time>
      </trkpt>
      <trkpt lat="48.62621" lon="7.25392">
        <ele>706.23</ele>
        <time>2013-04-14T08:56:39Z</time>
      </trkpt>
      <trkpt lat="48.62627" lon="7.2539">
        <ele>706.23</ele>
        <time>2013-04-14T08:56:40Z</time>
      </trkpt>
      <trkpt lat="48.62634" lon="7.2539">
        <ele>705.75</ele>
        <time>2013-04-14T08:56:41Z</time>
      </trkpt>
      <trkpt lat="48.6264" lon="7.2539">
        <ele>705.26</ele>
        <time>2013-04-14T08:56:42Z</time>
      </trkpt>
      <trkpt lat="48.62696" lon="7.25407">
        <ele>704.3</ele>
        <time>2013-04-14T08:56:50Z</time>
      </trkpt>
      <trkpt lat="48.62702" lon="7.2541">
        <ele>703.82</ele>
        <time>2013-04-14T08:56:51Z</time>
      </trkpt>
      <trkpt lat="48.62738" lon="7.25425">
        <ele>702.86</ele>
        <time>2013-04-14T08:56:56Z</time>
      </trkpt>
      <trkpt lat="48.62812" lon="7.25449">
        <ele>700.94</ele>
        <time>2013-04-14T08:57:06Z</time>
      </trkpt>
      <trkpt lat="48.62842" lon="7.25458">
        <ele>699.5</ele>
        <time>2013-04-14T08:57:10Z</time>
      </trkpt>
      <trkpt lat="48.62849" lon="7.25457">
        <ele>699.5</ele>
        <time>2013-04-14T08:57:11Z</time>
      </trkpt>
      <trkpt lat="48.62857" lon="7.25456">
        <ele>699.5</ele>
        <time>2013-04-14T08:57:12Z</time>
      </trkpt>
      <trkpt lat="48.62865" lon="7.25454">
        <ele>699.5</ele>
        <time>2013-04-14T08:57:13Z</time>
      </trkpt>
      <trkpt lat="48.62872" lon="7.25451">
        <ele>699.5</ele>
        <time>2013-04-14T08:57:14Z</time>
      </trkpt>
      <trkpt lat="48.62879" lon="7.25447">
        <ele>699.5</ele>
        <time>2013-04-14T08:57:15Z</time>
      </trkpt>
      <trkpt lat="48.62894" lon="7.25443">
        <ele>699.5</ele>
        <time>2013-04-14T08:57:17Z</time>
      </trkpt>
      <trkpt lat="48.62901" lon="7.25444">
        <ele>699.02</ele>
        <time>2013-04-14T08:57:18Z</time>
      </trkpt>
      <trkpt lat="48.62909" lon="7.25447">
        <ele>699.02</ele>
        <time>2013-04-14T08:57:19Z</time>
      </trkpt>
      <trkpt lat="48.62915" lon="7.25453">
        <ele>698.53</ele>
        <time>2013-04-14T08:57:20Z</time>
      </trkpt>
      <trkpt lat="48.62921" lon="7.25462">
        <ele>698.05</ele>
        <time>2013-04-14T08:57:21Z</time>
      </trkpt>
      <trkpt lat="48.62924" lon="7.25473">
        <ele>697.57</ele>
        <time>2013-04-14T08:57:22Z</time>
      </trkpt>
      <trkpt lat="48.62927" lon="7.25484">
        <ele>697.57</ele>
        <time>2013-04-14T08:57:23Z</time>
      </trkpt>
      <trkpt lat="48.62929" lon="7.25496">
        <ele>697.09</ele>
        <time>2013-04-14T08:57:24Z</time>
      </trkpt>
      <trkpt lat="48.6293" lon="7.25508">
        <ele>696.61</ele>
        <time>2013-04-14T08:57:25Z</time>
      </trkpt>
      <trkpt lat="48.6293" lon="7.25521">
        <ele>696.61</ele>
        <time>2013-04-14T08:57:26Z</time>
      </trkpt>
      <trkpt lat="48.62931" lon="7.25533">
        <ele>696.61</ele>
        <time>2013-04-14T08:57:27Z</time>
      </trkpt>
      <trkpt lat="48.62927" lon="7.25667">
        <ele>693.73</ele>
        <time>2013-04-14T08:57:38Z</time>
      </trkpt>
      <trkpt lat="48.62937" lon="7.25736">
        <ele>692.77</ele>
        <time>2013-04-14T08:57:44Z</time>
      </trkpt>
      <trkpt lat="48.62953" lon="7.25815">
        <ele>691.33</ele>
        <time>2013-04-14T08:57:51Z</time>
      </trkpt>
      <trkpt lat="48.62987" lon="7.25917">
        <ele>688.92</ele>
        <time>2013-04-14T08:58:00Z</time>
      </trkpt>
      <trkpt lat="48.6299" lon="7.25927">
        <ele>688.92</ele>
        <time>2013-04-14T08:58:01Z</time>
      </trkpt>
      <trkpt lat="48.63024" lon="7.26003">
        <ele>687.96</ele>
        <time>2013-04-14T08:58:09Z</time>
      </trkpt>
      <trkpt lat="48.63029" lon="7.2601">
        <ele>687.96</ele>
        <time>2013-04-14T08:58:10Z</time>
      </trkpt>
      <trkpt lat="48.63034" lon="7.26016">
        <ele>687.48</ele>
        <time>2013-04-14T08:58:11Z</time>
      </trkpt>
      <trkpt lat="48.6304" lon="7.26022">
        <ele>687.48</ele>
        <time>2013-04-14T08:58:12Z</time>
      </trkpt>
      <trkpt lat="48.63046" lon="7.26026">
        <ele>687</ele>
        <time>2013-04-14T08:58:13Z</time>
      </trkpt>
      <trkpt lat="48.63052" lon="7.26031">
        <ele>686.52</ele>
        <time>2013-04-14T08:58:14Z</time>
      </trkpt>
      <trkpt lat="48.63058" lon="7.26037">
        <ele>686.04</ele>
        <time>2013-04-14T08:58:15Z</time>
      </trkpt>
      <trkpt lat="48.63063" lon="7.26043">
        <ele>686.04</ele>
        <time>2013-04-14T08:58:16Z</time>
      </trkpt>
      <trkpt lat="48.63077" lon="7.26064">
        <ele>686.04</ele>
        <time>2013-04-14T08:58:19Z</time>
      </trkpt>
      <trkpt lat="48.63081" lon="7.26072">
        <ele>686.04</ele>
        <time>2013-04-14T08:58:20Z</time>
      </trkpt>
      <trkpt lat="48.63089" lon="7.26087">
        <ele>685.56</ele>
        <time>2013-04-14T08:58:22Z</time>
      </trkpt>
      <trkpt lat="48.63115" lon="7.26128">
        <ele>684.12</ele>
        <time>2013-04-14T08:58:28Z</time>
      </trkpt>
      <trkpt lat="48.63118" lon="7.26131">
        <ele>684.12</ele>
        <time>2013-04-14T08:58:29Z</time>
      </trkpt>
      <trkpt lat="48.63122" lon="7.26131">
        <ele>684.6</ele>
        <time>2013-04-14T08:58:39Z</time>
      </trkpt>
      <trkpt lat="48.63121" lon="7.26133">
        <ele>684.6</ele>
        <time>2013-04-14T08:58:44Z</time>
      </trkpt>
      <trkpt lat="48.63122" lon="7.26135">
        <ele>684.6</ele>
        <time>2013-04-14T08:58:45Z</time>
      </trkpt>
      <trkpt lat="48.63124" lon="7.26137">
        <ele>684.6</ele>
        <time>2013-04-14T08:58:46Z</time>
      </trkpt>
      <trkpt lat="48.63125" lon="7.2614">
        <ele>684.6</ele>
        <time>2013-04-14T08:58:47Z</time>
      </trkpt>
      <trkpt lat="48.63127" lon="7.26142">
        <ele>684.6</ele>
        <time>2013-04-14T08:58:48Z</time>
      </trkpt>
      <trkpt lat="48.6313" lon="7.26149">
        <ele>684.12</ele>
        <time>2013-04-14T08:58:50Z</time>
      </trkpt>
      <trkpt lat="48.63133" lon="7.26153">
        <ele>684.12</ele>
        <time>2013-04-14T08:58:51Z</time>
      </trkpt>
      <trkpt lat="48.63137" lon="7.26156">
        <ele>684.12</ele>
        <time>2013-04-14T08:58:52Z</time>
      </trkpt>
      <trkpt lat="48.63141" lon="7.26159">
        <ele>683.63</ele>
        <time>2013-04-14T08:58:53Z</time>
      </trkpt>
      <trkpt lat="48.63145" lon="7.26162">
        <ele>683.63</ele>
        <time>2013-04-14T08:58:54Z</time>
      </trkpt>
      <trkpt lat="48.63149" lon="7.26164">
        <ele>683.63</ele>
        <time>2013-04-14T08:58:55Z</time>
      </trkpt>
      <trkpt lat="48.63165" lon="7.26175">
        <ele>684.12</ele>
        <time>2013-04-14T08:58:59Z</time>
      </trkpt>
      <trkpt lat="48.63169" lon="7.26178">
        <ele>684.12</ele>
        <time>2013-04-14T08:59:00Z</time>
      </trkpt>
      <trkpt lat="48.63172" lon="7.26182">
        <ele>684.12</ele>
        <time>2013-04-14T08:59:01Z</time>
      </trkpt>
      <trkpt lat="48.63182" lon="7.26194">
        <ele>684.6</ele>
        <time>2013-04-14T08:59:04Z</time>
      </trkpt>
      <trkpt lat="48.63184" lon="7.262">
        <ele>685.08</ele>
        <time>2013-04-14T08:59:05Z</time>
      </trkpt>
      <trkpt lat="48.63193" lon="7.26222">
        <ele>685.56</ele>
        <time>2013-04-14T08:59:09Z</time>
      </trkpt>
      <trkpt lat="48.63195" lon="7.26228">
        <ele>685.56</ele>
        <time>2013-04-14T08:59:10Z</time>
      </trkpt>
      <trkpt lat="48.63208" lon="7.26265">
        <ele>686.52</ele>
        <time>2013-04-14T08:59:17Z</time>
      </trkpt>
      <trkpt lat="48.6321" lon="7.26271">
        <ele>687</ele>
        <time>2013-04-14T08:59:18Z</time>
      </trkpt>
      <trkpt lat="48.63239" lon="7.26349">
        <ele>688.44</ele>
        <time>2013-04-14T08:59:31Z</time>
      </trkpt>
      <trkpt lat="48.63245" lon="7.26365">
        <ele>688.92</ele>
        <time>2013-04-14T08:59:34Z</time>
      </trkpt>
      <trkpt lat="48.63247" lon="7.26371">
        <ele>688.92</ele>
        <time>2013-04-14T08:59:35Z</time>
      </trkpt>
      <trkpt lat="48.6325" lon="7.26383">
        <ele>689.4</ele>
        <time>2013-04-14T08:59:37Z</time>
      </trkpt>
      <trkpt lat="48.63251" lon="7.26389">
        <ele>689.4</ele>
        <time>2013-04-14T08:59:38Z</time>
      </trkpt>
      <trkpt lat="48.63272" lon="7.26437">
        <ele>691.33</ele>
        <time>2013-04-14T08:59:48Z</time>
      </trkpt>
      <trkpt lat="48.63274" lon="7.26441">
        <ele>691.81</ele>
        <time>2013-04-14T08:59:49Z</time>
      </trkpt>
      <trkpt lat="48.63276" lon="7.26445">
        <ele>691.81</ele>
        <time>2013-04-14T08:59:50Z</time>
      </trkpt>
      <trkpt lat="48.63278" lon="7.2645">
        <ele>691.81</ele>
        <time>2013-04-14T08:59:51Z</time>
      </trkpt>
      <trkpt lat="48.6328" lon="7.26455">
        <ele>692.29</ele>
        <time>2013-04-14T08:59:52Z</time>
      </trkpt>
      <trkpt lat="48.63282" lon="7.26459">
        <ele>692.29</ele>
        <time>2013-04-14T08:59:53Z</time>
      </trkpt>
      <trkpt lat="48.63284" lon="7.26465">
        <ele>692.29</ele>
        <time>2013-04-14T08:59:54Z</time>
      </trkpt>
      <trkpt lat="48.63302" lon="7.26529">
        <ele>693.73</ele>
        <time>2013-04-14T09:00:06Z</time>
      </trkpt>
      <trkpt lat="48.63307" lon="7.26545">
        <ele>693.73</ele>
        <time>2013-04-14T09:00:09Z</time>
      </trkpt>
      <trkpt lat="48.63308" lon="7.26551">
        <ele>693.73</ele>
        <time>2013-04-14T09:00:10Z</time>
      </trkpt>
      <trkpt lat="48.63308" lon="7.26558">
        <ele>694.21</ele>
        <time>2013-04-14T09:00:11Z</time>
      </trkpt>
      <trkpt lat="48.63309" lon="7.26564">
        <ele>694.21</ele>
        <time>2013-04-14T09:00:12Z</time>
      </trkpt>
      <trkpt lat="48.63309" lon="7.26571">
        <ele>694.21</ele>
        <time>2013-04-14T09:00:13Z</time>
      </trkpt>
      <trkpt lat="48.6331" lon="7.26578">
        <ele>693.73</ele>
        <time>2013-04-14T09:00:14Z</time>
      </trkpt>
      <trkpt lat="48.63311" lon="7.26584">
        <ele>694.21</ele>
        <time>2013-04-14T09:00:15Z</time>
      </trkpt>
      <trkpt lat="48.63313" lon="7.26599">
        <ele>693.73</ele>
        <time>2013-04-14T09:00:17Z</time>
      </trkpt>
      <trkpt lat="48.63316" lon="7.26613">
        <ele>693.73</ele>
        <time>2013-04-14T09:00:19Z</time>
      </trkpt>
      <trkpt lat="48.63317" lon="7.26628">
        <ele>692.77</ele>
        <time>2013-04-14T09:00:21Z</time>
      </trkpt>
      <trkpt lat="48.63318" lon="7.26636">
        <ele>692.77</ele>
        <time>2013-04-14T09:00:22Z</time>
      </trkpt>
      <trkpt lat="48.63319" lon="7.26644">
        <ele>692.77</ele>
        <time>2013-04-14T09:00:23Z</time>
      </trkpt>
      <trkpt lat="48.6332" lon="7.26661">
        <ele>692.29</ele>
        <time>2013-04-14T09:00:25Z</time>
      </trkpt>
      <trkpt lat="48.63329" lon="7.26707">
        <ele>691.81</ele>
        <time>2013-04-14T09:00:31Z</time>
      </trkpt>
      <trkpt lat="48.6333" lon="7.26714">
        <ele>691.33</ele>
        <time>2013-04-14T09:00:32Z</time>
      </trkpt>
      <trkpt lat="48.63332" lon="7.26722">
        <ele>691.33</ele>
        <time>2013-04-14T09:00:33Z</time>
      </trkpt>
      <trkpt lat="48.63333" lon="7.26731">
        <ele>691.33</ele>
        <time>2013-04-14T09:00:34Z</time>
      </trkpt>
      <trkpt lat="48.63335" lon="7.26739">
        <ele>690.84</ele>
        <time>2013-04-14T09:00:35Z</time>
      </trkpt>
      <trkpt lat="48.63336" lon="7.26747">
        <ele>690.84</ele>
        <time>2013-04-14T09:00:36Z</time>
      </trkpt>
      <trkpt lat="48.63337" lon="7.26755">
        <ele>690.84</ele>
        <time>2013-04-14T09:00:37Z</time>
      </trkpt>
      <trkpt lat="48.63338" lon="7.26764">
        <ele>690.36</ele>
        <time>2013-04-14T09:00:38Z</time>
      </trkpt>
      <trkpt lat="48.63357" lon="7.26833">
        <ele>690.84</ele>
        <time>2013-04-14T09:00:47Z</time>
      </trkpt>
      <trkpt lat="48.63362" lon="7.26844">
        <ele>691.81</ele>
        <time>2013-04-14T09:00:49Z</time>
      </trkpt>
      <trkpt lat="48.63367" lon="7.26861">
        <ele>692.77</ele>
        <time>2013-04-14T09:00:52Z</time>
      </trkpt>
      <trkpt lat="48.63368" lon="7.26873">
        <ele>693.25</ele>
        <time>2013-04-14T09:00:54Z</time>
      </trkpt>
      <trkpt lat="48.63369" lon="7.2688">
        <ele>693.25</ele>
        <time>2013-04-14T09:00:55Z</time>
      </trkpt>
      <trkpt lat="48.6337" lon="7.26908">
        <ele>693.73</ele>
        <time>2013-04-14T09:00:59Z</time>
      </trkpt>
      <trkpt lat="48.63371" lon="7.26927">
        <ele>694.21</ele>
        <time>2013-04-14T09:01:02Z</time>
      </trkpt>
      <trkpt lat="48.63374" lon="7.26976">
        <ele>696.61</ele>
        <time>2013-04-14T09:01:10Z</time>
      </trkpt>
      <trkpt lat="48.63379" lon="7.27007">
        <ele>698.05</ele>
        <time>2013-04-14T09:01:15Z</time>
      </trkpt>
      <trkpt lat="48.63386" lon="7.27086">
        <ele>699.98</ele>
        <time>2013-04-14T09:01:25Z</time>
      </trkpt>
      <trkpt lat="48.63391" lon="7.27141">
        <ele>702.38</ele>
        <time>2013-04-14T09:01:34Z</time>
      </trkpt>
      <trkpt lat="48.63397" lon="7.27202">
        <ele>704.3</ele>
        <time>2013-04-14T09:01:44Z</time>
      </trkpt>
      <trkpt lat="48.63408" lon="7.27241">
        <ele>706.71</ele>
        <time>2013-04-14T09:01:53Z</time>
      </trkpt>
      <trkpt lat="48.63408" lon="7.27264">
        <ele>708.15</ele>
        <time>2013-04-14T09:01:58Z</time>
      </trkpt>
      <trkpt lat="48.63413" lon="7.27316">
        <ele>709.11</ele>
        <time>2013-04-14T09:02:07Z</time>
      </trkpt>
      <trkpt lat="48.6342" lon="7.27356">
        <ele>709.11</ele>
        <time>2013-04-14T09:02:13Z</time>
      </trkpt>
      <trkpt lat="48.63427" lon="7.2741">
        <ele>710.55</ele>
        <time>2013-04-14T09:02:21Z</time>
      </trkpt>
      <trkpt lat="48.63428" lon="7.27417">
        <ele>711.03</ele>
        <time>2013-04-14T09:02:22Z</time>
      </trkpt>
      <trkpt lat="48.63428" lon="7.27425">
        <ele>711.03</ele>
        <time>2013-04-14T09:02:23Z</time>
      </trkpt>
      <trkpt lat="48.63429" lon="7.27432">
        <ele>711.03</ele>
        <time>2013-04-14T09:02:24Z</time>
      </trkpt>
      <trkpt lat="48.63431" lon="7.27437">
        <ele>711.51</ele>
        <time>2013-04-14T09:02:25Z</time>
      </trkpt>
      <trkpt lat="48.63433" lon="7.27442">
        <ele>711.51</ele>
        <time>2013-04-14T09:02:26Z</time>
      </trkpt>
      <trkpt lat="48.63444" lon="7.27486">
        <ele>712.95</ele>
        <time>2013-04-14T09:02:32Z</time>
      </trkpt>
      <trkpt lat="48.63445" lon="7.27493">
        <ele>713.44</ele>
        <time>2013-04-14T09:02:33Z</time>
      </trkpt>
      <trkpt lat="48.63447" lon="7.27499">
        <ele>713.44</ele>
        <time>2013-04-14T09:02:34Z</time>
      </trkpt>
      <trkpt lat="48.63465" lon="7.27542">
        <ele>715.84</ele>
        <time>2013-04-14T09:02:43Z</time>
      </trkpt>
      <trkpt lat="48.6348" lon="7.27565">
        <ele>716.8</ele>
        <time>2013-04-14T09:02:48Z</time>
      </trkpt>
      <trkpt lat="48.63503" lon="7.27597">
        <ele>719.2</ele>
        <time>2013-04-14T09:02:57Z</time>
      </trkpt>
      <trkpt lat="48.6353" lon="7.27629">
        <ele>720.65</ele>
        <time>2013-04-14T09:03:07Z</time>
      </trkpt>
      <trkpt lat="48.63552" lon="7.2766">
        <ele>723.05</ele>
        <time>2013-04-14T09:03:18Z</time>
      </trkpt>
      <trkpt lat="48.63558" lon="7.27678">
        <ele>723.53</ele>
        <time>2013-04-14T09:03:22Z</time>
      </trkpt>
      <trkpt lat="48.63559" lon="7.27685">
        <ele>724.01</ele>
        <time>2013-04-14T09:03:24Z</time>
      </trkpt>
      <trkpt lat="48.6357" lon="7.27708">
        <ele>724.49</ele>
        <time>2013-04-14T09:03:30Z</time>
      </trkpt>
      <trkpt lat="48.63576" lon="7.27724">
        <ele>724.97</ele>
        <time>2013-04-14T09:03:36Z</time>
      </trkpt>
      <trkpt lat="48.63605" lon="7.27742">
        <ele>725.93</ele>
        <time>2013-04-14T09:03:44Z</time>
      </trkpt>
      <trkpt lat="48.63612" lon="7.27745">
        <ele>725.45</ele>
        <time>2013-04-14T09:03:45Z</time>
      </trkpt>
      <trkpt lat="48.63617" lon="7.27748">
        <ele>725.45</ele>
        <time>2013-04-14T09:03:46Z</time>
      </trkpt>
      <trkpt lat="48.63657" lon="7.27751">
        <ele>725.45</ele>
        <time>2013-04-14T09:03:57Z</time>
      </trkpt>
      <trkpt lat="48.63657" lon="7.27752">
        <ele>725.93</ele>
        <time>2013-04-14T09:04:26Z</time>
      </trkpt>
      <trkpt lat="48.63656" lon="7.27753">
        <ele>725.93</ele>
        <time>2013-04-14T09:04:50Z</time>
      </trkpt>
      <trkpt lat="48.63656" lon="7.27754">
        <ele>725.93</ele>
        <time>2013-04-14T09:05:15Z</time>
      </trkpt>
      <trkpt lat="48.63654" lon="7.27753">
        <ele>725.93</ele>
        <time>2013-04-14T09:05:50Z</time>
      </trkpt>
      <trkpt lat="48.63654" lon="7.27753">
        <ele>725.93</ele>
        <time>2013-04-14T09:06:22Z</time>
      </trkpt>
      <trkpt lat="48.63654" lon="7.27752">
        <ele>725.93</ele>
        <time>2013-04-14T09:06:50Z</time>
      </trkpt>
      <trkpt lat="48.63654" lon="7.27749">
        <ele>725.93</ele>
        <time>2013-04-14T09:07:17Z</time>
      </trkpt>
      <trkpt lat="48.63655" lon="7.27752">
        <ele>725.93</ele>
        <time>2013-04-14T09:07:18Z</time>
      </trkpt>
      <trkpt lat="48.63655" lon="7.27755">
        <ele>725.45</ele>
        <time>2013-04-14T09:07:19Z</time>
      </trkpt>
      <trkpt lat="48.63656" lon="7.27757">
        <ele>725.45</ele>
        <time>2013-04-14T09:07:20Z</time>
      </trkpt>
      <trkpt lat="48.63657" lon="7.2776">
        <ele>725.45</ele>
        <time>2013-04-14T09:07:21Z</time>
      </trkpt>
      <trkpt lat="48.63659" lon="7.27764">
        <ele>725.93</ele>
        <time>2013-04-14T09:07:22Z</time>
      </trkpt>
      <trkpt lat="48.63659" lon="7.27767">
        <ele>725.93</ele>
        <time>2013-04-14T09:07:23Z</time>
      </trkpt>
      <trkpt lat="48.6366" lon="7.27769">
        <ele>725.93</ele>
        <time>2013-04-14T09:07:24Z</time>
      </trkpt>
      <trkpt lat="48.6366" lon="7.27773">
        <ele>725.93</ele>
        <time>2013-04-14T09:07:25Z</time>
      </trkpt>
      <trkpt lat="48.63661" lon="7.27777">
        <ele>725.93</ele>
        <time>2013-04-14T09:07:26Z</time>
      </trkpt>
      <trkpt lat="48.63662" lon="7.27781">
        <ele>725.45</ele>
        <time>2013-04-14T09:07:27Z</time>
      </trkpt>
      <trkpt lat="48.63663" lon="7.27785">
        <ele>725.45</ele>
        <time>2013-04-14T09:07:28Z</time>
      </trkpt>
      <trkpt lat="48.63664" lon="7.27788">
        <ele>725.45</ele>
        <time>2013-04-14T09:07:29Z</time>
      </trkpt>
      <trkpt lat="48.63665" lon="7.27791">
        <ele>725.45</ele>
        <time>2013-04-14T09:07:30Z</time>
      </trkpt>
      <trkpt lat="48.63666" lon="7.27794">
        <ele>725.45</ele>
        <time>2013-04-14T09:07:31Z</time>
      </trkpt>
      <trkpt lat="48.63666" lon="7.27797">
        <ele>725.45</ele>
        <time>2013-04-14T09:07:32Z</time>
      </trkpt>
      <trkpt lat="48.63677" lon="7.27824">
        <ele>724.49</ele>
        <time>2013-04-14T09:07:39Z</time>
      </trkpt>
      <trkpt lat="48.6368" lon="7.27824">
        <ele>724.49</ele>
        <time>2013-04-14T09:07:40Z</time>
      </trkpt>
      <trkpt lat="48.63682" lon="7.27825">
        <ele>724.01</ele>
        <time>2013-04-14T09:07:41Z</time>
      </trkpt>
      <trkpt lat="48.63691" lon="7.27833">
        <ele>723.05</ele>
        <time>2013-04-14T09:07:45Z</time>
      </trkpt>
      <trkpt lat="48.63694" lon="7.27833">
        <ele>722.57</ele>
        <time>2013-04-14T09:07:46Z</time>
      </trkpt>
      <trkpt lat="48.63697" lon="7.27834">
        <ele>722.57</ele>
        <time>2013-04-14T09:07:47Z</time>
      </trkpt>
      <trkpt lat="48.637" lon="7.27835">
        <ele>722.09</ele>
        <time>2013-04-14T09:07:48Z</time>
      </trkpt>
      <trkpt lat="48.63705" lon="7.27843">
        <ele>722.09</ele>
        <time>2013-04-14T09:07:51Z</time>
      </trkpt>
      <trkpt lat="48.63707" lon="7.27846">
        <ele>722.09</ele>
        <time>2013-04-14T09:07:52Z</time>
      </trkpt>
      <trkpt lat="48.63709" lon="7.2785">
        <ele>722.09</ele>
        <time>2013-04-14T09:07:53Z</time>
      </trkpt>
      <trkpt lat="48.63711" lon="7.27853">
        <ele>722.09</ele>
        <time>2013-04-14T09:07:54Z</time>
      </trkpt>
      <trkpt lat="48.63714" lon="7.27855">
        <ele>722.09</ele>
        <time>2013-04-14T09:07:55Z</time>
      </trkpt>
      <trkpt lat="48.63717" lon="7.27858">
        <ele>721.61</ele>
        <time>2013-04-14T09:07:56Z</time>
      </trkpt>
      <trkpt lat="48.63719" lon="7.2786">
        <ele>721.61</ele>
        <time>2013-04-14T09:07:57Z</time>
      </trkpt>
      <trkpt lat="48.63735" lon="7.2789">
        <ele>722.09</ele>
        <time>2013-04-14T09:08:05Z</time>
      </trkpt>
      <trkpt lat="48.63738" lon="7.27901">
        <ele>722.57</ele>
        <time>2013-04-14T09:08:10Z</time>
      </trkpt>
      <trkpt lat="48.63738" lon="7.27903">
        <ele>722.57</ele>
        <time>2013-04-14T09:08:11Z</time>
      </trkpt>
      <trkpt lat="48.63737" lon="7.27912">
        <ele>723.05</ele>
        <time>2013-04-14T09:08:15Z</time>
      </trkpt>
      <trkpt lat="48.63737" lon="7.27915">
        <ele>723.53</ele>
        <time>2013-04-14T09:08:16Z</time>
      </trkpt>
      <trkpt lat="48.63738" lon="7.27918">
        <ele>723.53</ele>
        <time>2013-04-14T09:08:17Z</time>
      </trkpt>
      <trkpt lat="48.63739" lon="7.27921">
        <ele>723.53</ele>
        <time>2013-04-14T09:08:18Z</time>
      </trkpt>
      <trkpt lat="48.63739" lon="7.27924">
        <ele>724.01</ele>
        <time>2013-04-14T09:08:19Z</time>
      </trkpt>
      <trkpt lat="48.63739" lon="7.27927">
        <ele>724.01</ele>
        <time>2013-04-14T09:08:20Z</time>
      </trkpt>
      <trkpt lat="48.63739" lon="7.2793">
        <ele>724.49</ele>
        <time>2013-04-14T09:08:21Z</time>
      </trkpt>
      <trkpt lat="48.63739" lon="7.27933">
        <ele>724.49</ele>
        <time>2013-04-14T09:08:22Z</time>
      </trkpt>
      <trkpt lat="48.6374" lon="7.27937">
        <ele>724.01</ele>
        <time>2013-04-14T09:08:23Z</time>
      </trkpt>
      <trkpt lat="48.63741" lon="7.2794">
        <ele>724.49</ele>
        <time>2013-04-14T09:08:24Z</time>
      </trkpt>
      <trkpt lat="48.63742" lon="7.27943">
        <ele>724.49</ele>
        <time>2013-04-14T09:08:25Z</time>
      </trkpt>
      <trkpt lat="48.63743" lon="7.27946">
        <ele>724.49</ele>
        <time>2013-04-14T09:08:26Z</time>
      </trkpt>
      <trkpt lat="48.63744" lon="7.2795">
        <ele>724.49</ele>
        <time>2013-04-14T09:08:27Z</time>
      </trkpt>
      <trkpt lat="48.63753" lon="7.27979">
        <ele>725.93</ele>
        <time>2013-04-14T09:08:34Z</time>
      </trkpt>
      <trkpt lat="48.63754" lon="7.27983">
        <ele>726.41</ele>
        <time>2013-04-14T09:08:35Z</time>
      </trkpt>
      <trkpt lat="48.63754" lon="7.2799">
        <ele>726.41</ele>
        <time>2013-04-14T09:08:36Z</time>
      </trkpt>
      <trkpt lat="48.63755" lon="7.27996">
        <ele>726.41</ele>
        <time>2013-04-14T09:08:37Z</time>
      </trkpt>
      <trkpt lat="48.63756" lon="7.28">
        <ele>726.41</ele>
        <time>2013-04-14T09:08:38Z</time>
      </trkpt>
      <trkpt lat="48.63756" lon="7.28005">
        <ele>726.41</ele>
        <time>2013-04-14T09:08:39Z</time>
      </trkpt>
      <trkpt lat="48.63757" lon="7.28008">
        <ele>726.41</ele>
        <time>2013-04-14T09:08:40Z</time>
      </trkpt>
      <trkpt lat="48.63758" lon="7.28011">
        <ele>726.41</ele>
        <time>2013-04-14T09:08:41Z</time>
      </trkpt>
      <trkpt lat="48.63759" lon="7.28016">
        <ele>726.41</ele>
        <time>2013-04-14T09:08:42Z</time>
      </trkpt>
      <trkpt lat="48.6376" lon="7.2802">
        <ele>726.41</ele>
        <time>2013-04-14T09:08:43Z</time>
      </trkpt>
      <trkpt lat="48.63761" lon="7.28022">
        <ele>725.93</ele>
        <time>2013-04-14T09:08:44Z</time>
      </trkpt>
      <trkpt lat="48.63762" lon="7.28026">
        <ele>725.93</ele>
        <time>2013-04-14T09:08:45Z</time>
      </trkpt>
      <trkpt lat="48.63763" lon="7.2803">
        <ele>725.45</ele>
        <time>2013-04-14T09:08:46Z</time>
      </trkpt>
      <trkpt lat="48.63763" lon="7.28037">
        <ele>724.49</ele>
        <time>2013-04-14T09:08:48Z</time>
      </trkpt>
      <trkpt lat="48.63762" lon="7.2804">
        <ele>724.01</ele>
        <time>2013-04-14T09:08:49Z</time>
      </trkpt>
      <trkpt lat="48.63762" lon="7.28043">
        <ele>723.05</ele>
        <time>2013-04-14T09:08:50Z</time>
      </trkpt>
      <trkpt lat="48.63763" lon="7.28046">
        <ele>723.05</ele>
        <time>2013-04-14T09:08:51Z</time>
      </trkpt>
      <trkpt lat="48.63764" lon="7.28051">
        <ele>723.05</ele>
        <time>2013-04-14T09:08:52Z</time>
      </trkpt>
      <trkpt lat="48.63765" lon="7.28055">
        <ele>723.05</ele>
        <time>2013-04-14T09:08:53Z</time>
      </trkpt>
      <trkpt lat="48.63766" lon="7.28058">
        <ele>723.05</ele>
        <time>2013-04-14T09:08:54Z</time>
      </trkpt>
      <trkpt lat="48.63768" lon="7.28062">
        <ele>722.57</ele>
        <time>2013-04-14T09:08:55Z</time>
      </trkpt>
      <trkpt lat="48.63769" lon="7.28066">
        <ele>722.57</ele>
        <time>2013-04-14T09:08:56Z</time>
      </trkpt>
      <trkpt lat="48.63771" lon="7.28069">
        <ele>722.57</ele>
        <time>2013-04-14T09:08:57Z</time>
      </trkpt>
      <trkpt lat="48.63772" lon="7.28072">
        <ele>722.57</ele>
        <time>2013-04-14T09:08:58Z</time>
      </trkpt>
      <trkpt lat="48.63786" lon="7.28111">
        <ele>722.57</ele>
        <time>2013-04-14T09:09:09Z</time>
      </trkpt>
      <trkpt lat="48.63787" lon="7.28115">
        <ele>722.09</ele>
        <time>2013-04-14T09:09:10Z</time>
      </trkpt>
      <trkpt lat="48.63789" lon="7.28118">
        <ele>721.61</ele>
        <time>2013-04-14T09:09:11Z</time>
      </trkpt>
      <trkpt lat="48.63799" lon="7.28142">
        <ele>721.61</ele>
        <time>2013-04-14T09:09:20Z</time>
      </trkpt>
      <trkpt lat="48.638" lon="7.28145">
        <ele>721.61</ele>
        <time>2013-04-14T09:09:21Z</time>
      </trkpt>
      <trkpt lat="48.63801" lon="7.28148">
        <ele>721.61</ele>
        <time>2013-04-14T09:09:22Z</time>
      </trkpt>
      <trkpt lat="48.63802" lon="7.28151">
        <ele>721.61</ele>
        <time>2013-04-14T09:09:23Z</time>
      </trkpt>
      <trkpt lat="48.63804" lon="7.28155">
        <ele>721.61</ele>
        <time>2013-04-14T09:09:24Z</time>
      </trkpt>
      <trkpt lat="48.63805" lon="7.28159">
        <ele>721.13</ele>
        <time>2013-04-14T09:09:25Z</time>
      </trkpt>
      <trkpt lat="48.63806" lon="7.28162">
        <ele>721.13</ele>
        <time>2013-04-14T09:09:26Z</time>
      </trkpt>
      <trkpt lat="48.63806" lon="7.28166">
        <ele>721.61</ele>
        <time>2013-04-14T09:09:27Z</time>
      </trkpt>
      <trkpt lat="48.63807" lon="7.28169">
        <ele>721.61</ele>
        <time>2013-04-14T09:09:28Z</time>
      </trkpt>
      <trkpt lat="48.63808" lon="7.28171">
        <ele>721.13</ele>
        <time>2013-04-14T09:09:29Z</time>
      </trkpt>
      <trkpt lat="48.63809" lon="7.28173">
        <ele>721.13</ele>
        <time>2013-04-14T09:09:30Z</time>
      </trkpt>
      <trkpt lat="48.6381" lon="7.28176">
        <ele>720.65</ele>
        <time>2013-04-14T09:09:31Z</time>
      </trkpt>
      <trkpt lat="48.63811" lon="7.28178">
        <ele>720.16</ele>
        <time>2013-04-14T09:09:32Z</time>
      </trkpt>
      <trkpt lat="48.63811" lon="7.2818">
        <ele>720.16</ele>
        <time>2013-04-14T09:09:33Z</time>
      </trkpt>
      <trkpt lat="48.63811" lon="7.28183">
        <ele>719.68</ele>
        <time>2013-04-14T09:09:34Z</time>
      </trkpt>
      <trkpt lat="48.63811" lon="7.28187">
        <ele>718.72</ele>
        <time>2013-04-14T09:09:35Z</time>
      </trkpt>
      <trkpt lat="48.63811" lon="7.2819">
        <ele>718.24</ele>
        <time>2013-04-14T09:09:36Z</time>
      </trkpt>
      <trkpt lat="48.63811" lon="7.28193">
        <ele>717.28</ele>
        <time>2013-04-14T09:09:37Z</time>
      </trkpt>
      <trkpt lat="48.6381" lon="7.28199">
        <ele>715.84</ele>
        <time>2013-04-14T09:09:40Z</time>
      </trkpt>
      <trkpt lat="48.63813" lon="7.28203">
        <ele>716.32</ele>
        <time>2013-04-14T09:09:45Z</time>
      </trkpt>
      <trkpt lat="48.63813" lon="7.28207">
        <ele>716.32</ele>
        <time>2013-04-14T09:09:47Z</time>
      </trkpt>
      <trkpt lat="48.63813" lon="7.2821">
        <ele>717.28</ele>
        <time>2013-04-14T09:09:48Z</time>
      </trkpt>
      <trkpt lat="48.63827" lon="7.28215">
        <ele>719.2</ele>
        <time>2013-04-14T09:09:58Z</time>
      </trkpt>
      <trkpt lat="48.63854" lon="7.2821">
        <ele>718.72</ele>
        <time>2013-04-14T09:10:06Z</time>
      </trkpt>
      <trkpt lat="48.6387" lon="7.28208">
        <ele>719.2</ele>
        <time>2013-04-14T09:10:08Z</time>
      </trkpt>
      <trkpt lat="48.63877" lon="7.28197">
        <ele>719.2</ele>
        <time>2013-04-14T09:10:12Z</time>
      </trkpt>
      <trkpt lat="48.63901" lon="7.28185">
        <ele>718.24</ele>
        <time>2013-04-14T09:10:22Z</time>
      </trkpt>
      <trkpt lat="48.63922" lon="7.2817">
        <ele>717.28</ele>
        <time>2013-04-14T09:10:31Z</time>
      </trkpt>
      <trkpt lat="48.63925" lon="7.28168">
        <ele>716.8</ele>
        <time>2013-04-14T09:10:32Z</time>
      </trkpt>
      <trkpt lat="48.63952" lon="7.28151">
        <ele>716.32</ele>
        <time>2013-04-14T09:10:42Z</time>
      </trkpt>
      <trkpt lat="48.63954" lon="7.28148">
        <ele>716.32</ele>
        <time>2013-04-14T09:10:44Z</time>
      </trkpt>
      <trkpt lat="48.63992" lon="7.28138">
        <ele>715.36</ele>
        <time>2013-04-14T09:10:54Z</time>
      </trkpt>
      <trkpt lat="48.64015" lon="7.28119">
        <ele>716.32</ele>
        <time>2013-04-14T09:11:05Z</time>
      </trkpt>
      <trkpt lat="48.64037" lon="7.28111">
        <ele>715.84</ele>
        <time>2013-04-14T09:11:15Z</time>
      </trkpt>
      <trkpt lat="48.64047" lon="7.28105">
        <ele>715.84</ele>
        <time>2013-04-14T09:11:20Z</time>
      </trkpt>
      <trkpt lat="48.64054" lon="7.28099">
        <ele>715.84</ele>
        <time>2013-04-14T09:11:24Z</time>
      </trkpt>
      <trkpt lat="48.64071" lon="7.28088">
        <ele>715.84</ele>
        <time>2013-04-14T09:11:37Z</time>
      </trkpt>
      <trkpt lat="48.64073" lon="7.28087">
        <ele>715.84</ele>
        <time>2013-04-14T09:12:01Z</time>
      </trkpt>
      <trkpt lat="48.64074" lon="7.28086">
        <ele>715.84</ele>
        <time>2013-04-14T09:12:25Z</time>
      </trkpt>
      <trkpt lat="48.64073" lon="7.28087">
        <ele>716.32</ele>
        <time>2013-04-14T09:12:54Z</time>
      </trkpt>
      <trkpt lat="48.64074" lon="7.28088">
        <ele>716.32</ele>
        <time>2013-04-14T09:12:55Z</time>
      </trkpt>
      <trkpt lat="48.64077" lon="7.28092">
        <ele>715.36</ele>
        <time>2013-04-14T09:12:58Z</time>
      </trkpt>
      <trkpt lat="48.64082" lon="7.28097">
        <ele>714.4</ele>
        <time>2013-04-14T09:13:02Z</time>
      </trkpt>
      <trkpt lat="48.641" lon="7.281">
        <ele>713.44</ele>
        <time>2013-04-14T09:13:07Z</time>
      </trkpt>
      <trkpt lat="48.64104" lon="7.28101">
        <ele>713.44</ele>
        <time>2013-04-14T09:13:08Z</time>
      </trkpt>
      <trkpt lat="48.64107" lon="7.281">
        <ele>712.95</ele>
        <time>2013-04-14T09:13:09Z</time>
      </trkpt>
      <trkpt lat="48.6411" lon="7.28099">
        <ele>712.95</ele>
        <time>2013-04-14T09:13:10Z</time>
      </trkpt>
      <trkpt lat="48.64113" lon="7.28099">
        <ele>712.95</ele>
        <time>2013-04-14T09:13:11Z</time>
      </trkpt>
      <trkpt lat="48.64117" lon="7.281">
        <ele>712.47</ele>
        <time>2013-04-14T09:13:12Z</time>
      </trkpt>
      <trkpt lat="48.64126" lon="7.28103">
        <ele>711.99</ele>
        <time>2013-04-14T09:13:14Z</time>
      </trkpt>
      <trkpt lat="48.64131" lon="7.28103">
        <ele>711.99</ele>
        <time>2013-04-14T09:13:15Z</time>
      </trkpt>
      <trkpt lat="48.64136" lon="7.28103">
        <ele>711.51</ele>
        <time>2013-04-14T09:13:16Z</time>
      </trkpt>
      <trkpt lat="48.64167" lon="7.28103">
        <ele>709.59</ele>
        <time>2013-04-14T09:13:24Z</time>
      </trkpt>
      <trkpt lat="48.64178" lon="7.28106">
        <ele>709.11</ele>
        <time>2013-04-14T09:13:27Z</time>
      </trkpt>
      <trkpt lat="48.64184" lon="7.28106">
        <ele>708.63</ele>
        <time>2013-04-14T09:13:28Z</time>
      </trkpt>
      <trkpt lat="48.642" lon="7.28107">
        <ele>708.15</ele>
        <time>2013-04-14T09:13:29Z</time>
      </trkpt>
      <trkpt lat="48.6421" lon="7.28109">
        <ele>707.67</ele>
        <time>2013-04-14T09:13:30Z</time>
      </trkpt>
      <trkpt lat="48.64218" lon="7.28111">
        <ele>706.71</ele>
        <time>2013-04-14T09:13:31Z</time>
      </trkpt>
      <trkpt lat="48.64226" lon="7.28112">
        <ele>706.23</ele>
        <time>2013-04-14T09:13:32Z</time>
      </trkpt>
      <trkpt lat="48.64231" lon="7.28114">
        <ele>706.23</ele>
        <time>2013-04-14T09:13:33Z</time>
      </trkpt>
      <trkpt lat="48.64237" lon="7.28117">
        <ele>705.75</ele>
        <time>2013-04-14T09:13:34Z</time>
      </trkpt>
      <trkpt lat="48.64243" lon="7.28121">
        <ele>705.26</ele>
        <time>2013-04-14T09:13:35Z</time>
      </trkpt>
      <trkpt lat="48.64247" lon="7.28125">
        <ele>704.78</ele>
        <time>2013-04-14T09:13:36Z</time>
      </trkpt>
      <trkpt lat="48.6425" lon="7.28129">
        <ele>703.82</ele>
        <time>2013-04-14T09:13:37Z</time>
      </trkpt>
      <trkpt lat="48.64254" lon="7.28132">
        <ele>703.34</ele>
        <time>2013-04-14T09:13:38Z</time>
      </trkpt>
      <trkpt lat="48.64258" lon="7.28135">
        <ele>703.34</ele>
        <time>2013-04-14T09:13:39Z</time>
      </trkpt>
      <trkpt lat="48.64273" lon="7.28147">
        <ele>700.94</ele>
        <time>2013-04-14T09:13:43Z</time>
      </trkpt>
      <trkpt lat="48.64284" lon="7.28159">
        <ele>699.02</ele>
        <time>2013-04-14T09:13:46Z</time>
      </trkpt>
      <trkpt lat="48.64288" lon="7.28165">
        <ele>698.53</ele>
        <time>2013-04-14T09:13:47Z</time>
      </trkpt>
      <trkpt lat="48.64292" lon="7.2817">
        <ele>698.05</ele>
        <time>2013-04-14T09:13:48Z</time>
      </trkpt>
      <trkpt lat="48.64296" lon="7.28173">
        <ele>698.05</ele>
        <time>2013-04-14T09:13:49Z</time>
      </trkpt>
      <trkpt lat="48.643" lon="7.28177">
        <ele>697.09</ele>
        <time>2013-04-14T09:13:50Z</time>
      </trkpt>
      <trkpt lat="48.64304" lon="7.2818">
        <ele>696.61</ele>
        <time>2013-04-14T09:13:51Z</time>
      </trkpt>
      <trkpt lat="48.64309" lon="7.28182">
        <ele>696.13</ele>
        <time>2013-04-14T09:13:52Z</time>
      </trkpt>
      <trkpt lat="48.64313" lon="7.28184">
        <ele>696.13</ele>
        <time>2013-04-14T09:13:53Z</time>
      </trkpt>
      <trkpt lat="48.64315" lon="7.28188">
        <ele>695.65</ele>
        <time>2013-04-14T09:13:54Z</time>
      </trkpt>
      <trkpt lat="48.64317" lon="7.28193">
        <ele>695.65</ele>
        <time>2013-04-14T09:13:55Z</time>
      </trkpt>
      <trkpt lat="48.64317" lon="7.28198">
        <ele>695.17</ele>
        <time>2013-04-14T09:13:56Z</time>
      </trkpt>
      <trkpt lat="48.64318" lon="7.2821">
        <ele>695.65</ele>
        <time>2013-04-14T09:14:01Z</time>
      </trkpt>
      <trkpt lat="48.64318" lon="7.28212">
        <ele>695.17</ele>
        <time>2013-04-14T09:14:02Z</time>
      </trkpt>
      <trkpt lat="48.64317" lon="7.28214">
        <ele>695.65</ele>
        <time>2013-04-14T09:14:03Z</time>
      </trkpt>
      <trkpt lat="48.64316" lon="7.28219">
        <ele>695.65</ele>
        <time>2013-04-14T09:14:05Z</time>
      </trkpt>
      <trkpt lat="48.64315" lon="7.2822">
        <ele>695.65</ele>
        <time>2013-04-14T09:14:06Z</time>
      </trkpt>
      <trkpt lat="48.64314" lon="7.28221">
        <ele>695.65</ele>
        <time>2013-04-14T09:14:07Z</time>
      </trkpt>
      <trkpt lat="48.64312" lon="7.28221">
        <ele>695.17</ele>
        <time>2013-04-14T09:14:08Z</time>
      </trkpt>
      <trkpt lat="48.6431" lon="7.28222">
        <ele>695.17</ele>
        <time>2013-04-14T09:14:09Z</time>
      </trkpt>
      <trkpt lat="48.64308" lon="7.28224">
        <ele>695.17</ele>
        <time>2013-04-14T09:14:10Z</time>
      </trkpt>
      <trkpt lat="48.64307" lon="7.28226">
        <ele>694.69</ele>
        <time>2013-04-14T09:14:11Z</time>
      </trkpt>
      <trkpt lat="48.64301" lon="7.28243">
        <ele>691.33</ele>
        <time>2013-04-14T09:14:16Z</time>
      </trkpt>
      <trkpt lat="48.64301" lon="7.28248">
        <ele>690.84</ele>
        <time>2013-04-14T09:14:18Z</time>
      </trkpt>
      <trkpt lat="48.64301" lon="7.28253">
        <ele>690.36</ele>
        <time>2013-04-14T09:14:28Z</time>
      </trkpt>
      <trkpt lat="48.64299" lon="7.28254">
        <ele>689.88</ele>
        <time>2013-04-14T09:14:31Z</time>
      </trkpt>
      <trkpt lat="48.64295" lon="7.28261">
        <ele>687.96</ele>
        <time>2013-04-14T09:14:39Z</time>
      </trkpt>
      <trkpt lat="48.64294" lon="7.28263">
        <ele>687.96</ele>
        <time>2013-04-14T09:14:40Z</time>
      </trkpt>
      <trkpt lat="48.64293" lon="7.28265">
        <ele>687</ele>
        <time>2013-04-14T09:14:41Z</time>
      </trkpt>
      <trkpt lat="48.64292" lon="7.28268">
        <ele>686.52</ele>
        <time>2013-04-14T09:14:42Z</time>
      </trkpt>
      <trkpt lat="48.64291" lon="7.28271">
        <ele>686.52</ele>
        <time>2013-04-14T09:14:43Z</time>
      </trkpt>
      <trkpt lat="48.6429" lon="7.28275">
        <ele>686.04</ele>
        <time>2013-04-14T09:14:44Z</time>
      </trkpt>
      <trkpt lat="48.64288" lon="7.28279">
        <ele>685.56</ele>
        <time>2013-04-14T09:14:45Z</time>
      </trkpt>
      <trkpt lat="48.64284" lon="7.28296">
        <ele>684.12</ele>
        <time>2013-04-14T09:14:48Z</time>
      </trkpt>
      <trkpt lat="48.64281" lon="7.28302">
        <ele>683.63</ele>
        <time>2013-04-14T09:14:49Z</time>
      </trkpt>
      <trkpt lat="48.64279" lon="7.28307">
        <ele>683.63</ele>
        <time>2013-04-14T09:14:50Z</time>
      </trkpt>
      <trkpt lat="48.64278" lon="7.28311">
        <ele>683.63</ele>
        <time>2013-04-14T09:14:51Z</time>
      </trkpt>
      <trkpt lat="48.64279" lon="7.28315">
        <ele>683.15</ele>
        <time>2013-04-14T09:14:52Z</time>
      </trkpt>
      <trkpt lat="48.6428" lon="7.28319">
        <ele>683.15</ele>
        <time>2013-04-14T09:14:53Z</time>
      </trkpt>
      <trkpt lat="48.64281" lon="7.28322">
        <ele>682.67</ele>
        <time>2013-04-14T09:14:54Z</time>
      </trkpt>
      <trkpt lat="48.64288" lon="7.28347">
        <ele>682.67</ele>
        <time>2013-04-14T09:15:03Z</time>
      </trkpt>
      <trkpt lat="48.64285" lon="7.28349">
        <ele>682.19</ele>
        <time>2013-04-14T09:15:04Z</time>
      </trkpt>
      <trkpt lat="48.64283" lon="7.28349">
        <ele>682.19</ele>
        <time>2013-04-14T09:15:05Z</time>
      </trkpt>
      <trkpt lat="48.64282" lon="7.28354">
        <ele>681.71</ele>
        <time>2013-04-14T09:15:08Z</time>
      </trkpt>
      <trkpt lat="48.64282" lon="7.28393">
        <ele>678.83</ele>
        <time>2013-04-14T09:15:16Z</time>
      </trkpt>
      <trkpt lat="48.6428" lon="7.28406">
        <ele>678.35</ele>
        <time>2013-04-14T09:15:18Z</time>
      </trkpt>
      <trkpt lat="48.64278" lon="7.28412">
        <ele>677.87</ele>
        <time>2013-04-14T09:15:19Z</time>
      </trkpt>
      <trkpt lat="48.64273" lon="7.28424">
        <ele>676.91</ele>
        <time>2013-04-14T09:15:21Z</time>
      </trkpt>
      <trkpt lat="48.64258" lon="7.28449">
        <ele>674.98</ele>
        <time>2013-04-14T09:15:26Z</time>
      </trkpt>
      <trkpt lat="48.64255" lon="7.28455">
        <ele>674.5</ele>
        <time>2013-04-14T09:15:27Z</time>
      </trkpt>
      <trkpt lat="48.64249" lon="7.28468">
        <ele>673.54</ele>
        <time>2013-04-14T09:15:29Z</time>
      </trkpt>
      <trkpt lat="48.64247" lon="7.28474">
        <ele>673.06</ele>
        <time>2013-04-14T09:15:30Z</time>
      </trkpt>
      <trkpt lat="48.64245" lon="7.28481">
        <ele>673.06</ele>
        <time>2013-04-14T09:15:31Z</time>
      </trkpt>
      <trkpt lat="48.64242" lon="7.28489">
        <ele>671.62</ele>
        <time>2013-04-14T09:15:32Z</time>
      </trkpt>
      <trkpt lat="48.6424" lon="7.28497">
        <ele>671.14</ele>
        <time>2013-04-14T09:15:33Z</time>
      </trkpt>
      <trkpt lat="48.64238" lon="7.28505">
        <ele>670.66</ele>
        <time>2013-04-14T09:15:34Z</time>
      </trkpt>
      <trkpt lat="48.64237" lon="7.28514">
        <ele>670.18</ele>
        <time>2013-04-14T09:15:35Z</time>
      </trkpt>
      <trkpt lat="48.64233" lon="7.28538">
        <ele>668.73</ele>
        <time>2013-04-14T09:15:38Z</time>
      </trkpt>
      <trkpt lat="48.64233" lon="7.28545">
        <ele>668.25</ele>
        <time>2013-04-14T09:15:39Z</time>
      </trkpt>
      <trkpt lat="48.64231" lon="7.2856">
        <ele>666.81</ele>
        <time>2013-04-14T09:15:41Z</time>
      </trkpt>
      <trkpt lat="48.6423" lon="7.28568">
        <ele>666.33</ele>
        <time>2013-04-14T09:15:42Z</time>
      </trkpt>
      <trkpt lat="48.64229" lon="7.28576">
        <ele>666.33</ele>
        <time>2013-04-14T09:15:43Z</time>
      </trkpt>
      <trkpt lat="48.64229" lon="7.28582">
        <ele>665.37</ele>
        <time>2013-04-14T09:15:44Z</time>
      </trkpt>
      <trkpt lat="48.64228" lon="7.28589">
        <ele>664.89</ele>
        <time>2013-04-14T09:15:45Z</time>
      </trkpt>
      <trkpt lat="48.64227" lon="7.28596">
        <ele>663.93</ele>
        <time>2013-04-14T09:15:46Z</time>
      </trkpt>
      <trkpt lat="48.64225" lon="7.28604">
        <ele>663.45</ele>
        <time>2013-04-14T09:15:47Z</time>
      </trkpt>
      <trkpt lat="48.64224" lon="7.28614">
        <ele>662.01</ele>
        <time>2013-04-14T09:15:48Z</time>
      </trkpt>
      <trkpt lat="48.64223" lon="7.28622">
        <ele>662.01</ele>
        <time>2013-04-14T09:15:49Z</time>
      </trkpt>
      <trkpt lat="48.64221" lon="7.2864">
        <ele>660.56</ele>
        <time>2013-04-14T09:15:51Z</time>
      </trkpt>
      <trkpt lat="48.64219" lon="7.28649">
        <ele>659.6</ele>
        <time>2013-04-14T09:15:52Z</time>
      </trkpt>
      <trkpt lat="48.64216" lon="7.28679">
        <ele>657.68</ele>
        <time>2013-04-14T09:15:55Z</time>
      </trkpt>
      <trkpt lat="48.64215" lon="7.2869">
        <ele>656.24</ele>
        <time>2013-04-14T09:15:56Z</time>
      </trkpt>
      <trkpt lat="48.64215" lon="7.28701">
        <ele>654.8</ele>
        <time>2013-04-14T09:15:57Z</time>
      </trkpt>
      <trkpt lat="48.64214" lon="7.28713">
        <ele>654.31</ele>
        <time>2013-04-14T09:15:58Z</time>
      </trkpt>
      <trkpt lat="48.64215" lon="7.28724">
        <ele>653.35</ele>
        <time>2013-04-14T09:15:59Z</time>
      </trkpt>
      <trkpt lat="48.64216" lon="7.28735">
        <ele>652.87</ele>
        <time>2013-04-14T09:16:00Z</time>
      </trkpt>
      <trkpt lat="48.64215" lon="7.28766">
        <ele>651.43</ele>
        <time>2013-04-14T09:16:02Z</time>
      </trkpt>
      <trkpt lat="48.64216" lon="7.28794">
        <ele>649.03</ele>
        <time>2013-04-14T09:16:05Z</time>
      </trkpt>
      <trkpt lat="48.64218" lon="7.28805">
        <ele>648.07</ele>
        <time>2013-04-14T09:16:06Z</time>
      </trkpt>
      <trkpt lat="48.64225" lon="7.28838">
        <ele>645.18</ele>
        <time>2013-04-14T09:16:09Z</time>
      </trkpt>
      <trkpt lat="48.64232" lon="7.28875">
        <ele>641.82</ele>
        <time>2013-04-14T09:16:12Z</time>
      </trkpt>
      <trkpt lat="48.64236" lon="7.28909">
        <ele>638.45</ele>
        <time>2013-04-14T09:16:15Z</time>
      </trkpt>
      <trkpt lat="48.64236" lon="7.28915">
        <ele>638.45</ele>
        <time>2013-04-14T09:16:16Z</time>
      </trkpt>
      <trkpt lat="48.64234" lon="7.28924">
        <ele>637.49</ele>
        <time>2013-04-14T09:16:17Z</time>
      </trkpt>
      <trkpt lat="48.64231" lon="7.28932">
        <ele>636.53</ele>
        <time>2013-04-14T09:16:18Z</time>
      </trkpt>
      <trkpt lat="48.64219" lon="7.28956">
        <ele>632.68</ele>
        <time>2013-04-14T09:16:22Z</time>
      </trkpt>
      <trkpt lat="48.64216" lon="7.28963">
        <ele>631.72</ele>
        <time>2013-04-14T09:16:23Z</time>
      </trkpt>
      <trkpt lat="48.64213" lon="7.28971">
        <ele>631.24</ele>
        <time>2013-04-14T09:16:24Z</time>
      </trkpt>
      <trkpt lat="48.6421" lon="7.2898">
        <ele>631.24</ele>
        <time>2013-04-14T09:16:25Z</time>
      </trkpt>
      <trkpt lat="48.64206" lon="7.28991">
        <ele>630.76</ele>
        <time>2013-04-14T09:16:27Z</time>
      </trkpt>
      <trkpt lat="48.64204" lon="7.28993">
        <ele>630.76</ele>
        <time>2013-04-14T09:16:28Z</time>
      </trkpt>
      <trkpt lat="48.64202" lon="7.28994">
        <ele>630.76</ele>
        <time>2013-04-14T09:16:29Z</time>
      </trkpt>
      <trkpt lat="48.642" lon="7.28995">
        <ele>630.28</ele>
        <time>2013-04-14T09:16:30Z</time>
      </trkpt>
      <trkpt lat="48.64198" lon="7.28996">
        <ele>629.8</ele>
        <time>2013-04-14T09:16:31Z</time>
      </trkpt>
      <trkpt lat="48.64194" lon="7.29008">
        <ele>629.8</ele>
        <time>2013-04-14T09:16:45Z</time>
      </trkpt>
      <trkpt lat="48.64193" lon="7.29008">
        <ele>629.32</ele>
        <time>2013-04-14T09:16:46Z</time>
      </trkpt>
      <trkpt lat="48.64191" lon="7.29008">
        <ele>628.84</ele>
        <time>2013-04-14T09:16:47Z</time>
      </trkpt>
      <trkpt lat="48.6419" lon="7.29008">
        <ele>627.4</ele>
        <time>2013-04-14T09:16:48Z</time>
      </trkpt>
      <trkpt lat="48.64187" lon="7.29009">
        <ele>626.92</ele>
        <time>2013-04-14T09:16:49Z</time>
      </trkpt>
      <trkpt lat="48.64185" lon="7.29011">
        <ele>626.44</ele>
        <time>2013-04-14T09:16:50Z</time>
      </trkpt>
      <trkpt lat="48.64171" lon="7.29021">
        <ele>623.55</ele>
        <time>2013-04-14T09:16:56Z</time>
      </trkpt>
      <trkpt lat="48.64169" lon="7.29022">
        <ele>622.59</ele>
        <time>2013-04-14T09:16:57Z</time>
      </trkpt>
      <trkpt lat="48.64167" lon="7.29023">
        <ele>622.11</ele>
        <time>2013-04-14T09:16:58Z</time>
      </trkpt>
      <trkpt lat="48.64166" lon="7.29025">
        <ele>622.11</ele>
        <time>2013-04-14T09:16:59Z</time>
      </trkpt>
      <trkpt lat="48.64162" lon="7.29038">
        <ele>622.11</ele>
        <time>2013-04-14T09:17:12Z</time>
      </trkpt>
      <trkpt lat="48.64158" lon="7.29041">
        <ele>621.63</ele>
        <time>2013-04-14T09:17:27Z</time>
      </trkpt>
      <trkpt lat="48.64158" lon="7.29042">
        <ele>621.63</ele>
        <time>2013-04-14T09:17:32Z</time>
      </trkpt>
      <trkpt lat="48.64157" lon="7.29042">
        <ele>621.15</ele>
        <time>2013-04-14T09:17:33Z</time>
      </trkpt>
      <trkpt lat="48.64155" lon="7.29043">
        <ele>621.15</ele>
        <time>2013-04-14T09:17:34Z</time>
      </trkpt>
      <trkpt lat="48.64153" lon="7.29044">
        <ele>620.67</ele>
        <time>2013-04-14T09:17:35Z</time>
      </trkpt>
      <trkpt lat="48.6415" lon="7.29046">
        <ele>620.19</ele>
        <time>2013-04-14T09:17:36Z</time>
      </trkpt>
      <trkpt lat="48.64145" lon="7.29051">
        <ele>619.23</ele>
        <time>2013-04-14T09:17:38Z</time>
      </trkpt>
      <trkpt lat="48.64131" lon="7.29067">
        <ele>615.86</ele>
        <time>2013-04-14T09:17:43Z</time>
      </trkpt>
      <trkpt lat="48.64117" lon="7.29087">
        <ele>612.5</ele>
        <time>2013-04-14T09:17:48Z</time>
      </trkpt>
      <trkpt lat="48.64103" lon="7.29106">
        <ele>609.13</ele>
        <time>2013-04-14T09:17:53Z</time>
      </trkpt>
      <trkpt lat="48.641" lon="7.2911">
        <ele>608.65</ele>
        <time>2013-04-14T09:17:54Z</time>
      </trkpt>
      <trkpt lat="48.64096" lon="7.29115">
        <ele>607.69</ele>
        <time>2013-04-14T09:17:55Z</time>
      </trkpt>
      <trkpt lat="48.64092" lon="7.29121">
        <ele>606.73</ele>
        <time>2013-04-14T09:17:56Z</time>
      </trkpt>
      <trkpt lat="48.64087" lon="7.29127">
        <ele>605.29</ele>
        <time>2013-04-14T09:17:57Z</time>
      </trkpt>
      <trkpt lat="48.64082" lon="7.29132">
        <ele>604.33</ele>
        <time>2013-04-14T09:17:58Z</time>
      </trkpt>
      <trkpt lat="48.64068" lon="7.29151">
        <ele>601.44</ele>
        <time>2013-04-14T09:18:02Z</time>
      </trkpt>
      <trkpt lat="48.64053" lon="7.29165">
        <ele>598.08</ele>
        <time>2013-04-14T09:18:06Z</time>
      </trkpt>
      <trkpt lat="48.64049" lon="7.2917">
        <ele>597.6</ele>
        <time>2013-04-14T09:18:08Z</time>
      </trkpt>
      <trkpt lat="48.64042" lon="7.29181">
        <ele>597.6</ele>
        <time>2013-04-14T09:18:20Z</time>
      </trkpt>
      <trkpt lat="48.6404" lon="7.29183">
        <ele>597.12</ele>
        <time>2013-04-14T09:18:21Z</time>
      </trkpt>
      <trkpt lat="48.64036" lon="7.29185">
        <ele>596.64</ele>
        <time>2013-04-14T09:18:23Z</time>
      </trkpt>
      <trkpt lat="48.64032" lon="7.29188">
        <ele>595.67</ele>
        <time>2013-04-14T09:18:24Z</time>
      </trkpt>
      <trkpt lat="48.64027" lon="7.2919">
        <ele>594.71</ele>
        <time>2013-04-14T09:18:25Z</time>
      </trkpt>
      <trkpt lat="48.64022" lon="7.29193">
        <ele>594.23</ele>
        <time>2013-04-14T09:18:26Z</time>
      </trkpt>
      <trkpt lat="48.64015" lon="7.29197">
        <ele>592.79</ele>
        <time>2013-04-14T09:18:27Z</time>
      </trkpt>
      <trkpt lat="48.64009" lon="7.29202">
        <ele>591.83</ele>
        <time>2013-04-14T09:18:28Z</time>
      </trkpt>
      <trkpt lat="48.64003" lon="7.29206">
        <ele>590.87</ele>
        <time>2013-04-14T09:18:29Z</time>
      </trkpt>
      <trkpt lat="48.63998" lon="7.2921">
        <ele>588.95</ele>
        <time>2013-04-14T09:18:30Z</time>
      </trkpt>
      <trkpt lat="48.63993" lon="7.29214">
        <ele>587.98</ele>
        <time>2013-04-14T09:18:31Z</time>
      </trkpt>
      <trkpt lat="48.63987" lon="7.29217">
        <ele>587.02</ele>
        <time>2013-04-14T09:18:32Z</time>
      </trkpt>
      <trkpt lat="48.63981" lon="7.29221">
        <ele>585.58</ele>
        <time>2013-04-14T09:18:33Z</time>
      </trkpt>
      <trkpt lat="48.63974" lon="7.29224">
        <ele>584.62</ele>
        <time>2013-04-14T09:18:34Z</time>
      </trkpt>
      <trkpt lat="48.63961" lon="7.29231">
        <ele>582.22</ele>
        <time>2013-04-14T09:18:36Z</time>
      </trkpt>
      <trkpt lat="48.63953" lon="7.29235">
        <ele>581.25</ele>
        <time>2013-04-14T09:18:37Z</time>
      </trkpt>
      <trkpt lat="48.6394" lon="7.29246">
        <ele>578.85</ele>
        <time>2013-04-14T09:18:39Z</time>
      </trkpt>
      <trkpt lat="48.63924" lon="7.29258">
        <ele>575.97</ele>
        <time>2013-04-14T09:18:42Z</time>
      </trkpt>
      <trkpt lat="48.63919" lon="7.29262">
        <ele>575.01</ele>
        <time>2013-04-14T09:18:43Z</time>
      </trkpt>
      <trkpt lat="48.63914" lon="7.29265">
        <ele>574.53</ele>
        <time>2013-04-14T09:18:44Z</time>
      </trkpt>
      <trkpt lat="48.63908" lon="7.29272">
        <ele>574.04</ele>
        <time>2013-04-14T09:18:49Z</time>
      </trkpt>
      <trkpt lat="48.63901" lon="7.29277">
        <ele>572.6</ele>
        <time>2013-04-14T09:18:56Z</time>
      </trkpt>
      <trkpt lat="48.63899" lon="7.29279">
        <ele>572.12</ele>
        <time>2013-04-14T09:18:57Z</time>
      </trkpt>
      <trkpt lat="48.63897" lon="7.29281">
        <ele>571.64</ele>
        <time>2013-04-14T09:18:58Z</time>
      </trkpt>
      <trkpt lat="48.63894" lon="7.29283">
        <ele>571.16</ele>
        <time>2013-04-14T09:18:59Z</time>
      </trkpt>
      <trkpt lat="48.6389" lon="7.29286">
        <ele>570.2</ele>
        <time>2013-04-14T09:19:00Z</time>
      </trkpt>
      <trkpt lat="48.63881" lon="7.29294">
        <ele>568.28</ele>
        <time>2013-04-14T09:19:02Z</time>
      </trkpt>
      <trkpt lat="48.63872" lon="7.29303">
        <ele>566.83</ele>
        <time>2013-04-14T09:19:04Z</time>
      </trkpt>
      <trkpt lat="48.6386" lon="7.29311">
        <ele>564.43</ele>
        <time>2013-04-14T09:19:06Z</time>
      </trkpt>
      <trkpt lat="48.63855" lon="7.29315">
        <ele>563.47</ele>
        <time>2013-04-14T09:19:07Z</time>
      </trkpt>
      <trkpt lat="48.63849" lon="7.29319">
        <ele>562.51</ele>
        <time>2013-04-14T09:19:08Z</time>
      </trkpt>
      <trkpt lat="48.63844" lon="7.29323">
        <ele>562.03</ele>
        <time>2013-04-14T09:19:09Z</time>
      </trkpt>
      <trkpt lat="48.63838" lon="7.29327">
        <ele>560.59</ele>
        <time>2013-04-14T09:19:10Z</time>
      </trkpt>
      <trkpt lat="48.63833" lon="7.29331">
        <ele>559.62</ele>
        <time>2013-04-14T09:19:11Z</time>
      </trkpt>
      <trkpt lat="48.63822" lon="7.29342">
        <ele>558.18</ele>
        <time>2013-04-14T09:19:13Z</time>
      </trkpt>
      <trkpt lat="48.63816" lon="7.29349">
        <ele>557.22</ele>
        <time>2013-04-14T09:19:14Z</time>
      </trkpt>
      <trkpt lat="48.63792" lon="7.29379">
        <ele>552.9</ele>
        <time>2013-04-14T09:19:18Z</time>
      </trkpt>
      <trkpt lat="48.63782" lon="7.29395">
        <ele>549.53</ele>
        <time>2013-04-14T09:19:20Z</time>
      </trkpt>
      <trkpt lat="48.63778" lon="7.29401">
        <ele>548.57</ele>
        <time>2013-04-14T09:19:21Z</time>
      </trkpt>
      <trkpt lat="48.63774" lon="7.29408">
        <ele>547.13</ele>
        <time>2013-04-14T09:19:22Z</time>
      </trkpt>
      <trkpt lat="48.63759" lon="7.29432">
        <ele>543.28</ele>
        <time>2013-04-14T09:19:25Z</time>
      </trkpt>
      <trkpt lat="48.63754" lon="7.29441">
        <ele>542.32</ele>
        <time>2013-04-14T09:19:26Z</time>
      </trkpt>
      <trkpt lat="48.6375" lon="7.2945">
        <ele>540.88</ele>
        <time>2013-04-14T09:19:27Z</time>
      </trkpt>
      <trkpt lat="48.63736" lon="7.29482">
        <ele>537.03</ele>
        <time>2013-04-14T09:19:30Z</time>
      </trkpt>
      <trkpt lat="48.6373" lon="7.29502">
        <ele>534.63</ele>
        <time>2013-04-14T09:19:32Z</time>
      </trkpt>
      <trkpt lat="48.63727" lon="7.29513">
        <ele>533.19</ele>
        <time>2013-04-14T09:19:33Z</time>
      </trkpt>
      <trkpt lat="48.63722" lon="7.29542">
        <ele>529.82</ele>
        <time>2013-04-14T09:19:37Z</time>
      </trkpt>
      <trkpt lat="48.63721" lon="7.29554">
        <ele>528.38</ele>
        <time>2013-04-14T09:19:39Z</time>
      </trkpt>
      <trkpt lat="48.6372" lon="7.29559">
        <ele>527.42</ele>
        <time>2013-04-14T09:19:40Z</time>
      </trkpt>
      <trkpt lat="48.63718" lon="7.29563">
        <ele>526.94</ele>
        <time>2013-04-14T09:19:41Z</time>
      </trkpt>
      <trkpt lat="48.63716" lon="7.29565">
        <ele>526.46</ele>
        <time>2013-04-14T09:19:42Z</time>
      </trkpt>
      <trkpt lat="48.63714" lon="7.29576">
        <ele>526.94</ele>
        <time>2013-04-14T09:19:54Z</time>
      </trkpt>
      <trkpt lat="48.63713" lon="7.29572">
        <ele>526.94</ele>
        <time>2013-04-14T09:20:08Z</time>
      </trkpt>
      <trkpt lat="48.63713" lon="7.29574">
        <ele>526.94</ele>
        <time>2013-04-14T09:20:27Z</time>
      </trkpt>
      <trkpt lat="48.63712" lon="7.29573">
        <ele>526.94</ele>
        <time>2013-04-14T09:20:52Z</time>
      </trkpt>
      <trkpt lat="48.63711" lon="7.29575">
        <ele>526.94</ele>
        <time>2013-04-14T09:20:53Z</time>
      </trkpt>
      <trkpt lat="48.6371" lon="7.29577">
        <ele>526.46</ele>
        <time>2013-04-14T09:20:54Z</time>
      </trkpt>
      <trkpt lat="48.63709" lon="7.29579">
        <ele>526.46</ele>
        <time>2013-04-14T09:20:55Z</time>
      </trkpt>
      <trkpt lat="48.63708" lon="7.29582">
        <ele>526.46</ele>
        <time>2013-04-14T09:20:56Z</time>
      </trkpt>
      <trkpt lat="48.63706" lon="7.29587">
        <ele>525.98</ele>
        <time>2013-04-14T09:20:57Z</time>
      </trkpt>
      <trkpt lat="48.63706" lon="7.29593">
        <ele>525.98</ele>
        <time>2013-04-14T09:20:58Z</time>
      </trkpt>
      <trkpt lat="48.63705" lon="7.29599">
        <ele>525.5</ele>
        <time>2013-04-14T09:20:59Z</time>
      </trkpt>
      <trkpt lat="48.63706" lon="7.29606">
        <ele>525.5</ele>
        <time>2013-04-14T09:21:00Z</time>
      </trkpt>
      <trkpt lat="48.63708" lon="7.29612">
        <ele>525.02</ele>
        <time>2013-04-14T09:21:01Z</time>
      </trkpt>
      <trkpt lat="48.6371" lon="7.29618">
        <ele>525.02</ele>
        <time>2013-04-14T09:21:02Z</time>
      </trkpt>
      <trkpt lat="48.63712" lon="7.29623">
        <ele>524.54</ele>
        <time>2013-04-14T09:21:03Z</time>
      </trkpt>
      <trkpt lat="48.63726" lon="7.29649">
        <ele>524.06</ele>
        <time>2013-04-14T09:21:08Z</time>
      </trkpt>
      <trkpt lat="48.63729" lon="7.29656">
        <ele>523.58</ele>
        <time>2013-04-14T09:21:09Z</time>
      </trkpt>
      <trkpt lat="48.63734" lon="7.29669">
        <ele>523.09</ele>
        <time>2013-04-14T09:21:11Z</time>
      </trkpt>
      <trkpt lat="48.63736" lon="7.29674">
        <ele>523.09</ele>
        <time>2013-04-14T09:21:12Z</time>
      </trkpt>
      <trkpt lat="48.63738" lon="7.2968">
        <ele>523.09</ele>
        <time>2013-04-14T09:21:13Z</time>
      </trkpt>
      <trkpt lat="48.6374" lon="7.29685">
        <ele>522.61</ele>
        <time>2013-04-14T09:21:14Z</time>
      </trkpt>
      <trkpt lat="48.63741" lon="7.29689">
        <ele>522.61</ele>
        <time>2013-04-14T09:21:15Z</time>
      </trkpt>
      <trkpt lat="48.63742" lon="7.29693">
        <ele>522.61</ele>
        <time>2013-04-14T09:21:16Z</time>
      </trkpt>
      <trkpt lat="48.63762" lon="7.29734">
        <ele>521.17</ele>
        <time>2013-04-14T09:21:28Z</time>
      </trkpt>
      <trkpt lat="48.63784" lon="7.29754">
        <ele>519.73</ele>
        <time>2013-04-14T09:21:36Z</time>
      </trkpt>
      <trkpt lat="48.63797" lon="7.29762">
        <ele>519.25</ele>
        <time>2013-04-14T09:21:39Z</time>
      </trkpt>
      <trkpt lat="48.63802" lon="7.29763">
        <ele>518.77</ele>
        <time>2013-04-14T09:21:40Z</time>
      </trkpt>
      <trkpt lat="48.63807" lon="7.29764">
        <ele>518.29</ele>
        <time>2013-04-14T09:21:41Z</time>
      </trkpt>
      <trkpt lat="48.63812" lon="7.29765">
        <ele>518.29</ele>
        <time>2013-04-14T09:21:42Z</time>
      </trkpt>
      <trkpt lat="48.63817" lon="7.29764">
        <ele>517.81</ele>
        <time>2013-04-14T09:21:43Z</time>
      </trkpt>
      <trkpt lat="48.63823" lon="7.29763">
        <ele>517.33</ele>
        <time>2013-04-14T09:21:44Z</time>
      </trkpt>
      <trkpt lat="48.63829" lon="7.2976">
        <ele>517.33</ele>
        <time>2013-04-14T09:21:45Z</time>
      </trkpt>
      <trkpt lat="48.63879" lon="7.29736">
        <ele>513.96</ele>
        <time>2013-04-14T09:21:51Z</time>
      </trkpt>
      <trkpt lat="48.6389" lon="7.2973">
        <ele>513.48</ele>
        <time>2013-04-14T09:21:52Z</time>
      </trkpt>
      <trkpt lat="48.6393" lon="7.29701">
        <ele>511.08</ele>
        <time>2013-04-14T09:21:56Z</time>
      </trkpt>
      <trkpt lat="48.6394" lon="7.29693">
        <ele>510.6</ele>
        <time>2013-04-14T09:21:57Z</time>
      </trkpt>
      <trkpt lat="48.64027" lon="7.29636">
        <ele>506.27</ele>
        <time>2013-04-14T09:22:05Z</time>
      </trkpt>
      <trkpt lat="48.64085" lon="7.29615">
        <ele>502.91</ele>
        <time>2013-04-14T09:22:10Z</time>
      </trkpt>
      <trkpt lat="48.64141" lon="7.29598">
        <ele>500.02</ele>
        <time>2013-04-14T09:22:15Z</time>
      </trkpt>
      <trkpt lat="48.64153" lon="7.29599">
        <ele>500.02</ele>
        <time>2013-04-14T09:22:16Z</time>
      </trkpt>
      <trkpt lat="48.64163" lon="7.29605">
        <ele>500.02</ele>
        <time>2013-04-14T09:22:17Z</time>
      </trkpt>
      <trkpt lat="48.64171" lon="7.29616">
        <ele>499.54</ele>
        <time>2013-04-14T09:22:18Z</time>
      </trkpt>
      <trkpt lat="48.64176" lon="7.29631">
        <ele>499.06</ele>
        <time>2013-04-14T09:22:19Z</time>
      </trkpt>
      <trkpt lat="48.64179" lon="7.29646">
        <ele>498.58</ele>
        <time>2013-04-14T09:22:20Z</time>
      </trkpt>
      <trkpt lat="48.64182" lon="7.29661">
        <ele>498.1</ele>
        <time>2013-04-14T09:22:21Z</time>
      </trkpt>
      <trkpt lat="48.64183" lon="7.29677">
        <ele>498.1</ele>
        <time>2013-04-14T09:22:22Z</time>
      </trkpt>
      <trkpt lat="48.6418" lon="7.29692">
        <ele>497.14</ele>
        <time>2013-04-14T09:22:23Z</time>
      </trkpt>
      <trkpt lat="48.64177" lon="7.29708">
        <ele>496.66</ele>
        <time>2013-04-14T09:22:24Z</time>
      </trkpt>
      <trkpt lat="48.64167" lon="7.29773">
        <ele>494.26</ele>
        <time>2013-04-14T09:22:28Z</time>
      </trkpt>
      <trkpt lat="48.64166" lon="7.29805">
        <ele>493.77</ele>
        <time>2013-04-14T09:22:30Z</time>
      </trkpt>
      <trkpt lat="48.64162" lon="7.29854">
        <ele>491.85</ele>
        <time>2013-04-14T09:22:33Z</time>
      </trkpt>
      <trkpt lat="48.64147" lon="7.29952">
        <ele>488.97</ele>
        <time>2013-04-14T09:22:39Z</time>
      </trkpt>
      <trkpt lat="48.64142" lon="7.30034">
        <ele>486.08</ele>
        <time>2013-04-14T09:22:44Z</time>
      </trkpt>
      <trkpt lat="48.64141" lon="7.3005">
        <ele>485.6</ele>
        <time>2013-04-14T09:22:45Z</time>
      </trkpt>
      <trkpt lat="48.64142" lon="7.30067">
        <ele>485.6</ele>
        <time>2013-04-14T09:22:46Z</time>
      </trkpt>
      <trkpt lat="48.64159" lon="7.30183">
        <ele>482.24</ele>
        <time>2013-04-14T09:22:53Z</time>
      </trkpt>
      <trkpt lat="48.64165" lon="7.3025">
        <ele>480.8</ele>
        <time>2013-04-14T09:22:57Z</time>
      </trkpt>
      <trkpt lat="48.64167" lon="7.30299">
        <ele>478.87</ele>
        <time>2013-04-14T09:23:00Z</time>
      </trkpt>
      <trkpt lat="48.6417" lon="7.30314">
        <ele>478.87</ele>
        <time>2013-04-14T09:23:01Z</time>
      </trkpt>
      <trkpt lat="48.6418" lon="7.30356">
        <ele>477.91</ele>
        <time>2013-04-14T09:23:04Z</time>
      </trkpt>
      <trkpt lat="48.64183" lon="7.3037">
        <ele>477.91</ele>
        <time>2013-04-14T09:23:05Z</time>
      </trkpt>
      <trkpt lat="48.64187" lon="7.30384">
        <ele>477.43</ele>
        <time>2013-04-14T09:23:06Z</time>
      </trkpt>
      <trkpt lat="48.64189" lon="7.30399">
        <ele>476.95</ele>
        <time>2013-04-14T09:23:07Z</time>
      </trkpt>
      <trkpt lat="48.64191" lon="7.30412">
        <ele>475.51</ele>
        <time>2013-04-14T09:23:08Z</time>
      </trkpt>
      <trkpt lat="48.64194" lon="7.30426">
        <ele>475.51</ele>
        <time>2013-04-14T09:23:09Z</time>
      </trkpt>
      <trkpt lat="48.64194" lon="7.3044">
        <ele>475.03</ele>
        <time>2013-04-14T09:23:10Z</time>
      </trkpt>
      <trkpt lat="48.64182" lon="7.30509">
        <ele>472.63</ele>
        <time>2013-04-14T09:23:15Z</time>
      </trkpt>
      <trkpt lat="48.64167" lon="7.30568">
        <ele>471.18</ele>
        <time>2013-04-14T09:23:20Z</time>
      </trkpt>
      <trkpt lat="48.64167" lon="7.30574">
        <ele>471.18</ele>
        <time>2013-04-14T09:23:21Z</time>
      </trkpt>
      <trkpt lat="48.64169" lon="7.30578">
        <ele>471.18</ele>
        <time>2013-04-14T09:23:22Z</time>
      </trkpt>
      <trkpt lat="48.64173" lon="7.30578">
        <ele>470.7</ele>
        <time>2013-04-14T09:23:23Z</time>
      </trkpt>
      <trkpt lat="48.64177" lon="7.30577">
        <ele>470.7</ele>
        <time>2013-04-14T09:23:24Z</time>
      </trkpt>
      <trkpt lat="48.64226" lon="7.30582">
        <ele>468.78</ele>
        <time>2013-04-14T09:23:36Z</time>
      </trkpt>
      <trkpt lat="48.64228" lon="7.30581">
        <ele>469.26</ele>
        <time>2013-04-14T09:23:37Z</time>
      </trkpt>
    </trkseg>
  </trk>
</gpx>